<?xml version="1.0" encoding="UTF-8" standalone="no" ?>
<gpx xmlns="http://www.topografix.com/GPX/1/1" xmlns:xsi="http://www.w3.org/2001/XMLSchema-instance" xsi:schemaLocation="http://www.topografix.com/GPX/1/1 http://www.topografix.com/GPX/1/1/gpx.xsd" version="1.1" creator="VisuGPX - https://www.visugpx.com">
  <metadata>
    <name>La Rhune depuis le chemin des Carrières à Ascain</name>
    <desc><![CDATA[La Rhune depuis le chemin des Carrières à Ascain (Très caillouteux mais très belle vue de San Sébastian aux côtes des Landes).]]></desc>
  </metadata>
  <trk>
    <name><![CDATA[La Rhune depuis le chemin des Carrières à Ascain_1]]></name>
    <trkseg>
      <trkpt lat="43.33406" lon="-1.62364">
        <ele>123</ele>
        <time>2017-10-07T12:42:30Z</time>
      </trkpt>
      <trkpt lat="43.33405" lon="-1.62356">
        <ele>123</ele>
        <time>2017-10-07T12:42:30Z</time>
      </trkpt>
      <trkpt lat="43.33399" lon="-1.62358">
        <ele>123</ele>
        <time>2017-10-07T12:42:30Z</time>
      </trkpt>
      <trkpt lat="43.33398" lon="-1.62361">
        <ele>123</ele>
        <time>2017-10-07T12:42:31Z</time>
      </trkpt>
      <trkpt lat="43.33393" lon="-1.62365">
        <ele>123</ele>
        <time>2017-10-07T12:42:31Z</time>
      </trkpt>
      <trkpt lat="43.33389" lon="-1.62364">
        <ele>123</ele>
        <time>2017-10-07T12:42:50Z</time>
      </trkpt>
      <trkpt lat="43.33385" lon="-1.62364">
        <ele>123</ele>
        <time>2017-10-07T12:42:50Z</time>
      </trkpt>
      <trkpt lat="43.33383" lon="-1.62363">
        <ele>123</ele>
        <time>2017-10-07T12:42:50Z</time>
      </trkpt>
      <trkpt lat="43.3338" lon="-1.62363">
        <ele>123</ele>
        <time>2017-10-07T12:42:50Z</time>
      </trkpt>
      <trkpt lat="43.33374" lon="-1.62357">
        <ele>140</ele>
        <time>2017-10-07T12:42:50Z</time>
      </trkpt>
      <trkpt lat="43.33365" lon="-1.6235">
        <ele>140</ele>
        <time>2017-10-07T12:43:14Z</time>
      </trkpt>
      <trkpt lat="43.33363" lon="-1.62353">
        <ele>140</ele>
        <time>2017-10-07T12:43:14Z</time>
      </trkpt>
      <trkpt lat="43.33362" lon="-1.62354">
        <ele>140</ele>
        <time>2017-10-07T12:43:14Z</time>
      </trkpt>
      <trkpt lat="43.3336" lon="-1.62353">
        <ele>140</ele>
        <time>2017-10-07T12:43:14Z</time>
      </trkpt>
      <trkpt lat="43.33359" lon="-1.62353">
        <ele>140</ele>
        <time>2017-10-07T12:43:14Z</time>
      </trkpt>
      <trkpt lat="43.33359" lon="-1.62353">
        <ele>140</ele>
        <time>2017-10-07T12:43:42Z</time>
      </trkpt>
      <trkpt lat="43.33358" lon="-1.62352">
        <ele>140</ele>
        <time>2017-10-07T12:43:42Z</time>
      </trkpt>
      <trkpt lat="43.33356" lon="-1.62351">
        <ele>140</ele>
        <time>2017-10-07T12:43:42Z</time>
      </trkpt>
      <trkpt lat="43.33356" lon="-1.62348">
        <ele>140</ele>
        <time>2017-10-07T12:43:42Z</time>
      </trkpt>
      <trkpt lat="43.33353" lon="-1.62344">
        <ele>140</ele>
        <time>2017-10-07T12:43:42Z</time>
      </trkpt>
      <trkpt lat="43.33349" lon="-1.62338">
        <ele>140</ele>
        <time>2017-10-07T12:43:58Z</time>
      </trkpt>
      <trkpt lat="43.33346" lon="-1.62334">
        <ele>140</ele>
        <time>2017-10-07T12:43:58Z</time>
      </trkpt>
      <trkpt lat="43.33344" lon="-1.62329">
        <ele>140</ele>
        <time>2017-10-07T12:43:58Z</time>
      </trkpt>
      <trkpt lat="43.33343" lon="-1.62323">
        <ele>140</ele>
        <time>2017-10-07T12:43:58Z</time>
      </trkpt>
      <trkpt lat="43.33342" lon="-1.62319">
        <ele>140</ele>
        <time>2017-10-07T12:44:22Z</time>
      </trkpt>
      <trkpt lat="43.33342" lon="-1.62319">
        <ele>140</ele>
        <time>2017-10-07T12:44:23Z</time>
      </trkpt>
      <trkpt lat="43.33339" lon="-1.62317">
        <ele>140</ele>
        <time>2017-10-07T12:44:23Z</time>
      </trkpt>
      <trkpt lat="43.33335" lon="-1.62315">
        <ele>140</ele>
        <time>2017-10-07T12:44:23Z</time>
      </trkpt>
      <trkpt lat="43.33331" lon="-1.62312">
        <ele>140</ele>
        <time>2017-10-07T12:44:23Z</time>
      </trkpt>
      <trkpt lat="43.33328" lon="-1.62311">
        <ele>140</ele>
        <time>2017-10-07T12:44:38Z</time>
      </trkpt>
      <trkpt lat="43.33325" lon="-1.62308">
        <ele>140</ele>
        <time>2017-10-07T12:44:38Z</time>
      </trkpt>
      <trkpt lat="43.33322" lon="-1.62301">
        <ele>140</ele>
        <time>2017-10-07T12:44:38Z</time>
      </trkpt>
      <trkpt lat="43.33319" lon="-1.62298">
        <ele>140</ele>
        <time>2017-10-07T12:44:38Z</time>
      </trkpt>
      <trkpt lat="43.33316" lon="-1.62296">
        <ele>140</ele>
        <time>2017-10-07T12:44:54Z</time>
      </trkpt>
      <trkpt lat="43.33311" lon="-1.62295">
        <ele>140</ele>
        <time>2017-10-07T12:44:54Z</time>
      </trkpt>
      <trkpt lat="43.33306" lon="-1.62294">
        <ele>140</ele>
        <time>2017-10-07T12:44:54Z</time>
      </trkpt>
      <trkpt lat="43.33302" lon="-1.62292">
        <ele>140</ele>
        <time>2017-10-07T12:44:54Z</time>
      </trkpt>
      <trkpt lat="43.33298" lon="-1.62291">
        <ele>130</ele>
        <time>2017-10-07T12:45:10Z</time>
      </trkpt>
      <trkpt lat="43.33295" lon="-1.6229">
        <ele>130</ele>
        <time>2017-10-07T12:45:10Z</time>
      </trkpt>
      <trkpt lat="43.33293" lon="-1.62291">
        <ele>130</ele>
        <time>2017-10-07T12:45:10Z</time>
      </trkpt>
      <trkpt lat="43.33289" lon="-1.6229">
        <ele>142</ele>
        <time>2017-10-07T12:45:10Z</time>
      </trkpt>
      <trkpt lat="43.33287" lon="-1.6229">
        <ele>142</ele>
        <time>2017-10-07T12:45:30Z</time>
      </trkpt>
      <trkpt lat="43.33287" lon="-1.6229">
        <ele>142</ele>
        <time>2017-10-07T12:45:30Z</time>
      </trkpt>
      <trkpt lat="43.33284" lon="-1.62291">
        <ele>142</ele>
        <time>2017-10-07T12:45:30Z</time>
      </trkpt>
      <trkpt lat="43.33284" lon="-1.62291">
        <ele>142</ele>
        <time>2017-10-07T12:45:30Z</time>
      </trkpt>
      <trkpt lat="43.33276" lon="-1.62288">
        <ele>142</ele>
        <time>2017-10-07T12:45:30Z</time>
      </trkpt>
      <trkpt lat="43.33267" lon="-1.62289">
        <ele>142</ele>
        <time>2017-10-07T12:46:30Z</time>
      </trkpt>
      <trkpt lat="43.33266" lon="-1.62292">
        <ele>156</ele>
        <time>2017-10-07T12:46:30Z</time>
      </trkpt>
      <trkpt lat="43.33266" lon="-1.62297">
        <ele>156</ele>
        <time>2017-10-07T12:46:30Z</time>
      </trkpt>
      <trkpt lat="43.33266" lon="-1.62297">
        <ele>156</ele>
        <time>2017-10-07T12:46:30Z</time>
      </trkpt>
      <trkpt lat="43.3327" lon="-1.62304">
        <ele>156</ele>
        <time>2017-10-07T12:46:31Z</time>
      </trkpt>
      <trkpt lat="43.33272" lon="-1.62305">
        <ele>156</ele>
        <time>2017-10-07T12:46:46Z</time>
      </trkpt>
      <trkpt lat="43.33274" lon="-1.62306">
        <ele>156</ele>
        <time>2017-10-07T12:46:46Z</time>
      </trkpt>
      <trkpt lat="43.33278" lon="-1.62309">
        <ele>156</ele>
        <time>2017-10-07T12:46:46Z</time>
      </trkpt>
      <trkpt lat="43.33281" lon="-1.6231">
        <ele>156</ele>
        <time>2017-10-07T12:46:46Z</time>
      </trkpt>
      <trkpt lat="43.33283" lon="-1.62313">
        <ele>156</ele>
        <time>2017-10-07T12:47:02Z</time>
      </trkpt>
      <trkpt lat="43.33285" lon="-1.62316">
        <ele>156</ele>
        <time>2017-10-07T12:47:02Z</time>
      </trkpt>
      <trkpt lat="43.33288" lon="-1.62318">
        <ele>156</ele>
        <time>2017-10-07T12:47:02Z</time>
      </trkpt>
      <trkpt lat="43.3329" lon="-1.62321">
        <ele>156</ele>
        <time>2017-10-07T12:47:02Z</time>
      </trkpt>
      <trkpt lat="43.33291" lon="-1.62326">
        <ele>156</ele>
        <time>2017-10-07T12:47:18Z</time>
      </trkpt>
      <trkpt lat="43.33293" lon="-1.62331">
        <ele>140</ele>
        <time>2017-10-07T12:47:18Z</time>
      </trkpt>
      <trkpt lat="43.33294" lon="-1.62337">
        <ele>140</ele>
        <time>2017-10-07T12:47:18Z</time>
      </trkpt>
      <trkpt lat="43.33298" lon="-1.62346">
        <ele>140</ele>
        <time>2017-10-07T12:47:18Z</time>
      </trkpt>
      <trkpt lat="43.33299" lon="-1.62349">
        <ele>140</ele>
        <time>2017-10-07T12:47:34Z</time>
      </trkpt>
      <trkpt lat="43.33301" lon="-1.6236">
        <ele>140</ele>
        <time>2017-10-07T12:47:34Z</time>
      </trkpt>
      <trkpt lat="43.33304" lon="-1.62366">
        <ele>140</ele>
        <time>2017-10-07T12:47:34Z</time>
      </trkpt>
      <trkpt lat="43.33306" lon="-1.62372">
        <ele>140</ele>
        <time>2017-10-07T12:47:34Z</time>
      </trkpt>
      <trkpt lat="43.3331" lon="-1.62376">
        <ele>153</ele>
        <time>2017-10-07T12:47:50Z</time>
      </trkpt>
      <trkpt lat="43.33312" lon="-1.6238">
        <ele>153</ele>
        <time>2017-10-07T12:47:50Z</time>
      </trkpt>
      <trkpt lat="43.33315" lon="-1.62386">
        <ele>153</ele>
        <time>2017-10-07T12:47:50Z</time>
      </trkpt>
      <trkpt lat="43.33316" lon="-1.62389">
        <ele>153</ele>
        <time>2017-10-07T12:47:50Z</time>
      </trkpt>
      <trkpt lat="43.33317" lon="-1.62393">
        <ele>153</ele>
        <time>2017-10-07T12:48:06Z</time>
      </trkpt>
      <trkpt lat="43.3332" lon="-1.62399">
        <ele>153</ele>
        <time>2017-10-07T12:48:06Z</time>
      </trkpt>
      <trkpt lat="43.33323" lon="-1.62405">
        <ele>153</ele>
        <time>2017-10-07T12:48:06Z</time>
      </trkpt>
      <trkpt lat="43.33327" lon="-1.6241">
        <ele>153</ele>
        <time>2017-10-07T12:48:06Z</time>
      </trkpt>
      <trkpt lat="43.33331" lon="-1.62415">
        <ele>153</ele>
        <time>2017-10-07T12:48:22Z</time>
      </trkpt>
      <trkpt lat="43.33335" lon="-1.62421">
        <ele>153</ele>
        <time>2017-10-07T12:48:22Z</time>
      </trkpt>
      <trkpt lat="43.33339" lon="-1.62424">
        <ele>153</ele>
        <time>2017-10-07T12:48:22Z</time>
      </trkpt>
      <trkpt lat="43.3334" lon="-1.62426">
        <ele>153</ele>
        <time>2017-10-07T12:48:22Z</time>
      </trkpt>
      <trkpt lat="43.33342" lon="-1.62429">
        <ele>153</ele>
        <time>2017-10-07T12:48:38Z</time>
      </trkpt>
      <trkpt lat="43.33345" lon="-1.62437">
        <ele>153</ele>
        <time>2017-10-07T12:48:38Z</time>
      </trkpt>
      <trkpt lat="43.33349" lon="-1.62442">
        <ele>153</ele>
        <time>2017-10-07T12:48:38Z</time>
      </trkpt>
      <trkpt lat="43.33351" lon="-1.62445">
        <ele>153</ele>
        <time>2017-10-07T12:48:38Z</time>
      </trkpt>
      <trkpt lat="43.33351" lon="-1.62446">
        <ele>153</ele>
        <time>2017-10-07T12:48:54Z</time>
      </trkpt>
      <trkpt lat="43.33351" lon="-1.62446">
        <ele>153</ele>
        <time>2017-10-07T12:48:55Z</time>
      </trkpt>
      <trkpt lat="43.33353" lon="-1.62451">
        <ele>153</ele>
        <time>2017-10-07T12:48:55Z</time>
      </trkpt>
      <trkpt lat="43.33358" lon="-1.62456">
        <ele>153</ele>
        <time>2017-10-07T12:48:55Z</time>
      </trkpt>
      <trkpt lat="43.3336" lon="-1.62463">
        <ele>160</ele>
        <time>2017-10-07T12:49:10Z</time>
      </trkpt>
      <trkpt lat="43.33358" lon="-1.62471">
        <ele>160</ele>
        <time>2017-10-07T12:49:10Z</time>
      </trkpt>
      <trkpt lat="43.33359" lon="-1.62477">
        <ele>160</ele>
        <time>2017-10-07T12:49:10Z</time>
      </trkpt>
      <trkpt lat="43.33358" lon="-1.62485">
        <ele>160</ele>
        <time>2017-10-07T12:49:10Z</time>
      </trkpt>
      <trkpt lat="43.33358" lon="-1.62493">
        <ele>160</ele>
        <time>2017-10-07T12:49:43Z</time>
      </trkpt>
      <trkpt lat="43.33357" lon="-1.625">
        <ele>160</ele>
        <time>2017-10-07T12:49:43Z</time>
      </trkpt>
      <trkpt lat="43.33357" lon="-1.62501">
        <ele>160</ele>
        <time>2017-10-07T12:49:43Z</time>
      </trkpt>
      <trkpt lat="43.33357" lon="-1.62501">
        <ele>160</ele>
        <time>2017-10-07T12:49:43Z</time>
      </trkpt>
      <trkpt lat="43.33356" lon="-1.62509">
        <ele>160</ele>
        <time>2017-10-07T12:49:43Z</time>
      </trkpt>
      <trkpt lat="43.33357" lon="-1.62515">
        <ele>160</ele>
        <time>2017-10-07T12:49:58Z</time>
      </trkpt>
      <trkpt lat="43.33354" lon="-1.6252">
        <ele>160</ele>
        <time>2017-10-07T12:49:59Z</time>
      </trkpt>
      <trkpt lat="43.33353" lon="-1.62527">
        <ele>160</ele>
        <time>2017-10-07T12:49:59Z</time>
      </trkpt>
      <trkpt lat="43.33353" lon="-1.62531">
        <ele>160</ele>
        <time>2017-10-07T12:49:59Z</time>
      </trkpt>
      <trkpt lat="43.33351" lon="-1.62536">
        <ele>160</ele>
        <time>2017-10-07T12:50:14Z</time>
      </trkpt>
      <trkpt lat="43.33349" lon="-1.62545">
        <ele>160</ele>
        <time>2017-10-07T12:50:14Z</time>
      </trkpt>
      <trkpt lat="43.33347" lon="-1.62552">
        <ele>160</ele>
        <time>2017-10-07T12:50:14Z</time>
      </trkpt>
      <trkpt lat="43.33347" lon="-1.6256">
        <ele>160</ele>
        <time>2017-10-07T12:50:14Z</time>
      </trkpt>
      <trkpt lat="43.33347" lon="-1.62562">
        <ele>160</ele>
        <time>2017-10-07T12:50:38Z</time>
      </trkpt>
      <trkpt lat="43.33347" lon="-1.62563">
        <ele>160</ele>
        <time>2017-10-07T12:50:38Z</time>
      </trkpt>
      <trkpt lat="43.33346" lon="-1.62563">
        <ele>160</ele>
        <time>2017-10-07T12:50:38Z</time>
      </trkpt>
      <trkpt lat="43.33344" lon="-1.6256">
        <ele>160</ele>
        <time>2017-10-07T12:50:38Z</time>
      </trkpt>
      <trkpt lat="43.33338" lon="-1.62555">
        <ele>160</ele>
        <time>2017-10-07T12:50:38Z</time>
      </trkpt>
      <trkpt lat="43.33334" lon="-1.62551">
        <ele>160</ele>
        <time>2017-10-07T12:50:54Z</time>
      </trkpt>
      <trkpt lat="43.33329" lon="-1.62548">
        <ele>160</ele>
        <time>2017-10-07T12:50:54Z</time>
      </trkpt>
      <trkpt lat="43.33326" lon="-1.62548">
        <ele>160</ele>
        <time>2017-10-07T12:50:54Z</time>
      </trkpt>
      <trkpt lat="43.33322" lon="-1.62549">
        <ele>160</ele>
        <time>2017-10-07T12:50:54Z</time>
      </trkpt>
      <trkpt lat="43.3332" lon="-1.62552">
        <ele>160</ele>
        <time>2017-10-07T12:51:10Z</time>
      </trkpt>
      <trkpt lat="43.33315" lon="-1.62554">
        <ele>160</ele>
        <time>2017-10-07T12:51:10Z</time>
      </trkpt>
      <trkpt lat="43.33309" lon="-1.62551">
        <ele>160</ele>
        <time>2017-10-07T12:51:10Z</time>
      </trkpt>
      <trkpt lat="43.33308" lon="-1.62549">
        <ele>160</ele>
        <time>2017-10-07T12:51:10Z</time>
      </trkpt>
      <trkpt lat="43.33309" lon="-1.62549">
        <ele>160</ele>
        <time>2017-10-07T12:51:26Z</time>
      </trkpt>
      <trkpt lat="43.33309" lon="-1.62551">
        <ele>160</ele>
        <time>2017-10-07T12:51:26Z</time>
      </trkpt>
      <trkpt lat="43.33307" lon="-1.62545">
        <ele>160</ele>
        <time>2017-10-07T12:51:26Z</time>
      </trkpt>
      <trkpt lat="43.33303" lon="-1.62538">
        <ele>160</ele>
        <time>2017-10-07T12:51:26Z</time>
      </trkpt>
      <trkpt lat="43.33302" lon="-1.62532">
        <ele>160</ele>
        <time>2017-10-07T12:51:42Z</time>
      </trkpt>
      <trkpt lat="43.333" lon="-1.62524">
        <ele>160</ele>
        <time>2017-10-07T12:51:42Z</time>
      </trkpt>
      <trkpt lat="43.33301" lon="-1.62516">
        <ele>160</ele>
        <time>2017-10-07T12:51:42Z</time>
      </trkpt>
      <trkpt lat="43.33304" lon="-1.62511">
        <ele>160</ele>
        <time>2017-10-07T12:51:42Z</time>
      </trkpt>
      <trkpt lat="43.33308" lon="-1.62509">
        <ele>160</ele>
        <time>2017-10-07T12:51:58Z</time>
      </trkpt>
      <trkpt lat="43.33313" lon="-1.62507">
        <ele>160</ele>
        <time>2017-10-07T12:51:58Z</time>
      </trkpt>
      <trkpt lat="43.33318" lon="-1.62506">
        <ele>160</ele>
        <time>2017-10-07T12:51:58Z</time>
      </trkpt>
      <trkpt lat="43.33324" lon="-1.62506">
        <ele>160</ele>
        <time>2017-10-07T12:51:58Z</time>
      </trkpt>
      <trkpt lat="43.33327" lon="-1.62506">
        <ele>160</ele>
        <time>2017-10-07T12:52:14Z</time>
      </trkpt>
      <trkpt lat="43.33329" lon="-1.62504">
        <ele>160</ele>
        <time>2017-10-07T12:52:14Z</time>
      </trkpt>
      <trkpt lat="43.33336" lon="-1.62501">
        <ele>160</ele>
        <time>2017-10-07T12:52:14Z</time>
      </trkpt>
      <trkpt lat="43.33339" lon="-1.62497">
        <ele>160</ele>
        <time>2017-10-07T12:52:14Z</time>
      </trkpt>
      <trkpt lat="43.3334" lon="-1.62499">
        <ele>160</ele>
        <time>2017-10-07T12:52:30Z</time>
      </trkpt>
      <trkpt lat="43.33344" lon="-1.62499">
        <ele>160</ele>
        <time>2017-10-07T12:52:30Z</time>
      </trkpt>
      <trkpt lat="43.33353" lon="-1.62494">
        <ele>160</ele>
        <time>2017-10-07T12:52:30Z</time>
      </trkpt>
      <trkpt lat="43.33357" lon="-1.62491">
        <ele>160</ele>
        <time>2017-10-07T12:52:30Z</time>
      </trkpt>
      <trkpt lat="43.33358" lon="-1.62483">
        <ele>160</ele>
        <time>2017-10-07T12:52:46Z</time>
      </trkpt>
      <trkpt lat="43.33357" lon="-1.62476">
        <ele>160</ele>
        <time>2017-10-07T12:52:46Z</time>
      </trkpt>
      <trkpt lat="43.33354" lon="-1.62472">
        <ele>160</ele>
        <time>2017-10-07T12:52:46Z</time>
      </trkpt>
      <trkpt lat="43.33353" lon="-1.62466">
        <ele>160</ele>
        <time>2017-10-07T12:52:46Z</time>
      </trkpt>
      <trkpt lat="43.33349" lon="-1.62462">
        <ele>160</ele>
        <time>2017-10-07T12:53:02Z</time>
      </trkpt>
      <trkpt lat="43.33347" lon="-1.62455">
        <ele>153</ele>
        <time>2017-10-07T12:53:02Z</time>
      </trkpt>
      <trkpt lat="43.33348" lon="-1.62447">
        <ele>153</ele>
        <time>2017-10-07T12:53:02Z</time>
      </trkpt>
      <trkpt lat="43.33348" lon="-1.62447">
        <ele>153</ele>
        <time>2017-10-07T12:53:02Z</time>
      </trkpt>
      <trkpt lat="43.33347" lon="-1.62447">
        <ele>153</ele>
        <time>2017-10-07T12:53:34Z</time>
      </trkpt>
      <trkpt lat="43.33345" lon="-1.62453">
        <ele>153</ele>
        <time>2017-10-07T12:53:34Z</time>
      </trkpt>
      <trkpt lat="43.33342" lon="-1.62457">
        <ele>153</ele>
        <time>2017-10-07T12:53:34Z</time>
      </trkpt>
      <trkpt lat="43.33338" lon="-1.62459">
        <ele>160</ele>
        <time>2017-10-07T12:53:34Z</time>
      </trkpt>
      <trkpt lat="43.33334" lon="-1.6246">
        <ele>160</ele>
        <time>2017-10-07T12:53:35Z</time>
      </trkpt>
      <trkpt lat="43.33329" lon="-1.62461">
        <ele>160</ele>
        <time>2017-10-07T12:53:50Z</time>
      </trkpt>
      <trkpt lat="43.33325" lon="-1.62462">
        <ele>160</ele>
        <time>2017-10-07T12:53:50Z</time>
      </trkpt>
      <trkpt lat="43.33322" lon="-1.62462">
        <ele>160</ele>
        <time>2017-10-07T12:53:50Z</time>
      </trkpt>
      <trkpt lat="43.33318" lon="-1.62462">
        <ele>160</ele>
        <time>2017-10-07T12:53:50Z</time>
      </trkpt>
      <trkpt lat="43.33315" lon="-1.62463">
        <ele>160</ele>
        <time>2017-10-07T12:54:06Z</time>
      </trkpt>
      <trkpt lat="43.33313" lon="-1.62464">
        <ele>160</ele>
        <time>2017-10-07T12:54:06Z</time>
      </trkpt>
      <trkpt lat="43.33309" lon="-1.62465">
        <ele>160</ele>
        <time>2017-10-07T12:54:06Z</time>
      </trkpt>
      <trkpt lat="43.33306" lon="-1.62468">
        <ele>160</ele>
        <time>2017-10-07T12:54:06Z</time>
      </trkpt>
      <trkpt lat="43.33303" lon="-1.6247">
        <ele>160</ele>
        <time>2017-10-07T12:54:22Z</time>
      </trkpt>
      <trkpt lat="43.333" lon="-1.62472">
        <ele>160</ele>
        <time>2017-10-07T12:54:22Z</time>
      </trkpt>
      <trkpt lat="43.33297" lon="-1.62472">
        <ele>160</ele>
        <time>2017-10-07T12:54:22Z</time>
      </trkpt>
      <trkpt lat="43.33293" lon="-1.62475">
        <ele>160</ele>
        <time>2017-10-07T12:54:22Z</time>
      </trkpt>
      <trkpt lat="43.3329" lon="-1.62475">
        <ele>176</ele>
        <time>2017-10-07T12:54:42Z</time>
      </trkpt>
      <trkpt lat="43.33289" lon="-1.62477">
        <ele>176</ele>
        <time>2017-10-07T12:54:42Z</time>
      </trkpt>
      <trkpt lat="43.33286" lon="-1.62479">
        <ele>176</ele>
        <time>2017-10-07T12:54:42Z</time>
      </trkpt>
      <trkpt lat="43.33284" lon="-1.62482">
        <ele>176</ele>
        <time>2017-10-07T12:54:42Z</time>
      </trkpt>
      <trkpt lat="43.33279" lon="-1.62481">
        <ele>176</ele>
        <time>2017-10-07T12:54:43Z</time>
      </trkpt>
      <trkpt lat="43.33276" lon="-1.62485">
        <ele>176</ele>
        <time>2017-10-07T12:54:58Z</time>
      </trkpt>
      <trkpt lat="43.33274" lon="-1.62487">
        <ele>176</ele>
        <time>2017-10-07T12:54:59Z</time>
      </trkpt>
      <trkpt lat="43.33272" lon="-1.62489">
        <ele>176</ele>
        <time>2017-10-07T12:54:59Z</time>
      </trkpt>
      <trkpt lat="43.33268" lon="-1.62492">
        <ele>176</ele>
        <time>2017-10-07T12:54:59Z</time>
      </trkpt>
      <trkpt lat="43.33264" lon="-1.62494">
        <ele>176</ele>
        <time>2017-10-07T12:55:14Z</time>
      </trkpt>
      <trkpt lat="43.33262" lon="-1.62495">
        <ele>176</ele>
        <time>2017-10-07T12:55:14Z</time>
      </trkpt>
      <trkpt lat="43.33261" lon="-1.625">
        <ele>176</ele>
        <time>2017-10-07T12:55:14Z</time>
      </trkpt>
      <trkpt lat="43.33258" lon="-1.62503">
        <ele>176</ele>
        <time>2017-10-07T12:55:14Z</time>
      </trkpt>
      <trkpt lat="43.33254" lon="-1.62506">
        <ele>176</ele>
        <time>2017-10-07T12:55:30Z</time>
      </trkpt>
      <trkpt lat="43.33252" lon="-1.62509">
        <ele>176</ele>
        <time>2017-10-07T12:55:30Z</time>
      </trkpt>
      <trkpt lat="43.33248" lon="-1.62509">
        <ele>176</ele>
        <time>2017-10-07T12:55:30Z</time>
      </trkpt>
      <trkpt lat="43.33244" lon="-1.62512">
        <ele>176</ele>
        <time>2017-10-07T12:55:30Z</time>
      </trkpt>
      <trkpt lat="43.33242" lon="-1.62518">
        <ele>176</ele>
        <time>2017-10-07T12:55:46Z</time>
      </trkpt>
      <trkpt lat="43.33239" lon="-1.62522">
        <ele>176</ele>
        <time>2017-10-07T12:55:46Z</time>
      </trkpt>
      <trkpt lat="43.33236" lon="-1.62524">
        <ele>176</ele>
        <time>2017-10-07T12:55:46Z</time>
      </trkpt>
      <trkpt lat="43.33232" lon="-1.62527">
        <ele>176</ele>
        <time>2017-10-07T12:55:46Z</time>
      </trkpt>
      <trkpt lat="43.3323" lon="-1.62528">
        <ele>176</ele>
        <time>2017-10-07T12:56:06Z</time>
      </trkpt>
      <trkpt lat="43.33229" lon="-1.62527">
        <ele>176</ele>
        <time>2017-10-07T12:56:06Z</time>
      </trkpt>
      <trkpt lat="43.33227" lon="-1.62528">
        <ele>176</ele>
        <time>2017-10-07T12:56:06Z</time>
      </trkpt>
      <trkpt lat="43.33224" lon="-1.62529">
        <ele>176</ele>
        <time>2017-10-07T12:56:06Z</time>
      </trkpt>
      <trkpt lat="43.3322" lon="-1.6253">
        <ele>176</ele>
        <time>2017-10-07T12:56:06Z</time>
      </trkpt>
      <trkpt lat="43.33217" lon="-1.6253">
        <ele>176</ele>
        <time>2017-10-07T12:56:26Z</time>
      </trkpt>
      <trkpt lat="43.33216" lon="-1.62527">
        <ele>176</ele>
        <time>2017-10-07T12:56:26Z</time>
      </trkpt>
      <trkpt lat="43.33215" lon="-1.62527">
        <ele>176</ele>
        <time>2017-10-07T12:56:26Z</time>
      </trkpt>
      <trkpt lat="43.33212" lon="-1.62527">
        <ele>176</ele>
        <time>2017-10-07T12:56:26Z</time>
      </trkpt>
      <trkpt lat="43.33211" lon="-1.62521">
        <ele>176</ele>
        <time>2017-10-07T12:56:26Z</time>
      </trkpt>
      <trkpt lat="43.33212" lon="-1.62514">
        <ele>176</ele>
        <time>2017-10-07T12:56:42Z</time>
      </trkpt>
      <trkpt lat="43.33212" lon="-1.62509">
        <ele>176</ele>
        <time>2017-10-07T12:56:42Z</time>
      </trkpt>
      <trkpt lat="43.33213" lon="-1.62504">
        <ele>176</ele>
        <time>2017-10-07T12:56:42Z</time>
      </trkpt>
      <trkpt lat="43.33212" lon="-1.62499">
        <ele>176</ele>
        <time>2017-10-07T12:56:42Z</time>
      </trkpt>
      <trkpt lat="43.33215" lon="-1.62501">
        <ele>176</ele>
        <time>2017-10-07T12:58:02Z</time>
      </trkpt>
      <trkpt lat="43.33215" lon="-1.62498">
        <ele>176</ele>
        <time>2017-10-07T12:58:02Z</time>
      </trkpt>
      <trkpt lat="43.33217" lon="-1.62493">
        <ele>176</ele>
        <time>2017-10-07T12:58:02Z</time>
      </trkpt>
      <trkpt lat="43.33217" lon="-1.62487">
        <ele>176</ele>
        <time>2017-10-07T12:58:02Z</time>
      </trkpt>
      <trkpt lat="43.33219" lon="-1.62482">
        <ele>176</ele>
        <time>2017-10-07T12:58:02Z</time>
      </trkpt>
      <trkpt lat="43.33221" lon="-1.62478">
        <ele>176</ele>
        <time>2017-10-07T12:58:18Z</time>
      </trkpt>
      <trkpt lat="43.33222" lon="-1.62473">
        <ele>176</ele>
        <time>2017-10-07T12:58:18Z</time>
      </trkpt>
      <trkpt lat="43.33221" lon="-1.62468">
        <ele>176</ele>
        <time>2017-10-07T12:58:18Z</time>
      </trkpt>
      <trkpt lat="43.33219" lon="-1.62464">
        <ele>176</ele>
        <time>2017-10-07T12:58:18Z</time>
      </trkpt>
      <trkpt lat="43.33218" lon="-1.6246">
        <ele>176</ele>
        <time>2017-10-07T12:58:34Z</time>
      </trkpt>
      <trkpt lat="43.33216" lon="-1.62456">
        <ele>175</ele>
        <time>2017-10-07T12:58:34Z</time>
      </trkpt>
      <trkpt lat="43.33214" lon="-1.62453">
        <ele>175</ele>
        <time>2017-10-07T12:58:34Z</time>
      </trkpt>
      <trkpt lat="43.33211" lon="-1.6245">
        <ele>175</ele>
        <time>2017-10-07T12:58:34Z</time>
      </trkpt>
      <trkpt lat="43.33209" lon="-1.62449">
        <ele>175</ele>
        <time>2017-10-07T12:58:50Z</time>
      </trkpt>
      <trkpt lat="43.33205" lon="-1.62448">
        <ele>201</ele>
        <time>2017-10-07T12:58:50Z</time>
      </trkpt>
      <trkpt lat="43.33203" lon="-1.62449">
        <ele>201</ele>
        <time>2017-10-07T12:58:50Z</time>
      </trkpt>
      <trkpt lat="43.33199" lon="-1.62447">
        <ele>201</ele>
        <time>2017-10-07T12:58:50Z</time>
      </trkpt>
      <trkpt lat="43.33197" lon="-1.62447">
        <ele>201</ele>
        <time>2017-10-07T12:59:10Z</time>
      </trkpt>
      <trkpt lat="43.33193" lon="-1.62447">
        <ele>201</ele>
        <time>2017-10-07T12:59:10Z</time>
      </trkpt>
      <trkpt lat="43.33192" lon="-1.62446">
        <ele>201</ele>
        <time>2017-10-07T12:59:10Z</time>
      </trkpt>
      <trkpt lat="43.3319" lon="-1.62446">
        <ele>201</ele>
        <time>2017-10-07T12:59:11Z</time>
      </trkpt>
      <trkpt lat="43.33185" lon="-1.62446">
        <ele>201</ele>
        <time>2017-10-07T12:59:11Z</time>
      </trkpt>
      <trkpt lat="43.33182" lon="-1.62443">
        <ele>201</ele>
        <time>2017-10-07T12:59:26Z</time>
      </trkpt>
      <trkpt lat="43.3318" lon="-1.62441">
        <ele>201</ele>
        <time>2017-10-07T12:59:26Z</time>
      </trkpt>
      <trkpt lat="43.33176" lon="-1.62439">
        <ele>201</ele>
        <time>2017-10-07T12:59:26Z</time>
      </trkpt>
      <trkpt lat="43.33173" lon="-1.62436">
        <ele>201</ele>
        <time>2017-10-07T12:59:26Z</time>
      </trkpt>
      <trkpt lat="43.33172" lon="-1.62434">
        <ele>201</ele>
        <time>2017-10-07T12:59:46Z</time>
      </trkpt>
      <trkpt lat="43.33169" lon="-1.62432">
        <ele>201</ele>
        <time>2017-10-07T12:59:46Z</time>
      </trkpt>
      <trkpt lat="43.33166" lon="-1.62432">
        <ele>201</ele>
        <time>2017-10-07T12:59:46Z</time>
      </trkpt>
      <trkpt lat="43.33163" lon="-1.62433">
        <ele>201</ele>
        <time>2017-10-07T12:59:46Z</time>
      </trkpt>
      <trkpt lat="43.33161" lon="-1.62433">
        <ele>201</ele>
        <time>2017-10-07T12:59:47Z</time>
      </trkpt>
      <trkpt lat="43.33159" lon="-1.62433">
        <ele>201</ele>
        <time>2017-10-07T13:00:02Z</time>
      </trkpt>
      <trkpt lat="43.33155" lon="-1.62431">
        <ele>201</ele>
        <time>2017-10-07T13:00:02Z</time>
      </trkpt>
      <trkpt lat="43.33152" lon="-1.62433">
        <ele>201</ele>
        <time>2017-10-07T13:00:02Z</time>
      </trkpt>
      <trkpt lat="43.33149" lon="-1.62436">
        <ele>201</ele>
        <time>2017-10-07T13:00:02Z</time>
      </trkpt>
      <trkpt lat="43.33148" lon="-1.6244">
        <ele>201</ele>
        <time>2017-10-07T13:00:22Z</time>
      </trkpt>
      <trkpt lat="43.33146" lon="-1.62443">
        <ele>201</ele>
        <time>2017-10-07T13:00:22Z</time>
      </trkpt>
      <trkpt lat="43.33145" lon="-1.62446">
        <ele>201</ele>
        <time>2017-10-07T13:00:22Z</time>
      </trkpt>
      <trkpt lat="43.33144" lon="-1.6245">
        <ele>201</ele>
        <time>2017-10-07T13:00:22Z</time>
      </trkpt>
      <trkpt lat="43.33142" lon="-1.62454">
        <ele>201</ele>
        <time>2017-10-07T13:00:22Z</time>
      </trkpt>
      <trkpt lat="43.3314" lon="-1.62457">
        <ele>201</ele>
        <time>2017-10-07T13:00:38Z</time>
      </trkpt>
      <trkpt lat="43.33138" lon="-1.62461">
        <ele>204</ele>
        <time>2017-10-07T13:00:39Z</time>
      </trkpt>
      <trkpt lat="43.33137" lon="-1.62467">
        <ele>204</ele>
        <time>2017-10-07T13:00:39Z</time>
      </trkpt>
      <trkpt lat="43.33138" lon="-1.62471">
        <ele>204</ele>
        <time>2017-10-07T13:00:39Z</time>
      </trkpt>
      <trkpt lat="43.33137" lon="-1.62474">
        <ele>204</ele>
        <time>2017-10-07T13:00:54Z</time>
      </trkpt>
      <trkpt lat="43.33135" lon="-1.62477">
        <ele>204</ele>
        <time>2017-10-07T13:00:54Z</time>
      </trkpt>
      <trkpt lat="43.33132" lon="-1.62484">
        <ele>204</ele>
        <time>2017-10-07T13:00:54Z</time>
      </trkpt>
      <trkpt lat="43.33131" lon="-1.62488">
        <ele>204</ele>
        <time>2017-10-07T13:00:54Z</time>
      </trkpt>
      <trkpt lat="43.3313" lon="-1.62493">
        <ele>204</ele>
        <time>2017-10-07T13:01:18Z</time>
      </trkpt>
      <trkpt lat="43.33131" lon="-1.62495">
        <ele>204</ele>
        <time>2017-10-07T13:01:18Z</time>
      </trkpt>
      <trkpt lat="43.33131" lon="-1.62497">
        <ele>204</ele>
        <time>2017-10-07T13:01:19Z</time>
      </trkpt>
      <trkpt lat="43.33131" lon="-1.62501">
        <ele>204</ele>
        <time>2017-10-07T13:01:19Z</time>
      </trkpt>
      <trkpt lat="43.33132" lon="-1.62505">
        <ele>204</ele>
        <time>2017-10-07T13:01:19Z</time>
      </trkpt>
      <trkpt lat="43.3313" lon="-1.62514">
        <ele>204</ele>
        <time>2017-10-07T13:01:42Z</time>
      </trkpt>
      <trkpt lat="43.33131" lon="-1.62516">
        <ele>204</ele>
        <time>2017-10-07T13:01:42Z</time>
      </trkpt>
      <trkpt lat="43.3313" lon="-1.62517">
        <ele>204</ele>
        <time>2017-10-07T13:01:42Z</time>
      </trkpt>
      <trkpt lat="43.3313" lon="-1.6252">
        <ele>204</ele>
        <time>2017-10-07T13:01:42Z</time>
      </trkpt>
      <trkpt lat="43.33128" lon="-1.62524">
        <ele>204</ele>
        <time>2017-10-07T13:01:42Z</time>
      </trkpt>
      <trkpt lat="43.33128" lon="-1.62527">
        <ele>204</ele>
        <time>2017-10-07T13:02:02Z</time>
      </trkpt>
      <trkpt lat="43.33127" lon="-1.6253">
        <ele>204</ele>
        <time>2017-10-07T13:02:02Z</time>
      </trkpt>
      <trkpt lat="43.33127" lon="-1.62535">
        <ele>204</ele>
        <time>2017-10-07T13:02:02Z</time>
      </trkpt>
      <trkpt lat="43.33127" lon="-1.62539">
        <ele>204</ele>
        <time>2017-10-07T13:02:02Z</time>
      </trkpt>
      <trkpt lat="43.33126" lon="-1.6254">
        <ele>204</ele>
        <time>2017-10-07T13:02:03Z</time>
      </trkpt>
      <trkpt lat="43.33126" lon="-1.62543">
        <ele>208</ele>
        <time>2017-10-07T13:02:22Z</time>
      </trkpt>
      <trkpt lat="43.33125" lon="-1.62546">
        <ele>208</ele>
        <time>2017-10-07T13:02:22Z</time>
      </trkpt>
      <trkpt lat="43.33124" lon="-1.62551">
        <ele>250</ele>
        <time>2017-10-07T13:02:22Z</time>
      </trkpt>
      <trkpt lat="43.33122" lon="-1.62551">
        <ele>250</ele>
        <time>2017-10-07T13:02:22Z</time>
      </trkpt>
      <trkpt lat="43.33119" lon="-1.62551">
        <ele>250</ele>
        <time>2017-10-07T13:02:22Z</time>
      </trkpt>
      <trkpt lat="43.33117" lon="-1.62553">
        <ele>250</ele>
        <time>2017-10-07T13:02:42Z</time>
      </trkpt>
      <trkpt lat="43.33115" lon="-1.62556">
        <ele>250</ele>
        <time>2017-10-07T13:02:42Z</time>
      </trkpt>
      <trkpt lat="43.33112" lon="-1.62557">
        <ele>250</ele>
        <time>2017-10-07T13:02:42Z</time>
      </trkpt>
      <trkpt lat="43.3311" lon="-1.62559">
        <ele>250</ele>
        <time>2017-10-07T13:02:42Z</time>
      </trkpt>
      <trkpt lat="43.33107" lon="-1.62561">
        <ele>250</ele>
        <time>2017-10-07T13:02:42Z</time>
      </trkpt>
      <trkpt lat="43.33105" lon="-1.62566">
        <ele>250</ele>
        <time>2017-10-07T13:03:02Z</time>
      </trkpt>
      <trkpt lat="43.33104" lon="-1.6257">
        <ele>250</ele>
        <time>2017-10-07T13:03:02Z</time>
      </trkpt>
      <trkpt lat="43.33104" lon="-1.62573">
        <ele>250</ele>
        <time>2017-10-07T13:03:02Z</time>
      </trkpt>
      <trkpt lat="43.33104" lon="-1.62578">
        <ele>250</ele>
        <time>2017-10-07T13:03:02Z</time>
      </trkpt>
      <trkpt lat="43.33105" lon="-1.62582">
        <ele>250</ele>
        <time>2017-10-07T13:03:03Z</time>
      </trkpt>
      <trkpt lat="43.33107" lon="-1.62585">
        <ele>250</ele>
        <time>2017-10-07T13:03:18Z</time>
      </trkpt>
      <trkpt lat="43.33111" lon="-1.62587">
        <ele>250</ele>
        <time>2017-10-07T13:03:18Z</time>
      </trkpt>
      <trkpt lat="43.33113" lon="-1.62589">
        <ele>250</ele>
        <time>2017-10-07T13:03:18Z</time>
      </trkpt>
      <trkpt lat="43.33115" lon="-1.62592">
        <ele>250</ele>
        <time>2017-10-07T13:03:18Z</time>
      </trkpt>
      <trkpt lat="43.33117" lon="-1.62595">
        <ele>250</ele>
        <time>2017-10-07T13:03:38Z</time>
      </trkpt>
      <trkpt lat="43.33119" lon="-1.62596">
        <ele>250</ele>
        <time>2017-10-07T13:03:38Z</time>
      </trkpt>
      <trkpt lat="43.33121" lon="-1.62599">
        <ele>250</ele>
        <time>2017-10-07T13:03:38Z</time>
      </trkpt>
      <trkpt lat="43.33122" lon="-1.62603">
        <ele>250</ele>
        <time>2017-10-07T13:03:38Z</time>
      </trkpt>
      <trkpt lat="43.33121" lon="-1.62609">
        <ele>250</ele>
        <time>2017-10-07T13:03:38Z</time>
      </trkpt>
      <trkpt lat="43.33121" lon="-1.62615">
        <ele>250</ele>
        <time>2017-10-07T13:03:54Z</time>
      </trkpt>
      <trkpt lat="43.33121" lon="-1.62619">
        <ele>250</ele>
        <time>2017-10-07T13:03:54Z</time>
      </trkpt>
      <trkpt lat="43.33121" lon="-1.62624">
        <ele>250</ele>
        <time>2017-10-07T13:03:54Z</time>
      </trkpt>
      <trkpt lat="43.33121" lon="-1.62629">
        <ele>264</ele>
        <time>2017-10-07T13:03:54Z</time>
      </trkpt>
      <trkpt lat="43.33121" lon="-1.62633">
        <ele>264</ele>
        <time>2017-10-07T13:04:10Z</time>
      </trkpt>
      <trkpt lat="43.3312" lon="-1.62636">
        <ele>264</ele>
        <time>2017-10-07T13:04:10Z</time>
      </trkpt>
      <trkpt lat="43.33119" lon="-1.62643">
        <ele>264</ele>
        <time>2017-10-07T13:04:10Z</time>
      </trkpt>
      <trkpt lat="43.3312" lon="-1.62647">
        <ele>264</ele>
        <time>2017-10-07T13:04:10Z</time>
      </trkpt>
      <trkpt lat="43.3312" lon="-1.62652">
        <ele>264</ele>
        <time>2017-10-07T13:04:30Z</time>
      </trkpt>
      <trkpt lat="43.33121" lon="-1.62655">
        <ele>264</ele>
        <time>2017-10-07T13:04:30Z</time>
      </trkpt>
      <trkpt lat="43.33122" lon="-1.62659">
        <ele>264</ele>
        <time>2017-10-07T13:04:30Z</time>
      </trkpt>
      <trkpt lat="43.33123" lon="-1.62663">
        <ele>264</ele>
        <time>2017-10-07T13:04:30Z</time>
      </trkpt>
      <trkpt lat="43.33123" lon="-1.62667">
        <ele>264</ele>
        <time>2017-10-07T13:04:31Z</time>
      </trkpt>
      <trkpt lat="43.33124" lon="-1.62671">
        <ele>264</ele>
        <time>2017-10-07T13:04:54Z</time>
      </trkpt>
      <trkpt lat="43.33125" lon="-1.62675">
        <ele>264</ele>
        <time>2017-10-07T13:04:54Z</time>
      </trkpt>
      <trkpt lat="43.33124" lon="-1.62679">
        <ele>264</ele>
        <time>2017-10-07T13:04:54Z</time>
      </trkpt>
      <trkpt lat="43.33124" lon="-1.62683">
        <ele>264</ele>
        <time>2017-10-07T13:04:54Z</time>
      </trkpt>
      <trkpt lat="43.33126" lon="-1.62687">
        <ele>224</ele>
        <time>2017-10-07T13:04:55Z</time>
      </trkpt>
      <trkpt lat="43.33127" lon="-1.6269">
        <ele>224</ele>
        <time>2017-10-07T13:05:10Z</time>
      </trkpt>
      <trkpt lat="43.3313" lon="-1.62694">
        <ele>224</ele>
        <time>2017-10-07T13:05:10Z</time>
      </trkpt>
      <trkpt lat="43.33131" lon="-1.62698">
        <ele>224</ele>
        <time>2017-10-07T13:05:10Z</time>
      </trkpt>
      <trkpt lat="43.33131" lon="-1.62702">
        <ele>224</ele>
        <time>2017-10-07T13:05:10Z</time>
      </trkpt>
      <trkpt lat="43.33132" lon="-1.62706">
        <ele>224</ele>
        <time>2017-10-07T13:05:26Z</time>
      </trkpt>
      <trkpt lat="43.33134" lon="-1.62711">
        <ele>240</ele>
        <time>2017-10-07T13:05:26Z</time>
      </trkpt>
      <trkpt lat="43.33135" lon="-1.62714">
        <ele>240</ele>
        <time>2017-10-07T13:05:26Z</time>
      </trkpt>
      <trkpt lat="43.33136" lon="-1.6272">
        <ele>240</ele>
        <time>2017-10-07T13:05:26Z</time>
      </trkpt>
      <trkpt lat="43.33137" lon="-1.62723">
        <ele>240</ele>
        <time>2017-10-07T13:05:42Z</time>
      </trkpt>
      <trkpt lat="43.33137" lon="-1.62729">
        <ele>240</ele>
        <time>2017-10-07T13:05:42Z</time>
      </trkpt>
      <trkpt lat="43.33136" lon="-1.62734">
        <ele>240</ele>
        <time>2017-10-07T13:05:42Z</time>
      </trkpt>
      <trkpt lat="43.33136" lon="-1.62737">
        <ele>240</ele>
        <time>2017-10-07T13:05:42Z</time>
      </trkpt>
      <trkpt lat="43.33137" lon="-1.62736">
        <ele>240</ele>
        <time>2017-10-07T13:06:02Z</time>
      </trkpt>
      <trkpt lat="43.33138" lon="-1.6274">
        <ele>240</ele>
        <time>2017-10-07T13:06:02Z</time>
      </trkpt>
      <trkpt lat="43.33139" lon="-1.62743">
        <ele>240</ele>
        <time>2017-10-07T13:06:02Z</time>
      </trkpt>
      <trkpt lat="43.33139" lon="-1.62746">
        <ele>240</ele>
        <time>2017-10-07T13:06:02Z</time>
      </trkpt>
      <trkpt lat="43.33141" lon="-1.62752">
        <ele>240</ele>
        <time>2017-10-07T13:06:02Z</time>
      </trkpt>
      <trkpt lat="43.33143" lon="-1.62757">
        <ele>240</ele>
        <time>2017-10-07T13:06:18Z</time>
      </trkpt>
      <trkpt lat="43.33141" lon="-1.62763">
        <ele>240</ele>
        <time>2017-10-07T13:06:18Z</time>
      </trkpt>
      <trkpt lat="43.3314" lon="-1.62767">
        <ele>240</ele>
        <time>2017-10-07T13:06:18Z</time>
      </trkpt>
      <trkpt lat="43.3314" lon="-1.62773">
        <ele>240</ele>
        <time>2017-10-07T13:06:18Z</time>
      </trkpt>
      <trkpt lat="43.33139" lon="-1.62777">
        <ele>240</ele>
        <time>2017-10-07T13:06:38Z</time>
      </trkpt>
      <trkpt lat="43.33138" lon="-1.62781">
        <ele>240</ele>
        <time>2017-10-07T13:06:38Z</time>
      </trkpt>
      <trkpt lat="43.33137" lon="-1.62784">
        <ele>240</ele>
        <time>2017-10-07T13:06:38Z</time>
      </trkpt>
      <trkpt lat="43.33138" lon="-1.62789">
        <ele>240</ele>
        <time>2017-10-07T13:06:38Z</time>
      </trkpt>
      <trkpt lat="43.33138" lon="-1.62792">
        <ele>249</ele>
        <time>2017-10-07T13:06:38Z</time>
      </trkpt>
      <trkpt lat="43.33138" lon="-1.62797">
        <ele>249</ele>
        <time>2017-10-07T13:06:58Z</time>
      </trkpt>
      <trkpt lat="43.33137" lon="-1.62801">
        <ele>249</ele>
        <time>2017-10-07T13:06:58Z</time>
      </trkpt>
      <trkpt lat="43.33136" lon="-1.62805">
        <ele>249</ele>
        <time>2017-10-07T13:06:58Z</time>
      </trkpt>
      <trkpt lat="43.33135" lon="-1.62808">
        <ele>249</ele>
        <time>2017-10-07T13:06:58Z</time>
      </trkpt>
      <trkpt lat="43.33133" lon="-1.62811">
        <ele>249</ele>
        <time>2017-10-07T13:06:58Z</time>
      </trkpt>
      <trkpt lat="43.33131" lon="-1.62813">
        <ele>249</ele>
        <time>2017-10-07T13:07:26Z</time>
      </trkpt>
      <trkpt lat="43.33131" lon="-1.62812">
        <ele>249</ele>
        <time>2017-10-07T13:07:26Z</time>
      </trkpt>
      <trkpt lat="43.33127" lon="-1.62809">
        <ele>249</ele>
        <time>2017-10-07T13:07:26Z</time>
      </trkpt>
      <trkpt lat="43.33126" lon="-1.62807">
        <ele>249</ele>
        <time>2017-10-07T13:07:26Z</time>
      </trkpt>
      <trkpt lat="43.33122" lon="-1.62804">
        <ele>279</ele>
        <time>2017-10-07T13:07:26Z</time>
      </trkpt>
      <trkpt lat="43.33121" lon="-1.62804">
        <ele>279</ele>
        <time>2017-10-07T13:08:02Z</time>
      </trkpt>
      <trkpt lat="43.3312" lon="-1.62804">
        <ele>279</ele>
        <time>2017-10-07T13:08:02Z</time>
      </trkpt>
      <trkpt lat="43.33118" lon="-1.628">
        <ele>279</ele>
        <time>2017-10-07T13:08:02Z</time>
      </trkpt>
      <trkpt lat="43.33115" lon="-1.62797">
        <ele>279</ele>
        <time>2017-10-07T13:08:02Z</time>
      </trkpt>
      <trkpt lat="43.33113" lon="-1.62792">
        <ele>279</ele>
        <time>2017-10-07T13:08:02Z</time>
      </trkpt>
      <trkpt lat="43.33111" lon="-1.62788">
        <ele>272</ele>
        <time>2017-10-07T13:08:18Z</time>
      </trkpt>
      <trkpt lat="43.33109" lon="-1.62786">
        <ele>272</ele>
        <time>2017-10-07T13:08:18Z</time>
      </trkpt>
      <trkpt lat="43.33105" lon="-1.62783">
        <ele>272</ele>
        <time>2017-10-07T13:08:18Z</time>
      </trkpt>
      <trkpt lat="43.33102" lon="-1.62781">
        <ele>272</ele>
        <time>2017-10-07T13:08:18Z</time>
      </trkpt>
      <trkpt lat="43.331" lon="-1.62779">
        <ele>272</ele>
        <time>2017-10-07T13:08:38Z</time>
      </trkpt>
      <trkpt lat="43.33099" lon="-1.62777">
        <ele>272</ele>
        <time>2017-10-07T13:08:38Z</time>
      </trkpt>
      <trkpt lat="43.33096" lon="-1.62773">
        <ele>272</ele>
        <time>2017-10-07T13:08:38Z</time>
      </trkpt>
      <trkpt lat="43.33094" lon="-1.62772">
        <ele>272</ele>
        <time>2017-10-07T13:08:38Z</time>
      </trkpt>
      <trkpt lat="43.33093" lon="-1.62768">
        <ele>272</ele>
        <time>2017-10-07T13:08:38Z</time>
      </trkpt>
      <trkpt lat="43.33091" lon="-1.62764">
        <ele>272</ele>
        <time>2017-10-07T13:08:54Z</time>
      </trkpt>
      <trkpt lat="43.33088" lon="-1.62762">
        <ele>272</ele>
        <time>2017-10-07T13:08:54Z</time>
      </trkpt>
      <trkpt lat="43.33085" lon="-1.62759">
        <ele>272</ele>
        <time>2017-10-07T13:08:54Z</time>
      </trkpt>
      <trkpt lat="43.33083" lon="-1.62758">
        <ele>272</ele>
        <time>2017-10-07T13:08:54Z</time>
      </trkpt>
      <trkpt lat="43.33079" lon="-1.62757">
        <ele>272</ele>
        <time>2017-10-07T13:09:10Z</time>
      </trkpt>
      <trkpt lat="43.33075" lon="-1.62755">
        <ele>272</ele>
        <time>2017-10-07T13:09:10Z</time>
      </trkpt>
      <trkpt lat="43.33072" lon="-1.62751">
        <ele>272</ele>
        <time>2017-10-07T13:09:10Z</time>
      </trkpt>
      <trkpt lat="43.3307" lon="-1.62748">
        <ele>272</ele>
        <time>2017-10-07T13:09:10Z</time>
      </trkpt>
      <trkpt lat="43.33069" lon="-1.62746">
        <ele>272</ele>
        <time>2017-10-07T13:09:26Z</time>
      </trkpt>
      <trkpt lat="43.33065" lon="-1.62743">
        <ele>272</ele>
        <time>2017-10-07T13:09:26Z</time>
      </trkpt>
      <trkpt lat="43.33062" lon="-1.62741">
        <ele>272</ele>
        <time>2017-10-07T13:09:26Z</time>
      </trkpt>
      <trkpt lat="43.33056" lon="-1.62737">
        <ele>272</ele>
        <time>2017-10-07T13:09:26Z</time>
      </trkpt>
      <trkpt lat="43.33052" lon="-1.62734">
        <ele>272</ele>
        <time>2017-10-07T13:09:46Z</time>
      </trkpt>
      <trkpt lat="43.3305" lon="-1.62731">
        <ele>272</ele>
        <time>2017-10-07T13:09:46Z</time>
      </trkpt>
      <trkpt lat="43.33048" lon="-1.62728">
        <ele>272</ele>
        <time>2017-10-07T13:09:46Z</time>
      </trkpt>
      <trkpt lat="43.33047" lon="-1.62726">
        <ele>272</ele>
        <time>2017-10-07T13:09:46Z</time>
      </trkpt>
      <trkpt lat="43.33046" lon="-1.62724">
        <ele>272</ele>
        <time>2017-10-07T13:09:46Z</time>
      </trkpt>
      <trkpt lat="43.33044" lon="-1.6272">
        <ele>272</ele>
        <time>2017-10-07T13:10:02Z</time>
      </trkpt>
      <trkpt lat="43.33041" lon="-1.62718">
        <ele>301</ele>
        <time>2017-10-07T13:10:02Z</time>
      </trkpt>
      <trkpt lat="43.33038" lon="-1.62717">
        <ele>301</ele>
        <time>2017-10-07T13:10:02Z</time>
      </trkpt>
      <trkpt lat="43.33034" lon="-1.62719">
        <ele>301</ele>
        <time>2017-10-07T13:10:02Z</time>
      </trkpt>
      <trkpt lat="43.33033" lon="-1.62718">
        <ele>301</ele>
        <time>2017-10-07T13:10:18Z</time>
      </trkpt>
      <trkpt lat="43.33031" lon="-1.62714">
        <ele>301</ele>
        <time>2017-10-07T13:10:18Z</time>
      </trkpt>
      <trkpt lat="43.33027" lon="-1.62712">
        <ele>301</ele>
        <time>2017-10-07T13:10:18Z</time>
      </trkpt>
      <trkpt lat="43.33026" lon="-1.62708">
        <ele>292</ele>
        <time>2017-10-07T13:10:18Z</time>
      </trkpt>
      <trkpt lat="43.33025" lon="-1.62704">
        <ele>292</ele>
        <time>2017-10-07T13:10:38Z</time>
      </trkpt>
      <trkpt lat="43.33022" lon="-1.62703">
        <ele>292</ele>
        <time>2017-10-07T13:10:38Z</time>
      </trkpt>
      <trkpt lat="43.3302" lon="-1.627">
        <ele>292</ele>
        <time>2017-10-07T13:10:38Z</time>
      </trkpt>
      <trkpt lat="43.33018" lon="-1.62696">
        <ele>292</ele>
        <time>2017-10-07T13:10:38Z</time>
      </trkpt>
      <trkpt lat="43.33016" lon="-1.62694">
        <ele>292</ele>
        <time>2017-10-07T13:10:38Z</time>
      </trkpt>
      <trkpt lat="43.33014" lon="-1.62692">
        <ele>292</ele>
        <time>2017-10-07T13:10:58Z</time>
      </trkpt>
      <trkpt lat="43.33012" lon="-1.62689">
        <ele>292</ele>
        <time>2017-10-07T13:10:58Z</time>
      </trkpt>
      <trkpt lat="43.3301" lon="-1.62685">
        <ele>292</ele>
        <time>2017-10-07T13:10:58Z</time>
      </trkpt>
      <trkpt lat="43.33008" lon="-1.62683">
        <ele>292</ele>
        <time>2017-10-07T13:10:58Z</time>
      </trkpt>
      <trkpt lat="43.33006" lon="-1.6268">
        <ele>292</ele>
        <time>2017-10-07T13:10:58Z</time>
      </trkpt>
      <trkpt lat="43.33003" lon="-1.62679">
        <ele>292</ele>
        <time>2017-10-07T13:11:18Z</time>
      </trkpt>
      <trkpt lat="43.33" lon="-1.62677">
        <ele>292</ele>
        <time>2017-10-07T13:11:18Z</time>
      </trkpt>
      <trkpt lat="43.32998" lon="-1.62675">
        <ele>292</ele>
        <time>2017-10-07T13:11:18Z</time>
      </trkpt>
      <trkpt lat="43.32995" lon="-1.62672">
        <ele>292</ele>
        <time>2017-10-07T13:11:18Z</time>
      </trkpt>
      <trkpt lat="43.32993" lon="-1.62671">
        <ele>292</ele>
        <time>2017-10-07T13:11:18Z</time>
      </trkpt>
      <trkpt lat="43.3299" lon="-1.62667">
        <ele>292</ele>
        <time>2017-10-07T13:11:38Z</time>
      </trkpt>
      <trkpt lat="43.32987" lon="-1.62667">
        <ele>292</ele>
        <time>2017-10-07T13:11:38Z</time>
      </trkpt>
      <trkpt lat="43.32985" lon="-1.62664">
        <ele>292</ele>
        <time>2017-10-07T13:11:38Z</time>
      </trkpt>
      <trkpt lat="43.32983" lon="-1.62661">
        <ele>292</ele>
        <time>2017-10-07T13:11:38Z</time>
      </trkpt>
      <trkpt lat="43.32981" lon="-1.62658">
        <ele>292</ele>
        <time>2017-10-07T13:11:38Z</time>
      </trkpt>
      <trkpt lat="43.32979" lon="-1.6265">
        <ele>292</ele>
        <time>2017-10-07T13:12:10Z</time>
      </trkpt>
      <trkpt lat="43.32979" lon="-1.6265">
        <ele>292</ele>
        <time>2017-10-07T13:12:10Z</time>
      </trkpt>
      <trkpt lat="43.32976" lon="-1.62647">
        <ele>292</ele>
        <time>2017-10-07T13:12:10Z</time>
      </trkpt>
      <trkpt lat="43.32974" lon="-1.62643">
        <ele>292</ele>
        <time>2017-10-07T13:12:10Z</time>
      </trkpt>
      <trkpt lat="43.32969" lon="-1.62641">
        <ele>292</ele>
        <time>2017-10-07T13:12:10Z</time>
      </trkpt>
      <trkpt lat="43.32966" lon="-1.62638">
        <ele>292</ele>
        <time>2017-10-07T13:12:26Z</time>
      </trkpt>
      <trkpt lat="43.32963" lon="-1.62632">
        <ele>292</ele>
        <time>2017-10-07T13:12:26Z</time>
      </trkpt>
      <trkpt lat="43.32962" lon="-1.6263">
        <ele>292</ele>
        <time>2017-10-07T13:12:26Z</time>
      </trkpt>
      <trkpt lat="43.32961" lon="-1.62626">
        <ele>292</ele>
        <time>2017-10-07T13:12:26Z</time>
      </trkpt>
      <trkpt lat="43.32958" lon="-1.62623">
        <ele>304</ele>
        <time>2017-10-07T13:12:42Z</time>
      </trkpt>
      <trkpt lat="43.32953" lon="-1.62621">
        <ele>304</ele>
        <time>2017-10-07T13:12:42Z</time>
      </trkpt>
      <trkpt lat="43.32948" lon="-1.62618">
        <ele>304</ele>
        <time>2017-10-07T13:12:42Z</time>
      </trkpt>
      <trkpt lat="43.32945" lon="-1.62613">
        <ele>304</ele>
        <time>2017-10-07T13:12:43Z</time>
      </trkpt>
      <trkpt lat="43.32942" lon="-1.62608">
        <ele>304</ele>
        <time>2017-10-07T13:12:58Z</time>
      </trkpt>
      <trkpt lat="43.32938" lon="-1.62607">
        <ele>304</ele>
        <time>2017-10-07T13:12:58Z</time>
      </trkpt>
      <trkpt lat="43.32935" lon="-1.62604">
        <ele>304</ele>
        <time>2017-10-07T13:12:58Z</time>
      </trkpt>
      <trkpt lat="43.32933" lon="-1.62602">
        <ele>304</ele>
        <time>2017-10-07T13:12:58Z</time>
      </trkpt>
      <trkpt lat="43.3293" lon="-1.62601">
        <ele>304</ele>
        <time>2017-10-07T13:13:14Z</time>
      </trkpt>
      <trkpt lat="43.32927" lon="-1.62595">
        <ele>304</ele>
        <time>2017-10-07T13:13:14Z</time>
      </trkpt>
      <trkpt lat="43.32923" lon="-1.62592">
        <ele>304</ele>
        <time>2017-10-07T13:13:14Z</time>
      </trkpt>
      <trkpt lat="43.3292" lon="-1.62588">
        <ele>304</ele>
        <time>2017-10-07T13:13:14Z</time>
      </trkpt>
      <trkpt lat="43.32918" lon="-1.62583">
        <ele>304</ele>
        <time>2017-10-07T13:13:30Z</time>
      </trkpt>
      <trkpt lat="43.32914" lon="-1.62578">
        <ele>304</ele>
        <time>2017-10-07T13:13:30Z</time>
      </trkpt>
      <trkpt lat="43.32913" lon="-1.62573">
        <ele>304</ele>
        <time>2017-10-07T13:13:30Z</time>
      </trkpt>
      <trkpt lat="43.32913" lon="-1.62567">
        <ele>304</ele>
        <time>2017-10-07T13:13:31Z</time>
      </trkpt>
      <trkpt lat="43.3291" lon="-1.62562">
        <ele>304</ele>
        <time>2017-10-07T13:13:46Z</time>
      </trkpt>
      <trkpt lat="43.32907" lon="-1.6256">
        <ele>304</ele>
        <time>2017-10-07T13:13:46Z</time>
      </trkpt>
      <trkpt lat="43.32903" lon="-1.62561">
        <ele>304</ele>
        <time>2017-10-07T13:13:46Z</time>
      </trkpt>
      <trkpt lat="43.329" lon="-1.62562">
        <ele>304</ele>
        <time>2017-10-07T13:13:46Z</time>
      </trkpt>
      <trkpt lat="43.32896" lon="-1.62565">
        <ele>304</ele>
        <time>2017-10-07T13:14:02Z</time>
      </trkpt>
      <trkpt lat="43.32893" lon="-1.62566">
        <ele>304</ele>
        <time>2017-10-07T13:14:02Z</time>
      </trkpt>
      <trkpt lat="43.32888" lon="-1.62566">
        <ele>304</ele>
        <time>2017-10-07T13:14:02Z</time>
      </trkpt>
      <trkpt lat="43.32883" lon="-1.62565">
        <ele>304</ele>
        <time>2017-10-07T13:14:02Z</time>
      </trkpt>
      <trkpt lat="43.3288" lon="-1.62566">
        <ele>304</ele>
        <time>2017-10-07T13:14:18Z</time>
      </trkpt>
      <trkpt lat="43.32874" lon="-1.62567">
        <ele>319</ele>
        <time>2017-10-07T13:14:18Z</time>
      </trkpt>
      <trkpt lat="43.32869" lon="-1.62566">
        <ele>319</ele>
        <time>2017-10-07T13:14:18Z</time>
      </trkpt>
      <trkpt lat="43.32863" lon="-1.62566">
        <ele>319</ele>
        <time>2017-10-07T13:14:18Z</time>
      </trkpt>
      <trkpt lat="43.32857" lon="-1.62571">
        <ele>319</ele>
        <time>2017-10-07T13:14:34Z</time>
      </trkpt>
      <trkpt lat="43.32853" lon="-1.62571">
        <ele>319</ele>
        <time>2017-10-07T13:14:34Z</time>
      </trkpt>
      <trkpt lat="43.32848" lon="-1.62571">
        <ele>319</ele>
        <time>2017-10-07T13:14:34Z</time>
      </trkpt>
      <trkpt lat="43.32843" lon="-1.6257">
        <ele>319</ele>
        <time>2017-10-07T13:14:34Z</time>
      </trkpt>
      <trkpt lat="43.32838" lon="-1.62569">
        <ele>319</ele>
        <time>2017-10-07T13:14:50Z</time>
      </trkpt>
      <trkpt lat="43.32834" lon="-1.62569">
        <ele>319</ele>
        <time>2017-10-07T13:14:50Z</time>
      </trkpt>
      <trkpt lat="43.32829" lon="-1.62568">
        <ele>319</ele>
        <time>2017-10-07T13:14:50Z</time>
      </trkpt>
      <trkpt lat="43.32827" lon="-1.62567">
        <ele>319</ele>
        <time>2017-10-07T13:14:50Z</time>
      </trkpt>
      <trkpt lat="43.32825" lon="-1.62566">
        <ele>319</ele>
        <time>2017-10-07T13:15:06Z</time>
      </trkpt>
      <trkpt lat="43.32822" lon="-1.62565">
        <ele>319</ele>
        <time>2017-10-07T13:15:06Z</time>
      </trkpt>
      <trkpt lat="43.32817" lon="-1.62564">
        <ele>319</ele>
        <time>2017-10-07T13:15:06Z</time>
      </trkpt>
      <trkpt lat="43.32814" lon="-1.62564">
        <ele>319</ele>
        <time>2017-10-07T13:15:06Z</time>
      </trkpt>
      <trkpt lat="43.32809" lon="-1.62564">
        <ele>319</ele>
        <time>2017-10-07T13:15:22Z</time>
      </trkpt>
      <trkpt lat="43.32804" lon="-1.62564">
        <ele>319</ele>
        <time>2017-10-07T13:15:22Z</time>
      </trkpt>
      <trkpt lat="43.32801" lon="-1.62564">
        <ele>319</ele>
        <time>2017-10-07T13:15:22Z</time>
      </trkpt>
      <trkpt lat="43.32798" lon="-1.62564">
        <ele>319</ele>
        <time>2017-10-07T13:15:22Z</time>
      </trkpt>
      <trkpt lat="43.32797" lon="-1.62565">
        <ele>319</ele>
        <time>2017-10-07T13:15:38Z</time>
      </trkpt>
      <trkpt lat="43.32793" lon="-1.62566">
        <ele>319</ele>
        <time>2017-10-07T13:15:38Z</time>
      </trkpt>
      <trkpt lat="43.32791" lon="-1.62569">
        <ele>323</ele>
        <time>2017-10-07T13:15:38Z</time>
      </trkpt>
      <trkpt lat="43.32787" lon="-1.6257">
        <ele>323</ele>
        <time>2017-10-07T13:15:38Z</time>
      </trkpt>
      <trkpt lat="43.32786" lon="-1.62571">
        <ele>323</ele>
        <time>2017-10-07T13:15:54Z</time>
      </trkpt>
      <trkpt lat="43.32781" lon="-1.62572">
        <ele>323</ele>
        <time>2017-10-07T13:15:54Z</time>
      </trkpt>
      <trkpt lat="43.32779" lon="-1.62571">
        <ele>323</ele>
        <time>2017-10-07T13:15:54Z</time>
      </trkpt>
      <trkpt lat="43.32777" lon="-1.62572">
        <ele>323</ele>
        <time>2017-10-07T13:15:54Z</time>
      </trkpt>
      <trkpt lat="43.32768" lon="-1.62578">
        <ele>323</ele>
        <time>2017-10-07T13:16:38Z</time>
      </trkpt>
      <trkpt lat="43.32767" lon="-1.62577">
        <ele>323</ele>
        <time>2017-10-07T13:16:38Z</time>
      </trkpt>
      <trkpt lat="43.32767" lon="-1.62577">
        <ele>323</ele>
        <time>2017-10-07T13:16:38Z</time>
      </trkpt>
      <trkpt lat="43.32766" lon="-1.62577">
        <ele>323</ele>
        <time>2017-10-07T13:16:38Z</time>
      </trkpt>
      <trkpt lat="43.32764" lon="-1.62578">
        <ele>323</ele>
        <time>2017-10-07T13:16:39Z</time>
      </trkpt>
      <trkpt lat="43.32762" lon="-1.62579">
        <ele>323</ele>
        <time>2017-10-07T13:16:54Z</time>
      </trkpt>
      <trkpt lat="43.32758" lon="-1.62579">
        <ele>323</ele>
        <time>2017-10-07T13:16:54Z</time>
      </trkpt>
      <trkpt lat="43.32754" lon="-1.6258">
        <ele>323</ele>
        <time>2017-10-07T13:16:54Z</time>
      </trkpt>
      <trkpt lat="43.3275" lon="-1.62579">
        <ele>323</ele>
        <time>2017-10-07T13:16:54Z</time>
      </trkpt>
      <trkpt lat="43.32751" lon="-1.6258">
        <ele>323</ele>
        <time>2017-10-07T13:17:14Z</time>
      </trkpt>
      <trkpt lat="43.32749" lon="-1.62583">
        <ele>323</ele>
        <time>2017-10-07T13:17:14Z</time>
      </trkpt>
      <trkpt lat="43.32745" lon="-1.62583">
        <ele>323</ele>
        <time>2017-10-07T13:17:14Z</time>
      </trkpt>
      <trkpt lat="43.32742" lon="-1.62583">
        <ele>323</ele>
        <time>2017-10-07T13:17:14Z</time>
      </trkpt>
      <trkpt lat="43.32739" lon="-1.62582">
        <ele>323</ele>
        <time>2017-10-07T13:17:14Z</time>
      </trkpt>
      <trkpt lat="43.32737" lon="-1.62582">
        <ele>323</ele>
        <time>2017-10-07T13:17:30Z</time>
      </trkpt>
      <trkpt lat="43.32734" lon="-1.62586">
        <ele>323</ele>
        <time>2017-10-07T13:17:30Z</time>
      </trkpt>
      <trkpt lat="43.3273" lon="-1.62587">
        <ele>323</ele>
        <time>2017-10-07T13:17:30Z</time>
      </trkpt>
      <trkpt lat="43.32727" lon="-1.62591">
        <ele>323</ele>
        <time>2017-10-07T13:17:30Z</time>
      </trkpt>
      <trkpt lat="43.32725" lon="-1.62594">
        <ele>323</ele>
        <time>2017-10-07T13:17:46Z</time>
      </trkpt>
      <trkpt lat="43.32721" lon="-1.62597">
        <ele>323</ele>
        <time>2017-10-07T13:17:46Z</time>
      </trkpt>
      <trkpt lat="43.32718" lon="-1.62599">
        <ele>323</ele>
        <time>2017-10-07T13:17:46Z</time>
      </trkpt>
      <trkpt lat="43.32713" lon="-1.62601">
        <ele>323</ele>
        <time>2017-10-07T13:17:46Z</time>
      </trkpt>
      <trkpt lat="43.32709" lon="-1.62605">
        <ele>323</ele>
        <time>2017-10-07T13:18:02Z</time>
      </trkpt>
      <trkpt lat="43.32705" lon="-1.62609">
        <ele>324</ele>
        <time>2017-10-07T13:18:02Z</time>
      </trkpt>
      <trkpt lat="43.32703" lon="-1.62613">
        <ele>324</ele>
        <time>2017-10-07T13:18:02Z</time>
      </trkpt>
      <trkpt lat="43.32699" lon="-1.62617">
        <ele>324</ele>
        <time>2017-10-07T13:18:02Z</time>
      </trkpt>
      <trkpt lat="43.32695" lon="-1.62619">
        <ele>324</ele>
        <time>2017-10-07T13:18:18Z</time>
      </trkpt>
      <trkpt lat="43.32692" lon="-1.62621">
        <ele>324</ele>
        <time>2017-10-07T13:18:18Z</time>
      </trkpt>
      <trkpt lat="43.32688" lon="-1.62623">
        <ele>324</ele>
        <time>2017-10-07T13:18:18Z</time>
      </trkpt>
      <trkpt lat="43.32684" lon="-1.62623">
        <ele>324</ele>
        <time>2017-10-07T13:18:18Z</time>
      </trkpt>
      <trkpt lat="43.32678" lon="-1.62621">
        <ele>324</ele>
        <time>2017-10-07T13:18:34Z</time>
      </trkpt>
      <trkpt lat="43.32674" lon="-1.62618">
        <ele>324</ele>
        <time>2017-10-07T13:18:34Z</time>
      </trkpt>
      <trkpt lat="43.32668" lon="-1.62618">
        <ele>324</ele>
        <time>2017-10-07T13:18:35Z</time>
      </trkpt>
      <trkpt lat="43.32663" lon="-1.62614">
        <ele>324</ele>
        <time>2017-10-07T13:18:35Z</time>
      </trkpt>
      <trkpt lat="43.3266" lon="-1.62612">
        <ele>324</ele>
        <time>2017-10-07T13:18:50Z</time>
      </trkpt>
      <trkpt lat="43.32656" lon="-1.62609">
        <ele>324</ele>
        <time>2017-10-07T13:18:50Z</time>
      </trkpt>
      <trkpt lat="43.32652" lon="-1.62605">
        <ele>324</ele>
        <time>2017-10-07T13:18:50Z</time>
      </trkpt>
      <trkpt lat="43.32647" lon="-1.62602">
        <ele>324</ele>
        <time>2017-10-07T13:18:50Z</time>
      </trkpt>
      <trkpt lat="43.32644" lon="-1.62599">
        <ele>324</ele>
        <time>2017-10-07T13:19:06Z</time>
      </trkpt>
      <trkpt lat="43.32643" lon="-1.62597">
        <ele>324</ele>
        <time>2017-10-07T13:19:06Z</time>
      </trkpt>
      <trkpt lat="43.32639" lon="-1.62592">
        <ele>324</ele>
        <time>2017-10-07T13:19:06Z</time>
      </trkpt>
      <trkpt lat="43.32636" lon="-1.62587">
        <ele>324</ele>
        <time>2017-10-07T13:19:06Z</time>
      </trkpt>
      <trkpt lat="43.32634" lon="-1.62584">
        <ele>324</ele>
        <time>2017-10-07T13:19:22Z</time>
      </trkpt>
      <trkpt lat="43.32631" lon="-1.62583">
        <ele>324</ele>
        <time>2017-10-07T13:19:22Z</time>
      </trkpt>
      <trkpt lat="43.32628" lon="-1.62582">
        <ele>324</ele>
        <time>2017-10-07T13:19:22Z</time>
      </trkpt>
      <trkpt lat="43.32625" lon="-1.62581">
        <ele>340</ele>
        <time>2017-10-07T13:19:22Z</time>
      </trkpt>
      <trkpt lat="43.32622" lon="-1.62578">
        <ele>340</ele>
        <time>2017-10-07T13:19:38Z</time>
      </trkpt>
      <trkpt lat="43.3262" lon="-1.62574">
        <ele>340</ele>
        <time>2017-10-07T13:19:38Z</time>
      </trkpt>
      <trkpt lat="43.32619" lon="-1.62569">
        <ele>340</ele>
        <time>2017-10-07T13:19:38Z</time>
      </trkpt>
      <trkpt lat="43.32617" lon="-1.62568">
        <ele>340</ele>
        <time>2017-10-07T13:19:38Z</time>
      </trkpt>
      <trkpt lat="43.32612" lon="-1.62565">
        <ele>340</ele>
        <time>2017-10-07T13:19:54Z</time>
      </trkpt>
      <trkpt lat="43.32608" lon="-1.62563">
        <ele>340</ele>
        <time>2017-10-07T13:19:54Z</time>
      </trkpt>
      <trkpt lat="43.32605" lon="-1.62564">
        <ele>340</ele>
        <time>2017-10-07T13:19:54Z</time>
      </trkpt>
      <trkpt lat="43.32603" lon="-1.62566">
        <ele>340</ele>
        <time>2017-10-07T13:19:54Z</time>
      </trkpt>
      <trkpt lat="43.32598" lon="-1.62563">
        <ele>340</ele>
        <time>2017-10-07T13:20:18Z</time>
      </trkpt>
      <trkpt lat="43.32598" lon="-1.62562">
        <ele>340</ele>
        <time>2017-10-07T13:20:18Z</time>
      </trkpt>
      <trkpt lat="43.32595" lon="-1.62562">
        <ele>340</ele>
        <time>2017-10-07T13:20:18Z</time>
      </trkpt>
      <trkpt lat="43.32593" lon="-1.62565">
        <ele>340</ele>
        <time>2017-10-07T13:20:18Z</time>
      </trkpt>
      <trkpt lat="43.32589" lon="-1.62568">
        <ele>340</ele>
        <time>2017-10-07T13:20:18Z</time>
      </trkpt>
      <trkpt lat="43.32586" lon="-1.62571">
        <ele>340</ele>
        <time>2017-10-07T13:20:34Z</time>
      </trkpt>
      <trkpt lat="43.32583" lon="-1.62572">
        <ele>340</ele>
        <time>2017-10-07T13:20:34Z</time>
      </trkpt>
      <trkpt lat="43.3258" lon="-1.62573">
        <ele>340</ele>
        <time>2017-10-07T13:20:34Z</time>
      </trkpt>
      <trkpt lat="43.32576" lon="-1.62577">
        <ele>340</ele>
        <time>2017-10-07T13:20:34Z</time>
      </trkpt>
      <trkpt lat="43.32572" lon="-1.62579">
        <ele>340</ele>
        <time>2017-10-07T13:20:50Z</time>
      </trkpt>
      <trkpt lat="43.32568" lon="-1.62583">
        <ele>340</ele>
        <time>2017-10-07T13:20:50Z</time>
      </trkpt>
      <trkpt lat="43.32566" lon="-1.62588">
        <ele>340</ele>
        <time>2017-10-07T13:20:50Z</time>
      </trkpt>
      <trkpt lat="43.32564" lon="-1.62592">
        <ele>340</ele>
        <time>2017-10-07T13:20:50Z</time>
      </trkpt>
      <trkpt lat="43.32562" lon="-1.62594">
        <ele>340</ele>
        <time>2017-10-07T13:21:10Z</time>
      </trkpt>
      <trkpt lat="43.32561" lon="-1.62597">
        <ele>340</ele>
        <time>2017-10-07T13:21:10Z</time>
      </trkpt>
      <trkpt lat="43.32559" lon="-1.62601">
        <ele>340</ele>
        <time>2017-10-07T13:21:10Z</time>
      </trkpt>
      <trkpt lat="43.32556" lon="-1.62604">
        <ele>340</ele>
        <time>2017-10-07T13:21:11Z</time>
      </trkpt>
      <trkpt lat="43.32553" lon="-1.62609">
        <ele>340</ele>
        <time>2017-10-07T13:21:11Z</time>
      </trkpt>
      <trkpt lat="43.32552" lon="-1.6261">
        <ele>340</ele>
        <time>2017-10-07T13:21:26Z</time>
      </trkpt>
      <trkpt lat="43.32547" lon="-1.62614">
        <ele>340</ele>
        <time>2017-10-07T13:21:26Z</time>
      </trkpt>
      <trkpt lat="43.32544" lon="-1.62617">
        <ele>340</ele>
        <time>2017-10-07T13:21:26Z</time>
      </trkpt>
      <trkpt lat="43.32542" lon="-1.62623">
        <ele>340</ele>
        <time>2017-10-07T13:21:26Z</time>
      </trkpt>
      <trkpt lat="43.32537" lon="-1.62628">
        <ele>358</ele>
        <time>2017-10-07T13:21:42Z</time>
      </trkpt>
      <trkpt lat="43.32534" lon="-1.62631">
        <ele>358</ele>
        <time>2017-10-07T13:21:42Z</time>
      </trkpt>
      <trkpt lat="43.32529" lon="-1.62633">
        <ele>358</ele>
        <time>2017-10-07T13:21:42Z</time>
      </trkpt>
      <trkpt lat="43.32526" lon="-1.62635">
        <ele>358</ele>
        <time>2017-10-07T13:21:42Z</time>
      </trkpt>
      <trkpt lat="43.3252" lon="-1.62638">
        <ele>358</ele>
        <time>2017-10-07T13:21:58Z</time>
      </trkpt>
      <trkpt lat="43.32517" lon="-1.62639">
        <ele>358</ele>
        <time>2017-10-07T13:21:58Z</time>
      </trkpt>
      <trkpt lat="43.32513" lon="-1.62642">
        <ele>358</ele>
        <time>2017-10-07T13:21:58Z</time>
      </trkpt>
      <trkpt lat="43.32512" lon="-1.62643">
        <ele>358</ele>
        <time>2017-10-07T13:21:58Z</time>
      </trkpt>
      <trkpt lat="43.32509" lon="-1.62642">
        <ele>358</ele>
        <time>2017-10-07T13:22:30Z</time>
      </trkpt>
      <trkpt lat="43.32508" lon="-1.62643">
        <ele>358</ele>
        <time>2017-10-07T13:22:30Z</time>
      </trkpt>
      <trkpt lat="43.32506" lon="-1.62645">
        <ele>358</ele>
        <time>2017-10-07T13:22:30Z</time>
      </trkpt>
      <trkpt lat="43.32504" lon="-1.62648">
        <ele>358</ele>
        <time>2017-10-07T13:22:30Z</time>
      </trkpt>
      <trkpt lat="43.32502" lon="-1.62649">
        <ele>358</ele>
        <time>2017-10-07T13:22:30Z</time>
      </trkpt>
      <trkpt lat="43.32499" lon="-1.62654">
        <ele>358</ele>
        <time>2017-10-07T13:23:02Z</time>
      </trkpt>
      <trkpt lat="43.32499" lon="-1.62655">
        <ele>358</ele>
        <time>2017-10-07T13:23:02Z</time>
      </trkpt>
      <trkpt lat="43.32498" lon="-1.62658">
        <ele>358</ele>
        <time>2017-10-07T13:23:02Z</time>
      </trkpt>
      <trkpt lat="43.32497" lon="-1.62663">
        <ele>358</ele>
        <time>2017-10-07T13:23:02Z</time>
      </trkpt>
      <trkpt lat="43.32493" lon="-1.62665">
        <ele>358</ele>
        <time>2017-10-07T13:23:02Z</time>
      </trkpt>
      <trkpt lat="43.32487" lon="-1.62668">
        <ele>358</ele>
        <time>2017-10-07T13:23:30Z</time>
      </trkpt>
      <trkpt lat="43.32486" lon="-1.62667">
        <ele>358</ele>
        <time>2017-10-07T13:23:30Z</time>
      </trkpt>
      <trkpt lat="43.32484" lon="-1.62668">
        <ele>358</ele>
        <time>2017-10-07T13:23:30Z</time>
      </trkpt>
      <trkpt lat="43.32482" lon="-1.62671">
        <ele>358</ele>
        <time>2017-10-07T13:23:30Z</time>
      </trkpt>
      <trkpt lat="43.32481" lon="-1.62673">
        <ele>358</ele>
        <time>2017-10-07T13:23:30Z</time>
      </trkpt>
      <trkpt lat="43.32479" lon="-1.62674">
        <ele>358</ele>
        <time>2017-10-07T13:23:50Z</time>
      </trkpt>
      <trkpt lat="43.32478" lon="-1.62678">
        <ele>358</ele>
        <time>2017-10-07T13:23:50Z</time>
      </trkpt>
      <trkpt lat="43.32476" lon="-1.62679">
        <ele>358</ele>
        <time>2017-10-07T13:23:50Z</time>
      </trkpt>
      <trkpt lat="43.32474" lon="-1.62683">
        <ele>358</ele>
        <time>2017-10-07T13:23:50Z</time>
      </trkpt>
      <trkpt lat="43.32473" lon="-1.62685">
        <ele>358</ele>
        <time>2017-10-07T13:23:50Z</time>
      </trkpt>
      <trkpt lat="43.32469" lon="-1.62687">
        <ele>358</ele>
        <time>2017-10-07T13:24:10Z</time>
      </trkpt>
      <trkpt lat="43.32468" lon="-1.6269">
        <ele>358</ele>
        <time>2017-10-07T13:24:10Z</time>
      </trkpt>
      <trkpt lat="43.32466" lon="-1.62692">
        <ele>358</ele>
        <time>2017-10-07T13:24:11Z</time>
      </trkpt>
      <trkpt lat="43.32465" lon="-1.62693">
        <ele>358</ele>
        <time>2017-10-07T13:24:11Z</time>
      </trkpt>
      <trkpt lat="43.32462" lon="-1.62698">
        <ele>358</ele>
        <time>2017-10-07T13:24:11Z</time>
      </trkpt>
      <trkpt lat="43.32453" lon="-1.62712">
        <ele>368</ele>
        <time>2017-10-07T13:25:18Z</time>
      </trkpt>
      <trkpt lat="43.32452" lon="-1.62715">
        <ele>368</ele>
        <time>2017-10-07T13:25:18Z</time>
      </trkpt>
      <trkpt lat="43.32451" lon="-1.62718">
        <ele>368</ele>
        <time>2017-10-07T13:25:18Z</time>
      </trkpt>
      <trkpt lat="43.32447" lon="-1.62719">
        <ele>368</ele>
        <time>2017-10-07T13:25:18Z</time>
      </trkpt>
      <trkpt lat="43.32444" lon="-1.6272">
        <ele>368</ele>
        <time>2017-10-07T13:25:19Z</time>
      </trkpt>
      <trkpt lat="43.32442" lon="-1.62721">
        <ele>368</ele>
        <time>2017-10-07T13:25:34Z</time>
      </trkpt>
      <trkpt lat="43.3244" lon="-1.62725">
        <ele>368</ele>
        <time>2017-10-07T13:25:34Z</time>
      </trkpt>
      <trkpt lat="43.32439" lon="-1.62728">
        <ele>368</ele>
        <time>2017-10-07T13:25:34Z</time>
      </trkpt>
      <trkpt lat="43.32435" lon="-1.6273">
        <ele>368</ele>
        <time>2017-10-07T13:25:34Z</time>
      </trkpt>
      <trkpt lat="43.32431" lon="-1.62734">
        <ele>368</ele>
        <time>2017-10-07T13:25:50Z</time>
      </trkpt>
      <trkpt lat="43.32428" lon="-1.62736">
        <ele>368</ele>
        <time>2017-10-07T13:25:50Z</time>
      </trkpt>
      <trkpt lat="43.32426" lon="-1.6274">
        <ele>368</ele>
        <time>2017-10-07T13:25:50Z</time>
      </trkpt>
      <trkpt lat="43.32425" lon="-1.62743">
        <ele>368</ele>
        <time>2017-10-07T13:25:50Z</time>
      </trkpt>
      <trkpt lat="43.32426" lon="-1.62745">
        <ele>368</ele>
        <time>2017-10-07T13:26:50Z</time>
      </trkpt>
      <trkpt lat="43.32422" lon="-1.62754">
        <ele>368</ele>
        <time>2017-10-07T13:26:50Z</time>
      </trkpt>
      <trkpt lat="43.32421" lon="-1.62758">
        <ele>368</ele>
        <time>2017-10-07T13:26:50Z</time>
      </trkpt>
      <trkpt lat="43.3242" lon="-1.62761">
        <ele>368</ele>
        <time>2017-10-07T13:26:50Z</time>
      </trkpt>
      <trkpt lat="43.32419" lon="-1.62767">
        <ele>368</ele>
        <time>2017-10-07T13:26:50Z</time>
      </trkpt>
      <trkpt lat="43.32415" lon="-1.62774">
        <ele>368</ele>
        <time>2017-10-07T13:27:14Z</time>
      </trkpt>
      <trkpt lat="43.32415" lon="-1.62777">
        <ele>368</ele>
        <time>2017-10-07T13:27:14Z</time>
      </trkpt>
      <trkpt lat="43.32415" lon="-1.62781">
        <ele>368</ele>
        <time>2017-10-07T13:27:14Z</time>
      </trkpt>
      <trkpt lat="43.32415" lon="-1.62782">
        <ele>368</ele>
        <time>2017-10-07T13:27:14Z</time>
      </trkpt>
      <trkpt lat="43.32416" lon="-1.62786">
        <ele>368</ele>
        <time>2017-10-07T13:27:14Z</time>
      </trkpt>
      <trkpt lat="43.32416" lon="-1.62789">
        <ele>368</ele>
        <time>2017-10-07T13:27:34Z</time>
      </trkpt>
      <trkpt lat="43.32415" lon="-1.6279">
        <ele>368</ele>
        <time>2017-10-07T13:27:34Z</time>
      </trkpt>
      <trkpt lat="43.32414" lon="-1.62793">
        <ele>394</ele>
        <time>2017-10-07T13:27:34Z</time>
      </trkpt>
      <trkpt lat="43.32413" lon="-1.62798">
        <ele>394</ele>
        <time>2017-10-07T13:27:34Z</time>
      </trkpt>
      <trkpt lat="43.32413" lon="-1.62801">
        <ele>394</ele>
        <time>2017-10-07T13:27:35Z</time>
      </trkpt>
      <trkpt lat="43.32414" lon="-1.62802">
        <ele>394</ele>
        <time>2017-10-07T13:27:50Z</time>
      </trkpt>
      <trkpt lat="43.32413" lon="-1.62804">
        <ele>394</ele>
        <time>2017-10-07T13:27:50Z</time>
      </trkpt>
      <trkpt lat="43.32413" lon="-1.6281">
        <ele>394</ele>
        <time>2017-10-07T13:27:50Z</time>
      </trkpt>
      <trkpt lat="43.32412" lon="-1.62819">
        <ele>394</ele>
        <time>2017-10-07T13:27:50Z</time>
      </trkpt>
      <trkpt lat="43.32411" lon="-1.62819">
        <ele>394</ele>
        <time>2017-10-07T13:29:26Z</time>
      </trkpt>
      <trkpt lat="43.32407" lon="-1.6282">
        <ele>394</ele>
        <time>2017-10-07T13:29:26Z</time>
      </trkpt>
      <trkpt lat="43.32405" lon="-1.62822">
        <ele>394</ele>
        <time>2017-10-07T13:29:27Z</time>
      </trkpt>
      <trkpt lat="43.32401" lon="-1.62823">
        <ele>394</ele>
        <time>2017-10-07T13:29:27Z</time>
      </trkpt>
      <trkpt lat="43.32399" lon="-1.62822">
        <ele>394</ele>
        <time>2017-10-07T13:29:27Z</time>
      </trkpt>
      <trkpt lat="43.32397" lon="-1.62821">
        <ele>394</ele>
        <time>2017-10-07T13:29:46Z</time>
      </trkpt>
      <trkpt lat="43.32394" lon="-1.62821">
        <ele>394</ele>
        <time>2017-10-07T13:29:46Z</time>
      </trkpt>
      <trkpt lat="43.32392" lon="-1.62822">
        <ele>394</ele>
        <time>2017-10-07T13:29:46Z</time>
      </trkpt>
      <trkpt lat="43.32389" lon="-1.62823">
        <ele>394</ele>
        <time>2017-10-07T13:29:46Z</time>
      </trkpt>
      <trkpt lat="43.32382" lon="-1.62825">
        <ele>394</ele>
        <time>2017-10-07T13:29:46Z</time>
      </trkpt>
      <trkpt lat="43.32378" lon="-1.62825">
        <ele>394</ele>
        <time>2017-10-07T13:30:06Z</time>
      </trkpt>
      <trkpt lat="43.32376" lon="-1.62827">
        <ele>394</ele>
        <time>2017-10-07T13:30:06Z</time>
      </trkpt>
      <trkpt lat="43.32373" lon="-1.62828">
        <ele>407</ele>
        <time>2017-10-07T13:30:06Z</time>
      </trkpt>
      <trkpt lat="43.32371" lon="-1.62832">
        <ele>407</ele>
        <time>2017-10-07T13:30:06Z</time>
      </trkpt>
      <trkpt lat="43.32369" lon="-1.62834">
        <ele>407</ele>
        <time>2017-10-07T13:30:06Z</time>
      </trkpt>
      <trkpt lat="43.32366" lon="-1.62836">
        <ele>407</ele>
        <time>2017-10-07T13:30:22Z</time>
      </trkpt>
      <trkpt lat="43.32364" lon="-1.62834">
        <ele>407</ele>
        <time>2017-10-07T13:30:22Z</time>
      </trkpt>
      <trkpt lat="43.3236" lon="-1.62831">
        <ele>407</ele>
        <time>2017-10-07T13:30:22Z</time>
      </trkpt>
      <trkpt lat="43.32358" lon="-1.6283">
        <ele>407</ele>
        <time>2017-10-07T13:30:22Z</time>
      </trkpt>
      <trkpt lat="43.32355" lon="-1.6283">
        <ele>407</ele>
        <time>2017-10-07T13:30:42Z</time>
      </trkpt>
      <trkpt lat="43.32353" lon="-1.6283">
        <ele>407</ele>
        <time>2017-10-07T13:30:42Z</time>
      </trkpt>
      <trkpt lat="43.3235" lon="-1.6283">
        <ele>407</ele>
        <time>2017-10-07T13:30:42Z</time>
      </trkpt>
      <trkpt lat="43.32348" lon="-1.62828">
        <ele>407</ele>
        <time>2017-10-07T13:30:42Z</time>
      </trkpt>
      <trkpt lat="43.32345" lon="-1.62827">
        <ele>407</ele>
        <time>2017-10-07T13:30:43Z</time>
      </trkpt>
      <trkpt lat="43.32344" lon="-1.62825">
        <ele>407</ele>
        <time>2017-10-07T13:31:02Z</time>
      </trkpt>
      <trkpt lat="43.32342" lon="-1.62822">
        <ele>407</ele>
        <time>2017-10-07T13:31:02Z</time>
      </trkpt>
      <trkpt lat="43.32341" lon="-1.6282">
        <ele>407</ele>
        <time>2017-10-07T13:31:02Z</time>
      </trkpt>
      <trkpt lat="43.32339" lon="-1.62819">
        <ele>407</ele>
        <time>2017-10-07T13:31:02Z</time>
      </trkpt>
      <trkpt lat="43.32335" lon="-1.62818">
        <ele>407</ele>
        <time>2017-10-07T13:31:02Z</time>
      </trkpt>
      <trkpt lat="43.32334" lon="-1.62817">
        <ele>407</ele>
        <time>2017-10-07T13:31:22Z</time>
      </trkpt>
      <trkpt lat="43.32332" lon="-1.62817">
        <ele>407</ele>
        <time>2017-10-07T13:31:22Z</time>
      </trkpt>
      <trkpt lat="43.3233" lon="-1.62816">
        <ele>407</ele>
        <time>2017-10-07T13:31:22Z</time>
      </trkpt>
      <trkpt lat="43.32328" lon="-1.62815">
        <ele>407</ele>
        <time>2017-10-07T13:31:22Z</time>
      </trkpt>
      <trkpt lat="43.32325" lon="-1.62813">
        <ele>407</ele>
        <time>2017-10-07T13:31:23Z</time>
      </trkpt>
      <trkpt lat="43.32322" lon="-1.62814">
        <ele>407</ele>
        <time>2017-10-07T13:31:42Z</time>
      </trkpt>
      <trkpt lat="43.3232" lon="-1.62815">
        <ele>407</ele>
        <time>2017-10-07T13:31:42Z</time>
      </trkpt>
      <trkpt lat="43.32317" lon="-1.62814">
        <ele>407</ele>
        <time>2017-10-07T13:31:42Z</time>
      </trkpt>
      <trkpt lat="43.32317" lon="-1.6281">
        <ele>407</ele>
        <time>2017-10-07T13:31:42Z</time>
      </trkpt>
      <trkpt lat="43.32313" lon="-1.62805">
        <ele>407</ele>
        <time>2017-10-07T13:31:42Z</time>
      </trkpt>
      <trkpt lat="43.32307" lon="-1.62805">
        <ele>407</ele>
        <time>2017-10-07T13:31:58Z</time>
      </trkpt>
      <trkpt lat="43.32304" lon="-1.62808">
        <ele>407</ele>
        <time>2017-10-07T13:31:58Z</time>
      </trkpt>
      <trkpt lat="43.32302" lon="-1.62811">
        <ele>407</ele>
        <time>2017-10-07T13:31:58Z</time>
      </trkpt>
      <trkpt lat="43.323" lon="-1.62813">
        <ele>407</ele>
        <time>2017-10-07T13:31:58Z</time>
      </trkpt>
      <trkpt lat="43.32299" lon="-1.62816">
        <ele>407</ele>
        <time>2017-10-07T13:32:14Z</time>
      </trkpt>
      <trkpt lat="43.32297" lon="-1.62818">
        <ele>407</ele>
        <time>2017-10-07T13:32:14Z</time>
      </trkpt>
      <trkpt lat="43.32293" lon="-1.62822">
        <ele>407</ele>
        <time>2017-10-07T13:32:14Z</time>
      </trkpt>
      <trkpt lat="43.32289" lon="-1.62824">
        <ele>405</ele>
        <time>2017-10-07T13:32:14Z</time>
      </trkpt>
      <trkpt lat="43.32286" lon="-1.62826">
        <ele>405</ele>
        <time>2017-10-07T13:32:30Z</time>
      </trkpt>
      <trkpt lat="43.32282" lon="-1.62829">
        <ele>405</ele>
        <time>2017-10-07T13:32:30Z</time>
      </trkpt>
      <trkpt lat="43.32279" lon="-1.62831">
        <ele>405</ele>
        <time>2017-10-07T13:32:30Z</time>
      </trkpt>
      <trkpt lat="43.32277" lon="-1.62835">
        <ele>405</ele>
        <time>2017-10-07T13:32:30Z</time>
      </trkpt>
      <trkpt lat="43.32273" lon="-1.62837">
        <ele>405</ele>
        <time>2017-10-07T13:32:46Z</time>
      </trkpt>
      <trkpt lat="43.32269" lon="-1.6284">
        <ele>405</ele>
        <time>2017-10-07T13:32:46Z</time>
      </trkpt>
      <trkpt lat="43.32264" lon="-1.62842">
        <ele>405</ele>
        <time>2017-10-07T13:32:46Z</time>
      </trkpt>
      <trkpt lat="43.32258" lon="-1.62844">
        <ele>405</ele>
        <time>2017-10-07T13:32:47Z</time>
      </trkpt>
      <trkpt lat="43.32255" lon="-1.62847">
        <ele>405</ele>
        <time>2017-10-07T13:33:02Z</time>
      </trkpt>
      <trkpt lat="43.32251" lon="-1.62849">
        <ele>405</ele>
        <time>2017-10-07T13:33:02Z</time>
      </trkpt>
      <trkpt lat="43.32247" lon="-1.6285">
        <ele>405</ele>
        <time>2017-10-07T13:33:02Z</time>
      </trkpt>
      <trkpt lat="43.32243" lon="-1.62849">
        <ele>405</ele>
        <time>2017-10-07T13:33:02Z</time>
      </trkpt>
      <trkpt lat="43.32239" lon="-1.62851">
        <ele>405</ele>
        <time>2017-10-07T13:33:18Z</time>
      </trkpt>
      <trkpt lat="43.32234" lon="-1.62854">
        <ele>405</ele>
        <time>2017-10-07T13:33:18Z</time>
      </trkpt>
      <trkpt lat="43.3223" lon="-1.62858">
        <ele>405</ele>
        <time>2017-10-07T13:33:18Z</time>
      </trkpt>
      <trkpt lat="43.32228" lon="-1.6286">
        <ele>405</ele>
        <time>2017-10-07T13:33:18Z</time>
      </trkpt>
      <trkpt lat="43.32223" lon="-1.62863">
        <ele>405</ele>
        <time>2017-10-07T13:33:34Z</time>
      </trkpt>
      <trkpt lat="43.32217" lon="-1.62868">
        <ele>405</ele>
        <time>2017-10-07T13:33:34Z</time>
      </trkpt>
      <trkpt lat="43.32212" lon="-1.62871">
        <ele>405</ele>
        <time>2017-10-07T13:33:34Z</time>
      </trkpt>
      <trkpt lat="43.32207" lon="-1.62872">
        <ele>413</ele>
        <time>2017-10-07T13:33:34Z</time>
      </trkpt>
      <trkpt lat="43.32203" lon="-1.62873">
        <ele>413</ele>
        <time>2017-10-07T13:33:50Z</time>
      </trkpt>
      <trkpt lat="43.32199" lon="-1.62872">
        <ele>413</ele>
        <time>2017-10-07T13:33:50Z</time>
      </trkpt>
      <trkpt lat="43.32197" lon="-1.62868">
        <ele>413</ele>
        <time>2017-10-07T13:33:50Z</time>
      </trkpt>
      <trkpt lat="43.32193" lon="-1.62867">
        <ele>413</ele>
        <time>2017-10-07T13:33:50Z</time>
      </trkpt>
      <trkpt lat="43.3219" lon="-1.62865">
        <ele>413</ele>
        <time>2017-10-07T13:34:10Z</time>
      </trkpt>
      <trkpt lat="43.32189" lon="-1.62861">
        <ele>413</ele>
        <time>2017-10-07T13:34:10Z</time>
      </trkpt>
      <trkpt lat="43.32189" lon="-1.62859">
        <ele>413</ele>
        <time>2017-10-07T13:34:10Z</time>
      </trkpt>
      <trkpt lat="43.32189" lon="-1.62856">
        <ele>413</ele>
        <time>2017-10-07T13:34:10Z</time>
      </trkpt>
      <trkpt lat="43.32189" lon="-1.62853">
        <ele>413</ele>
        <time>2017-10-07T13:34:10Z</time>
      </trkpt>
      <trkpt lat="43.32187" lon="-1.62851">
        <ele>413</ele>
        <time>2017-10-07T13:34:34Z</time>
      </trkpt>
      <trkpt lat="43.32186" lon="-1.6285">
        <ele>413</ele>
        <time>2017-10-07T13:34:34Z</time>
      </trkpt>
      <trkpt lat="43.32185" lon="-1.62848">
        <ele>413</ele>
        <time>2017-10-07T13:34:34Z</time>
      </trkpt>
      <trkpt lat="43.32182" lon="-1.62846">
        <ele>413</ele>
        <time>2017-10-07T13:34:34Z</time>
      </trkpt>
      <trkpt lat="43.32178" lon="-1.62847">
        <ele>413</ele>
        <time>2017-10-07T13:34:35Z</time>
      </trkpt>
      <trkpt lat="43.32175" lon="-1.62848">
        <ele>413</ele>
        <time>2017-10-07T13:34:54Z</time>
      </trkpt>
      <trkpt lat="43.32173" lon="-1.6285">
        <ele>413</ele>
        <time>2017-10-07T13:34:54Z</time>
      </trkpt>
      <trkpt lat="43.3217" lon="-1.62851">
        <ele>413</ele>
        <time>2017-10-07T13:34:54Z</time>
      </trkpt>
      <trkpt lat="43.32168" lon="-1.62852">
        <ele>413</ele>
        <time>2017-10-07T13:34:54Z</time>
      </trkpt>
      <trkpt lat="43.32166" lon="-1.62852">
        <ele>413</ele>
        <time>2017-10-07T13:34:54Z</time>
      </trkpt>
      <trkpt lat="43.32164" lon="-1.62853">
        <ele>413</ele>
        <time>2017-10-07T13:35:10Z</time>
      </trkpt>
      <trkpt lat="43.32163" lon="-1.62855">
        <ele>413</ele>
        <time>2017-10-07T13:35:10Z</time>
      </trkpt>
      <trkpt lat="43.32158" lon="-1.62857">
        <ele>413</ele>
        <time>2017-10-07T13:35:10Z</time>
      </trkpt>
      <trkpt lat="43.32155" lon="-1.62859">
        <ele>413</ele>
        <time>2017-10-07T13:35:10Z</time>
      </trkpt>
      <trkpt lat="43.32146" lon="-1.62864">
        <ele>413</ele>
        <time>2017-10-07T13:40:06Z</time>
      </trkpt>
      <trkpt lat="43.32145" lon="-1.62864">
        <ele>413</ele>
        <time>2017-10-07T13:40:06Z</time>
      </trkpt>
      <trkpt lat="43.32145" lon="-1.62865">
        <ele>413</ele>
        <time>2017-10-07T13:40:06Z</time>
      </trkpt>
      <trkpt lat="43.32145" lon="-1.62865">
        <ele>413</ele>
        <time>2017-10-07T13:40:06Z</time>
      </trkpt>
      <trkpt lat="43.32143" lon="-1.62865">
        <ele>413</ele>
        <time>2017-10-07T13:40:06Z</time>
      </trkpt>
      <trkpt lat="43.32139" lon="-1.62863">
        <ele>413</ele>
        <time>2017-10-07T13:40:22Z</time>
      </trkpt>
      <trkpt lat="43.32134" lon="-1.62863">
        <ele>413</ele>
        <time>2017-10-07T13:40:22Z</time>
      </trkpt>
      <trkpt lat="43.32129" lon="-1.6286">
        <ele>413</ele>
        <time>2017-10-07T13:40:22Z</time>
      </trkpt>
      <trkpt lat="43.32123" lon="-1.62858">
        <ele>435</ele>
        <time>2017-10-07T13:40:22Z</time>
      </trkpt>
      <trkpt lat="43.32117" lon="-1.62857">
        <ele>435</ele>
        <time>2017-10-07T13:40:38Z</time>
      </trkpt>
      <trkpt lat="43.32112" lon="-1.62854">
        <ele>435</ele>
        <time>2017-10-07T13:40:38Z</time>
      </trkpt>
      <trkpt lat="43.32108" lon="-1.62853">
        <ele>435</ele>
        <time>2017-10-07T13:40:38Z</time>
      </trkpt>
      <trkpt lat="43.32104" lon="-1.62852">
        <ele>435</ele>
        <time>2017-10-07T13:40:38Z</time>
      </trkpt>
      <trkpt lat="43.32095" lon="-1.62855">
        <ele>435</ele>
        <time>2017-10-07T13:41:22Z</time>
      </trkpt>
      <trkpt lat="43.32093" lon="-1.62856">
        <ele>435</ele>
        <time>2017-10-07T13:41:22Z</time>
      </trkpt>
      <trkpt lat="43.32089" lon="-1.62857">
        <ele>435</ele>
        <time>2017-10-07T13:41:22Z</time>
      </trkpt>
      <trkpt lat="43.32086" lon="-1.62856">
        <ele>435</ele>
        <time>2017-10-07T13:41:22Z</time>
      </trkpt>
      <trkpt lat="43.32082" lon="-1.62854">
        <ele>435</ele>
        <time>2017-10-07T13:41:22Z</time>
      </trkpt>
      <trkpt lat="43.32078" lon="-1.62853">
        <ele>435</ele>
        <time>2017-10-07T13:41:38Z</time>
      </trkpt>
      <trkpt lat="43.32075" lon="-1.62852">
        <ele>435</ele>
        <time>2017-10-07T13:41:38Z</time>
      </trkpt>
      <trkpt lat="43.32072" lon="-1.62851">
        <ele>435</ele>
        <time>2017-10-07T13:41:38Z</time>
      </trkpt>
      <trkpt lat="43.32069" lon="-1.62849">
        <ele>435</ele>
        <time>2017-10-07T13:41:38Z</time>
      </trkpt>
      <trkpt lat="43.32063" lon="-1.62847">
        <ele>435</ele>
        <time>2017-10-07T13:42:02Z</time>
      </trkpt>
      <trkpt lat="43.32062" lon="-1.62845">
        <ele>435</ele>
        <time>2017-10-07T13:42:02Z</time>
      </trkpt>
      <trkpt lat="43.3206" lon="-1.62844">
        <ele>435</ele>
        <time>2017-10-07T13:42:02Z</time>
      </trkpt>
      <trkpt lat="43.32058" lon="-1.62842">
        <ele>435</ele>
        <time>2017-10-07T13:42:02Z</time>
      </trkpt>
      <trkpt lat="43.32056" lon="-1.62841">
        <ele>435</ele>
        <time>2017-10-07T13:42:02Z</time>
      </trkpt>
      <trkpt lat="43.32054" lon="-1.62841">
        <ele>435</ele>
        <time>2017-10-07T13:42:18Z</time>
      </trkpt>
      <trkpt lat="43.32051" lon="-1.6284">
        <ele>435</ele>
        <time>2017-10-07T13:42:18Z</time>
      </trkpt>
      <trkpt lat="43.3205" lon="-1.62834">
        <ele>435</ele>
        <time>2017-10-07T13:42:18Z</time>
      </trkpt>
      <trkpt lat="43.32046" lon="-1.62833">
        <ele>435</ele>
        <time>2017-10-07T13:42:18Z</time>
      </trkpt>
      <trkpt lat="43.32043" lon="-1.62832">
        <ele>435</ele>
        <time>2017-10-07T13:42:34Z</time>
      </trkpt>
      <trkpt lat="43.3204" lon="-1.6283">
        <ele>453</ele>
        <time>2017-10-07T13:42:34Z</time>
      </trkpt>
      <trkpt lat="43.32036" lon="-1.62829">
        <ele>453</ele>
        <time>2017-10-07T13:42:34Z</time>
      </trkpt>
      <trkpt lat="43.32033" lon="-1.62829">
        <ele>453</ele>
        <time>2017-10-07T13:42:34Z</time>
      </trkpt>
      <trkpt lat="43.32024" lon="-1.62829">
        <ele>453</ele>
        <time>2017-10-07T13:43:34Z</time>
      </trkpt>
      <trkpt lat="43.32023" lon="-1.6283">
        <ele>453</ele>
        <time>2017-10-07T13:43:34Z</time>
      </trkpt>
      <trkpt lat="43.3202" lon="-1.62832">
        <ele>453</ele>
        <time>2017-10-07T13:43:34Z</time>
      </trkpt>
      <trkpt lat="43.32016" lon="-1.62833">
        <ele>453</ele>
        <time>2017-10-07T13:43:34Z</time>
      </trkpt>
      <trkpt lat="43.32013" lon="-1.62832">
        <ele>453</ele>
        <time>2017-10-07T13:43:34Z</time>
      </trkpt>
      <trkpt lat="43.32011" lon="-1.62833">
        <ele>453</ele>
        <time>2017-10-07T13:43:50Z</time>
      </trkpt>
      <trkpt lat="43.32008" lon="-1.62832">
        <ele>453</ele>
        <time>2017-10-07T13:43:50Z</time>
      </trkpt>
      <trkpt lat="43.32005" lon="-1.62831">
        <ele>453</ele>
        <time>2017-10-07T13:43:50Z</time>
      </trkpt>
      <trkpt lat="43.32001" lon="-1.6283">
        <ele>453</ele>
        <time>2017-10-07T13:43:50Z</time>
      </trkpt>
      <trkpt lat="43.31997" lon="-1.62829">
        <ele>453</ele>
        <time>2017-10-07T13:44:06Z</time>
      </trkpt>
      <trkpt lat="43.31994" lon="-1.62829">
        <ele>453</ele>
        <time>2017-10-07T13:44:06Z</time>
      </trkpt>
      <trkpt lat="43.3199" lon="-1.6283">
        <ele>453</ele>
        <time>2017-10-07T13:44:06Z</time>
      </trkpt>
      <trkpt lat="43.31987" lon="-1.62831">
        <ele>453</ele>
        <time>2017-10-07T13:44:06Z</time>
      </trkpt>
      <trkpt lat="43.31983" lon="-1.62829">
        <ele>453</ele>
        <time>2017-10-07T13:44:22Z</time>
      </trkpt>
      <trkpt lat="43.31979" lon="-1.62827">
        <ele>453</ele>
        <time>2017-10-07T13:44:22Z</time>
      </trkpt>
      <trkpt lat="43.31975" lon="-1.62826">
        <ele>453</ele>
        <time>2017-10-07T13:44:22Z</time>
      </trkpt>
      <trkpt lat="43.31973" lon="-1.62826">
        <ele>453</ele>
        <time>2017-10-07T13:44:22Z</time>
      </trkpt>
      <trkpt lat="43.3197" lon="-1.62827">
        <ele>453</ele>
        <time>2017-10-07T13:44:42Z</time>
      </trkpt>
      <trkpt lat="43.31966" lon="-1.62826">
        <ele>453</ele>
        <time>2017-10-07T13:44:42Z</time>
      </trkpt>
      <trkpt lat="43.31964" lon="-1.62825">
        <ele>453</ele>
        <time>2017-10-07T13:44:42Z</time>
      </trkpt>
      <trkpt lat="43.31961" lon="-1.62825">
        <ele>453</ele>
        <time>2017-10-07T13:44:42Z</time>
      </trkpt>
      <trkpt lat="43.3196" lon="-1.62823">
        <ele>453</ele>
        <time>2017-10-07T13:44:42Z</time>
      </trkpt>
      <trkpt lat="43.31956" lon="-1.62823">
        <ele>475</ele>
        <time>2017-10-07T13:45:06Z</time>
      </trkpt>
      <trkpt lat="43.31954" lon="-1.62822">
        <ele>475</ele>
        <time>2017-10-07T13:45:06Z</time>
      </trkpt>
      <trkpt lat="43.31951" lon="-1.62823">
        <ele>475</ele>
        <time>2017-10-07T13:45:06Z</time>
      </trkpt>
      <trkpt lat="43.3195" lon="-1.62824">
        <ele>475</ele>
        <time>2017-10-07T13:45:06Z</time>
      </trkpt>
      <trkpt lat="43.31948" lon="-1.62823">
        <ele>475</ele>
        <time>2017-10-07T13:45:06Z</time>
      </trkpt>
      <trkpt lat="43.31938" lon="-1.62824">
        <ele>475</ele>
        <time>2017-10-07T13:45:42Z</time>
      </trkpt>
      <trkpt lat="43.31935" lon="-1.62823">
        <ele>475</ele>
        <time>2017-10-07T13:45:42Z</time>
      </trkpt>
      <trkpt lat="43.31933" lon="-1.62821">
        <ele>475</ele>
        <time>2017-10-07T13:45:42Z</time>
      </trkpt>
      <trkpt lat="43.31931" lon="-1.6282">
        <ele>475</ele>
        <time>2017-10-07T13:45:42Z</time>
      </trkpt>
      <trkpt lat="43.31928" lon="-1.6282">
        <ele>475</ele>
        <time>2017-10-07T13:45:42Z</time>
      </trkpt>
      <trkpt lat="43.31922" lon="-1.62821">
        <ele>475</ele>
        <time>2017-10-07T13:46:10Z</time>
      </trkpt>
      <trkpt lat="43.3192" lon="-1.62821">
        <ele>475</ele>
        <time>2017-10-07T13:46:10Z</time>
      </trkpt>
      <trkpt lat="43.3192" lon="-1.62818">
        <ele>475</ele>
        <time>2017-10-07T13:46:10Z</time>
      </trkpt>
      <trkpt lat="43.31919" lon="-1.62816">
        <ele>475</ele>
        <time>2017-10-07T13:46:10Z</time>
      </trkpt>
      <trkpt lat="43.31917" lon="-1.62815">
        <ele>475</ele>
        <time>2017-10-07T13:46:10Z</time>
      </trkpt>
      <trkpt lat="43.31913" lon="-1.62817">
        <ele>475</ele>
        <time>2017-10-07T13:46:34Z</time>
      </trkpt>
      <trkpt lat="43.3191" lon="-1.62817">
        <ele>475</ele>
        <time>2017-10-07T13:46:34Z</time>
      </trkpt>
      <trkpt lat="43.31909" lon="-1.62818">
        <ele>475</ele>
        <time>2017-10-07T13:46:34Z</time>
      </trkpt>
      <trkpt lat="43.31908" lon="-1.62818">
        <ele>475</ele>
        <time>2017-10-07T13:46:34Z</time>
      </trkpt>
      <trkpt lat="43.31906" lon="-1.6282">
        <ele>475</ele>
        <time>2017-10-07T13:46:34Z</time>
      </trkpt>
      <trkpt lat="43.31904" lon="-1.62823">
        <ele>475</ele>
        <time>2017-10-07T13:46:54Z</time>
      </trkpt>
      <trkpt lat="43.31901" lon="-1.62824">
        <ele>475</ele>
        <time>2017-10-07T13:46:54Z</time>
      </trkpt>
      <trkpt lat="43.31897" lon="-1.62823">
        <ele>475</ele>
        <time>2017-10-07T13:46:54Z</time>
      </trkpt>
      <trkpt lat="43.31895" lon="-1.62822">
        <ele>475</ele>
        <time>2017-10-07T13:46:54Z</time>
      </trkpt>
      <trkpt lat="43.31893" lon="-1.62822">
        <ele>475</ele>
        <time>2017-10-07T13:46:54Z</time>
      </trkpt>
      <trkpt lat="43.31891" lon="-1.62821">
        <ele>475</ele>
        <time>2017-10-07T13:47:14Z</time>
      </trkpt>
      <trkpt lat="43.3189" lon="-1.6282">
        <ele>475</ele>
        <time>2017-10-07T13:47:14Z</time>
      </trkpt>
      <trkpt lat="43.31886" lon="-1.62819">
        <ele>475</ele>
        <time>2017-10-07T13:47:14Z</time>
      </trkpt>
      <trkpt lat="43.31884" lon="-1.62817">
        <ele>475</ele>
        <time>2017-10-07T13:47:15Z</time>
      </trkpt>
      <trkpt lat="43.31881" lon="-1.62816">
        <ele>475</ele>
        <time>2017-10-07T13:47:15Z</time>
      </trkpt>
      <trkpt lat="43.31877" lon="-1.62816">
        <ele>475</ele>
        <time>2017-10-07T13:47:30Z</time>
      </trkpt>
      <trkpt lat="43.31874" lon="-1.62817">
        <ele>497</ele>
        <time>2017-10-07T13:47:30Z</time>
      </trkpt>
      <trkpt lat="43.31871" lon="-1.62818">
        <ele>497</ele>
        <time>2017-10-07T13:47:30Z</time>
      </trkpt>
      <trkpt lat="43.31868" lon="-1.62819">
        <ele>497</ele>
        <time>2017-10-07T13:47:30Z</time>
      </trkpt>
      <trkpt lat="43.31866" lon="-1.6282">
        <ele>497</ele>
        <time>2017-10-07T13:47:50Z</time>
      </trkpt>
      <trkpt lat="43.31864" lon="-1.6282">
        <ele>497</ele>
        <time>2017-10-07T13:47:50Z</time>
      </trkpt>
      <trkpt lat="43.31861" lon="-1.62821">
        <ele>497</ele>
        <time>2017-10-07T13:47:51Z</time>
      </trkpt>
      <trkpt lat="43.31858" lon="-1.62822">
        <ele>497</ele>
        <time>2017-10-07T13:47:51Z</time>
      </trkpt>
      <trkpt lat="43.31856" lon="-1.62823">
        <ele>497</ele>
        <time>2017-10-07T13:47:51Z</time>
      </trkpt>
      <trkpt lat="43.31852" lon="-1.62824">
        <ele>497</ele>
        <time>2017-10-07T13:48:06Z</time>
      </trkpt>
      <trkpt lat="43.3185" lon="-1.62825">
        <ele>497</ele>
        <time>2017-10-07T13:48:06Z</time>
      </trkpt>
      <trkpt lat="43.31844" lon="-1.62824">
        <ele>497</ele>
        <time>2017-10-07T13:48:06Z</time>
      </trkpt>
      <trkpt lat="43.31841" lon="-1.62824">
        <ele>497</ele>
        <time>2017-10-07T13:48:06Z</time>
      </trkpt>
      <trkpt lat="43.3184" lon="-1.62827">
        <ele>497</ele>
        <time>2017-10-07T13:48:38Z</time>
      </trkpt>
      <trkpt lat="43.31837" lon="-1.62828">
        <ele>497</ele>
        <time>2017-10-07T13:48:38Z</time>
      </trkpt>
      <trkpt lat="43.31835" lon="-1.6283">
        <ele>497</ele>
        <time>2017-10-07T13:48:38Z</time>
      </trkpt>
      <trkpt lat="43.31832" lon="-1.62832">
        <ele>497</ele>
        <time>2017-10-07T13:48:38Z</time>
      </trkpt>
      <trkpt lat="43.3183" lon="-1.62834">
        <ele>497</ele>
        <time>2017-10-07T13:48:38Z</time>
      </trkpt>
      <trkpt lat="43.31828" lon="-1.62835">
        <ele>497</ele>
        <time>2017-10-07T13:48:58Z</time>
      </trkpt>
      <trkpt lat="43.31826" lon="-1.62834">
        <ele>497</ele>
        <time>2017-10-07T13:48:58Z</time>
      </trkpt>
      <trkpt lat="43.31823" lon="-1.62835">
        <ele>497</ele>
        <time>2017-10-07T13:48:58Z</time>
      </trkpt>
      <trkpt lat="43.3182" lon="-1.62836">
        <ele>497</ele>
        <time>2017-10-07T13:48:58Z</time>
      </trkpt>
      <trkpt lat="43.31817" lon="-1.62836">
        <ele>497</ele>
        <time>2017-10-07T13:48:58Z</time>
      </trkpt>
      <trkpt lat="43.31811" lon="-1.62832">
        <ele>497</ele>
        <time>2017-10-07T13:49:22Z</time>
      </trkpt>
      <trkpt lat="43.3181" lon="-1.62833">
        <ele>497</ele>
        <time>2017-10-07T13:49:22Z</time>
      </trkpt>
      <trkpt lat="43.31808" lon="-1.62833">
        <ele>497</ele>
        <time>2017-10-07T13:49:22Z</time>
      </trkpt>
      <trkpt lat="43.31805" lon="-1.62833">
        <ele>497</ele>
        <time>2017-10-07T13:49:22Z</time>
      </trkpt>
      <trkpt lat="43.31805" lon="-1.62835">
        <ele>497</ele>
        <time>2017-10-07T13:49:22Z</time>
      </trkpt>
      <trkpt lat="43.31806" lon="-1.62835">
        <ele>497</ele>
        <time>2017-10-07T13:49:58Z</time>
      </trkpt>
      <trkpt lat="43.31803" lon="-1.62837">
        <ele>497</ele>
        <time>2017-10-07T13:49:58Z</time>
      </trkpt>
      <trkpt lat="43.318" lon="-1.62838">
        <ele>497</ele>
        <time>2017-10-07T13:49:58Z</time>
      </trkpt>
      <trkpt lat="43.31796" lon="-1.62838">
        <ele>497</ele>
        <time>2017-10-07T13:49:58Z</time>
      </trkpt>
      <trkpt lat="43.31794" lon="-1.6284">
        <ele>497</ele>
        <time>2017-10-07T13:49:58Z</time>
      </trkpt>
      <trkpt lat="43.31788" lon="-1.62841">
        <ele>521</ele>
        <time>2017-10-07T13:50:22Z</time>
      </trkpt>
      <trkpt lat="43.31787" lon="-1.62842">
        <ele>521</ele>
        <time>2017-10-07T13:50:22Z</time>
      </trkpt>
      <trkpt lat="43.31785" lon="-1.62844">
        <ele>521</ele>
        <time>2017-10-07T13:50:22Z</time>
      </trkpt>
      <trkpt lat="43.31783" lon="-1.62845">
        <ele>521</ele>
        <time>2017-10-07T13:50:22Z</time>
      </trkpt>
      <trkpt lat="43.31782" lon="-1.62848">
        <ele>521</ele>
        <time>2017-10-07T13:50:22Z</time>
      </trkpt>
      <trkpt lat="43.3178" lon="-1.62853">
        <ele>521</ele>
        <time>2017-10-07T13:50:58Z</time>
      </trkpt>
      <trkpt lat="43.31778" lon="-1.62854">
        <ele>521</ele>
        <time>2017-10-07T13:50:58Z</time>
      </trkpt>
      <trkpt lat="43.31776" lon="-1.62855">
        <ele>521</ele>
        <time>2017-10-07T13:50:58Z</time>
      </trkpt>
      <trkpt lat="43.31773" lon="-1.62857">
        <ele>521</ele>
        <time>2017-10-07T13:50:58Z</time>
      </trkpt>
      <trkpt lat="43.3177" lon="-1.6286">
        <ele>521</ele>
        <time>2017-10-07T13:50:58Z</time>
      </trkpt>
      <trkpt lat="43.31769" lon="-1.62861">
        <ele>521</ele>
        <time>2017-10-07T13:51:18Z</time>
      </trkpt>
      <trkpt lat="43.31764" lon="-1.62861">
        <ele>521</ele>
        <time>2017-10-07T13:51:18Z</time>
      </trkpt>
      <trkpt lat="43.31763" lon="-1.62861">
        <ele>521</ele>
        <time>2017-10-07T13:51:18Z</time>
      </trkpt>
      <trkpt lat="43.3176" lon="-1.62862">
        <ele>521</ele>
        <time>2017-10-07T13:51:18Z</time>
      </trkpt>
      <trkpt lat="43.31757" lon="-1.62863">
        <ele>521</ele>
        <time>2017-10-07T13:51:18Z</time>
      </trkpt>
      <trkpt lat="43.31756" lon="-1.62866">
        <ele>521</ele>
        <time>2017-10-07T13:51:38Z</time>
      </trkpt>
      <trkpt lat="43.31754" lon="-1.62868">
        <ele>521</ele>
        <time>2017-10-07T13:51:38Z</time>
      </trkpt>
      <trkpt lat="43.31752" lon="-1.62869">
        <ele>521</ele>
        <time>2017-10-07T13:51:38Z</time>
      </trkpt>
      <trkpt lat="43.3175" lon="-1.62872">
        <ele>521</ele>
        <time>2017-10-07T13:51:38Z</time>
      </trkpt>
      <trkpt lat="43.31748" lon="-1.62873">
        <ele>521</ele>
        <time>2017-10-07T13:51:38Z</time>
      </trkpt>
      <trkpt lat="43.31746" lon="-1.62871">
        <ele>521</ele>
        <time>2017-10-07T13:51:58Z</time>
      </trkpt>
      <trkpt lat="43.31745" lon="-1.62873">
        <ele>521</ele>
        <time>2017-10-07T13:51:58Z</time>
      </trkpt>
      <trkpt lat="43.31742" lon="-1.62876">
        <ele>524</ele>
        <time>2017-10-07T13:51:58Z</time>
      </trkpt>
      <trkpt lat="43.3174" lon="-1.62878">
        <ele>524</ele>
        <time>2017-10-07T13:51:58Z</time>
      </trkpt>
      <trkpt lat="43.31737" lon="-1.62881">
        <ele>524</ele>
        <time>2017-10-07T13:51:58Z</time>
      </trkpt>
      <trkpt lat="43.31732" lon="-1.62884">
        <ele>524</ele>
        <time>2017-10-07T13:52:22Z</time>
      </trkpt>
      <trkpt lat="43.31732" lon="-1.62885">
        <ele>524</ele>
        <time>2017-10-07T13:52:22Z</time>
      </trkpt>
      <trkpt lat="43.31729" lon="-1.6289">
        <ele>524</ele>
        <time>2017-10-07T13:52:22Z</time>
      </trkpt>
      <trkpt lat="43.31728" lon="-1.62892">
        <ele>524</ele>
        <time>2017-10-07T13:52:22Z</time>
      </trkpt>
      <trkpt lat="43.31725" lon="-1.62894">
        <ele>524</ele>
        <time>2017-10-07T13:52:22Z</time>
      </trkpt>
      <trkpt lat="43.3172" lon="-1.62898">
        <ele>524</ele>
        <time>2017-10-07T13:52:38Z</time>
      </trkpt>
      <trkpt lat="43.31716" lon="-1.62901">
        <ele>524</ele>
        <time>2017-10-07T13:52:38Z</time>
      </trkpt>
      <trkpt lat="43.31712" lon="-1.62904">
        <ele>524</ele>
        <time>2017-10-07T13:52:38Z</time>
      </trkpt>
      <trkpt lat="43.31708" lon="-1.62905">
        <ele>537</ele>
        <time>2017-10-07T13:52:38Z</time>
      </trkpt>
      <trkpt lat="43.31704" lon="-1.6291">
        <ele>537</ele>
        <time>2017-10-07T13:52:54Z</time>
      </trkpt>
      <trkpt lat="43.31703" lon="-1.62914">
        <ele>537</ele>
        <time>2017-10-07T13:52:54Z</time>
      </trkpt>
      <trkpt lat="43.317" lon="-1.62918">
        <ele>537</ele>
        <time>2017-10-07T13:52:54Z</time>
      </trkpt>
      <trkpt lat="43.31697" lon="-1.62923">
        <ele>537</ele>
        <time>2017-10-07T13:52:54Z</time>
      </trkpt>
      <trkpt lat="43.31692" lon="-1.6293">
        <ele>537</ele>
        <time>2017-10-07T13:53:18Z</time>
      </trkpt>
      <trkpt lat="43.31692" lon="-1.62931">
        <ele>537</ele>
        <time>2017-10-07T13:53:18Z</time>
      </trkpt>
      <trkpt lat="43.31693" lon="-1.62934">
        <ele>537</ele>
        <time>2017-10-07T13:53:18Z</time>
      </trkpt>
      <trkpt lat="43.31691" lon="-1.62939">
        <ele>537</ele>
        <time>2017-10-07T13:53:18Z</time>
      </trkpt>
      <trkpt lat="43.3169" lon="-1.62941">
        <ele>537</ele>
        <time>2017-10-07T13:53:18Z</time>
      </trkpt>
      <trkpt lat="43.31687" lon="-1.62949">
        <ele>537</ele>
        <time>2017-10-07T13:53:50Z</time>
      </trkpt>
      <trkpt lat="43.31685" lon="-1.6295">
        <ele>537</ele>
        <time>2017-10-07T13:53:50Z</time>
      </trkpt>
      <trkpt lat="43.31684" lon="-1.62953">
        <ele>537</ele>
        <time>2017-10-07T13:53:50Z</time>
      </trkpt>
      <trkpt lat="43.31685" lon="-1.62958">
        <ele>550</ele>
        <time>2017-10-07T13:53:50Z</time>
      </trkpt>
      <trkpt lat="43.31683" lon="-1.62963">
        <ele>550</ele>
        <time>2017-10-07T13:53:50Z</time>
      </trkpt>
      <trkpt lat="43.31683" lon="-1.62967">
        <ele>550</ele>
        <time>2017-10-07T13:54:06Z</time>
      </trkpt>
      <trkpt lat="43.31681" lon="-1.62974">
        <ele>550</ele>
        <time>2017-10-07T13:54:06Z</time>
      </trkpt>
      <trkpt lat="43.3168" lon="-1.62985">
        <ele>550</ele>
        <time>2017-10-07T13:54:06Z</time>
      </trkpt>
      <trkpt lat="43.31679" lon="-1.6299">
        <ele>550</ele>
        <time>2017-10-07T13:54:06Z</time>
      </trkpt>
      <trkpt lat="43.31681" lon="-1.63003">
        <ele>550</ele>
        <time>2017-10-07T13:55:14Z</time>
      </trkpt>
      <trkpt lat="43.31683" lon="-1.63002">
        <ele>550</ele>
        <time>2017-10-07T13:55:14Z</time>
      </trkpt>
      <trkpt lat="43.31686" lon="-1.63005">
        <ele>550</ele>
        <time>2017-10-07T13:55:14Z</time>
      </trkpt>
      <trkpt lat="43.31686" lon="-1.63005">
        <ele>550</ele>
        <time>2017-10-07T13:55:14Z</time>
      </trkpt>
      <trkpt lat="43.31687" lon="-1.63006">
        <ele>550</ele>
        <time>2017-10-07T13:55:14Z</time>
      </trkpt>
      <trkpt lat="43.31687" lon="-1.63006">
        <ele>550</ele>
        <time>2017-10-07T13:55:58Z</time>
      </trkpt>
      <trkpt lat="43.31687" lon="-1.63008">
        <ele>550</ele>
        <time>2017-10-07T13:55:59Z</time>
      </trkpt>
      <trkpt lat="43.31688" lon="-1.63011">
        <ele>550</ele>
        <time>2017-10-07T13:55:59Z</time>
      </trkpt>
      <trkpt lat="43.3169" lon="-1.63019">
        <ele>550</ele>
        <time>2017-10-07T13:55:59Z</time>
      </trkpt>
      <trkpt lat="43.31692" lon="-1.63022">
        <ele>550</ele>
        <time>2017-10-07T13:56:18Z</time>
      </trkpt>
      <trkpt lat="43.31693" lon="-1.63027">
        <ele>550</ele>
        <time>2017-10-07T13:56:18Z</time>
      </trkpt>
      <trkpt lat="43.31694" lon="-1.6303">
        <ele>550</ele>
        <time>2017-10-07T13:56:18Z</time>
      </trkpt>
      <trkpt lat="43.31694" lon="-1.6303">
        <ele>550</ele>
        <time>2017-10-07T13:56:18Z</time>
      </trkpt>
      <trkpt lat="43.31696" lon="-1.63035">
        <ele>550</ele>
        <time>2017-10-07T13:56:18Z</time>
      </trkpt>
      <trkpt lat="43.31698" lon="-1.63045">
        <ele>564</ele>
        <time>2017-10-07T13:56:34Z</time>
      </trkpt>
      <trkpt lat="43.31697" lon="-1.63053">
        <ele>564</ele>
        <time>2017-10-07T13:56:34Z</time>
      </trkpt>
      <trkpt lat="43.31698" lon="-1.63055">
        <ele>564</ele>
        <time>2017-10-07T13:56:34Z</time>
      </trkpt>
      <trkpt lat="43.31699" lon="-1.63064">
        <ele>564</ele>
        <time>2017-10-07T13:56:34Z</time>
      </trkpt>
      <trkpt lat="43.31704" lon="-1.6307">
        <ele>564</ele>
        <time>2017-10-07T13:56:50Z</time>
      </trkpt>
      <trkpt lat="43.31707" lon="-1.63077">
        <ele>564</ele>
        <time>2017-10-07T13:56:50Z</time>
      </trkpt>
      <trkpt lat="43.31711" lon="-1.63083">
        <ele>551</ele>
        <time>2017-10-07T13:56:50Z</time>
      </trkpt>
      <trkpt lat="43.31717" lon="-1.63088">
        <ele>551</ele>
        <time>2017-10-07T13:56:50Z</time>
      </trkpt>
      <trkpt lat="43.31722" lon="-1.63094">
        <ele>551</ele>
        <time>2017-10-07T13:57:06Z</time>
      </trkpt>
      <trkpt lat="43.31724" lon="-1.63098">
        <ele>551</ele>
        <time>2017-10-07T13:57:06Z</time>
      </trkpt>
      <trkpt lat="43.31726" lon="-1.631">
        <ele>551</ele>
        <time>2017-10-07T13:57:06Z</time>
      </trkpt>
      <trkpt lat="43.3173" lon="-1.63102">
        <ele>551</ele>
        <time>2017-10-07T13:57:06Z</time>
      </trkpt>
      <trkpt lat="43.31732" lon="-1.63103">
        <ele>551</ele>
        <time>2017-10-07T13:57:22Z</time>
      </trkpt>
      <trkpt lat="43.31735" lon="-1.63103">
        <ele>551</ele>
        <time>2017-10-07T13:57:22Z</time>
      </trkpt>
      <trkpt lat="43.31738" lon="-1.63104">
        <ele>551</ele>
        <time>2017-10-07T13:57:22Z</time>
      </trkpt>
      <trkpt lat="43.31743" lon="-1.63102">
        <ele>551</ele>
        <time>2017-10-07T13:57:22Z</time>
      </trkpt>
      <trkpt lat="43.3175" lon="-1.631">
        <ele>551</ele>
        <time>2017-10-07T13:57:38Z</time>
      </trkpt>
      <trkpt lat="43.31754" lon="-1.631">
        <ele>551</ele>
        <time>2017-10-07T13:57:38Z</time>
      </trkpt>
      <trkpt lat="43.31757" lon="-1.631">
        <ele>551</ele>
        <time>2017-10-07T13:57:38Z</time>
      </trkpt>
      <trkpt lat="43.31761" lon="-1.63101">
        <ele>551</ele>
        <time>2017-10-07T13:57:38Z</time>
      </trkpt>
      <trkpt lat="43.31768" lon="-1.63109">
        <ele>551</ele>
        <time>2017-10-07T13:58:30Z</time>
      </trkpt>
      <trkpt lat="43.31767" lon="-1.63112">
        <ele>551</ele>
        <time>2017-10-07T13:58:30Z</time>
      </trkpt>
      <trkpt lat="43.31766" lon="-1.63113">
        <ele>551</ele>
        <time>2017-10-07T13:58:30Z</time>
      </trkpt>
      <trkpt lat="43.31766" lon="-1.63113">
        <ele>551</ele>
        <time>2017-10-07T13:58:30Z</time>
      </trkpt>
      <trkpt lat="43.31766" lon="-1.63114">
        <ele>551</ele>
        <time>2017-10-07T13:58:30Z</time>
      </trkpt>
      <trkpt lat="43.31766" lon="-1.63117">
        <ele>551</ele>
        <time>2017-10-07T13:58:50Z</time>
      </trkpt>
      <trkpt lat="43.31768" lon="-1.63119">
        <ele>551</ele>
        <time>2017-10-07T13:58:50Z</time>
      </trkpt>
      <trkpt lat="43.31771" lon="-1.63122">
        <ele>551</ele>
        <time>2017-10-07T13:58:50Z</time>
      </trkpt>
      <trkpt lat="43.31774" lon="-1.63125">
        <ele>551</ele>
        <time>2017-10-07T13:58:50Z</time>
      </trkpt>
      <trkpt lat="43.31777" lon="-1.63129">
        <ele>553</ele>
        <time>2017-10-07T13:58:50Z</time>
      </trkpt>
      <trkpt lat="43.31786" lon="-1.63151">
        <ele>553</ele>
        <time>2017-10-07T13:59:46Z</time>
      </trkpt>
      <trkpt lat="43.31786" lon="-1.63153">
        <ele>553</ele>
        <time>2017-10-07T13:59:46Z</time>
      </trkpt>
      <trkpt lat="43.31785" lon="-1.6316">
        <ele>553</ele>
        <time>2017-10-07T13:59:46Z</time>
      </trkpt>
      <trkpt lat="43.31781" lon="-1.63166">
        <ele>553</ele>
        <time>2017-10-07T13:59:47Z</time>
      </trkpt>
      <trkpt lat="43.31778" lon="-1.63171">
        <ele>553</ele>
        <time>2017-10-07T13:59:47Z</time>
      </trkpt>
      <trkpt lat="43.31775" lon="-1.63174">
        <ele>553</ele>
        <time>2017-10-07T14:00:02Z</time>
      </trkpt>
      <trkpt lat="43.31771" lon="-1.63181">
        <ele>553</ele>
        <time>2017-10-07T14:00:02Z</time>
      </trkpt>
      <trkpt lat="43.31766" lon="-1.63185">
        <ele>553</ele>
        <time>2017-10-07T14:00:02Z</time>
      </trkpt>
      <trkpt lat="43.31763" lon="-1.63191">
        <ele>553</ele>
        <time>2017-10-07T14:00:03Z</time>
      </trkpt>
      <trkpt lat="43.31761" lon="-1.63196">
        <ele>553</ele>
        <time>2017-10-07T14:00:18Z</time>
      </trkpt>
      <trkpt lat="43.31759" lon="-1.63202">
        <ele>553</ele>
        <time>2017-10-07T14:00:18Z</time>
      </trkpt>
      <trkpt lat="43.31756" lon="-1.63207">
        <ele>553</ele>
        <time>2017-10-07T14:00:18Z</time>
      </trkpt>
      <trkpt lat="43.31754" lon="-1.63212">
        <ele>558</ele>
        <time>2017-10-07T14:00:18Z</time>
      </trkpt>
      <trkpt lat="43.31751" lon="-1.63217">
        <ele>558</ele>
        <time>2017-10-07T14:00:34Z</time>
      </trkpt>
      <trkpt lat="43.31748" lon="-1.6322">
        <ele>558</ele>
        <time>2017-10-07T14:00:34Z</time>
      </trkpt>
      <trkpt lat="43.31743" lon="-1.63223">
        <ele>558</ele>
        <time>2017-10-07T14:00:34Z</time>
      </trkpt>
      <trkpt lat="43.31741" lon="-1.63229">
        <ele>558</ele>
        <time>2017-10-07T14:00:34Z</time>
      </trkpt>
      <trkpt lat="43.31738" lon="-1.63236">
        <ele>558</ele>
        <time>2017-10-07T14:00:50Z</time>
      </trkpt>
      <trkpt lat="43.31735" lon="-1.63239">
        <ele>558</ele>
        <time>2017-10-07T14:00:50Z</time>
      </trkpt>
      <trkpt lat="43.31731" lon="-1.63242">
        <ele>558</ele>
        <time>2017-10-07T14:00:50Z</time>
      </trkpt>
      <trkpt lat="43.31726" lon="-1.63245">
        <ele>558</ele>
        <time>2017-10-07T14:00:50Z</time>
      </trkpt>
      <trkpt lat="43.31723" lon="-1.63251">
        <ele>558</ele>
        <time>2017-10-07T14:01:06Z</time>
      </trkpt>
      <trkpt lat="43.31721" lon="-1.63255">
        <ele>558</ele>
        <time>2017-10-07T14:01:06Z</time>
      </trkpt>
      <trkpt lat="43.31719" lon="-1.63258">
        <ele>558</ele>
        <time>2017-10-07T14:01:06Z</time>
      </trkpt>
      <trkpt lat="43.31717" lon="-1.63262">
        <ele>558</ele>
        <time>2017-10-07T14:01:06Z</time>
      </trkpt>
      <trkpt lat="43.31713" lon="-1.63266">
        <ele>558</ele>
        <time>2017-10-07T14:01:22Z</time>
      </trkpt>
      <trkpt lat="43.31709" lon="-1.63269">
        <ele>558</ele>
        <time>2017-10-07T14:01:22Z</time>
      </trkpt>
      <trkpt lat="43.31707" lon="-1.63274">
        <ele>566</ele>
        <time>2017-10-07T14:01:22Z</time>
      </trkpt>
      <trkpt lat="43.317" lon="-1.63279">
        <ele>566</ele>
        <time>2017-10-07T14:01:23Z</time>
      </trkpt>
      <trkpt lat="43.31699" lon="-1.63281">
        <ele>566</ele>
        <time>2017-10-07T14:01:38Z</time>
      </trkpt>
      <trkpt lat="43.31696" lon="-1.63284">
        <ele>566</ele>
        <time>2017-10-07T14:01:38Z</time>
      </trkpt>
      <trkpt lat="43.31693" lon="-1.63286">
        <ele>566</ele>
        <time>2017-10-07T14:01:38Z</time>
      </trkpt>
      <trkpt lat="43.31691" lon="-1.63288">
        <ele>566</ele>
        <time>2017-10-07T14:01:39Z</time>
      </trkpt>
      <trkpt lat="43.31688" lon="-1.63291">
        <ele>566</ele>
        <time>2017-10-07T14:01:54Z</time>
      </trkpt>
      <trkpt lat="43.31687" lon="-1.63296">
        <ele>562</ele>
        <time>2017-10-07T14:01:54Z</time>
      </trkpt>
      <trkpt lat="43.31685" lon="-1.63301">
        <ele>562</ele>
        <time>2017-10-07T14:01:54Z</time>
      </trkpt>
      <trkpt lat="43.31682" lon="-1.63307">
        <ele>562</ele>
        <time>2017-10-07T14:01:54Z</time>
      </trkpt>
      <trkpt lat="43.3168" lon="-1.63309">
        <ele>562</ele>
        <time>2017-10-07T14:03:02Z</time>
      </trkpt>
      <trkpt lat="43.31677" lon="-1.63314">
        <ele>562</ele>
        <time>2017-10-07T14:03:02Z</time>
      </trkpt>
      <trkpt lat="43.31673" lon="-1.63318">
        <ele>562</ele>
        <time>2017-10-07T14:03:02Z</time>
      </trkpt>
      <trkpt lat="43.3167" lon="-1.63322">
        <ele>562</ele>
        <time>2017-10-07T14:03:03Z</time>
      </trkpt>
      <trkpt lat="43.31668" lon="-1.63327">
        <ele>562</ele>
        <time>2017-10-07T14:03:03Z</time>
      </trkpt>
      <trkpt lat="43.31664" lon="-1.63328">
        <ele>562</ele>
        <time>2017-10-07T14:03:18Z</time>
      </trkpt>
      <trkpt lat="43.31658" lon="-1.63329">
        <ele>562</ele>
        <time>2017-10-07T14:03:18Z</time>
      </trkpt>
      <trkpt lat="43.31654" lon="-1.63327">
        <ele>562</ele>
        <time>2017-10-07T14:03:18Z</time>
      </trkpt>
      <trkpt lat="43.31652" lon="-1.63327">
        <ele>562</ele>
        <time>2017-10-07T14:03:19Z</time>
      </trkpt>
      <trkpt lat="43.3165" lon="-1.63329">
        <ele>562</ele>
        <time>2017-10-07T14:03:34Z</time>
      </trkpt>
      <trkpt lat="43.31646" lon="-1.63329">
        <ele>562</ele>
        <time>2017-10-07T14:03:34Z</time>
      </trkpt>
      <trkpt lat="43.31645" lon="-1.63331">
        <ele>562</ele>
        <time>2017-10-07T14:03:34Z</time>
      </trkpt>
      <trkpt lat="43.31641" lon="-1.63334">
        <ele>562</ele>
        <time>2017-10-07T14:03:35Z</time>
      </trkpt>
      <trkpt lat="43.31637" lon="-1.63336">
        <ele>562</ele>
        <time>2017-10-07T14:03:50Z</time>
      </trkpt>
      <trkpt lat="43.31633" lon="-1.63338">
        <ele>562</ele>
        <time>2017-10-07T14:03:50Z</time>
      </trkpt>
      <trkpt lat="43.3163" lon="-1.6334">
        <ele>562</ele>
        <time>2017-10-07T14:03:50Z</time>
      </trkpt>
      <trkpt lat="43.31627" lon="-1.63342">
        <ele>562</ele>
        <time>2017-10-07T14:03:51Z</time>
      </trkpt>
      <trkpt lat="43.31626" lon="-1.6334">
        <ele>562</ele>
        <time>2017-10-07T14:04:06Z</time>
      </trkpt>
      <trkpt lat="43.31623" lon="-1.6334">
        <ele>582</ele>
        <time>2017-10-07T14:04:06Z</time>
      </trkpt>
      <trkpt lat="43.31619" lon="-1.63338">
        <ele>582</ele>
        <time>2017-10-07T14:04:06Z</time>
      </trkpt>
      <trkpt lat="43.31615" lon="-1.63334">
        <ele>582</ele>
        <time>2017-10-07T14:04:07Z</time>
      </trkpt>
      <trkpt lat="43.31613" lon="-1.63333">
        <ele>582</ele>
        <time>2017-10-07T14:04:26Z</time>
      </trkpt>
      <trkpt lat="43.31611" lon="-1.63328">
        <ele>582</ele>
        <time>2017-10-07T14:04:26Z</time>
      </trkpt>
      <trkpt lat="43.3161" lon="-1.63325">
        <ele>582</ele>
        <time>2017-10-07T14:04:26Z</time>
      </trkpt>
      <trkpt lat="43.31608" lon="-1.63322">
        <ele>582</ele>
        <time>2017-10-07T14:04:27Z</time>
      </trkpt>
      <trkpt lat="43.31604" lon="-1.63324">
        <ele>582</ele>
        <time>2017-10-07T14:04:27Z</time>
      </trkpt>
      <trkpt lat="43.31602" lon="-1.63322">
        <ele>582</ele>
        <time>2017-10-07T14:04:42Z</time>
      </trkpt>
      <trkpt lat="43.31599" lon="-1.63319">
        <ele>582</ele>
        <time>2017-10-07T14:04:42Z</time>
      </trkpt>
      <trkpt lat="43.31596" lon="-1.63316">
        <ele>582</ele>
        <time>2017-10-07T14:04:42Z</time>
      </trkpt>
      <trkpt lat="43.31593" lon="-1.63314">
        <ele>582</ele>
        <time>2017-10-07T14:04:42Z</time>
      </trkpt>
      <trkpt lat="43.31591" lon="-1.63313">
        <ele>582</ele>
        <time>2017-10-07T14:04:58Z</time>
      </trkpt>
      <trkpt lat="43.31589" lon="-1.6331">
        <ele>582</ele>
        <time>2017-10-07T14:04:58Z</time>
      </trkpt>
      <trkpt lat="43.31586" lon="-1.6331">
        <ele>582</ele>
        <time>2017-10-07T14:04:58Z</time>
      </trkpt>
      <trkpt lat="43.31582" lon="-1.63308">
        <ele>582</ele>
        <time>2017-10-07T14:04:58Z</time>
      </trkpt>
      <trkpt lat="43.3158" lon="-1.63308">
        <ele>582</ele>
        <time>2017-10-07T14:05:14Z</time>
      </trkpt>
      <trkpt lat="43.31577" lon="-1.63308">
        <ele>582</ele>
        <time>2017-10-07T14:05:14Z</time>
      </trkpt>
      <trkpt lat="43.31573" lon="-1.63309">
        <ele>582</ele>
        <time>2017-10-07T14:05:14Z</time>
      </trkpt>
      <trkpt lat="43.3157" lon="-1.63309">
        <ele>582</ele>
        <time>2017-10-07T14:05:14Z</time>
      </trkpt>
      <trkpt lat="43.3156" lon="-1.63304">
        <ele>582</ele>
        <time>2017-10-07T14:05:46Z</time>
      </trkpt>
      <trkpt lat="43.3156" lon="-1.63302">
        <ele>582</ele>
        <time>2017-10-07T14:05:46Z</time>
      </trkpt>
      <trkpt lat="43.31557" lon="-1.63299">
        <ele>582</ele>
        <time>2017-10-07T14:05:46Z</time>
      </trkpt>
      <trkpt lat="43.31553" lon="-1.63297">
        <ele>582</ele>
        <time>2017-10-07T14:05:46Z</time>
      </trkpt>
      <trkpt lat="43.31548" lon="-1.63296">
        <ele>582</ele>
        <time>2017-10-07T14:05:47Z</time>
      </trkpt>
      <trkpt lat="43.31545" lon="-1.63296">
        <ele>582</ele>
        <time>2017-10-07T14:06:02Z</time>
      </trkpt>
      <trkpt lat="43.31542" lon="-1.63294">
        <ele>582</ele>
        <time>2017-10-07T14:06:02Z</time>
      </trkpt>
      <trkpt lat="43.31539" lon="-1.6329">
        <ele>600</ele>
        <time>2017-10-07T14:06:02Z</time>
      </trkpt>
      <trkpt lat="43.31537" lon="-1.63287">
        <ele>600</ele>
        <time>2017-10-07T14:06:02Z</time>
      </trkpt>
      <trkpt lat="43.31534" lon="-1.63284">
        <ele>600</ele>
        <time>2017-10-07T14:06:18Z</time>
      </trkpt>
      <trkpt lat="43.31531" lon="-1.63279">
        <ele>600</ele>
        <time>2017-10-07T14:06:18Z</time>
      </trkpt>
      <trkpt lat="43.31528" lon="-1.63279">
        <ele>600</ele>
        <time>2017-10-07T14:06:18Z</time>
      </trkpt>
      <trkpt lat="43.31524" lon="-1.63277">
        <ele>600</ele>
        <time>2017-10-07T14:06:19Z</time>
      </trkpt>
      <trkpt lat="43.31521" lon="-1.63273">
        <ele>600</ele>
        <time>2017-10-07T14:06:34Z</time>
      </trkpt>
      <trkpt lat="43.31518" lon="-1.6327">
        <ele>600</ele>
        <time>2017-10-07T14:06:34Z</time>
      </trkpt>
      <trkpt lat="43.31514" lon="-1.63266">
        <ele>600</ele>
        <time>2017-10-07T14:06:34Z</time>
      </trkpt>
      <trkpt lat="43.31512" lon="-1.63263">
        <ele>600</ele>
        <time>2017-10-07T14:06:35Z</time>
      </trkpt>
      <trkpt lat="43.31508" lon="-1.63263">
        <ele>600</ele>
        <time>2017-10-07T14:06:50Z</time>
      </trkpt>
      <trkpt lat="43.31504" lon="-1.63263">
        <ele>600</ele>
        <time>2017-10-07T14:06:50Z</time>
      </trkpt>
      <trkpt lat="43.31502" lon="-1.63261">
        <ele>600</ele>
        <time>2017-10-07T14:06:50Z</time>
      </trkpt>
      <trkpt lat="43.31498" lon="-1.63258">
        <ele>600</ele>
        <time>2017-10-07T14:06:50Z</time>
      </trkpt>
      <trkpt lat="43.31495" lon="-1.63255">
        <ele>600</ele>
        <time>2017-10-07T14:07:10Z</time>
      </trkpt>
      <trkpt lat="43.31494" lon="-1.63254">
        <ele>600</ele>
        <time>2017-10-07T14:07:10Z</time>
      </trkpt>
      <trkpt lat="43.31492" lon="-1.63254">
        <ele>600</ele>
        <time>2017-10-07T14:07:10Z</time>
      </trkpt>
      <trkpt lat="43.31489" lon="-1.63251">
        <ele>600</ele>
        <time>2017-10-07T14:07:10Z</time>
      </trkpt>
      <trkpt lat="43.31485" lon="-1.63249">
        <ele>600</ele>
        <time>2017-10-07T14:07:11Z</time>
      </trkpt>
      <trkpt lat="43.31482" lon="-1.63245">
        <ele>600</ele>
        <time>2017-10-07T14:07:26Z</time>
      </trkpt>
      <trkpt lat="43.31479" lon="-1.63243">
        <ele>600</ele>
        <time>2017-10-07T14:07:26Z</time>
      </trkpt>
      <trkpt lat="43.31476" lon="-1.6324">
        <ele>600</ele>
        <time>2017-10-07T14:07:26Z</time>
      </trkpt>
      <trkpt lat="43.31474" lon="-1.63236">
        <ele>600</ele>
        <time>2017-10-07T14:07:26Z</time>
      </trkpt>
      <trkpt lat="43.31473" lon="-1.63234">
        <ele>600</ele>
        <time>2017-10-07T14:07:42Z</time>
      </trkpt>
      <trkpt lat="43.31471" lon="-1.63232">
        <ele>600</ele>
        <time>2017-10-07T14:07:42Z</time>
      </trkpt>
      <trkpt lat="43.31468" lon="-1.63229">
        <ele>600</ele>
        <time>2017-10-07T14:07:42Z</time>
      </trkpt>
      <trkpt lat="43.31465" lon="-1.63226">
        <ele>600</ele>
        <time>2017-10-07T14:07:43Z</time>
      </trkpt>
      <trkpt lat="43.31466" lon="-1.63222">
        <ele>600</ele>
        <time>2017-10-07T14:08:14Z</time>
      </trkpt>
      <trkpt lat="43.31459" lon="-1.63222">
        <ele>600</ele>
        <time>2017-10-07T14:08:14Z</time>
      </trkpt>
      <trkpt lat="43.31454" lon="-1.63224">
        <ele>620</ele>
        <time>2017-10-07T14:08:14Z</time>
      </trkpt>
      <trkpt lat="43.31453" lon="-1.63224">
        <ele>620</ele>
        <time>2017-10-07T14:08:15Z</time>
      </trkpt>
      <trkpt lat="43.31449" lon="-1.63222">
        <ele>620</ele>
        <time>2017-10-07T14:08:15Z</time>
      </trkpt>
      <trkpt lat="43.31446" lon="-1.63221">
        <ele>620</ele>
        <time>2017-10-07T14:08:30Z</time>
      </trkpt>
      <trkpt lat="43.31442" lon="-1.6322">
        <ele>620</ele>
        <time>2017-10-07T14:08:30Z</time>
      </trkpt>
      <trkpt lat="43.31439" lon="-1.63221">
        <ele>620</ele>
        <time>2017-10-07T14:08:31Z</time>
      </trkpt>
      <trkpt lat="43.31436" lon="-1.63218">
        <ele>620</ele>
        <time>2017-10-07T14:08:31Z</time>
      </trkpt>
      <trkpt lat="43.31435" lon="-1.63219">
        <ele>620</ele>
        <time>2017-10-07T14:09:02Z</time>
      </trkpt>
      <trkpt lat="43.31434" lon="-1.63222">
        <ele>620</ele>
        <time>2017-10-07T14:09:02Z</time>
      </trkpt>
      <trkpt lat="43.3143" lon="-1.63221">
        <ele>620</ele>
        <time>2017-10-07T14:09:03Z</time>
      </trkpt>
      <trkpt lat="43.31426" lon="-1.63216">
        <ele>620</ele>
        <time>2017-10-07T14:09:03Z</time>
      </trkpt>
      <trkpt lat="43.31424" lon="-1.63213">
        <ele>620</ele>
        <time>2017-10-07T14:09:03Z</time>
      </trkpt>
      <trkpt lat="43.31423" lon="-1.63209">
        <ele>620</ele>
        <time>2017-10-07T14:09:22Z</time>
      </trkpt>
      <trkpt lat="43.31421" lon="-1.63206">
        <ele>619</ele>
        <time>2017-10-07T14:09:22Z</time>
      </trkpt>
      <trkpt lat="43.31419" lon="-1.63204">
        <ele>619</ele>
        <time>2017-10-07T14:09:22Z</time>
      </trkpt>
      <trkpt lat="43.31418" lon="-1.63202">
        <ele>619</ele>
        <time>2017-10-07T14:09:23Z</time>
      </trkpt>
      <trkpt lat="43.31416" lon="-1.63199">
        <ele>619</ele>
        <time>2017-10-07T14:09:23Z</time>
      </trkpt>
      <trkpt lat="43.31415" lon="-1.63199">
        <ele>619</ele>
        <time>2017-10-07T14:09:42Z</time>
      </trkpt>
      <trkpt lat="43.31415" lon="-1.63197">
        <ele>619</ele>
        <time>2017-10-07T14:09:42Z</time>
      </trkpt>
      <trkpt lat="43.31413" lon="-1.63194">
        <ele>619</ele>
        <time>2017-10-07T14:09:42Z</time>
      </trkpt>
      <trkpt lat="43.31411" lon="-1.63192">
        <ele>619</ele>
        <time>2017-10-07T14:09:42Z</time>
      </trkpt>
      <trkpt lat="43.31408" lon="-1.6319">
        <ele>619</ele>
        <time>2017-10-07T14:09:43Z</time>
      </trkpt>
      <trkpt lat="43.31406" lon="-1.63185">
        <ele>619</ele>
        <time>2017-10-07T14:10:18Z</time>
      </trkpt>
      <trkpt lat="43.31406" lon="-1.63184">
        <ele>619</ele>
        <time>2017-10-07T14:10:18Z</time>
      </trkpt>
      <trkpt lat="43.31405" lon="-1.63183">
        <ele>619</ele>
        <time>2017-10-07T14:10:18Z</time>
      </trkpt>
      <trkpt lat="43.31403" lon="-1.63179">
        <ele>619</ele>
        <time>2017-10-07T14:10:18Z</time>
      </trkpt>
      <trkpt lat="43.31401" lon="-1.63174">
        <ele>619</ele>
        <time>2017-10-07T14:10:19Z</time>
      </trkpt>
      <trkpt lat="43.31399" lon="-1.63172">
        <ele>619</ele>
        <time>2017-10-07T14:10:38Z</time>
      </trkpt>
      <trkpt lat="43.31398" lon="-1.63169">
        <ele>619</ele>
        <time>2017-10-07T14:10:38Z</time>
      </trkpt>
      <trkpt lat="43.31397" lon="-1.63166">
        <ele>619</ele>
        <time>2017-10-07T14:10:38Z</time>
      </trkpt>
      <trkpt lat="43.31396" lon="-1.63163">
        <ele>619</ele>
        <time>2017-10-07T14:10:38Z</time>
      </trkpt>
      <trkpt lat="43.31395" lon="-1.63159">
        <ele>619</ele>
        <time>2017-10-07T14:10:39Z</time>
      </trkpt>
      <trkpt lat="43.31389" lon="-1.63155">
        <ele>619</ele>
        <time>2017-10-07T14:11:34Z</time>
      </trkpt>
      <trkpt lat="43.31386" lon="-1.63154">
        <ele>619</ele>
        <time>2017-10-07T14:11:34Z</time>
      </trkpt>
      <trkpt lat="43.31382" lon="-1.63157">
        <ele>619</ele>
        <time>2017-10-07T14:11:34Z</time>
      </trkpt>
      <trkpt lat="43.31381" lon="-1.63158">
        <ele>619</ele>
        <time>2017-10-07T14:11:35Z</time>
      </trkpt>
      <trkpt lat="43.31377" lon="-1.63159">
        <ele>619</ele>
        <time>2017-10-07T14:11:35Z</time>
      </trkpt>
      <trkpt lat="43.31373" lon="-1.63162">
        <ele>646</ele>
        <time>2017-10-07T14:11:50Z</time>
      </trkpt>
      <trkpt lat="43.31371" lon="-1.63165">
        <ele>646</ele>
        <time>2017-10-07T14:11:50Z</time>
      </trkpt>
      <trkpt lat="43.31364" lon="-1.63164">
        <ele>646</ele>
        <time>2017-10-07T14:11:50Z</time>
      </trkpt>
      <trkpt lat="43.31362" lon="-1.6316">
        <ele>646</ele>
        <time>2017-10-07T14:11:50Z</time>
      </trkpt>
      <trkpt lat="43.31358" lon="-1.63158">
        <ele>646</ele>
        <time>2017-10-07T14:12:18Z</time>
      </trkpt>
      <trkpt lat="43.31355" lon="-1.6316">
        <ele>646</ele>
        <time>2017-10-07T14:12:18Z</time>
      </trkpt>
      <trkpt lat="43.31354" lon="-1.63162">
        <ele>646</ele>
        <time>2017-10-07T14:12:18Z</time>
      </trkpt>
      <trkpt lat="43.31354" lon="-1.63163">
        <ele>646</ele>
        <time>2017-10-07T14:12:18Z</time>
      </trkpt>
      <trkpt lat="43.31352" lon="-1.6317">
        <ele>646</ele>
        <time>2017-10-07T14:12:19Z</time>
      </trkpt>
      <trkpt lat="43.31351" lon="-1.63175">
        <ele>646</ele>
        <time>2017-10-07T14:12:46Z</time>
      </trkpt>
      <trkpt lat="43.31351" lon="-1.63175">
        <ele>646</ele>
        <time>2017-10-07T14:12:46Z</time>
      </trkpt>
      <trkpt lat="43.3135" lon="-1.63169">
        <ele>646</ele>
        <time>2017-10-07T14:12:47Z</time>
      </trkpt>
      <trkpt lat="43.31349" lon="-1.63165">
        <ele>646</ele>
        <time>2017-10-07T14:12:47Z</time>
      </trkpt>
      <trkpt lat="43.31347" lon="-1.63158">
        <ele>646</ele>
        <time>2017-10-07T14:12:47Z</time>
      </trkpt>
      <trkpt lat="43.31345" lon="-1.63155">
        <ele>646</ele>
        <time>2017-10-07T14:13:06Z</time>
      </trkpt>
      <trkpt lat="43.31344" lon="-1.63154">
        <ele>646</ele>
        <time>2017-10-07T14:13:06Z</time>
      </trkpt>
      <trkpt lat="43.31341" lon="-1.63154">
        <ele>646</ele>
        <time>2017-10-07T14:13:06Z</time>
      </trkpt>
      <trkpt lat="43.31339" lon="-1.63153">
        <ele>646</ele>
        <time>2017-10-07T14:13:06Z</time>
      </trkpt>
      <trkpt lat="43.31334" lon="-1.63153">
        <ele>646</ele>
        <time>2017-10-07T14:13:07Z</time>
      </trkpt>
      <trkpt lat="43.31329" lon="-1.63151">
        <ele>646</ele>
        <time>2017-10-07T14:13:30Z</time>
      </trkpt>
      <trkpt lat="43.31327" lon="-1.6315">
        <ele>646</ele>
        <time>2017-10-07T14:13:30Z</time>
      </trkpt>
      <trkpt lat="43.31325" lon="-1.63148">
        <ele>646</ele>
        <time>2017-10-07T14:13:30Z</time>
      </trkpt>
      <trkpt lat="43.31324" lon="-1.6315">
        <ele>646</ele>
        <time>2017-10-07T14:13:31Z</time>
      </trkpt>
      <trkpt lat="43.31322" lon="-1.63151">
        <ele>646</ele>
        <time>2017-10-07T14:13:31Z</time>
      </trkpt>
      <trkpt lat="43.3132" lon="-1.6315">
        <ele>646</ele>
        <time>2017-10-07T14:14:10Z</time>
      </trkpt>
      <trkpt lat="43.31319" lon="-1.63149">
        <ele>646</ele>
        <time>2017-10-07T14:14:10Z</time>
      </trkpt>
      <trkpt lat="43.31319" lon="-1.63148">
        <ele>646</ele>
        <time>2017-10-07T14:14:10Z</time>
      </trkpt>
      <trkpt lat="43.31317" lon="-1.63144">
        <ele>646</ele>
        <time>2017-10-07T14:14:10Z</time>
      </trkpt>
      <trkpt lat="43.31315" lon="-1.63139">
        <ele>646</ele>
        <time>2017-10-07T14:14:11Z</time>
      </trkpt>
      <trkpt lat="43.31313" lon="-1.63135">
        <ele>646</ele>
        <time>2017-10-07T14:14:26Z</time>
      </trkpt>
      <trkpt lat="43.31311" lon="-1.63133">
        <ele>646</ele>
        <time>2017-10-07T14:14:26Z</time>
      </trkpt>
      <trkpt lat="43.31308" lon="-1.6313">
        <ele>646</ele>
        <time>2017-10-07T14:14:26Z</time>
      </trkpt>
      <trkpt lat="43.31304" lon="-1.63128">
        <ele>646</ele>
        <time>2017-10-07T14:14:27Z</time>
      </trkpt>
      <trkpt lat="43.31302" lon="-1.63123">
        <ele>632</ele>
        <time>2017-10-07T14:14:50Z</time>
      </trkpt>
      <trkpt lat="43.31301" lon="-1.63122">
        <ele>632</ele>
        <time>2017-10-07T14:14:50Z</time>
      </trkpt>
      <trkpt lat="43.31299" lon="-1.6312">
        <ele>632</ele>
        <time>2017-10-07T14:14:50Z</time>
      </trkpt>
      <trkpt lat="43.31297" lon="-1.63117">
        <ele>632</ele>
        <time>2017-10-07T14:14:50Z</time>
      </trkpt>
      <trkpt lat="43.31296" lon="-1.63116">
        <ele>632</ele>
        <time>2017-10-07T14:14:51Z</time>
      </trkpt>
      <trkpt lat="43.31293" lon="-1.63114">
        <ele>632</ele>
        <time>2017-10-07T14:15:10Z</time>
      </trkpt>
      <trkpt lat="43.31291" lon="-1.6311">
        <ele>666</ele>
        <time>2017-10-07T14:15:10Z</time>
      </trkpt>
      <trkpt lat="43.3129" lon="-1.63105">
        <ele>666</ele>
        <time>2017-10-07T14:15:10Z</time>
      </trkpt>
      <trkpt lat="43.31288" lon="-1.63105">
        <ele>666</ele>
        <time>2017-10-07T14:15:10Z</time>
      </trkpt>
      <trkpt lat="43.31285" lon="-1.63102">
        <ele>666</ele>
        <time>2017-10-07T14:15:11Z</time>
      </trkpt>
      <trkpt lat="43.3128" lon="-1.63095">
        <ele>666</ele>
        <time>2017-10-07T14:15:38Z</time>
      </trkpt>
      <trkpt lat="43.3128" lon="-1.63094">
        <ele>666</ele>
        <time>2017-10-07T14:15:38Z</time>
      </trkpt>
      <trkpt lat="43.31278" lon="-1.63094">
        <ele>666</ele>
        <time>2017-10-07T14:15:38Z</time>
      </trkpt>
      <trkpt lat="43.31276" lon="-1.63092">
        <ele>666</ele>
        <time>2017-10-07T14:15:39Z</time>
      </trkpt>
      <trkpt lat="43.31274" lon="-1.6309">
        <ele>666</ele>
        <time>2017-10-07T14:15:39Z</time>
      </trkpt>
      <trkpt lat="43.31274" lon="-1.63092">
        <ele>666</ele>
        <time>2017-10-07T14:16:42Z</time>
      </trkpt>
      <trkpt lat="43.31268" lon="-1.63089">
        <ele>666</ele>
        <time>2017-10-07T14:16:42Z</time>
      </trkpt>
      <trkpt lat="43.31266" lon="-1.63087">
        <ele>666</ele>
        <time>2017-10-07T14:16:43Z</time>
      </trkpt>
      <trkpt lat="43.31264" lon="-1.63085">
        <ele>666</ele>
        <time>2017-10-07T14:16:43Z</time>
      </trkpt>
      <trkpt lat="43.31262" lon="-1.63082">
        <ele>666</ele>
        <time>2017-10-07T14:16:43Z</time>
      </trkpt>
      <trkpt lat="43.31262" lon="-1.63078">
        <ele>666</ele>
        <time>2017-10-07T14:16:58Z</time>
      </trkpt>
      <trkpt lat="43.3126" lon="-1.63073">
        <ele>666</ele>
        <time>2017-10-07T14:16:58Z</time>
      </trkpt>
      <trkpt lat="43.31257" lon="-1.63069">
        <ele>666</ele>
        <time>2017-10-07T14:16:58Z</time>
      </trkpt>
      <trkpt lat="43.31254" lon="-1.63067">
        <ele>666</ele>
        <time>2017-10-07T14:16:59Z</time>
      </trkpt>
      <trkpt lat="43.31251" lon="-1.63068">
        <ele>666</ele>
        <time>2017-10-07T14:17:22Z</time>
      </trkpt>
      <trkpt lat="43.31249" lon="-1.63068">
        <ele>666</ele>
        <time>2017-10-07T14:17:22Z</time>
      </trkpt>
      <trkpt lat="43.31245" lon="-1.63066">
        <ele>666</ele>
        <time>2017-10-07T14:17:22Z</time>
      </trkpt>
      <trkpt lat="43.31243" lon="-1.63065">
        <ele>666</ele>
        <time>2017-10-07T14:17:23Z</time>
      </trkpt>
      <trkpt lat="43.31241" lon="-1.63062">
        <ele>666</ele>
        <time>2017-10-07T14:17:23Z</time>
      </trkpt>
      <trkpt lat="43.31235" lon="-1.63062">
        <ele>666</ele>
        <time>2017-10-07T14:18:14Z</time>
      </trkpt>
      <trkpt lat="43.31237" lon="-1.63065">
        <ele>666</ele>
        <time>2017-10-07T14:18:14Z</time>
      </trkpt>
      <trkpt lat="43.31237" lon="-1.63069">
        <ele>666</ele>
        <time>2017-10-07T14:18:14Z</time>
      </trkpt>
      <trkpt lat="43.31235" lon="-1.63071">
        <ele>666</ele>
        <time>2017-10-07T14:18:14Z</time>
      </trkpt>
      <trkpt lat="43.31234" lon="-1.63074">
        <ele>666</ele>
        <time>2017-10-07T14:18:15Z</time>
      </trkpt>
      <trkpt lat="43.31234" lon="-1.63078">
        <ele>666</ele>
        <time>2017-10-07T14:18:34Z</time>
      </trkpt>
      <trkpt lat="43.31233" lon="-1.63081">
        <ele>666</ele>
        <time>2017-10-07T14:18:34Z</time>
      </trkpt>
      <trkpt lat="43.31232" lon="-1.63084">
        <ele>666</ele>
        <time>2017-10-07T14:18:34Z</time>
      </trkpt>
      <trkpt lat="43.31233" lon="-1.63087">
        <ele>666</ele>
        <time>2017-10-07T14:18:34Z</time>
      </trkpt>
      <trkpt lat="43.31232" lon="-1.6309">
        <ele>666</ele>
        <time>2017-10-07T14:18:35Z</time>
      </trkpt>
      <trkpt lat="43.31232" lon="-1.63092">
        <ele>666</ele>
        <time>2017-10-07T14:18:54Z</time>
      </trkpt>
      <trkpt lat="43.31232" lon="-1.63095">
        <ele>666</ele>
        <time>2017-10-07T14:18:54Z</time>
      </trkpt>
      <trkpt lat="43.31233" lon="-1.63098">
        <ele>666</ele>
        <time>2017-10-07T14:18:54Z</time>
      </trkpt>
      <trkpt lat="43.31233" lon="-1.63101">
        <ele>666</ele>
        <time>2017-10-07T14:18:55Z</time>
      </trkpt>
      <trkpt lat="43.31232" lon="-1.63106">
        <ele>666</ele>
        <time>2017-10-07T14:18:55Z</time>
      </trkpt>
      <trkpt lat="43.31231" lon="-1.63113">
        <ele>666</ele>
        <time>2017-10-07T14:19:18Z</time>
      </trkpt>
      <trkpt lat="43.31231" lon="-1.63116">
        <ele>666</ele>
        <time>2017-10-07T14:19:18Z</time>
      </trkpt>
      <trkpt lat="43.31229" lon="-1.63118">
        <ele>666</ele>
        <time>2017-10-07T14:19:18Z</time>
      </trkpt>
      <trkpt lat="43.31229" lon="-1.6312">
        <ele>666</ele>
        <time>2017-10-07T14:19:19Z</time>
      </trkpt>
      <trkpt lat="43.31229" lon="-1.63121">
        <ele>666</ele>
        <time>2017-10-07T14:19:19Z</time>
      </trkpt>
      <trkpt lat="43.31229" lon="-1.63125">
        <ele>675</ele>
        <time>2017-10-07T14:19:42Z</time>
      </trkpt>
      <trkpt lat="43.31228" lon="-1.63129">
        <ele>675</ele>
        <time>2017-10-07T14:19:42Z</time>
      </trkpt>
      <trkpt lat="43.31227" lon="-1.63131">
        <ele>675</ele>
        <time>2017-10-07T14:19:42Z</time>
      </trkpt>
      <trkpt lat="43.31226" lon="-1.63135">
        <ele>675</ele>
        <time>2017-10-07T14:19:43Z</time>
      </trkpt>
      <trkpt lat="43.31225" lon="-1.63137">
        <ele>675</ele>
        <time>2017-10-07T14:19:43Z</time>
      </trkpt>
      <trkpt lat="43.31228" lon="-1.63143">
        <ele>675</ele>
        <time>2017-10-07T14:20:22Z</time>
      </trkpt>
      <trkpt lat="43.31227" lon="-1.63145">
        <ele>675</ele>
        <time>2017-10-07T14:20:22Z</time>
      </trkpt>
      <trkpt lat="43.31225" lon="-1.6315">
        <ele>675</ele>
        <time>2017-10-07T14:20:22Z</time>
      </trkpt>
      <trkpt lat="43.31225" lon="-1.63153">
        <ele>675</ele>
        <time>2017-10-07T14:20:22Z</time>
      </trkpt>
      <trkpt lat="43.31223" lon="-1.63156">
        <ele>675</ele>
        <time>2017-10-07T14:20:23Z</time>
      </trkpt>
      <trkpt lat="43.31223" lon="-1.63157">
        <ele>675</ele>
        <time>2017-10-07T14:20:42Z</time>
      </trkpt>
      <trkpt lat="43.31223" lon="-1.63158">
        <ele>675</ele>
        <time>2017-10-07T14:20:42Z</time>
      </trkpt>
      <trkpt lat="43.31222" lon="-1.63162">
        <ele>675</ele>
        <time>2017-10-07T14:20:42Z</time>
      </trkpt>
      <trkpt lat="43.31222" lon="-1.63166">
        <ele>675</ele>
        <time>2017-10-07T14:20:42Z</time>
      </trkpt>
      <trkpt lat="43.31221" lon="-1.6317">
        <ele>675</ele>
        <time>2017-10-07T14:20:43Z</time>
      </trkpt>
      <trkpt lat="43.3122" lon="-1.6317">
        <ele>675</ele>
        <time>2017-10-07T14:21:02Z</time>
      </trkpt>
      <trkpt lat="43.3122" lon="-1.63171">
        <ele>675</ele>
        <time>2017-10-07T14:21:02Z</time>
      </trkpt>
      <trkpt lat="43.31217" lon="-1.63166">
        <ele>675</ele>
        <time>2017-10-07T14:21:02Z</time>
      </trkpt>
      <trkpt lat="43.31216" lon="-1.63164">
        <ele>675</ele>
        <time>2017-10-07T14:21:03Z</time>
      </trkpt>
      <trkpt lat="43.31213" lon="-1.63162">
        <ele>675</ele>
        <time>2017-10-07T14:21:03Z</time>
      </trkpt>
      <trkpt lat="43.31211" lon="-1.63161">
        <ele>675</ele>
        <time>2017-10-07T14:21:22Z</time>
      </trkpt>
      <trkpt lat="43.31209" lon="-1.63158">
        <ele>675</ele>
        <time>2017-10-07T14:21:22Z</time>
      </trkpt>
      <trkpt lat="43.31207" lon="-1.63156">
        <ele>714</ele>
        <time>2017-10-07T14:21:22Z</time>
      </trkpt>
      <trkpt lat="43.31207" lon="-1.63153">
        <ele>714</ele>
        <time>2017-10-07T14:21:22Z</time>
      </trkpt>
      <trkpt lat="43.31206" lon="-1.63149">
        <ele>714</ele>
        <time>2017-10-07T14:21:23Z</time>
      </trkpt>
      <trkpt lat="43.31203" lon="-1.63146">
        <ele>714</ele>
        <time>2017-10-07T14:21:46Z</time>
      </trkpt>
      <trkpt lat="43.31201" lon="-1.63142">
        <ele>714</ele>
        <time>2017-10-07T14:21:46Z</time>
      </trkpt>
      <trkpt lat="43.31201" lon="-1.63139">
        <ele>714</ele>
        <time>2017-10-07T14:21:46Z</time>
      </trkpt>
      <trkpt lat="43.31199" lon="-1.63138">
        <ele>714</ele>
        <time>2017-10-07T14:21:46Z</time>
      </trkpt>
      <trkpt lat="43.31198" lon="-1.63135">
        <ele>714</ele>
        <time>2017-10-07T14:21:47Z</time>
      </trkpt>
      <trkpt lat="43.31194" lon="-1.6313">
        <ele>714</ele>
        <time>2017-10-07T14:22:14Z</time>
      </trkpt>
      <trkpt lat="43.31193" lon="-1.63128">
        <ele>714</ele>
        <time>2017-10-07T14:22:14Z</time>
      </trkpt>
      <trkpt lat="43.3119" lon="-1.63125">
        <ele>714</ele>
        <time>2017-10-07T14:22:14Z</time>
      </trkpt>
      <trkpt lat="43.31188" lon="-1.63126">
        <ele>714</ele>
        <time>2017-10-07T14:22:15Z</time>
      </trkpt>
      <trkpt lat="43.31186" lon="-1.63123">
        <ele>705</ele>
        <time>2017-10-07T14:22:15Z</time>
      </trkpt>
      <trkpt lat="43.31182" lon="-1.63117">
        <ele>705</ele>
        <time>2017-10-07T14:22:38Z</time>
      </trkpt>
      <trkpt lat="43.31182" lon="-1.63115">
        <ele>705</ele>
        <time>2017-10-07T14:22:38Z</time>
      </trkpt>
      <trkpt lat="43.3118" lon="-1.63113">
        <ele>705</ele>
        <time>2017-10-07T14:22:38Z</time>
      </trkpt>
      <trkpt lat="43.31179" lon="-1.63112">
        <ele>705</ele>
        <time>2017-10-07T14:22:39Z</time>
      </trkpt>
      <trkpt lat="43.31178" lon="-1.6311">
        <ele>705</ele>
        <time>2017-10-07T14:22:39Z</time>
      </trkpt>
      <trkpt lat="43.31177" lon="-1.63107">
        <ele>705</ele>
        <time>2017-10-07T14:22:54Z</time>
      </trkpt>
      <trkpt lat="43.31173" lon="-1.63103">
        <ele>705</ele>
        <time>2017-10-07T14:22:54Z</time>
      </trkpt>
      <trkpt lat="43.31172" lon="-1.63102">
        <ele>705</ele>
        <time>2017-10-07T14:22:54Z</time>
      </trkpt>
      <trkpt lat="43.3117" lon="-1.63098">
        <ele>705</ele>
        <time>2017-10-07T14:22:55Z</time>
      </trkpt>
      <trkpt lat="43.31166" lon="-1.63097">
        <ele>705</ele>
        <time>2017-10-07T14:23:26Z</time>
      </trkpt>
      <trkpt lat="43.31166" lon="-1.63099">
        <ele>705</ele>
        <time>2017-10-07T14:23:26Z</time>
      </trkpt>
      <trkpt lat="43.31165" lon="-1.63102">
        <ele>705</ele>
        <time>2017-10-07T14:23:26Z</time>
      </trkpt>
      <trkpt lat="43.31165" lon="-1.63103">
        <ele>705</ele>
        <time>2017-10-07T14:23:26Z</time>
      </trkpt>
      <trkpt lat="43.31164" lon="-1.63106">
        <ele>705</ele>
        <time>2017-10-07T14:23:27Z</time>
      </trkpt>
      <trkpt lat="43.31163" lon="-1.63108">
        <ele>705</ele>
        <time>2017-10-07T14:24:14Z</time>
      </trkpt>
      <trkpt lat="43.31161" lon="-1.63104">
        <ele>705</ele>
        <time>2017-10-07T14:24:14Z</time>
      </trkpt>
      <trkpt lat="43.31159" lon="-1.63098">
        <ele>705</ele>
        <time>2017-10-07T14:24:14Z</time>
      </trkpt>
      <trkpt lat="43.31156" lon="-1.63097">
        <ele>705</ele>
        <time>2017-10-07T14:24:15Z</time>
      </trkpt>
      <trkpt lat="43.31155" lon="-1.63094">
        <ele>705</ele>
        <time>2017-10-07T14:24:15Z</time>
      </trkpt>
      <trkpt lat="43.31153" lon="-1.63091">
        <ele>705</ele>
        <time>2017-10-07T14:24:34Z</time>
      </trkpt>
      <trkpt lat="43.31153" lon="-1.6309">
        <ele>705</ele>
        <time>2017-10-07T14:24:34Z</time>
      </trkpt>
      <trkpt lat="43.31151" lon="-1.63085">
        <ele>705</ele>
        <time>2017-10-07T14:24:34Z</time>
      </trkpt>
      <trkpt lat="43.31151" lon="-1.63081">
        <ele>705</ele>
        <time>2017-10-07T14:24:34Z</time>
      </trkpt>
      <trkpt lat="43.31149" lon="-1.63078">
        <ele>705</ele>
        <time>2017-10-07T14:24:35Z</time>
      </trkpt>
      <trkpt lat="43.3114" lon="-1.63077">
        <ele>705</ele>
        <time>2017-10-07T14:25:30Z</time>
      </trkpt>
      <trkpt lat="43.31141" lon="-1.6308">
        <ele>705</ele>
        <time>2017-10-07T14:25:30Z</time>
      </trkpt>
      <trkpt lat="43.31141" lon="-1.63083">
        <ele>705</ele>
        <time>2017-10-07T14:25:30Z</time>
      </trkpt>
      <trkpt lat="43.31139" lon="-1.63087">
        <ele>705</ele>
        <time>2017-10-07T14:25:31Z</time>
      </trkpt>
      <trkpt lat="43.31139" lon="-1.6309">
        <ele>705</ele>
        <time>2017-10-07T14:25:31Z</time>
      </trkpt>
      <trkpt lat="43.31138" lon="-1.63095">
        <ele>705</ele>
        <time>2017-10-07T14:25:46Z</time>
      </trkpt>
      <trkpt lat="43.31138" lon="-1.631">
        <ele>705</ele>
        <time>2017-10-07T14:25:46Z</time>
      </trkpt>
      <trkpt lat="43.31139" lon="-1.63103">
        <ele>705</ele>
        <time>2017-10-07T14:25:46Z</time>
      </trkpt>
      <trkpt lat="43.31138" lon="-1.63108">
        <ele>705</ele>
        <time>2017-10-07T14:25:47Z</time>
      </trkpt>
      <trkpt lat="43.31136" lon="-1.63114">
        <ele>705</ele>
        <time>2017-10-07T14:26:14Z</time>
      </trkpt>
      <trkpt lat="43.31135" lon="-1.63111">
        <ele>705</ele>
        <time>2017-10-07T14:26:14Z</time>
      </trkpt>
      <trkpt lat="43.31135" lon="-1.63109">
        <ele>705</ele>
        <time>2017-10-07T14:26:14Z</time>
      </trkpt>
      <trkpt lat="43.31131" lon="-1.63105">
        <ele>705</ele>
        <time>2017-10-07T14:26:14Z</time>
      </trkpt>
      <trkpt lat="43.3113" lon="-1.63103">
        <ele>705</ele>
        <time>2017-10-07T14:26:15Z</time>
      </trkpt>
      <trkpt lat="43.31124" lon="-1.63089">
        <ele>745</ele>
        <time>2017-10-07T14:26:58Z</time>
      </trkpt>
      <trkpt lat="43.31121" lon="-1.6309">
        <ele>745</ele>
        <time>2017-10-07T14:26:58Z</time>
      </trkpt>
      <trkpt lat="43.31119" lon="-1.63088">
        <ele>745</ele>
        <time>2017-10-07T14:26:58Z</time>
      </trkpt>
      <trkpt lat="43.31117" lon="-1.63085">
        <ele>745</ele>
        <time>2017-10-07T14:26:59Z</time>
      </trkpt>
      <trkpt lat="43.31117" lon="-1.63078">
        <ele>745</ele>
        <time>2017-10-07T14:26:59Z</time>
      </trkpt>
      <trkpt lat="43.31114" lon="-1.63077">
        <ele>745</ele>
        <time>2017-10-07T14:27:18Z</time>
      </trkpt>
      <trkpt lat="43.31112" lon="-1.63076">
        <ele>745</ele>
        <time>2017-10-07T14:27:18Z</time>
      </trkpt>
      <trkpt lat="43.31109" lon="-1.63073">
        <ele>745</ele>
        <time>2017-10-07T14:27:18Z</time>
      </trkpt>
      <trkpt lat="43.31107" lon="-1.63071">
        <ele>745</ele>
        <time>2017-10-07T14:27:18Z</time>
      </trkpt>
      <trkpt lat="43.31105" lon="-1.63068">
        <ele>745</ele>
        <time>2017-10-07T14:27:19Z</time>
      </trkpt>
      <trkpt lat="43.311" lon="-1.63064">
        <ele>745</ele>
        <time>2017-10-07T14:27:42Z</time>
      </trkpt>
      <trkpt lat="43.31099" lon="-1.63063">
        <ele>745</ele>
        <time>2017-10-07T14:27:43Z</time>
      </trkpt>
      <trkpt lat="43.31098" lon="-1.63061">
        <ele>745</ele>
        <time>2017-10-07T14:27:43Z</time>
      </trkpt>
      <trkpt lat="43.31096" lon="-1.63058">
        <ele>745</ele>
        <time>2017-10-07T14:27:43Z</time>
      </trkpt>
      <trkpt lat="43.31095" lon="-1.63055">
        <ele>745</ele>
        <time>2017-10-07T14:27:43Z</time>
      </trkpt>
      <trkpt lat="43.31093" lon="-1.63055">
        <ele>745</ele>
        <time>2017-10-07T14:28:18Z</time>
      </trkpt>
      <trkpt lat="43.31092" lon="-1.63057">
        <ele>745</ele>
        <time>2017-10-07T14:28:18Z</time>
      </trkpt>
      <trkpt lat="43.31092" lon="-1.63059">
        <ele>745</ele>
        <time>2017-10-07T14:28:18Z</time>
      </trkpt>
      <trkpt lat="43.31091" lon="-1.63061">
        <ele>745</ele>
        <time>2017-10-07T14:28:18Z</time>
      </trkpt>
      <trkpt lat="43.3109" lon="-1.63063">
        <ele>745</ele>
        <time>2017-10-07T14:28:19Z</time>
      </trkpt>
      <trkpt lat="43.3109" lon="-1.63065">
        <ele>745</ele>
        <time>2017-10-07T14:28:38Z</time>
      </trkpt>
      <trkpt lat="43.31089" lon="-1.63069">
        <ele>745</ele>
        <time>2017-10-07T14:28:38Z</time>
      </trkpt>
      <trkpt lat="43.31089" lon="-1.63072">
        <ele>745</ele>
        <time>2017-10-07T14:28:38Z</time>
      </trkpt>
      <trkpt lat="43.31089" lon="-1.63075">
        <ele>745</ele>
        <time>2017-10-07T14:28:38Z</time>
      </trkpt>
      <trkpt lat="43.31089" lon="-1.63079">
        <ele>745</ele>
        <time>2017-10-07T14:28:39Z</time>
      </trkpt>
      <trkpt lat="43.31087" lon="-1.63082">
        <ele>745</ele>
        <time>2017-10-07T14:28:58Z</time>
      </trkpt>
      <trkpt lat="43.31088" lon="-1.63084">
        <ele>745</ele>
        <time>2017-10-07T14:28:58Z</time>
      </trkpt>
      <trkpt lat="43.31089" lon="-1.63087">
        <ele>745</ele>
        <time>2017-10-07T14:28:58Z</time>
      </trkpt>
      <trkpt lat="43.31091" lon="-1.6309">
        <ele>745</ele>
        <time>2017-10-07T14:28:58Z</time>
      </trkpt>
      <trkpt lat="43.3109" lon="-1.63094">
        <ele>745</ele>
        <time>2017-10-07T14:28:59Z</time>
      </trkpt>
      <trkpt lat="43.31092" lon="-1.63099">
        <ele>745</ele>
        <time>2017-10-07T14:29:42Z</time>
      </trkpt>
      <trkpt lat="43.31095" lon="-1.63102">
        <ele>745</ele>
        <time>2017-10-07T14:29:42Z</time>
      </trkpt>
      <trkpt lat="43.31094" lon="-1.63108">
        <ele>745</ele>
        <time>2017-10-07T14:29:42Z</time>
      </trkpt>
      <trkpt lat="43.31093" lon="-1.63114">
        <ele>745</ele>
        <time>2017-10-07T14:29:43Z</time>
      </trkpt>
      <trkpt lat="43.31092" lon="-1.63119">
        <ele>745</ele>
        <time>2017-10-07T14:29:43Z</time>
      </trkpt>
      <trkpt lat="43.31093" lon="-1.63121">
        <ele>745</ele>
        <time>2017-10-07T14:29:58Z</time>
      </trkpt>
      <trkpt lat="43.31093" lon="-1.63126">
        <ele>756</ele>
        <time>2017-10-07T14:29:58Z</time>
      </trkpt>
      <trkpt lat="43.31093" lon="-1.63129">
        <ele>756</ele>
        <time>2017-10-07T14:29:58Z</time>
      </trkpt>
      <trkpt lat="43.31093" lon="-1.63135">
        <ele>756</ele>
        <time>2017-10-07T14:29:58Z</time>
      </trkpt>
      <trkpt lat="43.31093" lon="-1.63138">
        <ele>756</ele>
        <time>2017-10-07T14:30:18Z</time>
      </trkpt>
      <trkpt lat="43.31092" lon="-1.63142">
        <ele>756</ele>
        <time>2017-10-07T14:30:18Z</time>
      </trkpt>
      <trkpt lat="43.3109" lon="-1.63146">
        <ele>756</ele>
        <time>2017-10-07T14:30:18Z</time>
      </trkpt>
      <trkpt lat="43.3109" lon="-1.6315">
        <ele>756</ele>
        <time>2017-10-07T14:30:19Z</time>
      </trkpt>
      <trkpt lat="43.3109" lon="-1.63153">
        <ele>756</ele>
        <time>2017-10-07T14:30:19Z</time>
      </trkpt>
      <trkpt lat="43.31087" lon="-1.63158">
        <ele>756</ele>
        <time>2017-10-07T14:31:02Z</time>
      </trkpt>
      <trkpt lat="43.31085" lon="-1.6316">
        <ele>756</ele>
        <time>2017-10-07T14:31:02Z</time>
      </trkpt>
      <trkpt lat="43.31085" lon="-1.63164">
        <ele>756</ele>
        <time>2017-10-07T14:31:02Z</time>
      </trkpt>
      <trkpt lat="43.31083" lon="-1.63166">
        <ele>756</ele>
        <time>2017-10-07T14:31:03Z</time>
      </trkpt>
      <trkpt lat="43.31084" lon="-1.63169">
        <ele>756</ele>
        <time>2017-10-07T14:31:03Z</time>
      </trkpt>
      <trkpt lat="43.31083" lon="-1.63173">
        <ele>756</ele>
        <time>2017-10-07T14:31:58Z</time>
      </trkpt>
      <trkpt lat="43.3108" lon="-1.63171">
        <ele>756</ele>
        <time>2017-10-07T14:31:58Z</time>
      </trkpt>
      <trkpt lat="43.31076" lon="-1.63167">
        <ele>756</ele>
        <time>2017-10-07T14:31:58Z</time>
      </trkpt>
      <trkpt lat="43.31074" lon="-1.63164">
        <ele>756</ele>
        <time>2017-10-07T14:31:59Z</time>
      </trkpt>
      <trkpt lat="43.31071" lon="-1.63161">
        <ele>756</ele>
        <time>2017-10-07T14:31:59Z</time>
      </trkpt>
      <trkpt lat="43.3107" lon="-1.63157">
        <ele>756</ele>
        <time>2017-10-07T14:32:22Z</time>
      </trkpt>
      <trkpt lat="43.31069" lon="-1.63153">
        <ele>756</ele>
        <time>2017-10-07T14:32:22Z</time>
      </trkpt>
      <trkpt lat="43.31068" lon="-1.63153">
        <ele>756</ele>
        <time>2017-10-07T14:32:22Z</time>
      </trkpt>
      <trkpt lat="43.31065" lon="-1.63152">
        <ele>756</ele>
        <time>2017-10-07T14:32:23Z</time>
      </trkpt>
      <trkpt lat="43.31061" lon="-1.63148">
        <ele>756</ele>
        <time>2017-10-07T14:32:23Z</time>
      </trkpt>
      <trkpt lat="43.31059" lon="-1.63144">
        <ele>756</ele>
        <time>2017-10-07T14:32:42Z</time>
      </trkpt>
      <trkpt lat="43.31058" lon="-1.63138">
        <ele>756</ele>
        <time>2017-10-07T14:32:42Z</time>
      </trkpt>
      <trkpt lat="43.31057" lon="-1.63136">
        <ele>756</ele>
        <time>2017-10-07T14:32:43Z</time>
      </trkpt>
      <trkpt lat="43.31056" lon="-1.63134">
        <ele>756</ele>
        <time>2017-10-07T14:32:43Z</time>
      </trkpt>
      <trkpt lat="43.31055" lon="-1.63129">
        <ele>756</ele>
        <time>2017-10-07T14:32:43Z</time>
      </trkpt>
      <trkpt lat="43.31051" lon="-1.63129">
        <ele>756</ele>
        <time>2017-10-07T14:33:06Z</time>
      </trkpt>
      <trkpt lat="43.3105" lon="-1.63132">
        <ele>756</ele>
        <time>2017-10-07T14:33:06Z</time>
      </trkpt>
      <trkpt lat="43.3105" lon="-1.63134">
        <ele>756</ele>
        <time>2017-10-07T14:33:06Z</time>
      </trkpt>
      <trkpt lat="43.3105" lon="-1.63137">
        <ele>756</ele>
        <time>2017-10-07T14:33:07Z</time>
      </trkpt>
      <trkpt lat="43.31048" lon="-1.6314">
        <ele>756</ele>
        <time>2017-10-07T14:33:07Z</time>
      </trkpt>
      <trkpt lat="43.31045" lon="-1.63136">
        <ele>756</ele>
        <time>2017-10-07T14:33:34Z</time>
      </trkpt>
      <trkpt lat="43.31044" lon="-1.63134">
        <ele>756</ele>
        <time>2017-10-07T14:33:34Z</time>
      </trkpt>
      <trkpt lat="43.31043" lon="-1.63131">
        <ele>756</ele>
        <time>2017-10-07T14:33:34Z</time>
      </trkpt>
      <trkpt lat="43.31043" lon="-1.6313">
        <ele>756</ele>
        <time>2017-10-07T14:33:34Z</time>
      </trkpt>
      <trkpt lat="43.31042" lon="-1.6313">
        <ele>798</ele>
        <time>2017-10-07T14:33:35Z</time>
      </trkpt>
      <trkpt lat="43.31036" lon="-1.63126">
        <ele>798</ele>
        <time>2017-10-07T14:34:06Z</time>
      </trkpt>
      <trkpt lat="43.31035" lon="-1.63129">
        <ele>798</ele>
        <time>2017-10-07T14:34:06Z</time>
      </trkpt>
      <trkpt lat="43.31034" lon="-1.63131">
        <ele>798</ele>
        <time>2017-10-07T14:34:06Z</time>
      </trkpt>
      <trkpt lat="43.31034" lon="-1.63134">
        <ele>798</ele>
        <time>2017-10-07T14:34:07Z</time>
      </trkpt>
      <trkpt lat="43.31032" lon="-1.63136">
        <ele>798</ele>
        <time>2017-10-07T14:34:07Z</time>
      </trkpt>
      <trkpt lat="43.31029" lon="-1.6313">
        <ele>798</ele>
        <time>2017-10-07T14:34:34Z</time>
      </trkpt>
      <trkpt lat="43.31029" lon="-1.63128">
        <ele>798</ele>
        <time>2017-10-07T14:34:34Z</time>
      </trkpt>
      <trkpt lat="43.31027" lon="-1.63127">
        <ele>798</ele>
        <time>2017-10-07T14:34:34Z</time>
      </trkpt>
      <trkpt lat="43.31027" lon="-1.63126">
        <ele>798</ele>
        <time>2017-10-07T14:34:34Z</time>
      </trkpt>
      <trkpt lat="43.31027" lon="-1.63124">
        <ele>788</ele>
        <time>2017-10-07T14:34:35Z</time>
      </trkpt>
      <trkpt lat="43.31026" lon="-1.63123">
        <ele>788</ele>
        <time>2017-10-07T14:34:54Z</time>
      </trkpt>
      <trkpt lat="43.31023" lon="-1.63121">
        <ele>788</ele>
        <time>2017-10-07T14:34:54Z</time>
      </trkpt>
      <trkpt lat="43.31021" lon="-1.63119">
        <ele>788</ele>
        <time>2017-10-07T14:34:54Z</time>
      </trkpt>
      <trkpt lat="43.31018" lon="-1.63118">
        <ele>788</ele>
        <time>2017-10-07T14:34:55Z</time>
      </trkpt>
      <trkpt lat="43.31016" lon="-1.63116">
        <ele>788</ele>
        <time>2017-10-07T14:34:55Z</time>
      </trkpt>
      <trkpt lat="43.31008" lon="-1.63117">
        <ele>788</ele>
        <time>2017-10-07T14:35:46Z</time>
      </trkpt>
      <trkpt lat="43.31008" lon="-1.63119">
        <ele>788</ele>
        <time>2017-10-07T14:35:46Z</time>
      </trkpt>
      <trkpt lat="43.31008" lon="-1.63123">
        <ele>788</ele>
        <time>2017-10-07T14:35:46Z</time>
      </trkpt>
      <trkpt lat="43.31007" lon="-1.63125">
        <ele>798</ele>
        <time>2017-10-07T14:35:47Z</time>
      </trkpt>
      <trkpt lat="43.31007" lon="-1.63129">
        <ele>798</ele>
        <time>2017-10-07T14:35:47Z</time>
      </trkpt>
      <trkpt lat="43.31009" lon="-1.63135">
        <ele>798</ele>
        <time>2017-10-07T14:36:10Z</time>
      </trkpt>
      <trkpt lat="43.31007" lon="-1.6314">
        <ele>798</ele>
        <time>2017-10-07T14:36:10Z</time>
      </trkpt>
      <trkpt lat="43.31006" lon="-1.63142">
        <ele>798</ele>
        <time>2017-10-07T14:36:10Z</time>
      </trkpt>
      <trkpt lat="43.31005" lon="-1.63144">
        <ele>798</ele>
        <time>2017-10-07T14:36:11Z</time>
      </trkpt>
      <trkpt lat="43.31003" lon="-1.63147">
        <ele>798</ele>
        <time>2017-10-07T14:36:11Z</time>
      </trkpt>
      <trkpt lat="43.31" lon="-1.63155">
        <ele>798</ele>
        <time>2017-10-07T14:36:38Z</time>
      </trkpt>
      <trkpt lat="43.31001" lon="-1.63159">
        <ele>798</ele>
        <time>2017-10-07T14:36:38Z</time>
      </trkpt>
      <trkpt lat="43.31001" lon="-1.63162">
        <ele>798</ele>
        <time>2017-10-07T14:36:38Z</time>
      </trkpt>
      <trkpt lat="43.31001" lon="-1.63162">
        <ele>798</ele>
        <time>2017-10-07T14:36:39Z</time>
      </trkpt>
      <trkpt lat="43.31003" lon="-1.63163">
        <ele>798</ele>
        <time>2017-10-07T14:36:39Z</time>
      </trkpt>
      <trkpt lat="43.31004" lon="-1.63167">
        <ele>798</ele>
        <time>2017-10-07T14:36:54Z</time>
      </trkpt>
      <trkpt lat="43.31007" lon="-1.63169">
        <ele>798</ele>
        <time>2017-10-07T14:36:54Z</time>
      </trkpt>
      <trkpt lat="43.3101" lon="-1.63171">
        <ele>798</ele>
        <time>2017-10-07T14:36:54Z</time>
      </trkpt>
      <trkpt lat="43.31011" lon="-1.63178">
        <ele>798</ele>
        <time>2017-10-07T14:36:54Z</time>
      </trkpt>
      <trkpt lat="43.31011" lon="-1.63185">
        <ele>798</ele>
        <time>2017-10-07T14:37:18Z</time>
      </trkpt>
      <trkpt lat="43.3101" lon="-1.63188">
        <ele>798</ele>
        <time>2017-10-07T14:37:18Z</time>
      </trkpt>
      <trkpt lat="43.31009" lon="-1.63192">
        <ele>798</ele>
        <time>2017-10-07T14:37:18Z</time>
      </trkpt>
      <trkpt lat="43.31008" lon="-1.63194">
        <ele>798</ele>
        <time>2017-10-07T14:37:18Z</time>
      </trkpt>
      <trkpt lat="43.31008" lon="-1.63196">
        <ele>798</ele>
        <time>2017-10-07T14:37:19Z</time>
      </trkpt>
      <trkpt lat="43.31004" lon="-1.63198">
        <ele>798</ele>
        <time>2017-10-07T14:38:02Z</time>
      </trkpt>
      <trkpt lat="43.31005" lon="-1.632">
        <ele>798</ele>
        <time>2017-10-07T14:38:02Z</time>
      </trkpt>
      <trkpt lat="43.31005" lon="-1.63202">
        <ele>798</ele>
        <time>2017-10-07T14:38:02Z</time>
      </trkpt>
      <trkpt lat="43.31006" lon="-1.63206">
        <ele>798</ele>
        <time>2017-10-07T14:38:03Z</time>
      </trkpt>
      <trkpt lat="43.31005" lon="-1.63211">
        <ele>811</ele>
        <time>2017-10-07T14:38:03Z</time>
      </trkpt>
      <trkpt lat="43.30999" lon="-1.63215">
        <ele>811</ele>
        <time>2017-10-07T14:38:46Z</time>
      </trkpt>
      <trkpt lat="43.30998" lon="-1.63214">
        <ele>811</ele>
        <time>2017-10-07T14:38:46Z</time>
      </trkpt>
      <trkpt lat="43.30996" lon="-1.63214">
        <ele>811</ele>
        <time>2017-10-07T14:38:46Z</time>
      </trkpt>
      <trkpt lat="43.30995" lon="-1.63216">
        <ele>811</ele>
        <time>2017-10-07T14:38:47Z</time>
      </trkpt>
      <trkpt lat="43.30994" lon="-1.63218">
        <ele>811</ele>
        <time>2017-10-07T14:38:47Z</time>
      </trkpt>
      <trkpt lat="43.30989" lon="-1.63223">
        <ele>811</ele>
        <time>2017-10-07T14:39:50Z</time>
      </trkpt>
      <trkpt lat="43.30988" lon="-1.63224">
        <ele>811</ele>
        <time>2017-10-07T14:39:50Z</time>
      </trkpt>
      <trkpt lat="43.30987" lon="-1.63228">
        <ele>811</ele>
        <time>2017-10-07T14:39:50Z</time>
      </trkpt>
      <trkpt lat="43.30986" lon="-1.6323">
        <ele>811</ele>
        <time>2017-10-07T14:39:51Z</time>
      </trkpt>
      <trkpt lat="43.30986" lon="-1.63232">
        <ele>811</ele>
        <time>2017-10-07T14:39:51Z</time>
      </trkpt>
      <trkpt lat="43.30983" lon="-1.63233">
        <ele>811</ele>
        <time>2017-10-07T14:40:46Z</time>
      </trkpt>
      <trkpt lat="43.30981" lon="-1.63232">
        <ele>811</ele>
        <time>2017-10-07T14:40:46Z</time>
      </trkpt>
      <trkpt lat="43.30978" lon="-1.63231">
        <ele>811</ele>
        <time>2017-10-07T14:40:46Z</time>
      </trkpt>
      <trkpt lat="43.30977" lon="-1.63232">
        <ele>811</ele>
        <time>2017-10-07T14:40:46Z</time>
      </trkpt>
      <trkpt lat="43.30975" lon="-1.63232">
        <ele>811</ele>
        <time>2017-10-07T14:40:47Z</time>
      </trkpt>
      <trkpt lat="43.30974" lon="-1.63238">
        <ele>811</ele>
        <time>2017-10-07T14:41:10Z</time>
      </trkpt>
      <trkpt lat="43.30974" lon="-1.6324">
        <ele>811</ele>
        <time>2017-10-07T14:41:10Z</time>
      </trkpt>
      <trkpt lat="43.30975" lon="-1.63243">
        <ele>811</ele>
        <time>2017-10-07T14:41:10Z</time>
      </trkpt>
      <trkpt lat="43.30974" lon="-1.63245">
        <ele>811</ele>
        <time>2017-10-07T14:41:10Z</time>
      </trkpt>
      <trkpt lat="43.30973" lon="-1.63248">
        <ele>811</ele>
        <time>2017-10-07T14:41:11Z</time>
      </trkpt>
      <trkpt lat="43.30972" lon="-1.63257">
        <ele>811</ele>
        <time>2017-10-07T14:42:10Z</time>
      </trkpt>
      <trkpt lat="43.3097" lon="-1.63259">
        <ele>811</ele>
        <time>2017-10-07T14:42:10Z</time>
      </trkpt>
      <trkpt lat="43.3097" lon="-1.6326">
        <ele>811</ele>
        <time>2017-10-07T14:42:10Z</time>
      </trkpt>
      <trkpt lat="43.30971" lon="-1.63263">
        <ele>811</ele>
        <time>2017-10-07T14:42:10Z</time>
      </trkpt>
      <trkpt lat="43.3097" lon="-1.63264">
        <ele>811</ele>
        <time>2017-10-07T14:42:11Z</time>
      </trkpt>
      <trkpt lat="43.30969" lon="-1.6327">
        <ele>811</ele>
        <time>2017-10-07T14:42:38Z</time>
      </trkpt>
      <trkpt lat="43.30968" lon="-1.63271">
        <ele>811</ele>
        <time>2017-10-07T14:42:38Z</time>
      </trkpt>
      <trkpt lat="43.30966" lon="-1.63272">
        <ele>811</ele>
        <time>2017-10-07T14:42:38Z</time>
      </trkpt>
      <trkpt lat="43.30965" lon="-1.63274">
        <ele>811</ele>
        <time>2017-10-07T14:42:39Z</time>
      </trkpt>
      <trkpt lat="43.30964" lon="-1.63277">
        <ele>811</ele>
        <time>2017-10-07T14:42:39Z</time>
      </trkpt>
      <trkpt lat="43.30965" lon="-1.63283">
        <ele>811</ele>
        <time>2017-10-07T14:43:30Z</time>
      </trkpt>
      <trkpt lat="43.3096" lon="-1.63284">
        <ele>811</ele>
        <time>2017-10-07T14:43:30Z</time>
      </trkpt>
      <trkpt lat="43.30959" lon="-1.63285">
        <ele>811</ele>
        <time>2017-10-07T14:43:30Z</time>
      </trkpt>
      <trkpt lat="43.30959" lon="-1.63287">
        <ele>811</ele>
        <time>2017-10-07T14:43:30Z</time>
      </trkpt>
      <trkpt lat="43.30959" lon="-1.63291">
        <ele>811</ele>
        <time>2017-10-07T14:43:30Z</time>
      </trkpt>
      <trkpt lat="43.30955" lon="-1.63305">
        <ele>855</ele>
        <time>2017-10-07T14:44:18Z</time>
      </trkpt>
      <trkpt lat="43.30955" lon="-1.63308">
        <ele>855</ele>
        <time>2017-10-07T14:44:18Z</time>
      </trkpt>
      <trkpt lat="43.30953" lon="-1.63313">
        <ele>855</ele>
        <time>2017-10-07T14:44:18Z</time>
      </trkpt>
      <trkpt lat="43.30953" lon="-1.63317">
        <ele>855</ele>
        <time>2017-10-07T14:44:19Z</time>
      </trkpt>
      <trkpt lat="43.30951" lon="-1.63318">
        <ele>855</ele>
        <time>2017-10-07T14:44:19Z</time>
      </trkpt>
      <trkpt lat="43.30949" lon="-1.63319">
        <ele>855</ele>
        <time>2017-10-07T14:44:38Z</time>
      </trkpt>
      <trkpt lat="43.30947" lon="-1.63322">
        <ele>855</ele>
        <time>2017-10-07T14:44:38Z</time>
      </trkpt>
      <trkpt lat="43.30945" lon="-1.63325">
        <ele>855</ele>
        <time>2017-10-07T14:44:38Z</time>
      </trkpt>
      <trkpt lat="43.30942" lon="-1.63328">
        <ele>855</ele>
        <time>2017-10-07T14:44:39Z</time>
      </trkpt>
      <trkpt lat="43.30942" lon="-1.63329">
        <ele>855</ele>
        <time>2017-10-07T14:44:39Z</time>
      </trkpt>
      <trkpt lat="43.30944" lon="-1.63334">
        <ele>855</ele>
        <time>2017-10-07T14:45:22Z</time>
      </trkpt>
      <trkpt lat="43.30942" lon="-1.63335">
        <ele>855</ele>
        <time>2017-10-07T14:45:22Z</time>
      </trkpt>
      <trkpt lat="43.30941" lon="-1.63336">
        <ele>855</ele>
        <time>2017-10-07T14:45:22Z</time>
      </trkpt>
      <trkpt lat="43.30938" lon="-1.6334">
        <ele>855</ele>
        <time>2017-10-07T14:45:23Z</time>
      </trkpt>
      <trkpt lat="43.30936" lon="-1.63344">
        <ele>855</ele>
        <time>2017-10-07T14:45:23Z</time>
      </trkpt>
      <trkpt lat="43.30935" lon="-1.63364">
        <ele>855</ele>
        <time>2017-10-07T14:46:14Z</time>
      </trkpt>
      <trkpt lat="43.30934" lon="-1.63367">
        <ele>855</ele>
        <time>2017-10-07T14:46:14Z</time>
      </trkpt>
      <trkpt lat="43.30932" lon="-1.63369">
        <ele>855</ele>
        <time>2017-10-07T14:46:14Z</time>
      </trkpt>
      <trkpt lat="43.3093" lon="-1.63372">
        <ele>855</ele>
        <time>2017-10-07T14:46:14Z</time>
      </trkpt>
      <trkpt lat="43.30928" lon="-1.63375">
        <ele>870</ele>
        <time>2017-10-07T14:46:15Z</time>
      </trkpt>
      <trkpt lat="43.30928" lon="-1.63385">
        <ele>870</ele>
        <time>2017-10-07T14:47:30Z</time>
      </trkpt>
      <trkpt lat="43.30928" lon="-1.63385">
        <ele>870</ele>
        <time>2017-10-07T14:47:30Z</time>
      </trkpt>
      <trkpt lat="43.30927" lon="-1.63385">
        <ele>870</ele>
        <time>2017-10-07T14:47:30Z</time>
      </trkpt>
      <trkpt lat="43.30927" lon="-1.63386">
        <ele>870</ele>
        <time>2017-10-07T14:47:31Z</time>
      </trkpt>
      <trkpt lat="43.30924" lon="-1.63389">
        <ele>870</ele>
        <time>2017-10-07T14:47:31Z</time>
      </trkpt>
      <trkpt lat="43.30925" lon="-1.63388">
        <ele>870</ele>
        <time>2017-10-07T14:48:26Z</time>
      </trkpt>
      <trkpt lat="43.30924" lon="-1.63392">
        <ele>870</ele>
        <time>2017-10-07T14:48:26Z</time>
      </trkpt>
      <trkpt lat="43.30922" lon="-1.63395">
        <ele>870</ele>
        <time>2017-10-07T14:48:26Z</time>
      </trkpt>
      <trkpt lat="43.30917" lon="-1.63397">
        <ele>870</ele>
        <time>2017-10-07T14:48:27Z</time>
      </trkpt>
      <trkpt lat="43.30914" lon="-1.63398">
        <ele>870</ele>
        <time>2017-10-07T14:48:27Z</time>
      </trkpt>
      <trkpt lat="43.30906" lon="-1.63399">
        <ele>870</ele>
        <time>2017-10-07T14:49:26Z</time>
      </trkpt>
      <trkpt lat="43.30906" lon="-1.63401">
        <ele>870</ele>
        <time>2017-10-07T14:49:26Z</time>
      </trkpt>
      <trkpt lat="43.30905" lon="-1.63401">
        <ele>870</ele>
        <time>2017-10-07T14:49:26Z</time>
      </trkpt>
      <trkpt lat="43.30902" lon="-1.63401">
        <ele>870</ele>
        <time>2017-10-07T14:49:26Z</time>
      </trkpt>
      <trkpt lat="43.30899" lon="-1.63403">
        <ele>870</ele>
        <time>2017-10-07T14:49:27Z</time>
      </trkpt>
      <trkpt lat="43.30896" lon="-1.63406">
        <ele>870</ele>
        <time>2017-10-07T14:49:50Z</time>
      </trkpt>
      <trkpt lat="43.30896" lon="-1.63408">
        <ele>870</ele>
        <time>2017-10-07T14:49:50Z</time>
      </trkpt>
      <trkpt lat="43.30895" lon="-1.6341">
        <ele>870</ele>
        <time>2017-10-07T14:49:51Z</time>
      </trkpt>
      <trkpt lat="43.30894" lon="-1.63412">
        <ele>870</ele>
        <time>2017-10-07T14:49:51Z</time>
      </trkpt>
      <trkpt lat="43.30892" lon="-1.63414">
        <ele>870</ele>
        <time>2017-10-07T14:49:51Z</time>
      </trkpt>
      <trkpt lat="43.30891" lon="-1.63413">
        <ele>870</ele>
        <time>2017-10-07T14:50:22Z</time>
      </trkpt>
      <trkpt lat="43.3089" lon="-1.63412">
        <ele>870</ele>
        <time>2017-10-07T14:50:22Z</time>
      </trkpt>
      <trkpt lat="43.30885" lon="-1.63411">
        <ele>870</ele>
        <time>2017-10-07T14:50:22Z</time>
      </trkpt>
      <trkpt lat="43.30883" lon="-1.63411">
        <ele>870</ele>
        <time>2017-10-07T14:50:22Z</time>
      </trkpt>
      <trkpt lat="43.30881" lon="-1.63412">
        <ele>870</ele>
        <time>2017-10-07T14:50:23Z</time>
      </trkpt>
      <trkpt lat="43.30877" lon="-1.63426">
        <ele>870</ele>
        <time>2017-10-07T14:51:06Z</time>
      </trkpt>
      <trkpt lat="43.30879" lon="-1.63427">
        <ele>870</ele>
        <time>2017-10-07T14:51:06Z</time>
      </trkpt>
      <trkpt lat="43.30881" lon="-1.6343">
        <ele>870</ele>
        <time>2017-10-07T14:51:06Z</time>
      </trkpt>
      <trkpt lat="43.30882" lon="-1.63437">
        <ele>870</ele>
        <time>2017-10-07T14:51:07Z</time>
      </trkpt>
      <trkpt lat="43.30883" lon="-1.63441">
        <ele>870</ele>
        <time>2017-10-07T14:51:07Z</time>
      </trkpt>
      <trkpt lat="43.30884" lon="-1.63445">
        <ele>870</ele>
        <time>2017-10-07T14:51:22Z</time>
      </trkpt>
      <trkpt lat="43.30884" lon="-1.63449">
        <ele>870</ele>
        <time>2017-10-07T14:51:22Z</time>
      </trkpt>
      <trkpt lat="43.30884" lon="-1.63453">
        <ele>870</ele>
        <time>2017-10-07T14:51:22Z</time>
      </trkpt>
      <trkpt lat="43.30884" lon="-1.63459">
        <ele>888</ele>
        <time>2017-10-07T14:51:23Z</time>
      </trkpt>
      <trkpt lat="43.30884" lon="-1.63464">
        <ele>888</ele>
        <time>2017-10-07T14:51:38Z</time>
      </trkpt>
      <trkpt lat="43.30887" lon="-1.63468">
        <ele>888</ele>
        <time>2017-10-07T14:51:38Z</time>
      </trkpt>
      <trkpt lat="43.30887" lon="-1.63472">
        <ele>888</ele>
        <time>2017-10-07T14:51:38Z</time>
      </trkpt>
      <trkpt lat="43.30888" lon="-1.63476">
        <ele>888</ele>
        <time>2017-10-07T14:51:39Z</time>
      </trkpt>
      <trkpt lat="43.3089" lon="-1.63487">
        <ele>888</ele>
        <time>2017-10-07T14:52:22Z</time>
      </trkpt>
      <trkpt lat="43.30888" lon="-1.63489">
        <ele>888</ele>
        <time>2017-10-07T14:52:22Z</time>
      </trkpt>
      <trkpt lat="43.30887" lon="-1.63491">
        <ele>888</ele>
        <time>2017-10-07T14:52:22Z</time>
      </trkpt>
      <trkpt lat="43.30888" lon="-1.63496">
        <ele>888</ele>
        <time>2017-10-07T14:52:23Z</time>
      </trkpt>
      <trkpt lat="43.3089" lon="-1.63498">
        <ele>888</ele>
        <time>2017-10-07T14:52:23Z</time>
      </trkpt>
      <trkpt lat="43.30891" lon="-1.63498">
        <ele>888</ele>
        <time>2017-10-07T14:52:58Z</time>
      </trkpt>
      <trkpt lat="43.30892" lon="-1.63505">
        <ele>888</ele>
        <time>2017-10-07T14:52:58Z</time>
      </trkpt>
      <trkpt lat="43.30892" lon="-1.63511">
        <ele>888</ele>
        <time>2017-10-07T14:52:58Z</time>
      </trkpt>
      <trkpt lat="43.30891" lon="-1.63514">
        <ele>888</ele>
        <time>2017-10-07T14:52:59Z</time>
      </trkpt>
      <trkpt lat="43.30891" lon="-1.63517">
        <ele>888</ele>
        <time>2017-10-07T14:52:59Z</time>
      </trkpt>
      <trkpt lat="43.30891" lon="-1.63521">
        <ele>888</ele>
        <time>2017-10-07T14:53:14Z</time>
      </trkpt>
      <trkpt lat="43.30889" lon="-1.63525">
        <ele>888</ele>
        <time>2017-10-07T14:53:14Z</time>
      </trkpt>
      <trkpt lat="43.30887" lon="-1.63531">
        <ele>888</ele>
        <time>2017-10-07T14:53:14Z</time>
      </trkpt>
      <trkpt lat="43.30887" lon="-1.63535">
        <ele>888</ele>
        <time>2017-10-07T14:53:14Z</time>
      </trkpt>
      <trkpt lat="43.30885" lon="-1.63535">
        <ele>888</ele>
        <time>2017-10-07T14:53:38Z</time>
      </trkpt>
      <trkpt lat="43.30884" lon="-1.63537">
        <ele>888</ele>
        <time>2017-10-07T14:53:38Z</time>
      </trkpt>
      <trkpt lat="43.30886" lon="-1.6354">
        <ele>888</ele>
        <time>2017-10-07T14:53:38Z</time>
      </trkpt>
      <trkpt lat="43.30886" lon="-1.63546">
        <ele>881</ele>
        <time>2017-10-07T14:53:38Z</time>
      </trkpt>
      <trkpt lat="43.30887" lon="-1.63551">
        <ele>881</ele>
        <time>2017-10-07T14:53:39Z</time>
      </trkpt>
      <trkpt lat="43.30887" lon="-1.63555">
        <ele>881</ele>
        <time>2017-10-07T14:53:58Z</time>
      </trkpt>
      <trkpt lat="43.30888" lon="-1.63559">
        <ele>881</ele>
        <time>2017-10-07T14:53:58Z</time>
      </trkpt>
      <trkpt lat="43.30889" lon="-1.63563">
        <ele>881</ele>
        <time>2017-10-07T14:53:58Z</time>
      </trkpt>
      <trkpt lat="43.30891" lon="-1.63564">
        <ele>881</ele>
        <time>2017-10-07T14:53:59Z</time>
      </trkpt>
      <trkpt lat="43.30892" lon="-1.63566">
        <ele>881</ele>
        <time>2017-10-07T14:53:59Z</time>
      </trkpt>
      <trkpt lat="43.30888" lon="-1.63562">
        <ele>881</ele>
        <time>2017-10-07T14:56:38Z</time>
      </trkpt>
      <trkpt lat="43.30889" lon="-1.63561">
        <ele>881</ele>
        <time>2017-10-07T14:56:38Z</time>
      </trkpt>
      <trkpt lat="43.3089" lon="-1.63558">
        <ele>881</ele>
        <time>2017-10-07T14:56:38Z</time>
      </trkpt>
      <trkpt lat="43.30891" lon="-1.63557">
        <ele>881</ele>
        <time>2017-10-07T14:56:39Z</time>
      </trkpt>
      <trkpt lat="43.30891" lon="-1.63554">
        <ele>881</ele>
        <time>2017-10-07T14:56:39Z</time>
      </trkpt>
      <trkpt lat="43.30896" lon="-1.63558">
        <ele>881</ele>
        <time>2017-10-07T14:57:02Z</time>
      </trkpt>
      <trkpt lat="43.30898" lon="-1.63559">
        <ele>881</ele>
        <time>2017-10-07T14:57:02Z</time>
      </trkpt>
      <trkpt lat="43.309" lon="-1.63558">
        <ele>881</ele>
        <time>2017-10-07T14:57:02Z</time>
      </trkpt>
      <trkpt lat="43.30901" lon="-1.63557">
        <ele>881</ele>
        <time>2017-10-07T14:57:03Z</time>
      </trkpt>
      <trkpt lat="43.30903" lon="-1.63556">
        <ele>881</ele>
        <time>2017-10-07T14:57:03Z</time>
      </trkpt>
      <trkpt lat="43.30907" lon="-1.63555">
        <ele>881</ele>
        <time>2017-10-07T14:57:50Z</time>
      </trkpt>
      <trkpt lat="43.30905" lon="-1.63552">
        <ele>881</ele>
        <time>2017-10-07T14:57:50Z</time>
      </trkpt>
      <trkpt lat="43.30903" lon="-1.63549">
        <ele>881</ele>
        <time>2017-10-07T14:57:50Z</time>
      </trkpt>
      <trkpt lat="43.309" lon="-1.63546">
        <ele>881</ele>
        <time>2017-10-07T14:57:51Z</time>
      </trkpt>
      <trkpt lat="43.30899" lon="-1.63543">
        <ele>881</ele>
        <time>2017-10-07T14:57:51Z</time>
      </trkpt>
      <trkpt lat="43.30901" lon="-1.63535">
        <ele>888</ele>
        <time>2017-10-07T14:59:06Z</time>
      </trkpt>
      <trkpt lat="43.309" lon="-1.63534">
        <ele>888</ele>
        <time>2017-10-07T14:59:06Z</time>
      </trkpt>
      <trkpt lat="43.309" lon="-1.63532">
        <ele>888</ele>
        <time>2017-10-07T14:59:06Z</time>
      </trkpt>
      <trkpt lat="43.30902" lon="-1.63529">
        <ele>888</ele>
        <time>2017-10-07T14:59:06Z</time>
      </trkpt>
      <trkpt lat="43.30904" lon="-1.63525">
        <ele>888</ele>
        <time>2017-10-07T14:59:07Z</time>
      </trkpt>
      <trkpt lat="43.30905" lon="-1.63515">
        <ele>888</ele>
        <time>2017-10-07T15:00:02Z</time>
      </trkpt>
      <trkpt lat="43.30903" lon="-1.63515">
        <ele>888</ele>
        <time>2017-10-07T15:00:02Z</time>
      </trkpt>
      <trkpt lat="43.309" lon="-1.63516">
        <ele>888</ele>
        <time>2017-10-07T15:00:02Z</time>
      </trkpt>
      <trkpt lat="43.30899" lon="-1.63517">
        <ele>888</ele>
        <time>2017-10-07T15:00:02Z</time>
      </trkpt>
      <trkpt lat="43.30898" lon="-1.63516">
        <ele>888</ele>
        <time>2017-10-07T15:00:02Z</time>
      </trkpt>
      <trkpt lat="43.30899" lon="-1.63517">
        <ele>888</ele>
        <time>2017-10-07T15:03:46Z</time>
      </trkpt>
      <trkpt lat="43.30904" lon="-1.63509">
        <ele>888</ele>
        <time>2017-10-07T15:03:46Z</time>
      </trkpt>
      <trkpt lat="43.30906" lon="-1.63505">
        <ele>888</ele>
        <time>2017-10-07T15:03:46Z</time>
      </trkpt>
      <trkpt lat="43.30906" lon="-1.63503">
        <ele>888</ele>
        <time>2017-10-07T15:03:46Z</time>
      </trkpt>
      <trkpt lat="43.30906" lon="-1.63503">
        <ele>888</ele>
        <time>2017-10-07T15:03:46Z</time>
      </trkpt>
      <trkpt lat="43.30905" lon="-1.63507">
        <ele>888</ele>
        <time>2017-10-07T15:05:10Z</time>
      </trkpt>
      <trkpt lat="43.30905" lon="-1.63507">
        <ele>888</ele>
        <time>2017-10-07T15:05:10Z</time>
      </trkpt>
      <trkpt lat="43.30905" lon="-1.63507">
        <ele>888</ele>
        <time>2017-10-07T15:05:10Z</time>
      </trkpt>
      <trkpt lat="43.30906" lon="-1.6351">
        <ele>888</ele>
        <time>2017-10-07T15:05:10Z</time>
      </trkpt>
      <trkpt lat="43.30906" lon="-1.63516">
        <ele>888</ele>
        <time>2017-10-07T15:05:11Z</time>
      </trkpt>
      <trkpt lat="43.30905" lon="-1.63518">
        <ele>888</ele>
        <time>2017-10-07T15:07:58Z</time>
      </trkpt>
      <trkpt lat="43.30901" lon="-1.6352">
        <ele>888</ele>
        <time>2017-10-07T15:07:58Z</time>
      </trkpt>
      <trkpt lat="43.30898" lon="-1.63522">
        <ele>888</ele>
        <time>2017-10-07T15:07:58Z</time>
      </trkpt>
      <trkpt lat="43.30895" lon="-1.63524">
        <ele>888</ele>
        <time>2017-10-07T15:07:58Z</time>
      </trkpt>
      <trkpt lat="43.30894" lon="-1.63529">
        <ele>888</ele>
        <time>2017-10-07T15:07:59Z</time>
      </trkpt>
      <trkpt lat="43.30892" lon="-1.63538">
        <ele>888</ele>
        <time>2017-10-07T15:08:26Z</time>
      </trkpt>
      <trkpt lat="43.30891" lon="-1.63539">
        <ele>888</ele>
        <time>2017-10-07T15:08:26Z</time>
      </trkpt>
      <trkpt lat="43.30892" lon="-1.63541">
        <ele>888</ele>
        <time>2017-10-07T15:08:26Z</time>
      </trkpt>
      <trkpt lat="43.3089" lon="-1.63544">
        <ele>881</ele>
        <time>2017-10-07T15:08:26Z</time>
      </trkpt>
      <trkpt lat="43.3089" lon="-1.63546">
        <ele>881</ele>
        <time>2017-10-07T15:08:27Z</time>
      </trkpt>
      <trkpt lat="43.30888" lon="-1.63552">
        <ele>881</ele>
        <time>2017-10-07T15:15:34Z</time>
      </trkpt>
      <trkpt lat="43.30888" lon="-1.63552">
        <ele>881</ele>
        <time>2017-10-07T15:15:34Z</time>
      </trkpt>
      <trkpt lat="43.30887" lon="-1.63555">
        <ele>881</ele>
        <time>2017-10-07T15:15:34Z</time>
      </trkpt>
      <trkpt lat="43.30886" lon="-1.63558">
        <ele>881</ele>
        <time>2017-10-07T15:15:34Z</time>
      </trkpt>
      <trkpt lat="43.30886" lon="-1.6356">
        <ele>881</ele>
        <time>2017-10-07T15:15:34Z</time>
      </trkpt>
      <trkpt lat="43.30888" lon="-1.6355">
        <ele>881</ele>
        <time>2017-10-07T15:29:02Z</time>
      </trkpt>
      <trkpt lat="43.30888" lon="-1.6355">
        <ele>881</ele>
        <time>2017-10-07T15:29:02Z</time>
      </trkpt>
      <trkpt lat="43.30888" lon="-1.63548">
        <ele>881</ele>
        <time>2017-10-07T15:29:02Z</time>
      </trkpt>
      <trkpt lat="43.30888" lon="-1.63548">
        <ele>881</ele>
        <time>2017-10-07T15:29:03Z</time>
      </trkpt>
      <trkpt lat="43.30887" lon="-1.63548">
        <ele>881</ele>
        <time>2017-10-07T15:29:03Z</time>
      </trkpt>
      <trkpt lat="43.30883" lon="-1.63545">
        <ele>881</ele>
        <time>2017-10-07T15:31:18Z</time>
      </trkpt>
      <trkpt lat="43.30883" lon="-1.63543">
        <ele>881</ele>
        <time>2017-10-07T15:31:18Z</time>
      </trkpt>
      <trkpt lat="43.30882" lon="-1.63541">
        <ele>888</ele>
        <time>2017-10-07T15:31:18Z</time>
      </trkpt>
      <trkpt lat="43.30882" lon="-1.63539">
        <ele>888</ele>
        <time>2017-10-07T15:31:19Z</time>
      </trkpt>
      <trkpt lat="43.30881" lon="-1.63538">
        <ele>888</ele>
        <time>2017-10-07T15:31:19Z</time>
      </trkpt>
      <trkpt lat="43.30877" lon="-1.63538">
        <ele>888</ele>
        <time>2017-10-07T15:31:34Z</time>
      </trkpt>
      <trkpt lat="43.30868" lon="-1.63535">
        <ele>867</ele>
        <time>2017-10-07T15:31:34Z</time>
      </trkpt>
      <trkpt lat="43.30865" lon="-1.63537">
        <ele>867</ele>
        <time>2017-10-07T15:31:34Z</time>
      </trkpt>
      <trkpt lat="43.30865" lon="-1.63537">
        <ele>867</ele>
        <time>2017-10-07T15:31:34Z</time>
      </trkpt>
      <trkpt lat="43.30906" lon="-1.63566">
        <ele>881</ele>
        <time>2017-10-07T15:32:38Z</time>
      </trkpt>
      <trkpt lat="43.30906" lon="-1.63567">
        <ele>881</ele>
        <time>2017-10-07T15:32:38Z</time>
      </trkpt>
      <trkpt lat="43.30908" lon="-1.63566">
        <ele>881</ele>
        <time>2017-10-07T15:32:39Z</time>
      </trkpt>
      <trkpt lat="43.30909" lon="-1.6355">
        <ele>881</ele>
        <time>2017-10-07T15:32:39Z</time>
      </trkpt>
      <trkpt lat="43.30905" lon="-1.63537">
        <ele>888</ele>
        <time>2017-10-07T15:32:54Z</time>
      </trkpt>
      <trkpt lat="43.309" lon="-1.63524">
        <ele>888</ele>
        <time>2017-10-07T15:32:54Z</time>
      </trkpt>
      <trkpt lat="43.30897" lon="-1.6352">
        <ele>888</ele>
        <time>2017-10-07T15:32:55Z</time>
      </trkpt>
      <trkpt lat="43.30896" lon="-1.63518">
        <ele>888</ele>
        <time>2017-10-07T15:32:55Z</time>
      </trkpt>
      <trkpt lat="43.30895" lon="-1.63515">
        <ele>888</ele>
        <time>2017-10-07T15:33:10Z</time>
      </trkpt>
      <trkpt lat="43.30895" lon="-1.63514">
        <ele>888</ele>
        <time>2017-10-07T15:33:10Z</time>
      </trkpt>
      <trkpt lat="43.30893" lon="-1.63509">
        <ele>888</ele>
        <time>2017-10-07T15:33:10Z</time>
      </trkpt>
      <trkpt lat="43.30889" lon="-1.63501">
        <ele>888</ele>
        <time>2017-10-07T15:33:11Z</time>
      </trkpt>
      <trkpt lat="43.30884" lon="-1.63497">
        <ele>888</ele>
        <time>2017-10-07T15:33:38Z</time>
      </trkpt>
      <trkpt lat="43.30882" lon="-1.63497">
        <ele>888</ele>
        <time>2017-10-07T15:33:38Z</time>
      </trkpt>
      <trkpt lat="43.3088" lon="-1.63499">
        <ele>888</ele>
        <time>2017-10-07T15:33:38Z</time>
      </trkpt>
      <trkpt lat="43.30879" lon="-1.635">
        <ele>888</ele>
        <time>2017-10-07T15:33:39Z</time>
      </trkpt>
      <trkpt lat="43.30878" lon="-1.63502">
        <ele>888</ele>
        <time>2017-10-07T15:33:39Z</time>
      </trkpt>
      <trkpt lat="43.30876" lon="-1.63503">
        <ele>888</ele>
        <time>2017-10-07T15:33:54Z</time>
      </trkpt>
      <trkpt lat="43.3087" lon="-1.63508">
        <ele>867</ele>
        <time>2017-10-07T15:33:54Z</time>
      </trkpt>
      <trkpt lat="43.30864" lon="-1.63509">
        <ele>867</ele>
        <time>2017-10-07T15:33:54Z</time>
      </trkpt>
      <trkpt lat="43.30861" lon="-1.63509">
        <ele>867</ele>
        <time>2017-10-07T15:33:54Z</time>
      </trkpt>
      <trkpt lat="43.30859" lon="-1.63502">
        <ele>867</ele>
        <time>2017-10-07T15:34:22Z</time>
      </trkpt>
      <trkpt lat="43.30861" lon="-1.63502">
        <ele>867</ele>
        <time>2017-10-07T15:34:22Z</time>
      </trkpt>
      <trkpt lat="43.30863" lon="-1.63501">
        <ele>867</ele>
        <time>2017-10-07T15:34:22Z</time>
      </trkpt>
      <trkpt lat="43.30865" lon="-1.635">
        <ele>867</ele>
        <time>2017-10-07T15:34:22Z</time>
      </trkpt>
      <trkpt lat="43.30867" lon="-1.635">
        <ele>867</ele>
        <time>2017-10-07T15:34:23Z</time>
      </trkpt>
      <trkpt lat="43.30872" lon="-1.63497">
        <ele>867</ele>
        <time>2017-10-07T15:34:38Z</time>
      </trkpt>
      <trkpt lat="43.30874" lon="-1.63495">
        <ele>867</ele>
        <time>2017-10-07T15:34:38Z</time>
      </trkpt>
      <trkpt lat="43.30878" lon="-1.63492">
        <ele>888</ele>
        <time>2017-10-07T15:34:38Z</time>
      </trkpt>
      <trkpt lat="43.30881" lon="-1.63492">
        <ele>888</ele>
        <time>2017-10-07T15:34:39Z</time>
      </trkpt>
      <trkpt lat="43.30881" lon="-1.63492">
        <ele>888</ele>
        <time>2017-10-07T15:34:58Z</time>
      </trkpt>
      <trkpt lat="43.30883" lon="-1.63489">
        <ele>888</ele>
        <time>2017-10-07T15:34:58Z</time>
      </trkpt>
      <trkpt lat="43.30885" lon="-1.63488">
        <ele>888</ele>
        <time>2017-10-07T15:34:58Z</time>
      </trkpt>
      <trkpt lat="43.30888" lon="-1.63487">
        <ele>888</ele>
        <time>2017-10-07T15:34:59Z</time>
      </trkpt>
      <trkpt lat="43.30892" lon="-1.63483">
        <ele>888</ele>
        <time>2017-10-07T15:34:59Z</time>
      </trkpt>
      <trkpt lat="43.30893" lon="-1.63479">
        <ele>888</ele>
        <time>2017-10-07T15:35:18Z</time>
      </trkpt>
      <trkpt lat="43.30893" lon="-1.63477">
        <ele>888</ele>
        <time>2017-10-07T15:35:18Z</time>
      </trkpt>
      <trkpt lat="43.30892" lon="-1.63473">
        <ele>888</ele>
        <time>2017-10-07T15:35:19Z</time>
      </trkpt>
      <trkpt lat="43.30892" lon="-1.63469">
        <ele>888</ele>
        <time>2017-10-07T15:35:19Z</time>
      </trkpt>
      <trkpt lat="43.30892" lon="-1.63464">
        <ele>888</ele>
        <time>2017-10-07T15:35:19Z</time>
      </trkpt>
      <trkpt lat="43.30893" lon="-1.6346">
        <ele>888</ele>
        <time>2017-10-07T15:35:34Z</time>
      </trkpt>
      <trkpt lat="43.30892" lon="-1.63457">
        <ele>870</ele>
        <time>2017-10-07T15:35:34Z</time>
      </trkpt>
      <trkpt lat="43.30891" lon="-1.63454">
        <ele>870</ele>
        <time>2017-10-07T15:35:34Z</time>
      </trkpt>
      <trkpt lat="43.3089" lon="-1.63448">
        <ele>870</ele>
        <time>2017-10-07T15:35:35Z</time>
      </trkpt>
      <trkpt lat="43.30894" lon="-1.63434">
        <ele>870</ele>
        <time>2017-10-07T15:36:10Z</time>
      </trkpt>
      <trkpt lat="43.30897" lon="-1.6343">
        <ele>870</ele>
        <time>2017-10-07T15:36:10Z</time>
      </trkpt>
      <trkpt lat="43.30897" lon="-1.63427">
        <ele>870</ele>
        <time>2017-10-07T15:36:10Z</time>
      </trkpt>
      <trkpt lat="43.30896" lon="-1.63424">
        <ele>870</ele>
        <time>2017-10-07T15:36:11Z</time>
      </trkpt>
      <trkpt lat="43.30896" lon="-1.63421">
        <ele>870</ele>
        <time>2017-10-07T15:36:11Z</time>
      </trkpt>
      <trkpt lat="43.30896" lon="-1.63418">
        <ele>870</ele>
        <time>2017-10-07T15:36:34Z</time>
      </trkpt>
      <trkpt lat="43.30898" lon="-1.63416">
        <ele>870</ele>
        <time>2017-10-07T15:36:34Z</time>
      </trkpt>
      <trkpt lat="43.309" lon="-1.63414">
        <ele>870</ele>
        <time>2017-10-07T15:36:34Z</time>
      </trkpt>
      <trkpt lat="43.30901" lon="-1.63411">
        <ele>870</ele>
        <time>2017-10-07T15:36:35Z</time>
      </trkpt>
      <trkpt lat="43.30902" lon="-1.63409">
        <ele>870</ele>
        <time>2017-10-07T15:36:35Z</time>
      </trkpt>
      <trkpt lat="43.30908" lon="-1.63407">
        <ele>870</ele>
        <time>2017-10-07T15:36:58Z</time>
      </trkpt>
      <trkpt lat="43.30909" lon="-1.63406">
        <ele>870</ele>
        <time>2017-10-07T15:36:58Z</time>
      </trkpt>
      <trkpt lat="43.30911" lon="-1.63405">
        <ele>870</ele>
        <time>2017-10-07T15:36:58Z</time>
      </trkpt>
      <trkpt lat="43.30912" lon="-1.63405">
        <ele>870</ele>
        <time>2017-10-07T15:36:58Z</time>
      </trkpt>
      <trkpt lat="43.30915" lon="-1.63406">
        <ele>870</ele>
        <time>2017-10-07T15:36:59Z</time>
      </trkpt>
      <trkpt lat="43.30922" lon="-1.63396">
        <ele>870</ele>
        <time>2017-10-07T15:37:38Z</time>
      </trkpt>
      <trkpt lat="43.30923" lon="-1.63395">
        <ele>870</ele>
        <time>2017-10-07T15:37:38Z</time>
      </trkpt>
      <trkpt lat="43.30924" lon="-1.63393">
        <ele>870</ele>
        <time>2017-10-07T15:37:39Z</time>
      </trkpt>
      <trkpt lat="43.30927" lon="-1.63392">
        <ele>870</ele>
        <time>2017-10-07T15:37:39Z</time>
      </trkpt>
      <trkpt lat="43.3093" lon="-1.6339">
        <ele>870</ele>
        <time>2017-10-07T15:37:39Z</time>
      </trkpt>
      <trkpt lat="43.30934" lon="-1.63386">
        <ele>870</ele>
        <time>2017-10-07T15:38:22Z</time>
      </trkpt>
      <trkpt lat="43.30934" lon="-1.63385">
        <ele>870</ele>
        <time>2017-10-07T15:38:22Z</time>
      </trkpt>
      <trkpt lat="43.30933" lon="-1.63381">
        <ele>870</ele>
        <time>2017-10-07T15:38:23Z</time>
      </trkpt>
      <trkpt lat="43.30934" lon="-1.63378">
        <ele>870</ele>
        <time>2017-10-07T15:38:23Z</time>
      </trkpt>
      <trkpt lat="43.30934" lon="-1.63374">
        <ele>855</ele>
        <time>2017-10-07T15:38:23Z</time>
      </trkpt>
      <trkpt lat="43.30937" lon="-1.63372">
        <ele>855</ele>
        <time>2017-10-07T15:38:50Z</time>
      </trkpt>
      <trkpt lat="43.30938" lon="-1.63372">
        <ele>855</ele>
        <time>2017-10-07T15:38:50Z</time>
      </trkpt>
      <trkpt lat="43.30939" lon="-1.63369">
        <ele>855</ele>
        <time>2017-10-07T15:38:50Z</time>
      </trkpt>
      <trkpt lat="43.3094" lon="-1.63368">
        <ele>855</ele>
        <time>2017-10-07T15:38:50Z</time>
      </trkpt>
      <trkpt lat="43.30942" lon="-1.63363">
        <ele>855</ele>
        <time>2017-10-07T15:38:51Z</time>
      </trkpt>
      <trkpt lat="43.30942" lon="-1.63358">
        <ele>855</ele>
        <time>2017-10-07T15:39:10Z</time>
      </trkpt>
      <trkpt lat="43.30943" lon="-1.63353">
        <ele>855</ele>
        <time>2017-10-07T15:39:11Z</time>
      </trkpt>
      <trkpt lat="43.30943" lon="-1.63352">
        <ele>855</ele>
        <time>2017-10-07T15:39:11Z</time>
      </trkpt>
      <trkpt lat="43.30945" lon="-1.63348">
        <ele>855</ele>
        <time>2017-10-07T15:39:11Z</time>
      </trkpt>
      <trkpt lat="43.30946" lon="-1.63342">
        <ele>855</ele>
        <time>2017-10-07T15:39:11Z</time>
      </trkpt>
      <trkpt lat="43.30947" lon="-1.63337">
        <ele>855</ele>
        <time>2017-10-07T15:39:34Z</time>
      </trkpt>
      <trkpt lat="43.30946" lon="-1.63335">
        <ele>855</ele>
        <time>2017-10-07T15:39:34Z</time>
      </trkpt>
      <trkpt lat="43.30948" lon="-1.63333">
        <ele>855</ele>
        <time>2017-10-07T15:39:34Z</time>
      </trkpt>
      <trkpt lat="43.3095" lon="-1.6333">
        <ele>855</ele>
        <time>2017-10-07T15:39:35Z</time>
      </trkpt>
      <trkpt lat="43.30952" lon="-1.63326">
        <ele>855</ele>
        <time>2017-10-07T15:39:35Z</time>
      </trkpt>
      <trkpt lat="43.30953" lon="-1.63323">
        <ele>855</ele>
        <time>2017-10-07T15:39:54Z</time>
      </trkpt>
      <trkpt lat="43.30954" lon="-1.63319">
        <ele>855</ele>
        <time>2017-10-07T15:39:54Z</time>
      </trkpt>
      <trkpt lat="43.30955" lon="-1.63317">
        <ele>855</ele>
        <time>2017-10-07T15:39:54Z</time>
      </trkpt>
      <trkpt lat="43.30957" lon="-1.63315">
        <ele>855</ele>
        <time>2017-10-07T15:39:55Z</time>
      </trkpt>
      <trkpt lat="43.30959" lon="-1.63313">
        <ele>810</ele>
        <time>2017-10-07T15:39:55Z</time>
      </trkpt>
      <trkpt lat="43.30961" lon="-1.6331">
        <ele>810</ele>
        <time>2017-10-07T15:40:14Z</time>
      </trkpt>
      <trkpt lat="43.30961" lon="-1.63306">
        <ele>810</ele>
        <time>2017-10-07T15:40:14Z</time>
      </trkpt>
      <trkpt lat="43.30963" lon="-1.63303">
        <ele>810</ele>
        <time>2017-10-07T15:40:14Z</time>
      </trkpt>
      <trkpt lat="43.30965" lon="-1.63301">
        <ele>810</ele>
        <time>2017-10-07T15:40:15Z</time>
      </trkpt>
      <trkpt lat="43.30966" lon="-1.63298">
        <ele>810</ele>
        <time>2017-10-07T15:40:15Z</time>
      </trkpt>
      <trkpt lat="43.30967" lon="-1.63294">
        <ele>810</ele>
        <time>2017-10-07T15:40:34Z</time>
      </trkpt>
      <trkpt lat="43.30968" lon="-1.6329">
        <ele>811</ele>
        <time>2017-10-07T15:40:34Z</time>
      </trkpt>
      <trkpt lat="43.30968" lon="-1.63286">
        <ele>811</ele>
        <time>2017-10-07T15:40:34Z</time>
      </trkpt>
      <trkpt lat="43.30968" lon="-1.63283">
        <ele>811</ele>
        <time>2017-10-07T15:40:34Z</time>
      </trkpt>
      <trkpt lat="43.3097" lon="-1.63281">
        <ele>811</ele>
        <time>2017-10-07T15:40:35Z</time>
      </trkpt>
      <trkpt lat="43.30968" lon="-1.63279">
        <ele>811</ele>
        <time>2017-10-07T15:40:58Z</time>
      </trkpt>
      <trkpt lat="43.30967" lon="-1.63276">
        <ele>811</ele>
        <time>2017-10-07T15:40:58Z</time>
      </trkpt>
      <trkpt lat="43.30967" lon="-1.63272">
        <ele>811</ele>
        <time>2017-10-07T15:40:58Z</time>
      </trkpt>
      <trkpt lat="43.30967" lon="-1.63269">
        <ele>811</ele>
        <time>2017-10-07T15:40:59Z</time>
      </trkpt>
      <trkpt lat="43.30968" lon="-1.63268">
        <ele>811</ele>
        <time>2017-10-07T15:40:59Z</time>
      </trkpt>
      <trkpt lat="43.3097" lon="-1.63265">
        <ele>811</ele>
        <time>2017-10-07T15:41:26Z</time>
      </trkpt>
      <trkpt lat="43.30971" lon="-1.63261">
        <ele>811</ele>
        <time>2017-10-07T15:41:26Z</time>
      </trkpt>
      <trkpt lat="43.30973" lon="-1.63259">
        <ele>811</ele>
        <time>2017-10-07T15:41:26Z</time>
      </trkpt>
      <trkpt lat="43.30974" lon="-1.63256">
        <ele>811</ele>
        <time>2017-10-07T15:41:26Z</time>
      </trkpt>
      <trkpt lat="43.30975" lon="-1.63255">
        <ele>811</ele>
        <time>2017-10-07T15:41:27Z</time>
      </trkpt>
      <trkpt lat="43.3098" lon="-1.63246">
        <ele>811</ele>
        <time>2017-10-07T15:42:18Z</time>
      </trkpt>
      <trkpt lat="43.30983" lon="-1.63244">
        <ele>811</ele>
        <time>2017-10-07T15:42:18Z</time>
      </trkpt>
      <trkpt lat="43.30984" lon="-1.63242">
        <ele>811</ele>
        <time>2017-10-07T15:42:18Z</time>
      </trkpt>
      <trkpt lat="43.30986" lon="-1.6324">
        <ele>811</ele>
        <time>2017-10-07T15:42:19Z</time>
      </trkpt>
      <trkpt lat="43.30986" lon="-1.63237">
        <ele>811</ele>
        <time>2017-10-07T15:42:19Z</time>
      </trkpt>
      <trkpt lat="43.30986" lon="-1.63232">
        <ele>811</ele>
        <time>2017-10-07T15:42:42Z</time>
      </trkpt>
      <trkpt lat="43.30987" lon="-1.6323">
        <ele>811</ele>
        <time>2017-10-07T15:42:42Z</time>
      </trkpt>
      <trkpt lat="43.30988" lon="-1.63227">
        <ele>811</ele>
        <time>2017-10-07T15:42:42Z</time>
      </trkpt>
      <trkpt lat="43.30988" lon="-1.63224">
        <ele>811</ele>
        <time>2017-10-07T15:42:43Z</time>
      </trkpt>
      <trkpt lat="43.30989" lon="-1.63223">
        <ele>811</ele>
        <time>2017-10-07T15:42:43Z</time>
      </trkpt>
      <trkpt lat="43.30992" lon="-1.63216">
        <ele>811</ele>
        <time>2017-10-07T15:43:10Z</time>
      </trkpt>
      <trkpt lat="43.30991" lon="-1.63213">
        <ele>811</ele>
        <time>2017-10-07T15:43:10Z</time>
      </trkpt>
      <trkpt lat="43.30992" lon="-1.63213">
        <ele>811</ele>
        <time>2017-10-07T15:43:10Z</time>
      </trkpt>
      <trkpt lat="43.30992" lon="-1.63209">
        <ele>811</ele>
        <time>2017-10-07T15:43:11Z</time>
      </trkpt>
      <trkpt lat="43.30993" lon="-1.63205">
        <ele>798</ele>
        <time>2017-10-07T15:43:11Z</time>
      </trkpt>
      <trkpt lat="43.30997" lon="-1.63203">
        <ele>798</ele>
        <time>2017-10-07T15:43:50Z</time>
      </trkpt>
      <trkpt lat="43.30998" lon="-1.632">
        <ele>798</ele>
        <time>2017-10-07T15:43:50Z</time>
      </trkpt>
      <trkpt lat="43.30998" lon="-1.63197">
        <ele>798</ele>
        <time>2017-10-07T15:43:50Z</time>
      </trkpt>
      <trkpt lat="43.30998" lon="-1.63193">
        <ele>798</ele>
        <time>2017-10-07T15:43:51Z</time>
      </trkpt>
      <trkpt lat="43.30997" lon="-1.6319">
        <ele>798</ele>
        <time>2017-10-07T15:43:51Z</time>
      </trkpt>
      <trkpt lat="43.30999" lon="-1.63189">
        <ele>798</ele>
        <time>2017-10-07T15:44:22Z</time>
      </trkpt>
      <trkpt lat="43.31" lon="-1.63188">
        <ele>798</ele>
        <time>2017-10-07T15:44:22Z</time>
      </trkpt>
      <trkpt lat="43.31003" lon="-1.63186">
        <ele>798</ele>
        <time>2017-10-07T15:44:22Z</time>
      </trkpt>
      <trkpt lat="43.31004" lon="-1.63186">
        <ele>798</ele>
        <time>2017-10-07T15:44:22Z</time>
      </trkpt>
      <trkpt lat="43.31005" lon="-1.63183">
        <ele>798</ele>
        <time>2017-10-07T15:44:23Z</time>
      </trkpt>
      <trkpt lat="43.31011" lon="-1.63181">
        <ele>798</ele>
        <time>2017-10-07T15:44:58Z</time>
      </trkpt>
      <trkpt lat="43.31011" lon="-1.6318">
        <ele>798</ele>
        <time>2017-10-07T15:44:58Z</time>
      </trkpt>
      <trkpt lat="43.31012" lon="-1.6318">
        <ele>798</ele>
        <time>2017-10-07T15:44:59Z</time>
      </trkpt>
      <trkpt lat="43.31013" lon="-1.63178">
        <ele>798</ele>
        <time>2017-10-07T15:44:59Z</time>
      </trkpt>
      <trkpt lat="43.31015" lon="-1.63174">
        <ele>798</ele>
        <time>2017-10-07T15:44:59Z</time>
      </trkpt>
      <trkpt lat="43.31017" lon="-1.63165">
        <ele>798</ele>
        <time>2017-10-07T15:45:34Z</time>
      </trkpt>
      <trkpt lat="43.3102" lon="-1.63165">
        <ele>798</ele>
        <time>2017-10-07T15:45:34Z</time>
      </trkpt>
      <trkpt lat="43.31022" lon="-1.63165">
        <ele>798</ele>
        <time>2017-10-07T15:45:34Z</time>
      </trkpt>
      <trkpt lat="43.31024" lon="-1.63165">
        <ele>798</ele>
        <time>2017-10-07T15:45:35Z</time>
      </trkpt>
      <trkpt lat="43.31025" lon="-1.63162">
        <ele>798</ele>
        <time>2017-10-07T15:45:35Z</time>
      </trkpt>
      <trkpt lat="43.31031" lon="-1.63161">
        <ele>798</ele>
        <time>2017-10-07T15:46:02Z</time>
      </trkpt>
      <trkpt lat="43.31033" lon="-1.63162">
        <ele>798</ele>
        <time>2017-10-07T15:46:02Z</time>
      </trkpt>
      <trkpt lat="43.31034" lon="-1.63161">
        <ele>798</ele>
        <time>2017-10-07T15:46:02Z</time>
      </trkpt>
      <trkpt lat="43.31036" lon="-1.63159">
        <ele>798</ele>
        <time>2017-10-07T15:46:03Z</time>
      </trkpt>
      <trkpt lat="43.31038" lon="-1.63157">
        <ele>798</ele>
        <time>2017-10-07T15:46:03Z</time>
      </trkpt>
      <trkpt lat="43.31043" lon="-1.63157">
        <ele>756</ele>
        <time>2017-10-07T15:46:26Z</time>
      </trkpt>
      <trkpt lat="43.31045" lon="-1.63159">
        <ele>756</ele>
        <time>2017-10-07T15:46:26Z</time>
      </trkpt>
      <trkpt lat="43.31046" lon="-1.63159">
        <ele>756</ele>
        <time>2017-10-07T15:46:26Z</time>
      </trkpt>
      <trkpt lat="43.31048" lon="-1.63156">
        <ele>756</ele>
        <time>2017-10-07T15:46:26Z</time>
      </trkpt>
      <trkpt lat="43.3105" lon="-1.63155">
        <ele>756</ele>
        <time>2017-10-07T15:46:27Z</time>
      </trkpt>
      <trkpt lat="43.31053" lon="-1.63151">
        <ele>756</ele>
        <time>2017-10-07T15:46:54Z</time>
      </trkpt>
      <trkpt lat="43.31055" lon="-1.63154">
        <ele>756</ele>
        <time>2017-10-07T15:46:54Z</time>
      </trkpt>
      <trkpt lat="43.31057" lon="-1.63152">
        <ele>756</ele>
        <time>2017-10-07T15:46:54Z</time>
      </trkpt>
      <trkpt lat="43.31059" lon="-1.63153">
        <ele>756</ele>
        <time>2017-10-07T15:46:54Z</time>
      </trkpt>
      <trkpt lat="43.31061" lon="-1.63151">
        <ele>756</ele>
        <time>2017-10-07T15:46:55Z</time>
      </trkpt>
      <trkpt lat="43.31068" lon="-1.63148">
        <ele>756</ele>
        <time>2017-10-07T15:47:34Z</time>
      </trkpt>
      <trkpt lat="43.31069" lon="-1.63148">
        <ele>756</ele>
        <time>2017-10-07T15:47:34Z</time>
      </trkpt>
      <trkpt lat="43.31069" lon="-1.6315">
        <ele>756</ele>
        <time>2017-10-07T15:47:34Z</time>
      </trkpt>
      <trkpt lat="43.31069" lon="-1.6315">
        <ele>756</ele>
        <time>2017-10-07T15:47:35Z</time>
      </trkpt>
      <trkpt lat="43.3107" lon="-1.63152">
        <ele>756</ele>
        <time>2017-10-07T15:47:35Z</time>
      </trkpt>
      <trkpt lat="43.31072" lon="-1.63155">
        <ele>756</ele>
        <time>2017-10-07T15:47:54Z</time>
      </trkpt>
      <trkpt lat="43.31074" lon="-1.63158">
        <ele>756</ele>
        <time>2017-10-07T15:47:54Z</time>
      </trkpt>
      <trkpt lat="43.31075" lon="-1.6316">
        <ele>756</ele>
        <time>2017-10-07T15:47:54Z</time>
      </trkpt>
      <trkpt lat="43.31077" lon="-1.63163">
        <ele>756</ele>
        <time>2017-10-07T15:47:54Z</time>
      </trkpt>
      <trkpt lat="43.31079" lon="-1.63163">
        <ele>756</ele>
        <time>2017-10-07T15:47:54Z</time>
      </trkpt>
      <trkpt lat="43.31083" lon="-1.6317">
        <ele>756</ele>
        <time>2017-10-07T15:48:26Z</time>
      </trkpt>
      <trkpt lat="43.31085" lon="-1.63168">
        <ele>756</ele>
        <time>2017-10-07T15:48:26Z</time>
      </trkpt>
      <trkpt lat="43.31086" lon="-1.63166">
        <ele>756</ele>
        <time>2017-10-07T15:48:26Z</time>
      </trkpt>
      <trkpt lat="43.31088" lon="-1.63164">
        <ele>756</ele>
        <time>2017-10-07T15:48:26Z</time>
      </trkpt>
      <trkpt lat="43.31091" lon="-1.63162">
        <ele>756</ele>
        <time>2017-10-07T15:48:27Z</time>
      </trkpt>
      <trkpt lat="43.31091" lon="-1.63158">
        <ele>756</ele>
        <time>2017-10-07T15:48:46Z</time>
      </trkpt>
      <trkpt lat="43.31091" lon="-1.63154">
        <ele>756</ele>
        <time>2017-10-07T15:48:46Z</time>
      </trkpt>
      <trkpt lat="43.31091" lon="-1.63149">
        <ele>756</ele>
        <time>2017-10-07T15:48:46Z</time>
      </trkpt>
      <trkpt lat="43.31091" lon="-1.63146">
        <ele>756</ele>
        <time>2017-10-07T15:48:46Z</time>
      </trkpt>
      <trkpt lat="43.31092" lon="-1.63143">
        <ele>756</ele>
        <time>2017-10-07T15:48:47Z</time>
      </trkpt>
      <trkpt lat="43.31094" lon="-1.6314">
        <ele>756</ele>
        <time>2017-10-07T15:49:10Z</time>
      </trkpt>
      <trkpt lat="43.31094" lon="-1.63137">
        <ele>756</ele>
        <time>2017-10-07T15:49:10Z</time>
      </trkpt>
      <trkpt lat="43.31095" lon="-1.63135">
        <ele>756</ele>
        <time>2017-10-07T15:49:10Z</time>
      </trkpt>
      <trkpt lat="43.31095" lon="-1.63131">
        <ele>756</ele>
        <time>2017-10-07T15:49:11Z</time>
      </trkpt>
      <trkpt lat="43.31095" lon="-1.63127">
        <ele>756</ele>
        <time>2017-10-07T15:49:11Z</time>
      </trkpt>
      <trkpt lat="43.31097" lon="-1.63125">
        <ele>745</ele>
        <time>2017-10-07T15:49:26Z</time>
      </trkpt>
      <trkpt lat="43.31098" lon="-1.63122">
        <ele>745</ele>
        <time>2017-10-07T15:49:26Z</time>
      </trkpt>
      <trkpt lat="43.31101" lon="-1.63115">
        <ele>745</ele>
        <time>2017-10-07T15:49:26Z</time>
      </trkpt>
      <trkpt lat="43.31101" lon="-1.6311">
        <ele>745</ele>
        <time>2017-10-07T15:49:26Z</time>
      </trkpt>
      <trkpt lat="43.311" lon="-1.63106">
        <ele>745</ele>
        <time>2017-10-07T15:49:46Z</time>
      </trkpt>
      <trkpt lat="43.31099" lon="-1.63103">
        <ele>745</ele>
        <time>2017-10-07T15:49:46Z</time>
      </trkpt>
      <trkpt lat="43.31099" lon="-1.63099">
        <ele>745</ele>
        <time>2017-10-07T15:49:46Z</time>
      </trkpt>
      <trkpt lat="43.31099" lon="-1.63097">
        <ele>745</ele>
        <time>2017-10-07T15:49:47Z</time>
      </trkpt>
      <trkpt lat="43.31098" lon="-1.63094">
        <ele>745</ele>
        <time>2017-10-07T15:49:47Z</time>
      </trkpt>
      <trkpt lat="43.31097" lon="-1.63091">
        <ele>745</ele>
        <time>2017-10-07T15:50:06Z</time>
      </trkpt>
      <trkpt lat="43.31096" lon="-1.63088">
        <ele>745</ele>
        <time>2017-10-07T15:50:06Z</time>
      </trkpt>
      <trkpt lat="43.31095" lon="-1.63084">
        <ele>745</ele>
        <time>2017-10-07T15:50:06Z</time>
      </trkpt>
      <trkpt lat="43.31095" lon="-1.63081">
        <ele>745</ele>
        <time>2017-10-07T15:50:07Z</time>
      </trkpt>
      <trkpt lat="43.31094" lon="-1.63079">
        <ele>745</ele>
        <time>2017-10-07T15:50:07Z</time>
      </trkpt>
      <trkpt lat="43.31096" lon="-1.63067">
        <ele>745</ele>
        <time>2017-10-07T15:50:34Z</time>
      </trkpt>
      <trkpt lat="43.31097" lon="-1.63066">
        <ele>745</ele>
        <time>2017-10-07T15:50:34Z</time>
      </trkpt>
      <trkpt lat="43.31099" lon="-1.63067">
        <ele>745</ele>
        <time>2017-10-07T15:50:34Z</time>
      </trkpt>
      <trkpt lat="43.31099" lon="-1.63065">
        <ele>745</ele>
        <time>2017-10-07T15:50:34Z</time>
      </trkpt>
      <trkpt lat="43.31099" lon="-1.63064">
        <ele>745</ele>
        <time>2017-10-07T15:50:35Z</time>
      </trkpt>
      <trkpt lat="43.31105" lon="-1.63067">
        <ele>745</ele>
        <time>2017-10-07T15:51:14Z</time>
      </trkpt>
      <trkpt lat="43.31107" lon="-1.63069">
        <ele>745</ele>
        <time>2017-10-07T15:51:14Z</time>
      </trkpt>
      <trkpt lat="43.31108" lon="-1.63068">
        <ele>745</ele>
        <time>2017-10-07T15:51:14Z</time>
      </trkpt>
      <trkpt lat="43.31109" lon="-1.63067">
        <ele>745</ele>
        <time>2017-10-07T15:51:15Z</time>
      </trkpt>
      <trkpt lat="43.31111" lon="-1.63067">
        <ele>745</ele>
        <time>2017-10-07T15:51:15Z</time>
      </trkpt>
      <trkpt lat="43.3111" lon="-1.63073">
        <ele>745</ele>
        <time>2017-10-07T15:51:46Z</time>
      </trkpt>
      <trkpt lat="43.31112" lon="-1.63075">
        <ele>745</ele>
        <time>2017-10-07T15:51:46Z</time>
      </trkpt>
      <trkpt lat="43.31114" lon="-1.63078">
        <ele>745</ele>
        <time>2017-10-07T15:51:46Z</time>
      </trkpt>
      <trkpt lat="43.31116" lon="-1.63078">
        <ele>745</ele>
        <time>2017-10-07T15:51:47Z</time>
      </trkpt>
      <trkpt lat="43.3112" lon="-1.6308">
        <ele>745</ele>
        <time>2017-10-07T15:51:47Z</time>
      </trkpt>
      <trkpt lat="43.31123" lon="-1.63084">
        <ele>745</ele>
        <time>2017-10-07T15:52:10Z</time>
      </trkpt>
      <trkpt lat="43.31126" lon="-1.63087">
        <ele>705</ele>
        <time>2017-10-07T15:52:10Z</time>
      </trkpt>
      <trkpt lat="43.31128" lon="-1.63088">
        <ele>705</ele>
        <time>2017-10-07T15:52:10Z</time>
      </trkpt>
      <trkpt lat="43.31128" lon="-1.63091">
        <ele>705</ele>
        <time>2017-10-07T15:52:11Z</time>
      </trkpt>
      <trkpt lat="43.31129" lon="-1.63093">
        <ele>705</ele>
        <time>2017-10-07T15:52:11Z</time>
      </trkpt>
      <trkpt lat="43.31129" lon="-1.63096">
        <ele>705</ele>
        <time>2017-10-07T15:52:38Z</time>
      </trkpt>
      <trkpt lat="43.31132" lon="-1.63098">
        <ele>705</ele>
        <time>2017-10-07T15:52:39Z</time>
      </trkpt>
      <trkpt lat="43.31134" lon="-1.631">
        <ele>705</ele>
        <time>2017-10-07T15:52:39Z</time>
      </trkpt>
      <trkpt lat="43.31136" lon="-1.63102">
        <ele>705</ele>
        <time>2017-10-07T15:52:39Z</time>
      </trkpt>
      <trkpt lat="43.31137" lon="-1.63106">
        <ele>705</ele>
        <time>2017-10-07T15:52:39Z</time>
      </trkpt>
      <trkpt lat="43.3114" lon="-1.63111">
        <ele>705</ele>
        <time>2017-10-07T15:53:02Z</time>
      </trkpt>
      <trkpt lat="43.31142" lon="-1.63109">
        <ele>705</ele>
        <time>2017-10-07T15:53:02Z</time>
      </trkpt>
      <trkpt lat="43.31144" lon="-1.6311">
        <ele>705</ele>
        <time>2017-10-07T15:53:02Z</time>
      </trkpt>
      <trkpt lat="43.31145" lon="-1.63108">
        <ele>705</ele>
        <time>2017-10-07T15:53:03Z</time>
      </trkpt>
      <trkpt lat="43.31147" lon="-1.63106">
        <ele>705</ele>
        <time>2017-10-07T15:53:03Z</time>
      </trkpt>
      <trkpt lat="43.31152" lon="-1.63101">
        <ele>705</ele>
        <time>2017-10-07T15:53:30Z</time>
      </trkpt>
      <trkpt lat="43.31153" lon="-1.63098">
        <ele>705</ele>
        <time>2017-10-07T15:53:30Z</time>
      </trkpt>
      <trkpt lat="43.31154" lon="-1.63095">
        <ele>705</ele>
        <time>2017-10-07T15:53:31Z</time>
      </trkpt>
      <trkpt lat="43.31154" lon="-1.63094">
        <ele>705</ele>
        <time>2017-10-07T15:53:31Z</time>
      </trkpt>
      <trkpt lat="43.31156" lon="-1.63095">
        <ele>705</ele>
        <time>2017-10-07T15:53:31Z</time>
      </trkpt>
      <trkpt lat="43.31163" lon="-1.63097">
        <ele>705</ele>
        <time>2017-10-07T15:54:18Z</time>
      </trkpt>
      <trkpt lat="43.31163" lon="-1.63102">
        <ele>705</ele>
        <time>2017-10-07T15:54:18Z</time>
      </trkpt>
      <trkpt lat="43.31166" lon="-1.63106">
        <ele>705</ele>
        <time>2017-10-07T15:54:18Z</time>
      </trkpt>
      <trkpt lat="43.31168" lon="-1.63106">
        <ele>705</ele>
        <time>2017-10-07T15:54:18Z</time>
      </trkpt>
      <trkpt lat="43.31169" lon="-1.63109">
        <ele>705</ele>
        <time>2017-10-07T15:54:18Z</time>
      </trkpt>
      <trkpt lat="43.31174" lon="-1.63107">
        <ele>705</ele>
        <time>2017-10-07T15:54:46Z</time>
      </trkpt>
      <trkpt lat="43.31175" lon="-1.63109">
        <ele>705</ele>
        <time>2017-10-07T15:54:46Z</time>
      </trkpt>
      <trkpt lat="43.31177" lon="-1.6311">
        <ele>705</ele>
        <time>2017-10-07T15:54:46Z</time>
      </trkpt>
      <trkpt lat="43.31178" lon="-1.63111">
        <ele>705</ele>
        <time>2017-10-07T15:54:46Z</time>
      </trkpt>
      <trkpt lat="43.31179" lon="-1.63113">
        <ele>705</ele>
        <time>2017-10-07T15:54:47Z</time>
      </trkpt>
      <trkpt lat="43.31184" lon="-1.63107">
        <ele>705</ele>
        <time>2017-10-07T15:55:26Z</time>
      </trkpt>
      <trkpt lat="43.31185" lon="-1.63108">
        <ele>705</ele>
        <time>2017-10-07T15:55:26Z</time>
      </trkpt>
      <trkpt lat="43.31187" lon="-1.6311">
        <ele>705</ele>
        <time>2017-10-07T15:55:26Z</time>
      </trkpt>
      <trkpt lat="43.31188" lon="-1.63114">
        <ele>705</ele>
        <time>2017-10-07T15:55:27Z</time>
      </trkpt>
      <trkpt lat="43.31189" lon="-1.63115">
        <ele>705</ele>
        <time>2017-10-07T15:55:27Z</time>
      </trkpt>
      <trkpt lat="43.31191" lon="-1.63122">
        <ele>705</ele>
        <time>2017-10-07T15:55:50Z</time>
      </trkpt>
      <trkpt lat="43.31193" lon="-1.63123">
        <ele>705</ele>
        <time>2017-10-07T15:55:50Z</time>
      </trkpt>
      <trkpt lat="43.31194" lon="-1.63126">
        <ele>714</ele>
        <time>2017-10-07T15:55:50Z</time>
      </trkpt>
      <trkpt lat="43.31194" lon="-1.63129">
        <ele>714</ele>
        <time>2017-10-07T15:55:51Z</time>
      </trkpt>
      <trkpt lat="43.31196" lon="-1.6313">
        <ele>714</ele>
        <time>2017-10-07T15:55:51Z</time>
      </trkpt>
      <trkpt lat="43.31197" lon="-1.63131">
        <ele>714</ele>
        <time>2017-10-07T15:56:10Z</time>
      </trkpt>
      <trkpt lat="43.31198" lon="-1.63132">
        <ele>714</ele>
        <time>2017-10-07T15:56:10Z</time>
      </trkpt>
      <trkpt lat="43.312" lon="-1.63136">
        <ele>714</ele>
        <time>2017-10-07T15:56:10Z</time>
      </trkpt>
      <trkpt lat="43.31201" lon="-1.6314">
        <ele>714</ele>
        <time>2017-10-07T15:56:11Z</time>
      </trkpt>
      <trkpt lat="43.31203" lon="-1.63141">
        <ele>714</ele>
        <time>2017-10-07T15:56:11Z</time>
      </trkpt>
      <trkpt lat="43.31206" lon="-1.63147">
        <ele>714</ele>
        <time>2017-10-07T15:56:34Z</time>
      </trkpt>
      <trkpt lat="43.31207" lon="-1.63148">
        <ele>714</ele>
        <time>2017-10-07T15:56:34Z</time>
      </trkpt>
      <trkpt lat="43.31209" lon="-1.63148">
        <ele>675</ele>
        <time>2017-10-07T15:56:34Z</time>
      </trkpt>
      <trkpt lat="43.31211" lon="-1.63151">
        <ele>675</ele>
        <time>2017-10-07T15:56:35Z</time>
      </trkpt>
      <trkpt lat="43.31214" lon="-1.63154">
        <ele>675</ele>
        <time>2017-10-07T15:56:35Z</time>
      </trkpt>
      <trkpt lat="43.31218" lon="-1.63158">
        <ele>675</ele>
        <time>2017-10-07T15:57:02Z</time>
      </trkpt>
      <trkpt lat="43.3122" lon="-1.6316">
        <ele>675</ele>
        <time>2017-10-07T15:57:02Z</time>
      </trkpt>
      <trkpt lat="43.31222" lon="-1.6316">
        <ele>675</ele>
        <time>2017-10-07T15:57:02Z</time>
      </trkpt>
      <trkpt lat="43.31224" lon="-1.63156">
        <ele>675</ele>
        <time>2017-10-07T15:57:03Z</time>
      </trkpt>
      <trkpt lat="43.31226" lon="-1.63154">
        <ele>675</ele>
        <time>2017-10-07T15:57:03Z</time>
      </trkpt>
      <trkpt lat="43.31232" lon="-1.63147">
        <ele>675</ele>
        <time>2017-10-07T15:57:30Z</time>
      </trkpt>
      <trkpt lat="43.31234" lon="-1.63149">
        <ele>675</ele>
        <time>2017-10-07T15:57:30Z</time>
      </trkpt>
      <trkpt lat="43.31235" lon="-1.6315">
        <ele>675</ele>
        <time>2017-10-07T15:57:30Z</time>
      </trkpt>
      <trkpt lat="43.31237" lon="-1.63149">
        <ele>675</ele>
        <time>2017-10-07T15:57:31Z</time>
      </trkpt>
      <trkpt lat="43.31239" lon="-1.63151">
        <ele>675</ele>
        <time>2017-10-07T15:57:31Z</time>
      </trkpt>
      <trkpt lat="43.31242" lon="-1.63152">
        <ele>675</ele>
        <time>2017-10-07T15:57:54Z</time>
      </trkpt>
      <trkpt lat="43.31244" lon="-1.6315">
        <ele>675</ele>
        <time>2017-10-07T15:57:54Z</time>
      </trkpt>
      <trkpt lat="43.31246" lon="-1.6315">
        <ele>675</ele>
        <time>2017-10-07T15:57:54Z</time>
      </trkpt>
      <trkpt lat="43.31248" lon="-1.63148">
        <ele>675</ele>
        <time>2017-10-07T15:57:54Z</time>
      </trkpt>
      <trkpt lat="43.3125" lon="-1.63147">
        <ele>675</ele>
        <time>2017-10-07T15:57:55Z</time>
      </trkpt>
      <trkpt lat="43.31254" lon="-1.63146">
        <ele>675</ele>
        <time>2017-10-07T15:58:22Z</time>
      </trkpt>
      <trkpt lat="43.31257" lon="-1.63146">
        <ele>675</ele>
        <time>2017-10-07T15:58:23Z</time>
      </trkpt>
      <trkpt lat="43.31259" lon="-1.63147">
        <ele>675</ele>
        <time>2017-10-07T15:58:23Z</time>
      </trkpt>
      <trkpt lat="43.3126" lon="-1.63147">
        <ele>675</ele>
        <time>2017-10-07T15:58:23Z</time>
      </trkpt>
      <trkpt lat="43.31262" lon="-1.63148">
        <ele>675</ele>
        <time>2017-10-07T15:58:23Z</time>
      </trkpt>
      <trkpt lat="43.31263" lon="-1.63148">
        <ele>675</ele>
        <time>2017-10-07T15:58:38Z</time>
      </trkpt>
      <trkpt lat="43.31265" lon="-1.63151">
        <ele>675</ele>
        <time>2017-10-07T15:58:38Z</time>
      </trkpt>
      <trkpt lat="43.31267" lon="-1.63153">
        <ele>675</ele>
        <time>2017-10-07T15:58:38Z</time>
      </trkpt>
      <trkpt lat="43.31272" lon="-1.63158">
        <ele>675</ele>
        <time>2017-10-07T15:58:38Z</time>
      </trkpt>
      <trkpt lat="43.31275" lon="-1.6315">
        <ele>675</ele>
        <time>2017-10-07T15:59:14Z</time>
      </trkpt>
      <trkpt lat="43.31277" lon="-1.63149">
        <ele>675</ele>
        <time>2017-10-07T15:59:14Z</time>
      </trkpt>
      <trkpt lat="43.31279" lon="-1.63149">
        <ele>675</ele>
        <time>2017-10-07T15:59:14Z</time>
      </trkpt>
      <trkpt lat="43.31283" lon="-1.63147">
        <ele>675</ele>
        <time>2017-10-07T15:59:15Z</time>
      </trkpt>
      <trkpt lat="43.31286" lon="-1.63147">
        <ele>675</ele>
        <time>2017-10-07T15:59:15Z</time>
      </trkpt>
      <trkpt lat="43.31289" lon="-1.63148">
        <ele>675</ele>
        <time>2017-10-07T15:59:34Z</time>
      </trkpt>
      <trkpt lat="43.31292" lon="-1.6315">
        <ele>675</ele>
        <time>2017-10-07T15:59:34Z</time>
      </trkpt>
      <trkpt lat="43.31294" lon="-1.63153">
        <ele>646</ele>
        <time>2017-10-07T15:59:34Z</time>
      </trkpt>
      <trkpt lat="43.31296" lon="-1.63156">
        <ele>646</ele>
        <time>2017-10-07T15:59:35Z</time>
      </trkpt>
      <trkpt lat="43.31298" lon="-1.63156">
        <ele>646</ele>
        <time>2017-10-07T15:59:35Z</time>
      </trkpt>
      <trkpt lat="43.313" lon="-1.63155">
        <ele>646</ele>
        <time>2017-10-07T15:59:54Z</time>
      </trkpt>
      <trkpt lat="43.31303" lon="-1.63154">
        <ele>646</ele>
        <time>2017-10-07T15:59:54Z</time>
      </trkpt>
      <trkpt lat="43.31305" lon="-1.63155">
        <ele>646</ele>
        <time>2017-10-07T15:59:54Z</time>
      </trkpt>
      <trkpt lat="43.31308" lon="-1.63152">
        <ele>646</ele>
        <time>2017-10-07T15:59:54Z</time>
      </trkpt>
      <trkpt lat="43.31311" lon="-1.63154">
        <ele>646</ele>
        <time>2017-10-07T15:59:55Z</time>
      </trkpt>
      <trkpt lat="43.31321" lon="-1.63152">
        <ele>646</ele>
        <time>2017-10-07T16:00:46Z</time>
      </trkpt>
      <trkpt lat="43.31321" lon="-1.63152">
        <ele>646</ele>
        <time>2017-10-07T16:00:46Z</time>
      </trkpt>
      <trkpt lat="43.31324" lon="-1.63151">
        <ele>646</ele>
        <time>2017-10-07T16:00:46Z</time>
      </trkpt>
      <trkpt lat="43.31325" lon="-1.6315">
        <ele>646</ele>
        <time>2017-10-07T16:00:46Z</time>
      </trkpt>
      <trkpt lat="43.31326" lon="-1.63147">
        <ele>646</ele>
        <time>2017-10-07T16:00:47Z</time>
      </trkpt>
      <trkpt lat="43.31328" lon="-1.63145">
        <ele>646</ele>
        <time>2017-10-07T16:01:02Z</time>
      </trkpt>
      <trkpt lat="43.3133" lon="-1.6315">
        <ele>646</ele>
        <time>2017-10-07T16:01:02Z</time>
      </trkpt>
      <trkpt lat="43.31332" lon="-1.63153">
        <ele>646</ele>
        <time>2017-10-07T16:01:02Z</time>
      </trkpt>
      <trkpt lat="43.31334" lon="-1.63155">
        <ele>646</ele>
        <time>2017-10-07T16:01:02Z</time>
      </trkpt>
      <trkpt lat="43.31337" lon="-1.63161">
        <ele>646</ele>
        <time>2017-10-07T16:01:18Z</time>
      </trkpt>
      <trkpt lat="43.31338" lon="-1.63165">
        <ele>646</ele>
        <time>2017-10-07T16:01:18Z</time>
      </trkpt>
      <trkpt lat="43.3134" lon="-1.63167">
        <ele>646</ele>
        <time>2017-10-07T16:01:18Z</time>
      </trkpt>
      <trkpt lat="43.31345" lon="-1.63168">
        <ele>646</ele>
        <time>2017-10-07T16:01:18Z</time>
      </trkpt>
      <trkpt lat="43.31353" lon="-1.63172">
        <ele>646</ele>
        <time>2017-10-07T16:01:58Z</time>
      </trkpt>
      <trkpt lat="43.31353" lon="-1.63172">
        <ele>646</ele>
        <time>2017-10-07T16:01:58Z</time>
      </trkpt>
      <trkpt lat="43.31353" lon="-1.63171">
        <ele>646</ele>
        <time>2017-10-07T16:01:58Z</time>
      </trkpt>
      <trkpt lat="43.31354" lon="-1.63167">
        <ele>646</ele>
        <time>2017-10-07T16:01:58Z</time>
      </trkpt>
      <trkpt lat="43.31358" lon="-1.63165">
        <ele>646</ele>
        <time>2017-10-07T16:01:59Z</time>
      </trkpt>
      <trkpt lat="43.31363" lon="-1.63164">
        <ele>646</ele>
        <time>2017-10-07T16:02:18Z</time>
      </trkpt>
      <trkpt lat="43.31366" lon="-1.63165">
        <ele>646</ele>
        <time>2017-10-07T16:02:18Z</time>
      </trkpt>
      <trkpt lat="43.31369" lon="-1.63166">
        <ele>646</ele>
        <time>2017-10-07T16:02:18Z</time>
      </trkpt>
      <trkpt lat="43.31371" lon="-1.63164">
        <ele>646</ele>
        <time>2017-10-07T16:02:19Z</time>
      </trkpt>
      <trkpt lat="43.31374" lon="-1.63165">
        <ele>646</ele>
        <time>2017-10-07T16:02:19Z</time>
      </trkpt>
      <trkpt lat="43.31376" lon="-1.63168">
        <ele>619</ele>
        <time>2017-10-07T16:02:42Z</time>
      </trkpt>
      <trkpt lat="43.31378" lon="-1.63167">
        <ele>619</ele>
        <time>2017-10-07T16:02:42Z</time>
      </trkpt>
      <trkpt lat="43.31381" lon="-1.63166">
        <ele>619</ele>
        <time>2017-10-07T16:02:42Z</time>
      </trkpt>
      <trkpt lat="43.31384" lon="-1.63168">
        <ele>619</ele>
        <time>2017-10-07T16:02:43Z</time>
      </trkpt>
      <trkpt lat="43.31386" lon="-1.63166">
        <ele>619</ele>
        <time>2017-10-07T16:02:43Z</time>
      </trkpt>
      <trkpt lat="43.3139" lon="-1.63166">
        <ele>619</ele>
        <time>2017-10-07T16:03:06Z</time>
      </trkpt>
      <trkpt lat="43.3139" lon="-1.63166">
        <ele>619</ele>
        <time>2017-10-07T16:03:06Z</time>
      </trkpt>
      <trkpt lat="43.31394" lon="-1.63168">
        <ele>619</ele>
        <time>2017-10-07T16:03:06Z</time>
      </trkpt>
      <trkpt lat="43.31396" lon="-1.63169">
        <ele>619</ele>
        <time>2017-10-07T16:03:06Z</time>
      </trkpt>
      <trkpt lat="43.31399" lon="-1.63171">
        <ele>619</ele>
        <time>2017-10-07T16:03:07Z</time>
      </trkpt>
      <trkpt lat="43.31403" lon="-1.63173">
        <ele>619</ele>
        <time>2017-10-07T16:03:22Z</time>
      </trkpt>
      <trkpt lat="43.31406" lon="-1.63174">
        <ele>619</ele>
        <time>2017-10-07T16:03:22Z</time>
      </trkpt>
      <trkpt lat="43.3141" lon="-1.63177">
        <ele>619</ele>
        <time>2017-10-07T16:03:22Z</time>
      </trkpt>
      <trkpt lat="43.31412" lon="-1.6318">
        <ele>619</ele>
        <time>2017-10-07T16:03:23Z</time>
      </trkpt>
      <trkpt lat="43.31421" lon="-1.63183">
        <ele>619</ele>
        <time>2017-10-07T16:03:58Z</time>
      </trkpt>
      <trkpt lat="43.31422" lon="-1.63184">
        <ele>619</ele>
        <time>2017-10-07T16:03:58Z</time>
      </trkpt>
      <trkpt lat="43.31423" lon="-1.63183">
        <ele>619</ele>
        <time>2017-10-07T16:03:58Z</time>
      </trkpt>
      <trkpt lat="43.31425" lon="-1.63183">
        <ele>619</ele>
        <time>2017-10-07T16:03:59Z</time>
      </trkpt>
      <trkpt lat="43.31429" lon="-1.63184">
        <ele>619</ele>
        <time>2017-10-07T16:03:59Z</time>
      </trkpt>
      <trkpt lat="43.31432" lon="-1.63182">
        <ele>619</ele>
        <time>2017-10-07T16:04:14Z</time>
      </trkpt>
      <trkpt lat="43.31435" lon="-1.63182">
        <ele>619</ele>
        <time>2017-10-07T16:04:14Z</time>
      </trkpt>
      <trkpt lat="43.31439" lon="-1.63181">
        <ele>619</ele>
        <time>2017-10-07T16:04:15Z</time>
      </trkpt>
      <trkpt lat="43.31442" lon="-1.63184">
        <ele>619</ele>
        <time>2017-10-07T16:04:15Z</time>
      </trkpt>
      <trkpt lat="43.31447" lon="-1.63188">
        <ele>619</ele>
        <time>2017-10-07T16:04:30Z</time>
      </trkpt>
      <trkpt lat="43.31451" lon="-1.63191">
        <ele>619</ele>
        <time>2017-10-07T16:04:30Z</time>
      </trkpt>
      <trkpt lat="43.31454" lon="-1.63198">
        <ele>619</ele>
        <time>2017-10-07T16:04:30Z</time>
      </trkpt>
      <trkpt lat="43.31459" lon="-1.63199">
        <ele>605</ele>
        <time>2017-10-07T16:04:31Z</time>
      </trkpt>
      <trkpt lat="43.3146" lon="-1.63202">
        <ele>605</ele>
        <time>2017-10-07T16:04:46Z</time>
      </trkpt>
      <trkpt lat="43.31462" lon="-1.63204">
        <ele>605</ele>
        <time>2017-10-07T16:04:46Z</time>
      </trkpt>
      <trkpt lat="43.31466" lon="-1.63205">
        <ele>605</ele>
        <time>2017-10-07T16:04:46Z</time>
      </trkpt>
      <trkpt lat="43.3147" lon="-1.63205">
        <ele>605</ele>
        <time>2017-10-07T16:04:47Z</time>
      </trkpt>
      <trkpt lat="43.31474" lon="-1.63204">
        <ele>605</ele>
        <time>2017-10-07T16:05:02Z</time>
      </trkpt>
      <trkpt lat="43.3148" lon="-1.63206">
        <ele>605</ele>
        <time>2017-10-07T16:05:02Z</time>
      </trkpt>
      <trkpt lat="43.31482" lon="-1.63207">
        <ele>605</ele>
        <time>2017-10-07T16:05:02Z</time>
      </trkpt>
      <trkpt lat="43.31484" lon="-1.63208">
        <ele>605</ele>
        <time>2017-10-07T16:05:03Z</time>
      </trkpt>
      <trkpt lat="43.31491" lon="-1.63209">
        <ele>600</ele>
        <time>2017-10-07T16:05:18Z</time>
      </trkpt>
      <trkpt lat="43.31496" lon="-1.63213">
        <ele>600</ele>
        <time>2017-10-07T16:05:18Z</time>
      </trkpt>
      <trkpt lat="43.31499" lon="-1.63217">
        <ele>600</ele>
        <time>2017-10-07T16:05:18Z</time>
      </trkpt>
      <trkpt lat="43.31501" lon="-1.63221">
        <ele>600</ele>
        <time>2017-10-07T16:05:19Z</time>
      </trkpt>
      <trkpt lat="43.31505" lon="-1.63226">
        <ele>600</ele>
        <time>2017-10-07T16:05:34Z</time>
      </trkpt>
      <trkpt lat="43.31508" lon="-1.63228">
        <ele>600</ele>
        <time>2017-10-07T16:05:34Z</time>
      </trkpt>
      <trkpt lat="43.31512" lon="-1.6323">
        <ele>600</ele>
        <time>2017-10-07T16:05:34Z</time>
      </trkpt>
      <trkpt lat="43.31516" lon="-1.63232">
        <ele>600</ele>
        <time>2017-10-07T16:05:34Z</time>
      </trkpt>
      <trkpt lat="43.3152" lon="-1.63234">
        <ele>600</ele>
        <time>2017-10-07T16:05:50Z</time>
      </trkpt>
      <trkpt lat="43.31522" lon="-1.63235">
        <ele>600</ele>
        <time>2017-10-07T16:05:50Z</time>
      </trkpt>
      <trkpt lat="43.31527" lon="-1.63238">
        <ele>600</ele>
        <time>2017-10-07T16:05:51Z</time>
      </trkpt>
      <trkpt lat="43.3153" lon="-1.63238">
        <ele>600</ele>
        <time>2017-10-07T16:05:51Z</time>
      </trkpt>
      <trkpt lat="43.31533" lon="-1.63236">
        <ele>600</ele>
        <time>2017-10-07T16:06:06Z</time>
      </trkpt>
      <trkpt lat="43.31537" lon="-1.63238">
        <ele>600</ele>
        <time>2017-10-07T16:06:06Z</time>
      </trkpt>
      <trkpt lat="43.31544" lon="-1.63242">
        <ele>586</ele>
        <time>2017-10-07T16:06:06Z</time>
      </trkpt>
      <trkpt lat="43.31548" lon="-1.63247">
        <ele>586</ele>
        <time>2017-10-07T16:06:07Z</time>
      </trkpt>
      <trkpt lat="43.31552" lon="-1.6325">
        <ele>586</ele>
        <time>2017-10-07T16:06:22Z</time>
      </trkpt>
      <trkpt lat="43.31557" lon="-1.63256">
        <ele>586</ele>
        <time>2017-10-07T16:06:22Z</time>
      </trkpt>
      <trkpt lat="43.31561" lon="-1.63259">
        <ele>586</ele>
        <time>2017-10-07T16:06:22Z</time>
      </trkpt>
      <trkpt lat="43.31565" lon="-1.63263">
        <ele>586</ele>
        <time>2017-10-07T16:06:23Z</time>
      </trkpt>
      <trkpt lat="43.31568" lon="-1.63264">
        <ele>586</ele>
        <time>2017-10-07T16:06:38Z</time>
      </trkpt>
      <trkpt lat="43.31573" lon="-1.63268">
        <ele>586</ele>
        <time>2017-10-07T16:06:38Z</time>
      </trkpt>
      <trkpt lat="43.31576" lon="-1.63274">
        <ele>586</ele>
        <time>2017-10-07T16:06:38Z</time>
      </trkpt>
      <trkpt lat="43.31579" lon="-1.63276">
        <ele>586</ele>
        <time>2017-10-07T16:06:39Z</time>
      </trkpt>
      <trkpt lat="43.31584" lon="-1.63275">
        <ele>586</ele>
        <time>2017-10-07T16:06:54Z</time>
      </trkpt>
      <trkpt lat="43.3159" lon="-1.63272">
        <ele>586</ele>
        <time>2017-10-07T16:06:54Z</time>
      </trkpt>
      <trkpt lat="43.31593" lon="-1.63272">
        <ele>586</ele>
        <time>2017-10-07T16:06:54Z</time>
      </trkpt>
      <trkpt lat="43.31596" lon="-1.63272">
        <ele>586</ele>
        <time>2017-10-07T16:06:54Z</time>
      </trkpt>
      <trkpt lat="43.316" lon="-1.63272">
        <ele>586</ele>
        <time>2017-10-07T16:07:10Z</time>
      </trkpt>
      <trkpt lat="43.31603" lon="-1.63272">
        <ele>586</ele>
        <time>2017-10-07T16:07:10Z</time>
      </trkpt>
      <trkpt lat="43.31607" lon="-1.63272">
        <ele>586</ele>
        <time>2017-10-07T16:07:10Z</time>
      </trkpt>
      <trkpt lat="43.31609" lon="-1.6327">
        <ele>586</ele>
        <time>2017-10-07T16:07:11Z</time>
      </trkpt>
      <trkpt lat="43.31615" lon="-1.63272">
        <ele>586</ele>
        <time>2017-10-07T16:07:26Z</time>
      </trkpt>
      <trkpt lat="43.31617" lon="-1.63271">
        <ele>586</ele>
        <time>2017-10-07T16:07:26Z</time>
      </trkpt>
      <trkpt lat="43.31622" lon="-1.63272">
        <ele>586</ele>
        <time>2017-10-07T16:07:26Z</time>
      </trkpt>
      <trkpt lat="43.31625" lon="-1.63273">
        <ele>586</ele>
        <time>2017-10-07T16:07:27Z</time>
      </trkpt>
      <trkpt lat="43.31628" lon="-1.63273">
        <ele>566</ele>
        <time>2017-10-07T16:07:42Z</time>
      </trkpt>
      <trkpt lat="43.31633" lon="-1.63274">
        <ele>566</ele>
        <time>2017-10-07T16:07:42Z</time>
      </trkpt>
      <trkpt lat="43.31637" lon="-1.63276">
        <ele>566</ele>
        <time>2017-10-07T16:07:42Z</time>
      </trkpt>
      <trkpt lat="43.3164" lon="-1.6328">
        <ele>566</ele>
        <time>2017-10-07T16:07:43Z</time>
      </trkpt>
      <trkpt lat="43.31644" lon="-1.63283">
        <ele>566</ele>
        <time>2017-10-07T16:08:02Z</time>
      </trkpt>
      <trkpt lat="43.31646" lon="-1.63284">
        <ele>566</ele>
        <time>2017-10-07T16:08:02Z</time>
      </trkpt>
      <trkpt lat="43.31649" lon="-1.63285">
        <ele>566</ele>
        <time>2017-10-07T16:08:02Z</time>
      </trkpt>
      <trkpt lat="43.31652" lon="-1.63287">
        <ele>566</ele>
        <time>2017-10-07T16:08:03Z</time>
      </trkpt>
      <trkpt lat="43.31654" lon="-1.63287">
        <ele>566</ele>
        <time>2017-10-07T16:08:03Z</time>
      </trkpt>
      <trkpt lat="43.31657" lon="-1.63287">
        <ele>566</ele>
        <time>2017-10-07T16:08:22Z</time>
      </trkpt>
      <trkpt lat="43.31659" lon="-1.63288">
        <ele>566</ele>
        <time>2017-10-07T16:08:22Z</time>
      </trkpt>
      <trkpt lat="43.31662" lon="-1.63289">
        <ele>566</ele>
        <time>2017-10-07T16:08:22Z</time>
      </trkpt>
      <trkpt lat="43.31666" lon="-1.63289">
        <ele>566</ele>
        <time>2017-10-07T16:08:23Z</time>
      </trkpt>
      <trkpt lat="43.31669" lon="-1.63291">
        <ele>566</ele>
        <time>2017-10-07T16:08:23Z</time>
      </trkpt>
      <trkpt lat="43.31672" lon="-1.63292">
        <ele>562</ele>
        <time>2017-10-07T16:08:38Z</time>
      </trkpt>
      <trkpt lat="43.31673" lon="-1.6329">
        <ele>566</ele>
        <time>2017-10-07T16:08:38Z</time>
      </trkpt>
      <trkpt lat="43.31677" lon="-1.63289">
        <ele>566</ele>
        <time>2017-10-07T16:08:38Z</time>
      </trkpt>
      <trkpt lat="43.3168" lon="-1.63287">
        <ele>566</ele>
        <time>2017-10-07T16:08:39Z</time>
      </trkpt>
      <trkpt lat="43.31678" lon="-1.63288">
        <ele>566</ele>
        <time>2017-10-07T16:08:54Z</time>
      </trkpt>
      <trkpt lat="43.3168" lon="-1.63287">
        <ele>566</ele>
        <time>2017-10-07T16:08:54Z</time>
      </trkpt>
      <trkpt lat="43.31684" lon="-1.63284">
        <ele>566</ele>
        <time>2017-10-07T16:08:54Z</time>
      </trkpt>
      <trkpt lat="43.31689" lon="-1.63281">
        <ele>566</ele>
        <time>2017-10-07T16:08:55Z</time>
      </trkpt>
      <trkpt lat="43.31691" lon="-1.63283">
        <ele>566</ele>
        <time>2017-10-07T16:09:22Z</time>
      </trkpt>
      <trkpt lat="43.31694" lon="-1.63279">
        <ele>566</ele>
        <time>2017-10-07T16:09:22Z</time>
      </trkpt>
      <trkpt lat="43.31697" lon="-1.63275">
        <ele>566</ele>
        <time>2017-10-07T16:09:22Z</time>
      </trkpt>
      <trkpt lat="43.31697" lon="-1.63273">
        <ele>566</ele>
        <time>2017-10-07T16:09:23Z</time>
      </trkpt>
      <trkpt lat="43.317" lon="-1.63267">
        <ele>566</ele>
        <time>2017-10-07T16:09:23Z</time>
      </trkpt>
      <trkpt lat="43.31702" lon="-1.63261">
        <ele>566</ele>
        <time>2017-10-07T16:09:38Z</time>
      </trkpt>
      <trkpt lat="43.31706" lon="-1.63256">
        <ele>566</ele>
        <time>2017-10-07T16:09:38Z</time>
      </trkpt>
      <trkpt lat="43.31709" lon="-1.63252">
        <ele>558</ele>
        <time>2017-10-07T16:09:38Z</time>
      </trkpt>
      <trkpt lat="43.31712" lon="-1.63246">
        <ele>558</ele>
        <time>2017-10-07T16:09:38Z</time>
      </trkpt>
      <trkpt lat="43.31713" lon="-1.63241">
        <ele>558</ele>
        <time>2017-10-07T16:09:54Z</time>
      </trkpt>
      <trkpt lat="43.31717" lon="-1.63236">
        <ele>558</ele>
        <time>2017-10-07T16:09:54Z</time>
      </trkpt>
      <trkpt lat="43.31721" lon="-1.63233">
        <ele>558</ele>
        <time>2017-10-07T16:09:54Z</time>
      </trkpt>
      <trkpt lat="43.31725" lon="-1.6323">
        <ele>558</ele>
        <time>2017-10-07T16:09:54Z</time>
      </trkpt>
      <trkpt lat="43.31729" lon="-1.63225">
        <ele>558</ele>
        <time>2017-10-07T16:10:10Z</time>
      </trkpt>
      <trkpt lat="43.31733" lon="-1.6322">
        <ele>558</ele>
        <time>2017-10-07T16:10:10Z</time>
      </trkpt>
      <trkpt lat="43.31737" lon="-1.63215">
        <ele>558</ele>
        <time>2017-10-07T16:10:10Z</time>
      </trkpt>
      <trkpt lat="43.31742" lon="-1.63211">
        <ele>558</ele>
        <time>2017-10-07T16:10:11Z</time>
      </trkpt>
      <trkpt lat="43.31746" lon="-1.63208">
        <ele>553</ele>
        <time>2017-10-07T16:10:26Z</time>
      </trkpt>
      <trkpt lat="43.31749" lon="-1.63203">
        <ele>553</ele>
        <time>2017-10-07T16:10:26Z</time>
      </trkpt>
      <trkpt lat="43.31753" lon="-1.63196">
        <ele>553</ele>
        <time>2017-10-07T16:10:26Z</time>
      </trkpt>
      <trkpt lat="43.31756" lon="-1.63191">
        <ele>553</ele>
        <time>2017-10-07T16:10:27Z</time>
      </trkpt>
      <trkpt lat="43.3176" lon="-1.63188">
        <ele>553</ele>
        <time>2017-10-07T16:10:42Z</time>
      </trkpt>
      <trkpt lat="43.31763" lon="-1.63183">
        <ele>553</ele>
        <time>2017-10-07T16:10:42Z</time>
      </trkpt>
      <trkpt lat="43.31766" lon="-1.63174">
        <ele>553</ele>
        <time>2017-10-07T16:10:43Z</time>
      </trkpt>
      <trkpt lat="43.31769" lon="-1.6317">
        <ele>553</ele>
        <time>2017-10-07T16:10:43Z</time>
      </trkpt>
      <trkpt lat="43.31771" lon="-1.63166">
        <ele>553</ele>
        <time>2017-10-07T16:10:58Z</time>
      </trkpt>
      <trkpt lat="43.31774" lon="-1.63162">
        <ele>553</ele>
        <time>2017-10-07T16:10:59Z</time>
      </trkpt>
      <trkpt lat="43.31776" lon="-1.63156">
        <ele>553</ele>
        <time>2017-10-07T16:10:59Z</time>
      </trkpt>
      <trkpt lat="43.31777" lon="-1.63153">
        <ele>553</ele>
        <time>2017-10-07T16:10:59Z</time>
      </trkpt>
      <trkpt lat="43.31781" lon="-1.63149">
        <ele>553</ele>
        <time>2017-10-07T16:11:14Z</time>
      </trkpt>
      <trkpt lat="43.31783" lon="-1.63147">
        <ele>553</ele>
        <time>2017-10-07T16:11:14Z</time>
      </trkpt>
      <trkpt lat="43.31784" lon="-1.63141">
        <ele>553</ele>
        <time>2017-10-07T16:11:14Z</time>
      </trkpt>
      <trkpt lat="43.31783" lon="-1.63132">
        <ele>553</ele>
        <time>2017-10-07T16:11:14Z</time>
      </trkpt>
      <trkpt lat="43.31785" lon="-1.63128">
        <ele>553</ele>
        <time>2017-10-07T16:11:34Z</time>
      </trkpt>
      <trkpt lat="43.31785" lon="-1.63126">
        <ele>553</ele>
        <time>2017-10-07T16:11:34Z</time>
      </trkpt>
      <trkpt lat="43.31783" lon="-1.63125">
        <ele>551</ele>
        <time>2017-10-07T16:11:34Z</time>
      </trkpt>
      <trkpt lat="43.3178" lon="-1.63122">
        <ele>551</ele>
        <time>2017-10-07T16:11:34Z</time>
      </trkpt>
      <trkpt lat="43.31778" lon="-1.63117">
        <ele>551</ele>
        <time>2017-10-07T16:11:35Z</time>
      </trkpt>
      <trkpt lat="43.31773" lon="-1.6311">
        <ele>551</ele>
        <time>2017-10-07T16:11:58Z</time>
      </trkpt>
      <trkpt lat="43.31775" lon="-1.63105">
        <ele>551</ele>
        <time>2017-10-07T16:11:58Z</time>
      </trkpt>
      <trkpt lat="43.31776" lon="-1.63104">
        <ele>551</ele>
        <time>2017-10-07T16:11:58Z</time>
      </trkpt>
      <trkpt lat="43.31775" lon="-1.63102">
        <ele>551</ele>
        <time>2017-10-07T16:11:58Z</time>
      </trkpt>
      <trkpt lat="43.31777" lon="-1.63092">
        <ele>551</ele>
        <time>2017-10-07T16:11:58Z</time>
      </trkpt>
      <trkpt lat="43.31777" lon="-1.63083">
        <ele>551</ele>
        <time>2017-10-07T16:12:14Z</time>
      </trkpt>
      <trkpt lat="43.31778" lon="-1.63077">
        <ele>551</ele>
        <time>2017-10-07T16:12:14Z</time>
      </trkpt>
      <trkpt lat="43.31777" lon="-1.63071">
        <ele>551</ele>
        <time>2017-10-07T16:12:14Z</time>
      </trkpt>
      <trkpt lat="43.31779" lon="-1.63064">
        <ele>551</ele>
        <time>2017-10-07T16:12:14Z</time>
      </trkpt>
      <trkpt lat="43.31778" lon="-1.63058">
        <ele>551</ele>
        <time>2017-10-07T16:12:30Z</time>
      </trkpt>
      <trkpt lat="43.31781" lon="-1.6305">
        <ele>551</ele>
        <time>2017-10-07T16:12:30Z</time>
      </trkpt>
      <trkpt lat="43.31782" lon="-1.63046">
        <ele>551</ele>
        <time>2017-10-07T16:12:30Z</time>
      </trkpt>
      <trkpt lat="43.31781" lon="-1.63041">
        <ele>539</ele>
        <time>2017-10-07T16:12:30Z</time>
      </trkpt>
      <trkpt lat="43.31781" lon="-1.63039">
        <ele>539</ele>
        <time>2017-10-07T16:12:46Z</time>
      </trkpt>
      <trkpt lat="43.31781" lon="-1.63036">
        <ele>539</ele>
        <time>2017-10-07T16:12:46Z</time>
      </trkpt>
      <trkpt lat="43.31782" lon="-1.63028">
        <ele>539</ele>
        <time>2017-10-07T16:12:46Z</time>
      </trkpt>
      <trkpt lat="43.31782" lon="-1.63024">
        <ele>539</ele>
        <time>2017-10-07T16:12:46Z</time>
      </trkpt>
      <trkpt lat="43.31785" lon="-1.63018">
        <ele>539</ele>
        <time>2017-10-07T16:13:06Z</time>
      </trkpt>
      <trkpt lat="43.31787" lon="-1.63013">
        <ele>539</ele>
        <time>2017-10-07T16:13:06Z</time>
      </trkpt>
      <trkpt lat="43.31788" lon="-1.63012">
        <ele>539</ele>
        <time>2017-10-07T16:13:06Z</time>
      </trkpt>
      <trkpt lat="43.31789" lon="-1.63007">
        <ele>539</ele>
        <time>2017-10-07T16:13:07Z</time>
      </trkpt>
      <trkpt lat="43.3179" lon="-1.63003">
        <ele>539</ele>
        <time>2017-10-07T16:13:07Z</time>
      </trkpt>
      <trkpt lat="43.3179" lon="-1.62999">
        <ele>539</ele>
        <time>2017-10-07T16:13:22Z</time>
      </trkpt>
      <trkpt lat="43.31792" lon="-1.62996">
        <ele>520</ele>
        <time>2017-10-07T16:13:22Z</time>
      </trkpt>
      <trkpt lat="43.31793" lon="-1.62992">
        <ele>520</ele>
        <time>2017-10-07T16:13:22Z</time>
      </trkpt>
      <trkpt lat="43.31795" lon="-1.62988">
        <ele>520</ele>
        <time>2017-10-07T16:13:22Z</time>
      </trkpt>
      <trkpt lat="43.31799" lon="-1.62987">
        <ele>520</ele>
        <time>2017-10-07T16:13:46Z</time>
      </trkpt>
      <trkpt lat="43.318" lon="-1.62986">
        <ele>520</ele>
        <time>2017-10-07T16:13:46Z</time>
      </trkpt>
      <trkpt lat="43.318" lon="-1.62982">
        <ele>520</ele>
        <time>2017-10-07T16:13:46Z</time>
      </trkpt>
      <trkpt lat="43.31801" lon="-1.6298">
        <ele>520</ele>
        <time>2017-10-07T16:13:47Z</time>
      </trkpt>
      <trkpt lat="43.31803" lon="-1.62977">
        <ele>520</ele>
        <time>2017-10-07T16:13:47Z</time>
      </trkpt>
      <trkpt lat="43.31806" lon="-1.62975">
        <ele>520</ele>
        <time>2017-10-07T16:14:10Z</time>
      </trkpt>
      <trkpt lat="43.31806" lon="-1.62972">
        <ele>520</ele>
        <time>2017-10-07T16:14:10Z</time>
      </trkpt>
      <trkpt lat="43.31807" lon="-1.6297">
        <ele>520</ele>
        <time>2017-10-07T16:14:10Z</time>
      </trkpt>
      <trkpt lat="43.31808" lon="-1.62966">
        <ele>520</ele>
        <time>2017-10-07T16:14:10Z</time>
      </trkpt>
      <trkpt lat="43.31809" lon="-1.62961">
        <ele>520</ele>
        <time>2017-10-07T16:14:11Z</time>
      </trkpt>
      <trkpt lat="43.31813" lon="-1.62956">
        <ele>503</ele>
        <time>2017-10-07T16:14:34Z</time>
      </trkpt>
      <trkpt lat="43.31814" lon="-1.62955">
        <ele>503</ele>
        <time>2017-10-07T16:14:34Z</time>
      </trkpt>
      <trkpt lat="43.31817" lon="-1.62951">
        <ele>503</ele>
        <time>2017-10-07T16:14:34Z</time>
      </trkpt>
      <trkpt lat="43.31817" lon="-1.6295">
        <ele>503</ele>
        <time>2017-10-07T16:14:34Z</time>
      </trkpt>
      <trkpt lat="43.3182" lon="-1.6295">
        <ele>503</ele>
        <time>2017-10-07T16:14:35Z</time>
      </trkpt>
      <trkpt lat="43.31822" lon="-1.62959">
        <ele>520</ele>
        <time>2017-10-07T16:14:54Z</time>
      </trkpt>
      <trkpt lat="43.31823" lon="-1.62958">
        <ele>503</ele>
        <time>2017-10-07T16:14:54Z</time>
      </trkpt>
      <trkpt lat="43.31824" lon="-1.62956">
        <ele>503</ele>
        <time>2017-10-07T16:14:54Z</time>
      </trkpt>
      <trkpt lat="43.31825" lon="-1.62951">
        <ele>503</ele>
        <time>2017-10-07T16:14:55Z</time>
      </trkpt>
      <trkpt lat="43.31827" lon="-1.62947">
        <ele>503</ele>
        <time>2017-10-07T16:14:55Z</time>
      </trkpt>
      <trkpt lat="43.31836" lon="-1.62946">
        <ele>503</ele>
        <time>2017-10-07T16:15:34Z</time>
      </trkpt>
      <trkpt lat="43.31838" lon="-1.62944">
        <ele>503</ele>
        <time>2017-10-07T16:15:34Z</time>
      </trkpt>
      <trkpt lat="43.31841" lon="-1.62939">
        <ele>503</ele>
        <time>2017-10-07T16:15:34Z</time>
      </trkpt>
      <trkpt lat="43.31843" lon="-1.62937">
        <ele>503</ele>
        <time>2017-10-07T16:15:35Z</time>
      </trkpt>
      <trkpt lat="43.31846" lon="-1.62934">
        <ele>503</ele>
        <time>2017-10-07T16:15:35Z</time>
      </trkpt>
      <trkpt lat="43.31847" lon="-1.62931">
        <ele>503</ele>
        <time>2017-10-07T16:15:54Z</time>
      </trkpt>
      <trkpt lat="43.3185" lon="-1.62928">
        <ele>503</ele>
        <time>2017-10-07T16:15:54Z</time>
      </trkpt>
      <trkpt lat="43.31851" lon="-1.62927">
        <ele>503</ele>
        <time>2017-10-07T16:15:54Z</time>
      </trkpt>
      <trkpt lat="43.31854" lon="-1.62924">
        <ele>503</ele>
        <time>2017-10-07T16:15:54Z</time>
      </trkpt>
      <trkpt lat="43.31857" lon="-1.6292">
        <ele>503</ele>
        <time>2017-10-07T16:15:55Z</time>
      </trkpt>
      <trkpt lat="43.31858" lon="-1.62918">
        <ele>503</ele>
        <time>2017-10-07T16:16:10Z</time>
      </trkpt>
      <trkpt lat="43.3186" lon="-1.62915">
        <ele>503</ele>
        <time>2017-10-07T16:16:10Z</time>
      </trkpt>
      <trkpt lat="43.31861" lon="-1.62911">
        <ele>503</ele>
        <time>2017-10-07T16:16:10Z</time>
      </trkpt>
      <trkpt lat="43.31863" lon="-1.62908">
        <ele>503</ele>
        <time>2017-10-07T16:16:10Z</time>
      </trkpt>
      <trkpt lat="43.31866" lon="-1.62906">
        <ele>503</ele>
        <time>2017-10-07T16:16:30Z</time>
      </trkpt>
      <trkpt lat="43.31868" lon="-1.62905">
        <ele>503</ele>
        <time>2017-10-07T16:16:30Z</time>
      </trkpt>
      <trkpt lat="43.31871" lon="-1.62901">
        <ele>503</ele>
        <time>2017-10-07T16:16:31Z</time>
      </trkpt>
      <trkpt lat="43.31872" lon="-1.62898">
        <ele>503</ele>
        <time>2017-10-07T16:16:31Z</time>
      </trkpt>
      <trkpt lat="43.31874" lon="-1.62894">
        <ele>503</ele>
        <time>2017-10-07T16:16:31Z</time>
      </trkpt>
      <trkpt lat="43.31881" lon="-1.62884">
        <ele>476</ele>
        <time>2017-10-07T16:17:10Z</time>
      </trkpt>
      <trkpt lat="43.31881" lon="-1.62881">
        <ele>476</ele>
        <time>2017-10-07T16:17:11Z</time>
      </trkpt>
      <trkpt lat="43.31884" lon="-1.62879">
        <ele>476</ele>
        <time>2017-10-07T16:17:11Z</time>
      </trkpt>
      <trkpt lat="43.31886" lon="-1.62879">
        <ele>476</ele>
        <time>2017-10-07T16:17:11Z</time>
      </trkpt>
      <trkpt lat="43.31888" lon="-1.62878">
        <ele>476</ele>
        <time>2017-10-07T16:17:11Z</time>
      </trkpt>
      <trkpt lat="43.31892" lon="-1.62876">
        <ele>476</ele>
        <time>2017-10-07T16:17:34Z</time>
      </trkpt>
      <trkpt lat="43.31895" lon="-1.62877">
        <ele>476</ele>
        <time>2017-10-07T16:17:34Z</time>
      </trkpt>
      <trkpt lat="43.31896" lon="-1.62876">
        <ele>476</ele>
        <time>2017-10-07T16:17:34Z</time>
      </trkpt>
      <trkpt lat="43.31898" lon="-1.62874">
        <ele>475</ele>
        <time>2017-10-07T16:17:35Z</time>
      </trkpt>
      <trkpt lat="43.319" lon="-1.62871">
        <ele>475</ele>
        <time>2017-10-07T16:17:35Z</time>
      </trkpt>
      <trkpt lat="43.31904" lon="-1.62864">
        <ele>475</ele>
        <time>2017-10-07T16:18:02Z</time>
      </trkpt>
      <trkpt lat="43.31905" lon="-1.62861">
        <ele>475</ele>
        <time>2017-10-07T16:18:02Z</time>
      </trkpt>
      <trkpt lat="43.31906" lon="-1.62859">
        <ele>475</ele>
        <time>2017-10-07T16:18:02Z</time>
      </trkpt>
      <trkpt lat="43.31907" lon="-1.62858">
        <ele>475</ele>
        <time>2017-10-07T16:18:03Z</time>
      </trkpt>
      <trkpt lat="43.31907" lon="-1.62858">
        <ele>475</ele>
        <time>2017-10-07T16:18:03Z</time>
      </trkpt>
      <trkpt lat="43.31912" lon="-1.62853">
        <ele>475</ele>
        <time>2017-10-07T16:18:42Z</time>
      </trkpt>
      <trkpt lat="43.31914" lon="-1.62855">
        <ele>475</ele>
        <time>2017-10-07T16:18:42Z</time>
      </trkpt>
      <trkpt lat="43.31915" lon="-1.62855">
        <ele>475</ele>
        <time>2017-10-07T16:18:42Z</time>
      </trkpt>
      <trkpt lat="43.31916" lon="-1.62854">
        <ele>475</ele>
        <time>2017-10-07T16:18:42Z</time>
      </trkpt>
      <trkpt lat="43.31917" lon="-1.62854">
        <ele>475</ele>
        <time>2017-10-07T16:18:43Z</time>
      </trkpt>
      <trkpt lat="43.31919" lon="-1.6284">
        <ele>475</ele>
        <time>2017-10-07T16:19:30Z</time>
      </trkpt>
      <trkpt lat="43.31919" lon="-1.62839">
        <ele>475</ele>
        <time>2017-10-07T16:19:30Z</time>
      </trkpt>
      <trkpt lat="43.31922" lon="-1.62836">
        <ele>475</ele>
        <time>2017-10-07T16:19:30Z</time>
      </trkpt>
      <trkpt lat="43.31927" lon="-1.62833">
        <ele>475</ele>
        <time>2017-10-07T16:19:31Z</time>
      </trkpt>
      <trkpt lat="43.31931" lon="-1.62828">
        <ele>475</ele>
        <time>2017-10-07T16:19:31Z</time>
      </trkpt>
      <trkpt lat="43.31936" lon="-1.62821">
        <ele>475</ele>
        <time>2017-10-07T16:21:02Z</time>
      </trkpt>
      <trkpt lat="43.31936" lon="-1.6282">
        <ele>475</ele>
        <time>2017-10-07T16:21:02Z</time>
      </trkpt>
      <trkpt lat="43.31937" lon="-1.6282">
        <ele>475</ele>
        <time>2017-10-07T16:21:02Z</time>
      </trkpt>
      <trkpt lat="43.31939" lon="-1.62821">
        <ele>475</ele>
        <time>2017-10-07T16:21:02Z</time>
      </trkpt>
      <trkpt lat="43.31943" lon="-1.62819">
        <ele>475</ele>
        <time>2017-10-07T16:21:03Z</time>
      </trkpt>
      <trkpt lat="43.31944" lon="-1.62819">
        <ele>475</ele>
        <time>2017-10-07T16:21:18Z</time>
      </trkpt>
      <trkpt lat="43.31948" lon="-1.62818">
        <ele>475</ele>
        <time>2017-10-07T16:21:18Z</time>
      </trkpt>
      <trkpt lat="43.31951" lon="-1.62815">
        <ele>475</ele>
        <time>2017-10-07T16:21:18Z</time>
      </trkpt>
      <trkpt lat="43.31954" lon="-1.62813">
        <ele>475</ele>
        <time>2017-10-07T16:21:18Z</time>
      </trkpt>
      <trkpt lat="43.3196" lon="-1.62813">
        <ele>453</ele>
        <time>2017-10-07T16:21:42Z</time>
      </trkpt>
      <trkpt lat="43.31961" lon="-1.62816">
        <ele>453</ele>
        <time>2017-10-07T16:21:42Z</time>
      </trkpt>
      <trkpt lat="43.31962" lon="-1.62817">
        <ele>453</ele>
        <time>2017-10-07T16:21:42Z</time>
      </trkpt>
      <trkpt lat="43.31965" lon="-1.62819">
        <ele>453</ele>
        <time>2017-10-07T16:21:42Z</time>
      </trkpt>
      <trkpt lat="43.31969" lon="-1.6282">
        <ele>453</ele>
        <time>2017-10-07T16:21:43Z</time>
      </trkpt>
      <trkpt lat="43.31972" lon="-1.62819">
        <ele>453</ele>
        <time>2017-10-07T16:21:58Z</time>
      </trkpt>
      <trkpt lat="43.31974" lon="-1.62818">
        <ele>453</ele>
        <time>2017-10-07T16:21:58Z</time>
      </trkpt>
      <trkpt lat="43.31977" lon="-1.62818">
        <ele>453</ele>
        <time>2017-10-07T16:21:58Z</time>
      </trkpt>
      <trkpt lat="43.31982" lon="-1.62818">
        <ele>453</ele>
        <time>2017-10-07T16:21:58Z</time>
      </trkpt>
      <trkpt lat="43.31987" lon="-1.62819">
        <ele>453</ele>
        <time>2017-10-07T16:22:18Z</time>
      </trkpt>
      <trkpt lat="43.3199" lon="-1.62818">
        <ele>453</ele>
        <time>2017-10-07T16:22:18Z</time>
      </trkpt>
      <trkpt lat="43.31993" lon="-1.62818">
        <ele>453</ele>
        <time>2017-10-07T16:22:18Z</time>
      </trkpt>
      <trkpt lat="43.31995" lon="-1.6282">
        <ele>453</ele>
        <time>2017-10-07T16:22:18Z</time>
      </trkpt>
      <trkpt lat="43.31997" lon="-1.62818">
        <ele>453</ele>
        <time>2017-10-07T16:22:19Z</time>
      </trkpt>
      <trkpt lat="43.31999" lon="-1.62817">
        <ele>453</ele>
        <time>2017-10-07T16:22:34Z</time>
      </trkpt>
      <trkpt lat="43.32003" lon="-1.62816">
        <ele>453</ele>
        <time>2017-10-07T16:22:34Z</time>
      </trkpt>
      <trkpt lat="43.32007" lon="-1.62816">
        <ele>453</ele>
        <time>2017-10-07T16:22:34Z</time>
      </trkpt>
      <trkpt lat="43.32013" lon="-1.62817">
        <ele>453</ele>
        <time>2017-10-07T16:22:34Z</time>
      </trkpt>
      <trkpt lat="43.32016" lon="-1.62816">
        <ele>453</ele>
        <time>2017-10-07T16:22:50Z</time>
      </trkpt>
      <trkpt lat="43.32019" lon="-1.62814">
        <ele>453</ele>
        <time>2017-10-07T16:22:50Z</time>
      </trkpt>
      <trkpt lat="43.32023" lon="-1.62812">
        <ele>453</ele>
        <time>2017-10-07T16:22:50Z</time>
      </trkpt>
      <trkpt lat="43.32027" lon="-1.62812">
        <ele>453</ele>
        <time>2017-10-07T16:22:51Z</time>
      </trkpt>
      <trkpt lat="43.32032" lon="-1.62814">
        <ele>453</ele>
        <time>2017-10-07T16:23:06Z</time>
      </trkpt>
      <trkpt lat="43.32036" lon="-1.62816">
        <ele>453</ele>
        <time>2017-10-07T16:23:06Z</time>
      </trkpt>
      <trkpt lat="43.3204" lon="-1.62815">
        <ele>453</ele>
        <time>2017-10-07T16:23:06Z</time>
      </trkpt>
      <trkpt lat="43.32044" lon="-1.62817">
        <ele>435</ele>
        <time>2017-10-07T16:23:06Z</time>
      </trkpt>
      <trkpt lat="43.32047" lon="-1.6282">
        <ele>435</ele>
        <time>2017-10-07T16:23:22Z</time>
      </trkpt>
      <trkpt lat="43.32051" lon="-1.62821">
        <ele>435</ele>
        <time>2017-10-07T16:23:22Z</time>
      </trkpt>
      <trkpt lat="43.32052" lon="-1.62825">
        <ele>435</ele>
        <time>2017-10-07T16:23:22Z</time>
      </trkpt>
      <trkpt lat="43.32055" lon="-1.62827">
        <ele>435</ele>
        <time>2017-10-07T16:23:22Z</time>
      </trkpt>
      <trkpt lat="43.32057" lon="-1.62829">
        <ele>435</ele>
        <time>2017-10-07T16:23:38Z</time>
      </trkpt>
      <trkpt lat="43.32059" lon="-1.6283">
        <ele>435</ele>
        <time>2017-10-07T16:23:38Z</time>
      </trkpt>
      <trkpt lat="43.32064" lon="-1.62833">
        <ele>435</ele>
        <time>2017-10-07T16:23:38Z</time>
      </trkpt>
      <trkpt lat="43.32067" lon="-1.62839">
        <ele>435</ele>
        <time>2017-10-07T16:23:38Z</time>
      </trkpt>
      <trkpt lat="43.32069" lon="-1.62842">
        <ele>435</ele>
        <time>2017-10-07T16:23:58Z</time>
      </trkpt>
      <trkpt lat="43.3207" lon="-1.62843">
        <ele>435</ele>
        <time>2017-10-07T16:23:58Z</time>
      </trkpt>
      <trkpt lat="43.32074" lon="-1.62843">
        <ele>435</ele>
        <time>2017-10-07T16:23:58Z</time>
      </trkpt>
      <trkpt lat="43.32078" lon="-1.62844">
        <ele>435</ele>
        <time>2017-10-07T16:23:58Z</time>
      </trkpt>
      <trkpt lat="43.32083" lon="-1.62845">
        <ele>435</ele>
        <time>2017-10-07T16:23:59Z</time>
      </trkpt>
      <trkpt lat="43.32087" lon="-1.62846">
        <ele>435</ele>
        <time>2017-10-07T16:24:14Z</time>
      </trkpt>
      <trkpt lat="43.32091" lon="-1.62846">
        <ele>435</ele>
        <time>2017-10-07T16:24:14Z</time>
      </trkpt>
      <trkpt lat="43.32095" lon="-1.62844">
        <ele>435</ele>
        <time>2017-10-07T16:24:14Z</time>
      </trkpt>
      <trkpt lat="43.32098" lon="-1.62844">
        <ele>435</ele>
        <time>2017-10-07T16:24:15Z</time>
      </trkpt>
      <trkpt lat="43.32102" lon="-1.62843">
        <ele>435</ele>
        <time>2017-10-07T16:24:30Z</time>
      </trkpt>
      <trkpt lat="43.32107" lon="-1.62841">
        <ele>435</ele>
        <time>2017-10-07T16:24:30Z</time>
      </trkpt>
      <trkpt lat="43.32111" lon="-1.62841">
        <ele>435</ele>
        <time>2017-10-07T16:24:30Z</time>
      </trkpt>
      <trkpt lat="43.32114" lon="-1.62842">
        <ele>435</ele>
        <time>2017-10-07T16:24:31Z</time>
      </trkpt>
      <trkpt lat="43.32116" lon="-1.62844">
        <ele>435</ele>
        <time>2017-10-07T16:24:46Z</time>
      </trkpt>
      <trkpt lat="43.32121" lon="-1.62845">
        <ele>435</ele>
        <time>2017-10-07T16:24:47Z</time>
      </trkpt>
      <trkpt lat="43.32126" lon="-1.62849">
        <ele>413</ele>
        <time>2017-10-07T16:24:47Z</time>
      </trkpt>
      <trkpt lat="43.32129" lon="-1.6285">
        <ele>413</ele>
        <time>2017-10-07T16:24:47Z</time>
      </trkpt>
      <trkpt lat="43.32135" lon="-1.62852">
        <ele>413</ele>
        <time>2017-10-07T16:25:02Z</time>
      </trkpt>
      <trkpt lat="43.32139" lon="-1.62853">
        <ele>413</ele>
        <time>2017-10-07T16:25:02Z</time>
      </trkpt>
      <trkpt lat="43.32144" lon="-1.62855">
        <ele>413</ele>
        <time>2017-10-07T16:25:02Z</time>
      </trkpt>
      <trkpt lat="43.32148" lon="-1.62856">
        <ele>413</ele>
        <time>2017-10-07T16:25:03Z</time>
      </trkpt>
      <trkpt lat="43.32151" lon="-1.62854">
        <ele>413</ele>
        <time>2017-10-07T16:25:18Z</time>
      </trkpt>
      <trkpt lat="43.32154" lon="-1.6285">
        <ele>413</ele>
        <time>2017-10-07T16:25:18Z</time>
      </trkpt>
      <trkpt lat="43.32156" lon="-1.62848">
        <ele>413</ele>
        <time>2017-10-07T16:25:18Z</time>
      </trkpt>
      <trkpt lat="43.32159" lon="-1.62846">
        <ele>413</ele>
        <time>2017-10-07T16:25:18Z</time>
      </trkpt>
      <trkpt lat="43.32162" lon="-1.62843">
        <ele>413</ele>
        <time>2017-10-07T16:25:38Z</time>
      </trkpt>
      <trkpt lat="43.32165" lon="-1.62842">
        <ele>413</ele>
        <time>2017-10-07T16:25:38Z</time>
      </trkpt>
      <trkpt lat="43.32169" lon="-1.62842">
        <ele>413</ele>
        <time>2017-10-07T16:25:38Z</time>
      </trkpt>
      <trkpt lat="43.32171" lon="-1.62841">
        <ele>413</ele>
        <time>2017-10-07T16:25:39Z</time>
      </trkpt>
      <trkpt lat="43.32173" lon="-1.62841">
        <ele>413</ele>
        <time>2017-10-07T16:25:39Z</time>
      </trkpt>
      <trkpt lat="43.3218" lon="-1.62834">
        <ele>413</ele>
        <time>2017-10-07T16:26:06Z</time>
      </trkpt>
      <trkpt lat="43.3218" lon="-1.62834">
        <ele>413</ele>
        <time>2017-10-07T16:26:06Z</time>
      </trkpt>
      <trkpt lat="43.32181" lon="-1.62835">
        <ele>413</ele>
        <time>2017-10-07T16:26:07Z</time>
      </trkpt>
      <trkpt lat="43.32183" lon="-1.62835">
        <ele>413</ele>
        <time>2017-10-07T16:26:07Z</time>
      </trkpt>
      <trkpt lat="43.32186" lon="-1.62838">
        <ele>413</ele>
        <time>2017-10-07T16:26:07Z</time>
      </trkpt>
      <trkpt lat="43.32189" lon="-1.62842">
        <ele>413</ele>
        <time>2017-10-07T16:26:22Z</time>
      </trkpt>
      <trkpt lat="43.3219" lon="-1.62844">
        <ele>413</ele>
        <time>2017-10-07T16:26:22Z</time>
      </trkpt>
      <trkpt lat="43.32192" lon="-1.62851">
        <ele>413</ele>
        <time>2017-10-07T16:26:22Z</time>
      </trkpt>
      <trkpt lat="43.32191" lon="-1.62857">
        <ele>413</ele>
        <time>2017-10-07T16:26:23Z</time>
      </trkpt>
      <trkpt lat="43.32191" lon="-1.6286">
        <ele>413</ele>
        <time>2017-10-07T16:26:42Z</time>
      </trkpt>
      <trkpt lat="43.32193" lon="-1.62862">
        <ele>413</ele>
        <time>2017-10-07T16:26:42Z</time>
      </trkpt>
      <trkpt lat="43.32194" lon="-1.62864">
        <ele>413</ele>
        <time>2017-10-07T16:26:42Z</time>
      </trkpt>
      <trkpt lat="43.32197" lon="-1.62864">
        <ele>413</ele>
        <time>2017-10-07T16:26:42Z</time>
      </trkpt>
      <trkpt lat="43.322" lon="-1.62866">
        <ele>413</ele>
        <time>2017-10-07T16:26:43Z</time>
      </trkpt>
      <trkpt lat="43.32201" lon="-1.62867">
        <ele>413</ele>
        <time>2017-10-07T16:26:58Z</time>
      </trkpt>
      <trkpt lat="43.32206" lon="-1.62864">
        <ele>413</ele>
        <time>2017-10-07T16:26:58Z</time>
      </trkpt>
      <trkpt lat="43.3221" lon="-1.62861">
        <ele>405</ele>
        <time>2017-10-07T16:26:58Z</time>
      </trkpt>
      <trkpt lat="43.32216" lon="-1.62861">
        <ele>405</ele>
        <time>2017-10-07T16:26:59Z</time>
      </trkpt>
      <trkpt lat="43.32219" lon="-1.62858">
        <ele>405</ele>
        <time>2017-10-07T16:27:14Z</time>
      </trkpt>
      <trkpt lat="43.32222" lon="-1.62857">
        <ele>405</ele>
        <time>2017-10-07T16:27:14Z</time>
      </trkpt>
      <trkpt lat="43.32227" lon="-1.62856">
        <ele>405</ele>
        <time>2017-10-07T16:27:14Z</time>
      </trkpt>
      <trkpt lat="43.32231" lon="-1.62853">
        <ele>405</ele>
        <time>2017-10-07T16:27:15Z</time>
      </trkpt>
      <trkpt lat="43.32234" lon="-1.62849">
        <ele>405</ele>
        <time>2017-10-07T16:27:30Z</time>
      </trkpt>
      <trkpt lat="43.32237" lon="-1.62847">
        <ele>405</ele>
        <time>2017-10-07T16:27:30Z</time>
      </trkpt>
      <trkpt lat="43.32242" lon="-1.62842">
        <ele>405</ele>
        <time>2017-10-07T16:27:30Z</time>
      </trkpt>
      <trkpt lat="43.32246" lon="-1.62842">
        <ele>405</ele>
        <time>2017-10-07T16:27:30Z</time>
      </trkpt>
      <trkpt lat="43.32249" lon="-1.6284">
        <ele>405</ele>
        <time>2017-10-07T16:27:46Z</time>
      </trkpt>
      <trkpt lat="43.32257" lon="-1.62838">
        <ele>405</ele>
        <time>2017-10-07T16:27:46Z</time>
      </trkpt>
      <trkpt lat="43.3226" lon="-1.62835">
        <ele>405</ele>
        <time>2017-10-07T16:27:46Z</time>
      </trkpt>
      <trkpt lat="43.32263" lon="-1.62833">
        <ele>405</ele>
        <time>2017-10-07T16:27:47Z</time>
      </trkpt>
      <trkpt lat="43.32269" lon="-1.62831">
        <ele>405</ele>
        <time>2017-10-07T16:28:14Z</time>
      </trkpt>
      <trkpt lat="43.32274" lon="-1.62825">
        <ele>405</ele>
        <time>2017-10-07T16:28:14Z</time>
      </trkpt>
      <trkpt lat="43.32278" lon="-1.62821">
        <ele>405</ele>
        <time>2017-10-07T16:28:14Z</time>
      </trkpt>
      <trkpt lat="43.32281" lon="-1.6282">
        <ele>405</ele>
        <time>2017-10-07T16:28:14Z</time>
      </trkpt>
      <trkpt lat="43.32287" lon="-1.62817">
        <ele>405</ele>
        <time>2017-10-07T16:28:15Z</time>
      </trkpt>
      <trkpt lat="43.3229" lon="-1.62807">
        <ele>405</ele>
        <time>2017-10-07T16:28:50Z</time>
      </trkpt>
      <trkpt lat="43.32294" lon="-1.62807">
        <ele>407</ele>
        <time>2017-10-07T16:28:50Z</time>
      </trkpt>
      <trkpt lat="43.32298" lon="-1.62805">
        <ele>407</ele>
        <time>2017-10-07T16:28:50Z</time>
      </trkpt>
      <trkpt lat="43.32302" lon="-1.62805">
        <ele>407</ele>
        <time>2017-10-07T16:28:51Z</time>
      </trkpt>
      <trkpt lat="43.32305" lon="-1.62806">
        <ele>407</ele>
        <time>2017-10-07T16:28:51Z</time>
      </trkpt>
      <trkpt lat="43.32316" lon="-1.62805">
        <ele>407</ele>
        <time>2017-10-07T16:29:30Z</time>
      </trkpt>
      <trkpt lat="43.32319" lon="-1.62802">
        <ele>407</ele>
        <time>2017-10-07T16:29:30Z</time>
      </trkpt>
      <trkpt lat="43.32322" lon="-1.628">
        <ele>407</ele>
        <time>2017-10-07T16:29:30Z</time>
      </trkpt>
      <trkpt lat="43.32325" lon="-1.62802">
        <ele>407</ele>
        <time>2017-10-07T16:29:31Z</time>
      </trkpt>
      <trkpt lat="43.32327" lon="-1.62803">
        <ele>407</ele>
        <time>2017-10-07T16:29:31Z</time>
      </trkpt>
      <trkpt lat="43.32329" lon="-1.62801">
        <ele>407</ele>
        <time>2017-10-07T16:29:54Z</time>
      </trkpt>
      <trkpt lat="43.3233" lon="-1.62801">
        <ele>407</ele>
        <time>2017-10-07T16:29:54Z</time>
      </trkpt>
      <trkpt lat="43.32332" lon="-1.62801">
        <ele>407</ele>
        <time>2017-10-07T16:29:54Z</time>
      </trkpt>
      <trkpt lat="43.32333" lon="-1.628">
        <ele>407</ele>
        <time>2017-10-07T16:29:54Z</time>
      </trkpt>
      <trkpt lat="43.32337" lon="-1.62801">
        <ele>407</ele>
        <time>2017-10-07T16:29:55Z</time>
      </trkpt>
      <trkpt lat="43.32337" lon="-1.62802">
        <ele>407</ele>
        <time>2017-10-07T16:30:14Z</time>
      </trkpt>
      <trkpt lat="43.32339" lon="-1.62803">
        <ele>407</ele>
        <time>2017-10-07T16:30:14Z</time>
      </trkpt>
      <trkpt lat="43.32342" lon="-1.62804">
        <ele>407</ele>
        <time>2017-10-07T16:30:14Z</time>
      </trkpt>
      <trkpt lat="43.32345" lon="-1.62806">
        <ele>407</ele>
        <time>2017-10-07T16:30:14Z</time>
      </trkpt>
      <trkpt lat="43.32349" lon="-1.6281">
        <ele>407</ele>
        <time>2017-10-07T16:30:15Z</time>
      </trkpt>
      <trkpt lat="43.32352" lon="-1.62812">
        <ele>407</ele>
        <time>2017-10-07T16:30:30Z</time>
      </trkpt>
      <trkpt lat="43.32354" lon="-1.62814">
        <ele>407</ele>
        <time>2017-10-07T16:30:30Z</time>
      </trkpt>
      <trkpt lat="43.32357" lon="-1.62816">
        <ele>407</ele>
        <time>2017-10-07T16:30:30Z</time>
      </trkpt>
      <trkpt lat="43.32361" lon="-1.62816">
        <ele>407</ele>
        <time>2017-10-07T16:30:30Z</time>
      </trkpt>
      <trkpt lat="43.32363" lon="-1.62818">
        <ele>407</ele>
        <time>2017-10-07T16:30:46Z</time>
      </trkpt>
      <trkpt lat="43.32367" lon="-1.6282">
        <ele>407</ele>
        <time>2017-10-07T16:30:46Z</time>
      </trkpt>
      <trkpt lat="43.3237" lon="-1.6282">
        <ele>407</ele>
        <time>2017-10-07T16:30:46Z</time>
      </trkpt>
      <trkpt lat="43.32372" lon="-1.6282">
        <ele>407</ele>
        <time>2017-10-07T16:30:46Z</time>
      </trkpt>
      <trkpt lat="43.32375" lon="-1.62821">
        <ele>394</ele>
        <time>2017-10-07T16:31:02Z</time>
      </trkpt>
      <trkpt lat="43.32378" lon="-1.6282">
        <ele>394</ele>
        <time>2017-10-07T16:31:02Z</time>
      </trkpt>
      <trkpt lat="43.32382" lon="-1.62818">
        <ele>394</ele>
        <time>2017-10-07T16:31:03Z</time>
      </trkpt>
      <trkpt lat="43.32385" lon="-1.62816">
        <ele>394</ele>
        <time>2017-10-07T16:31:03Z</time>
      </trkpt>
      <trkpt lat="43.32391" lon="-1.62816">
        <ele>394</ele>
        <time>2017-10-07T16:31:26Z</time>
      </trkpt>
      <trkpt lat="43.32393" lon="-1.62818">
        <ele>394</ele>
        <time>2017-10-07T16:31:27Z</time>
      </trkpt>
      <trkpt lat="43.32394" lon="-1.62818">
        <ele>394</ele>
        <time>2017-10-07T16:31:27Z</time>
      </trkpt>
      <trkpt lat="43.32397" lon="-1.62819">
        <ele>394</ele>
        <time>2017-10-07T16:31:27Z</time>
      </trkpt>
      <trkpt lat="43.324" lon="-1.62819">
        <ele>394</ele>
        <time>2017-10-07T16:31:27Z</time>
      </trkpt>
      <trkpt lat="43.32403" lon="-1.62819">
        <ele>394</ele>
        <time>2017-10-07T16:31:42Z</time>
      </trkpt>
      <trkpt lat="43.32407" lon="-1.62819">
        <ele>394</ele>
        <time>2017-10-07T16:31:42Z</time>
      </trkpt>
      <trkpt lat="43.32411" lon="-1.62818">
        <ele>394</ele>
        <time>2017-10-07T16:31:43Z</time>
      </trkpt>
      <trkpt lat="43.32413" lon="-1.62817">
        <ele>394</ele>
        <time>2017-10-07T16:31:43Z</time>
      </trkpt>
      <trkpt lat="43.32413" lon="-1.6281">
        <ele>394</ele>
        <time>2017-10-07T16:32:06Z</time>
      </trkpt>
      <trkpt lat="43.32413" lon="-1.62807">
        <ele>394</ele>
        <time>2017-10-07T16:32:06Z</time>
      </trkpt>
      <trkpt lat="43.32413" lon="-1.62806">
        <ele>394</ele>
        <time>2017-10-07T16:32:06Z</time>
      </trkpt>
      <trkpt lat="43.32415" lon="-1.62803">
        <ele>394</ele>
        <time>2017-10-07T16:32:07Z</time>
      </trkpt>
      <trkpt lat="43.32417" lon="-1.62802">
        <ele>394</ele>
        <time>2017-10-07T16:32:07Z</time>
      </trkpt>
      <trkpt lat="43.32418" lon="-1.628">
        <ele>394</ele>
        <time>2017-10-07T16:32:26Z</time>
      </trkpt>
      <trkpt lat="43.32418" lon="-1.62797">
        <ele>394</ele>
        <time>2017-10-07T16:32:26Z</time>
      </trkpt>
      <trkpt lat="43.32419" lon="-1.62794">
        <ele>394</ele>
        <time>2017-10-07T16:32:26Z</time>
      </trkpt>
      <trkpt lat="43.32418" lon="-1.62788">
        <ele>368</ele>
        <time>2017-10-07T16:32:27Z</time>
      </trkpt>
      <trkpt lat="43.32419" lon="-1.62788">
        <ele>368</ele>
        <time>2017-10-07T16:32:27Z</time>
      </trkpt>
      <trkpt lat="43.3242" lon="-1.62779">
        <ele>368</ele>
        <time>2017-10-07T16:32:50Z</time>
      </trkpt>
      <trkpt lat="43.32421" lon="-1.62776">
        <ele>368</ele>
        <time>2017-10-07T16:32:50Z</time>
      </trkpt>
      <trkpt lat="43.32423" lon="-1.62773">
        <ele>368</ele>
        <time>2017-10-07T16:32:50Z</time>
      </trkpt>
      <trkpt lat="43.32423" lon="-1.62771">
        <ele>368</ele>
        <time>2017-10-07T16:32:51Z</time>
      </trkpt>
      <trkpt lat="43.32423" lon="-1.62767">
        <ele>368</ele>
        <time>2017-10-07T16:32:51Z</time>
      </trkpt>
      <trkpt lat="43.32423" lon="-1.62763">
        <ele>368</ele>
        <time>2017-10-07T16:33:10Z</time>
      </trkpt>
      <trkpt lat="43.32423" lon="-1.62761">
        <ele>368</ele>
        <time>2017-10-07T16:33:10Z</time>
      </trkpt>
      <trkpt lat="43.32424" lon="-1.62759">
        <ele>368</ele>
        <time>2017-10-07T16:33:10Z</time>
      </trkpt>
      <trkpt lat="43.32422" lon="-1.62755">
        <ele>368</ele>
        <time>2017-10-07T16:33:10Z</time>
      </trkpt>
      <trkpt lat="43.32422" lon="-1.62749">
        <ele>368</ele>
        <time>2017-10-07T16:33:11Z</time>
      </trkpt>
      <trkpt lat="43.32424" lon="-1.62746">
        <ele>368</ele>
        <time>2017-10-07T16:33:26Z</time>
      </trkpt>
      <trkpt lat="43.32427" lon="-1.62743">
        <ele>368</ele>
        <time>2017-10-07T16:33:26Z</time>
      </trkpt>
      <trkpt lat="43.32429" lon="-1.62737">
        <ele>368</ele>
        <time>2017-10-07T16:33:26Z</time>
      </trkpt>
      <trkpt lat="43.32432" lon="-1.62732">
        <ele>368</ele>
        <time>2017-10-07T16:33:26Z</time>
      </trkpt>
      <trkpt lat="43.32437" lon="-1.62725">
        <ele>368</ele>
        <time>2017-10-07T16:33:50Z</time>
      </trkpt>
      <trkpt lat="43.32438" lon="-1.62723">
        <ele>368</ele>
        <time>2017-10-07T16:33:50Z</time>
      </trkpt>
      <trkpt lat="43.32439" lon="-1.6272">
        <ele>368</ele>
        <time>2017-10-07T16:33:50Z</time>
      </trkpt>
      <trkpt lat="43.32441" lon="-1.6272">
        <ele>368</ele>
        <time>2017-10-07T16:33:51Z</time>
      </trkpt>
      <trkpt lat="43.32443" lon="-1.62717">
        <ele>368</ele>
        <time>2017-10-07T16:33:51Z</time>
      </trkpt>
      <trkpt lat="43.32445" lon="-1.62715">
        <ele>368</ele>
        <time>2017-10-07T16:34:10Z</time>
      </trkpt>
      <trkpt lat="43.32447" lon="-1.62712">
        <ele>368</ele>
        <time>2017-10-07T16:34:10Z</time>
      </trkpt>
      <trkpt lat="43.32448" lon="-1.6271">
        <ele>368</ele>
        <time>2017-10-07T16:34:10Z</time>
      </trkpt>
      <trkpt lat="43.32451" lon="-1.62709">
        <ele>368</ele>
        <time>2017-10-07T16:34:10Z</time>
      </trkpt>
      <trkpt lat="43.32453" lon="-1.62708">
        <ele>351</ele>
        <time>2017-10-07T16:34:11Z</time>
      </trkpt>
      <trkpt lat="43.32456" lon="-1.627">
        <ele>351</ele>
        <time>2017-10-07T16:34:30Z</time>
      </trkpt>
      <trkpt lat="43.32457" lon="-1.62698">
        <ele>351</ele>
        <time>2017-10-07T16:34:30Z</time>
      </trkpt>
      <trkpt lat="43.32459" lon="-1.62694">
        <ele>358</ele>
        <time>2017-10-07T16:34:30Z</time>
      </trkpt>
      <trkpt lat="43.32462" lon="-1.62693">
        <ele>358</ele>
        <time>2017-10-07T16:34:31Z</time>
      </trkpt>
      <trkpt lat="43.32465" lon="-1.62691">
        <ele>358</ele>
        <time>2017-10-07T16:34:31Z</time>
      </trkpt>
      <trkpt lat="43.32467" lon="-1.62688">
        <ele>358</ele>
        <time>2017-10-07T16:34:46Z</time>
      </trkpt>
      <trkpt lat="43.32472" lon="-1.62685">
        <ele>358</ele>
        <time>2017-10-07T16:34:46Z</time>
      </trkpt>
      <trkpt lat="43.32476" lon="-1.6268">
        <ele>358</ele>
        <time>2017-10-07T16:34:46Z</time>
      </trkpt>
      <trkpt lat="43.32478" lon="-1.62677">
        <ele>358</ele>
        <time>2017-10-07T16:34:47Z</time>
      </trkpt>
      <trkpt lat="43.32483" lon="-1.62671">
        <ele>358</ele>
        <time>2017-10-07T16:35:26Z</time>
      </trkpt>
      <trkpt lat="43.32484" lon="-1.6267">
        <ele>358</ele>
        <time>2017-10-07T16:35:26Z</time>
      </trkpt>
      <trkpt lat="43.32486" lon="-1.62668">
        <ele>358</ele>
        <time>2017-10-07T16:35:26Z</time>
      </trkpt>
      <trkpt lat="43.32487" lon="-1.62667">
        <ele>358</ele>
        <time>2017-10-07T16:35:26Z</time>
      </trkpt>
      <trkpt lat="43.32489" lon="-1.62664">
        <ele>358</ele>
        <time>2017-10-07T16:35:26Z</time>
      </trkpt>
      <trkpt lat="43.32492" lon="-1.62661">
        <ele>358</ele>
        <time>2017-10-07T16:35:54Z</time>
      </trkpt>
      <trkpt lat="43.32494" lon="-1.62661">
        <ele>358</ele>
        <time>2017-10-07T16:35:54Z</time>
      </trkpt>
      <trkpt lat="43.32496" lon="-1.62657">
        <ele>358</ele>
        <time>2017-10-07T16:35:54Z</time>
      </trkpt>
      <trkpt lat="43.32498" lon="-1.62653">
        <ele>358</ele>
        <time>2017-10-07T16:35:54Z</time>
      </trkpt>
      <trkpt lat="43.32503" lon="-1.62651">
        <ele>358</ele>
        <time>2017-10-07T16:35:54Z</time>
      </trkpt>
      <trkpt lat="43.32506" lon="-1.62647">
        <ele>358</ele>
        <time>2017-10-07T16:36:10Z</time>
      </trkpt>
      <trkpt lat="43.3251" lon="-1.62642">
        <ele>358</ele>
        <time>2017-10-07T16:36:10Z</time>
      </trkpt>
      <trkpt lat="43.32513" lon="-1.62639">
        <ele>358</ele>
        <time>2017-10-07T16:36:10Z</time>
      </trkpt>
      <trkpt lat="43.32516" lon="-1.62634">
        <ele>358</ele>
        <time>2017-10-07T16:36:11Z</time>
      </trkpt>
      <trkpt lat="43.3252" lon="-1.62628">
        <ele>358</ele>
        <time>2017-10-07T16:36:26Z</time>
      </trkpt>
      <trkpt lat="43.32522" lon="-1.62623">
        <ele>343</ele>
        <time>2017-10-07T16:36:26Z</time>
      </trkpt>
      <trkpt lat="43.32525" lon="-1.62619">
        <ele>343</ele>
        <time>2017-10-07T16:36:26Z</time>
      </trkpt>
      <trkpt lat="43.32529" lon="-1.62617">
        <ele>343</ele>
        <time>2017-10-07T16:36:26Z</time>
      </trkpt>
      <trkpt lat="43.32533" lon="-1.62612">
        <ele>343</ele>
        <time>2017-10-07T16:36:42Z</time>
      </trkpt>
      <trkpt lat="43.32538" lon="-1.62608">
        <ele>343</ele>
        <time>2017-10-07T16:36:42Z</time>
      </trkpt>
      <trkpt lat="43.32542" lon="-1.62604">
        <ele>343</ele>
        <time>2017-10-07T16:36:43Z</time>
      </trkpt>
      <trkpt lat="43.32546" lon="-1.62601">
        <ele>340</ele>
        <time>2017-10-07T16:36:43Z</time>
      </trkpt>
      <trkpt lat="43.32551" lon="-1.62598">
        <ele>340</ele>
        <time>2017-10-07T16:37:02Z</time>
      </trkpt>
      <trkpt lat="43.32553" lon="-1.62597">
        <ele>340</ele>
        <time>2017-10-07T16:37:02Z</time>
      </trkpt>
      <trkpt lat="43.32556" lon="-1.62595">
        <ele>340</ele>
        <time>2017-10-07T16:37:02Z</time>
      </trkpt>
      <trkpt lat="43.32557" lon="-1.62592">
        <ele>340</ele>
        <time>2017-10-07T16:37:03Z</time>
      </trkpt>
      <trkpt lat="43.32559" lon="-1.62588">
        <ele>340</ele>
        <time>2017-10-07T16:37:03Z</time>
      </trkpt>
      <trkpt lat="43.32561" lon="-1.62585">
        <ele>340</ele>
        <time>2017-10-07T16:37:18Z</time>
      </trkpt>
      <trkpt lat="43.32563" lon="-1.6258">
        <ele>340</ele>
        <time>2017-10-07T16:37:18Z</time>
      </trkpt>
      <trkpt lat="43.32566" lon="-1.62574">
        <ele>340</ele>
        <time>2017-10-07T16:37:18Z</time>
      </trkpt>
      <trkpt lat="43.32569" lon="-1.62571">
        <ele>340</ele>
        <time>2017-10-07T16:37:19Z</time>
      </trkpt>
      <trkpt lat="43.32573" lon="-1.62566">
        <ele>340</ele>
        <time>2017-10-07T16:37:34Z</time>
      </trkpt>
      <trkpt lat="43.32577" lon="-1.62564">
        <ele>340</ele>
        <time>2017-10-07T16:37:34Z</time>
      </trkpt>
      <trkpt lat="43.32581" lon="-1.62561">
        <ele>340</ele>
        <time>2017-10-07T16:37:34Z</time>
      </trkpt>
      <trkpt lat="43.32585" lon="-1.62559">
        <ele>340</ele>
        <time>2017-10-07T16:37:35Z</time>
      </trkpt>
      <trkpt lat="43.32591" lon="-1.62557">
        <ele>340</ele>
        <time>2017-10-07T16:37:50Z</time>
      </trkpt>
      <trkpt lat="43.32595" lon="-1.62555">
        <ele>340</ele>
        <time>2017-10-07T16:37:50Z</time>
      </trkpt>
      <trkpt lat="43.32599" lon="-1.62553">
        <ele>340</ele>
        <time>2017-10-07T16:37:50Z</time>
      </trkpt>
      <trkpt lat="43.32602" lon="-1.62553">
        <ele>340</ele>
        <time>2017-10-07T16:37:50Z</time>
      </trkpt>
      <trkpt lat="43.32605" lon="-1.62555">
        <ele>340</ele>
        <time>2017-10-07T16:38:06Z</time>
      </trkpt>
      <trkpt lat="43.32609" lon="-1.62556">
        <ele>340</ele>
        <time>2017-10-07T16:38:06Z</time>
      </trkpt>
      <trkpt lat="43.32612" lon="-1.62559">
        <ele>340</ele>
        <time>2017-10-07T16:38:06Z</time>
      </trkpt>
      <trkpt lat="43.32616" lon="-1.62562">
        <ele>340</ele>
        <time>2017-10-07T16:38:06Z</time>
      </trkpt>
      <trkpt lat="43.32619" lon="-1.62563">
        <ele>340</ele>
        <time>2017-10-07T16:38:22Z</time>
      </trkpt>
      <trkpt lat="43.32621" lon="-1.62566">
        <ele>340</ele>
        <time>2017-10-07T16:38:22Z</time>
      </trkpt>
      <trkpt lat="43.32623" lon="-1.6257">
        <ele>340</ele>
        <time>2017-10-07T16:38:22Z</time>
      </trkpt>
      <trkpt lat="43.32625" lon="-1.62573">
        <ele>340</ele>
        <time>2017-10-07T16:38:23Z</time>
      </trkpt>
      <trkpt lat="43.32627" lon="-1.62573">
        <ele>324</ele>
        <time>2017-10-07T16:38:38Z</time>
      </trkpt>
      <trkpt lat="43.32631" lon="-1.62576">
        <ele>324</ele>
        <time>2017-10-07T16:38:38Z</time>
      </trkpt>
      <trkpt lat="43.32633" lon="-1.6258">
        <ele>324</ele>
        <time>2017-10-07T16:38:38Z</time>
      </trkpt>
      <trkpt lat="43.32636" lon="-1.62583">
        <ele>324</ele>
        <time>2017-10-07T16:38:39Z</time>
      </trkpt>
      <trkpt lat="43.32639" lon="-1.62587">
        <ele>324</ele>
        <time>2017-10-07T16:38:54Z</time>
      </trkpt>
      <trkpt lat="43.32643" lon="-1.62592">
        <ele>324</ele>
        <time>2017-10-07T16:38:55Z</time>
      </trkpt>
      <trkpt lat="43.32646" lon="-1.62595">
        <ele>324</ele>
        <time>2017-10-07T16:38:55Z</time>
      </trkpt>
      <trkpt lat="43.32651" lon="-1.62598">
        <ele>324</ele>
        <time>2017-10-07T16:38:55Z</time>
      </trkpt>
      <trkpt lat="43.32655" lon="-1.62601">
        <ele>324</ele>
        <time>2017-10-07T16:39:10Z</time>
      </trkpt>
      <trkpt lat="43.32658" lon="-1.62603">
        <ele>324</ele>
        <time>2017-10-07T16:39:10Z</time>
      </trkpt>
      <trkpt lat="43.32662" lon="-1.62606">
        <ele>324</ele>
        <time>2017-10-07T16:39:10Z</time>
      </trkpt>
      <trkpt lat="43.32668" lon="-1.6261">
        <ele>324</ele>
        <time>2017-10-07T16:39:11Z</time>
      </trkpt>
      <trkpt lat="43.32674" lon="-1.62614">
        <ele>324</ele>
        <time>2017-10-07T16:39:26Z</time>
      </trkpt>
      <trkpt lat="43.32678" lon="-1.62616">
        <ele>324</ele>
        <time>2017-10-07T16:39:26Z</time>
      </trkpt>
      <trkpt lat="43.32682" lon="-1.62616">
        <ele>324</ele>
        <time>2017-10-07T16:39:26Z</time>
      </trkpt>
      <trkpt lat="43.32688" lon="-1.62616">
        <ele>324</ele>
        <time>2017-10-07T16:39:26Z</time>
      </trkpt>
      <trkpt lat="43.32692" lon="-1.62615">
        <ele>324</ele>
        <time>2017-10-07T16:39:42Z</time>
      </trkpt>
      <trkpt lat="43.32696" lon="-1.62611">
        <ele>324</ele>
        <time>2017-10-07T16:39:42Z</time>
      </trkpt>
      <trkpt lat="43.32701" lon="-1.62606">
        <ele>324</ele>
        <time>2017-10-07T16:39:42Z</time>
      </trkpt>
      <trkpt lat="43.32705" lon="-1.62603">
        <ele>324</ele>
        <time>2017-10-07T16:39:42Z</time>
      </trkpt>
      <trkpt lat="43.32709" lon="-1.62601">
        <ele>323</ele>
        <time>2017-10-07T16:39:58Z</time>
      </trkpt>
      <trkpt lat="43.32715" lon="-1.62598">
        <ele>323</ele>
        <time>2017-10-07T16:39:58Z</time>
      </trkpt>
      <trkpt lat="43.3272" lon="-1.62596">
        <ele>323</ele>
        <time>2017-10-07T16:39:58Z</time>
      </trkpt>
      <trkpt lat="43.32725" lon="-1.62594">
        <ele>323</ele>
        <time>2017-10-07T16:39:59Z</time>
      </trkpt>
      <trkpt lat="43.32728" lon="-1.62591">
        <ele>323</ele>
        <time>2017-10-07T16:40:14Z</time>
      </trkpt>
      <trkpt lat="43.32731" lon="-1.6259">
        <ele>323</ele>
        <time>2017-10-07T16:40:14Z</time>
      </trkpt>
      <trkpt lat="43.32734" lon="-1.62586">
        <ele>323</ele>
        <time>2017-10-07T16:40:14Z</time>
      </trkpt>
      <trkpt lat="43.32736" lon="-1.62581">
        <ele>323</ele>
        <time>2017-10-07T16:40:15Z</time>
      </trkpt>
      <trkpt lat="43.32736" lon="-1.62579">
        <ele>323</ele>
        <time>2017-10-07T16:40:30Z</time>
      </trkpt>
      <trkpt lat="43.32739" lon="-1.62578">
        <ele>323</ele>
        <time>2017-10-07T16:40:30Z</time>
      </trkpt>
      <trkpt lat="43.32743" lon="-1.62577">
        <ele>323</ele>
        <time>2017-10-07T16:40:30Z</time>
      </trkpt>
      <trkpt lat="43.32746" lon="-1.62578">
        <ele>323</ele>
        <time>2017-10-07T16:40:31Z</time>
      </trkpt>
      <trkpt lat="43.32751" lon="-1.62576">
        <ele>323</ele>
        <time>2017-10-07T16:41:02Z</time>
      </trkpt>
      <trkpt lat="43.32752" lon="-1.62576">
        <ele>323</ele>
        <time>2017-10-07T16:41:02Z</time>
      </trkpt>
      <trkpt lat="43.32755" lon="-1.62575">
        <ele>323</ele>
        <time>2017-10-07T16:41:02Z</time>
      </trkpt>
      <trkpt lat="43.32756" lon="-1.62575">
        <ele>323</ele>
        <time>2017-10-07T16:41:02Z</time>
      </trkpt>
      <trkpt lat="43.32759" lon="-1.62574">
        <ele>323</ele>
        <time>2017-10-07T16:41:03Z</time>
      </trkpt>
      <trkpt lat="43.32763" lon="-1.62574">
        <ele>323</ele>
        <time>2017-10-07T16:41:18Z</time>
      </trkpt>
      <trkpt lat="43.32766" lon="-1.62571">
        <ele>323</ele>
        <time>2017-10-07T16:41:18Z</time>
      </trkpt>
      <trkpt lat="43.32768" lon="-1.62571">
        <ele>323</ele>
        <time>2017-10-07T16:41:18Z</time>
      </trkpt>
      <trkpt lat="43.32771" lon="-1.62568">
        <ele>323</ele>
        <time>2017-10-07T16:41:19Z</time>
      </trkpt>
      <trkpt lat="43.32774" lon="-1.62563">
        <ele>323</ele>
        <time>2017-10-07T16:41:38Z</time>
      </trkpt>
      <trkpt lat="43.32777" lon="-1.6256">
        <ele>323</ele>
        <time>2017-10-07T16:41:38Z</time>
      </trkpt>
      <trkpt lat="43.32779" lon="-1.62561">
        <ele>323</ele>
        <time>2017-10-07T16:41:38Z</time>
      </trkpt>
      <trkpt lat="43.3278" lon="-1.62562">
        <ele>323</ele>
        <time>2017-10-07T16:41:38Z</time>
      </trkpt>
      <trkpt lat="43.32783" lon="-1.62561">
        <ele>323</ele>
        <time>2017-10-07T16:41:39Z</time>
      </trkpt>
      <trkpt lat="43.32786" lon="-1.62558">
        <ele>323</ele>
        <time>2017-10-07T16:41:54Z</time>
      </trkpt>
      <trkpt lat="43.32789" lon="-1.62557">
        <ele>323</ele>
        <time>2017-10-07T16:41:54Z</time>
      </trkpt>
      <trkpt lat="43.32792" lon="-1.62556">
        <ele>323</ele>
        <time>2017-10-07T16:41:55Z</time>
      </trkpt>
      <trkpt lat="43.32796" lon="-1.62557">
        <ele>319</ele>
        <time>2017-10-07T16:41:55Z</time>
      </trkpt>
      <trkpt lat="43.328" lon="-1.62556">
        <ele>319</ele>
        <time>2017-10-07T16:42:10Z</time>
      </trkpt>
      <trkpt lat="43.32803" lon="-1.62556">
        <ele>319</ele>
        <time>2017-10-07T16:42:10Z</time>
      </trkpt>
      <trkpt lat="43.32807" lon="-1.62556">
        <ele>319</ele>
        <time>2017-10-07T16:42:10Z</time>
      </trkpt>
      <trkpt lat="43.32812" lon="-1.62556">
        <ele>319</ele>
        <time>2017-10-07T16:42:10Z</time>
      </trkpt>
      <trkpt lat="43.32817" lon="-1.62555">
        <ele>319</ele>
        <time>2017-10-07T16:42:26Z</time>
      </trkpt>
      <trkpt lat="43.32821" lon="-1.62555">
        <ele>319</ele>
        <time>2017-10-07T16:42:26Z</time>
      </trkpt>
      <trkpt lat="43.32824" lon="-1.62554">
        <ele>319</ele>
        <time>2017-10-07T16:42:26Z</time>
      </trkpt>
      <trkpt lat="43.32828" lon="-1.62555">
        <ele>319</ele>
        <time>2017-10-07T16:42:26Z</time>
      </trkpt>
      <trkpt lat="43.3283" lon="-1.62555">
        <ele>319</ele>
        <time>2017-10-07T16:42:42Z</time>
      </trkpt>
      <trkpt lat="43.32834" lon="-1.62554">
        <ele>319</ele>
        <time>2017-10-07T16:42:42Z</time>
      </trkpt>
      <trkpt lat="43.32839" lon="-1.62554">
        <ele>319</ele>
        <time>2017-10-07T16:42:42Z</time>
      </trkpt>
      <trkpt lat="43.32843" lon="-1.62557">
        <ele>319</ele>
        <time>2017-10-07T16:42:43Z</time>
      </trkpt>
      <trkpt lat="43.32847" lon="-1.62558">
        <ele>319</ele>
        <time>2017-10-07T16:42:58Z</time>
      </trkpt>
      <trkpt lat="43.32851" lon="-1.62558">
        <ele>319</ele>
        <time>2017-10-07T16:42:58Z</time>
      </trkpt>
      <trkpt lat="43.32857" lon="-1.62556">
        <ele>319</ele>
        <time>2017-10-07T16:42:58Z</time>
      </trkpt>
      <trkpt lat="43.32863" lon="-1.62555">
        <ele>319</ele>
        <time>2017-10-07T16:42:59Z</time>
      </trkpt>
      <trkpt lat="43.32867" lon="-1.62557">
        <ele>319</ele>
        <time>2017-10-07T16:43:14Z</time>
      </trkpt>
      <trkpt lat="43.32872" lon="-1.62559">
        <ele>319</ele>
        <time>2017-10-07T16:43:14Z</time>
      </trkpt>
      <trkpt lat="43.32877" lon="-1.62559">
        <ele>304</ele>
        <time>2017-10-07T16:43:14Z</time>
      </trkpt>
      <trkpt lat="43.3288" lon="-1.62559">
        <ele>304</ele>
        <time>2017-10-07T16:43:15Z</time>
      </trkpt>
      <trkpt lat="43.32886" lon="-1.6256">
        <ele>304</ele>
        <time>2017-10-07T16:43:30Z</time>
      </trkpt>
      <trkpt lat="43.32891" lon="-1.62561">
        <ele>304</ele>
        <time>2017-10-07T16:43:30Z</time>
      </trkpt>
      <trkpt lat="43.32896" lon="-1.62559">
        <ele>304</ele>
        <time>2017-10-07T16:43:30Z</time>
      </trkpt>
      <trkpt lat="43.329" lon="-1.62558">
        <ele>304</ele>
        <time>2017-10-07T16:43:30Z</time>
      </trkpt>
      <trkpt lat="43.32905" lon="-1.62557">
        <ele>304</ele>
        <time>2017-10-07T16:43:46Z</time>
      </trkpt>
      <trkpt lat="43.3291" lon="-1.62558">
        <ele>304</ele>
        <time>2017-10-07T16:43:46Z</time>
      </trkpt>
      <trkpt lat="43.32912" lon="-1.6256">
        <ele>304</ele>
        <time>2017-10-07T16:43:46Z</time>
      </trkpt>
      <trkpt lat="43.32915" lon="-1.62562">
        <ele>304</ele>
        <time>2017-10-07T16:43:46Z</time>
      </trkpt>
      <trkpt lat="43.32917" lon="-1.62567">
        <ele>304</ele>
        <time>2017-10-07T16:44:02Z</time>
      </trkpt>
      <trkpt lat="43.32917" lon="-1.62573">
        <ele>304</ele>
        <time>2017-10-07T16:44:02Z</time>
      </trkpt>
      <trkpt lat="43.32919" lon="-1.62578">
        <ele>304</ele>
        <time>2017-10-07T16:44:02Z</time>
      </trkpt>
      <trkpt lat="43.32922" lon="-1.62582">
        <ele>304</ele>
        <time>2017-10-07T16:44:02Z</time>
      </trkpt>
      <trkpt lat="43.32926" lon="-1.62584">
        <ele>304</ele>
        <time>2017-10-07T16:44:18Z</time>
      </trkpt>
      <trkpt lat="43.32929" lon="-1.62589">
        <ele>304</ele>
        <time>2017-10-07T16:44:18Z</time>
      </trkpt>
      <trkpt lat="43.3293" lon="-1.62592">
        <ele>304</ele>
        <time>2017-10-07T16:44:18Z</time>
      </trkpt>
      <trkpt lat="43.32932" lon="-1.62597">
        <ele>304</ele>
        <time>2017-10-07T16:44:18Z</time>
      </trkpt>
      <trkpt lat="43.32934" lon="-1.62601">
        <ele>304</ele>
        <time>2017-10-07T16:44:34Z</time>
      </trkpt>
      <trkpt lat="43.32938" lon="-1.62604">
        <ele>304</ele>
        <time>2017-10-07T16:44:34Z</time>
      </trkpt>
      <trkpt lat="43.32944" lon="-1.62607">
        <ele>304</ele>
        <time>2017-10-07T16:44:34Z</time>
      </trkpt>
      <trkpt lat="43.32947" lon="-1.62609">
        <ele>304</ele>
        <time>2017-10-07T16:44:35Z</time>
      </trkpt>
      <trkpt lat="43.3295" lon="-1.62614">
        <ele>304</ele>
        <time>2017-10-07T16:44:50Z</time>
      </trkpt>
      <trkpt lat="43.32954" lon="-1.62617">
        <ele>304</ele>
        <time>2017-10-07T16:44:50Z</time>
      </trkpt>
      <trkpt lat="43.32958" lon="-1.6262">
        <ele>304</ele>
        <time>2017-10-07T16:44:50Z</time>
      </trkpt>
      <trkpt lat="43.32961" lon="-1.62624">
        <ele>283</ele>
        <time>2017-10-07T16:44:50Z</time>
      </trkpt>
      <trkpt lat="43.32962" lon="-1.62628">
        <ele>292</ele>
        <time>2017-10-07T16:45:06Z</time>
      </trkpt>
      <trkpt lat="43.32964" lon="-1.62633">
        <ele>292</ele>
        <time>2017-10-07T16:45:06Z</time>
      </trkpt>
      <trkpt lat="43.32967" lon="-1.62636">
        <ele>292</ele>
        <time>2017-10-07T16:45:06Z</time>
      </trkpt>
      <trkpt lat="43.32969" lon="-1.62641">
        <ele>292</ele>
        <time>2017-10-07T16:45:06Z</time>
      </trkpt>
      <trkpt lat="43.32971" lon="-1.62645">
        <ele>292</ele>
        <time>2017-10-07T16:45:22Z</time>
      </trkpt>
      <trkpt lat="43.32974" lon="-1.6265">
        <ele>292</ele>
        <time>2017-10-07T16:45:22Z</time>
      </trkpt>
      <trkpt lat="43.32976" lon="-1.62653">
        <ele>292</ele>
        <time>2017-10-07T16:45:22Z</time>
      </trkpt>
      <trkpt lat="43.3298" lon="-1.62655">
        <ele>292</ele>
        <time>2017-10-07T16:45:22Z</time>
      </trkpt>
      <trkpt lat="43.3299" lon="-1.6266">
        <ele>292</ele>
        <time>2017-10-07T16:45:54Z</time>
      </trkpt>
      <trkpt lat="43.3299" lon="-1.62659">
        <ele>292</ele>
        <time>2017-10-07T16:45:54Z</time>
      </trkpt>
      <trkpt lat="43.3299" lon="-1.6266">
        <ele>292</ele>
        <time>2017-10-07T16:45:54Z</time>
      </trkpt>
      <trkpt lat="43.32992" lon="-1.62659">
        <ele>292</ele>
        <time>2017-10-07T16:45:54Z</time>
      </trkpt>
      <trkpt lat="43.32993" lon="-1.6266">
        <ele>292</ele>
        <time>2017-10-07T16:45:55Z</time>
      </trkpt>
      <trkpt lat="43.32995" lon="-1.62666">
        <ele>292</ele>
        <time>2017-10-07T16:46:14Z</time>
      </trkpt>
      <trkpt lat="43.32996" lon="-1.62667">
        <ele>292</ele>
        <time>2017-10-07T16:46:14Z</time>
      </trkpt>
      <trkpt lat="43.32999" lon="-1.6267">
        <ele>292</ele>
        <time>2017-10-07T16:46:14Z</time>
      </trkpt>
      <trkpt lat="43.33001" lon="-1.62675">
        <ele>292</ele>
        <time>2017-10-07T16:46:15Z</time>
      </trkpt>
      <trkpt lat="43.33002" lon="-1.62677">
        <ele>292</ele>
        <time>2017-10-07T16:46:15Z</time>
      </trkpt>
      <trkpt lat="43.33006" lon="-1.62678">
        <ele>292</ele>
        <time>2017-10-07T16:46:30Z</time>
      </trkpt>
      <trkpt lat="43.33009" lon="-1.62682">
        <ele>292</ele>
        <time>2017-10-07T16:46:30Z</time>
      </trkpt>
      <trkpt lat="43.33012" lon="-1.62684">
        <ele>292</ele>
        <time>2017-10-07T16:46:30Z</time>
      </trkpt>
      <trkpt lat="43.33014" lon="-1.62688">
        <ele>292</ele>
        <time>2017-10-07T16:46:30Z</time>
      </trkpt>
      <trkpt lat="43.33017" lon="-1.62692">
        <ele>292</ele>
        <time>2017-10-07T16:46:50Z</time>
      </trkpt>
      <trkpt lat="43.33019" lon="-1.62693">
        <ele>292</ele>
        <time>2017-10-07T16:46:50Z</time>
      </trkpt>
      <trkpt lat="43.33022" lon="-1.62695">
        <ele>292</ele>
        <time>2017-10-07T16:46:50Z</time>
      </trkpt>
      <trkpt lat="43.33024" lon="-1.62697">
        <ele>292</ele>
        <time>2017-10-07T16:46:50Z</time>
      </trkpt>
      <trkpt lat="43.33025" lon="-1.62698">
        <ele>292</ele>
        <time>2017-10-07T16:46:51Z</time>
      </trkpt>
      <trkpt lat="43.33028" lon="-1.62701">
        <ele>292</ele>
        <time>2017-10-07T16:47:06Z</time>
      </trkpt>
      <trkpt lat="43.3303" lon="-1.62705">
        <ele>292</ele>
        <time>2017-10-07T16:47:06Z</time>
      </trkpt>
      <trkpt lat="43.33032" lon="-1.62707">
        <ele>292</ele>
        <time>2017-10-07T16:47:06Z</time>
      </trkpt>
      <trkpt lat="43.33036" lon="-1.62713">
        <ele>301</ele>
        <time>2017-10-07T16:47:06Z</time>
      </trkpt>
      <trkpt lat="43.33038" lon="-1.62714">
        <ele>301</ele>
        <time>2017-10-07T16:47:22Z</time>
      </trkpt>
      <trkpt lat="43.33042" lon="-1.62717">
        <ele>272</ele>
        <time>2017-10-07T16:47:22Z</time>
      </trkpt>
      <trkpt lat="43.33043" lon="-1.62721">
        <ele>272</ele>
        <time>2017-10-07T16:47:22Z</time>
      </trkpt>
      <trkpt lat="43.33044" lon="-1.62726">
        <ele>272</ele>
        <time>2017-10-07T16:47:22Z</time>
      </trkpt>
      <trkpt lat="43.33047" lon="-1.62728">
        <ele>272</ele>
        <time>2017-10-07T16:47:38Z</time>
      </trkpt>
      <trkpt lat="43.33052" lon="-1.6273">
        <ele>272</ele>
        <time>2017-10-07T16:47:38Z</time>
      </trkpt>
      <trkpt lat="43.33056" lon="-1.62732">
        <ele>272</ele>
        <time>2017-10-07T16:47:38Z</time>
      </trkpt>
      <trkpt lat="43.3306" lon="-1.62733">
        <ele>272</ele>
        <time>2017-10-07T16:47:38Z</time>
      </trkpt>
      <trkpt lat="43.33064" lon="-1.62734">
        <ele>272</ele>
        <time>2017-10-07T16:47:54Z</time>
      </trkpt>
      <trkpt lat="43.33067" lon="-1.62736">
        <ele>272</ele>
        <time>2017-10-07T16:47:54Z</time>
      </trkpt>
      <trkpt lat="43.3307" lon="-1.6274">
        <ele>272</ele>
        <time>2017-10-07T16:47:54Z</time>
      </trkpt>
      <trkpt lat="43.33071" lon="-1.62744">
        <ele>272</ele>
        <time>2017-10-07T16:47:55Z</time>
      </trkpt>
      <trkpt lat="43.33075" lon="-1.62749">
        <ele>272</ele>
        <time>2017-10-07T16:48:14Z</time>
      </trkpt>
      <trkpt lat="43.33076" lon="-1.62751">
        <ele>272</ele>
        <time>2017-10-07T16:48:14Z</time>
      </trkpt>
      <trkpt lat="43.33078" lon="-1.62751">
        <ele>272</ele>
        <time>2017-10-07T16:48:14Z</time>
      </trkpt>
      <trkpt lat="43.33081" lon="-1.62752">
        <ele>272</ele>
        <time>2017-10-07T16:48:14Z</time>
      </trkpt>
      <trkpt lat="43.33083" lon="-1.62755">
        <ele>272</ele>
        <time>2017-10-07T16:48:15Z</time>
      </trkpt>
      <trkpt lat="43.33086" lon="-1.62756">
        <ele>272</ele>
        <time>2017-10-07T16:48:30Z</time>
      </trkpt>
      <trkpt lat="43.33089" lon="-1.6276">
        <ele>272</ele>
        <time>2017-10-07T16:48:30Z</time>
      </trkpt>
      <trkpt lat="43.3309" lon="-1.62765">
        <ele>272</ele>
        <time>2017-10-07T16:48:30Z</time>
      </trkpt>
      <trkpt lat="43.33093" lon="-1.62768">
        <ele>272</ele>
        <time>2017-10-07T16:48:30Z</time>
      </trkpt>
      <trkpt lat="43.33096" lon="-1.62771">
        <ele>272</ele>
        <time>2017-10-07T16:48:46Z</time>
      </trkpt>
      <trkpt lat="43.33099" lon="-1.62773">
        <ele>272</ele>
        <time>2017-10-07T16:48:46Z</time>
      </trkpt>
      <trkpt lat="43.33102" lon="-1.62777">
        <ele>272</ele>
        <time>2017-10-07T16:48:46Z</time>
      </trkpt>
      <trkpt lat="43.33105" lon="-1.62781">
        <ele>272</ele>
        <time>2017-10-07T16:48:47Z</time>
      </trkpt>
      <trkpt lat="43.33107" lon="-1.62784">
        <ele>272</ele>
        <time>2017-10-07T16:49:02Z</time>
      </trkpt>
      <trkpt lat="43.33109" lon="-1.62786">
        <ele>272</ele>
        <time>2017-10-07T16:49:02Z</time>
      </trkpt>
      <trkpt lat="43.33114" lon="-1.62787">
        <ele>272</ele>
        <time>2017-10-07T16:49:02Z</time>
      </trkpt>
      <trkpt lat="43.33116" lon="-1.62792">
        <ele>279</ele>
        <time>2017-10-07T16:49:03Z</time>
      </trkpt>
      <trkpt lat="43.33118" lon="-1.62795">
        <ele>279</ele>
        <time>2017-10-07T16:49:18Z</time>
      </trkpt>
      <trkpt lat="43.3312" lon="-1.62799">
        <ele>279</ele>
        <time>2017-10-07T16:49:18Z</time>
      </trkpt>
      <trkpt lat="43.33122" lon="-1.62802">
        <ele>279</ele>
        <time>2017-10-07T16:49:18Z</time>
      </trkpt>
      <trkpt lat="43.33124" lon="-1.62806">
        <ele>279</ele>
        <time>2017-10-07T16:49:18Z</time>
      </trkpt>
      <trkpt lat="43.33128" lon="-1.62808">
        <ele>249</ele>
        <time>2017-10-07T16:49:34Z</time>
      </trkpt>
      <trkpt lat="43.3313" lon="-1.62811">
        <ele>249</ele>
        <time>2017-10-07T16:49:34Z</time>
      </trkpt>
      <trkpt lat="43.33133" lon="-1.62812">
        <ele>249</ele>
        <time>2017-10-07T16:49:34Z</time>
      </trkpt>
      <trkpt lat="43.33138" lon="-1.62812">
        <ele>249</ele>
        <time>2017-10-07T16:49:34Z</time>
      </trkpt>
      <trkpt lat="43.33142" lon="-1.6281">
        <ele>249</ele>
        <time>2017-10-07T16:49:54Z</time>
      </trkpt>
      <trkpt lat="43.33142" lon="-1.62805">
        <ele>249</ele>
        <time>2017-10-07T16:49:54Z</time>
      </trkpt>
      <trkpt lat="43.33142" lon="-1.62801">
        <ele>249</ele>
        <time>2017-10-07T16:49:54Z</time>
      </trkpt>
      <trkpt lat="43.33143" lon="-1.62798">
        <ele>249</ele>
        <time>2017-10-07T16:49:55Z</time>
      </trkpt>
      <trkpt lat="43.33143" lon="-1.62794">
        <ele>249</ele>
        <time>2017-10-07T16:49:55Z</time>
      </trkpt>
      <trkpt lat="43.33145" lon="-1.62789">
        <ele>240</ele>
        <time>2017-10-07T16:50:10Z</time>
      </trkpt>
      <trkpt lat="43.33146" lon="-1.62782">
        <ele>240</ele>
        <time>2017-10-07T16:50:10Z</time>
      </trkpt>
      <trkpt lat="43.33145" lon="-1.62778">
        <ele>240</ele>
        <time>2017-10-07T16:50:10Z</time>
      </trkpt>
      <trkpt lat="43.33146" lon="-1.62773">
        <ele>240</ele>
        <time>2017-10-07T16:50:11Z</time>
      </trkpt>
      <trkpt lat="43.33145" lon="-1.62769">
        <ele>240</ele>
        <time>2017-10-07T16:50:26Z</time>
      </trkpt>
      <trkpt lat="43.33145" lon="-1.62763">
        <ele>240</ele>
        <time>2017-10-07T16:50:26Z</time>
      </trkpt>
      <trkpt lat="43.33147" lon="-1.62757">
        <ele>240</ele>
        <time>2017-10-07T16:50:26Z</time>
      </trkpt>
      <trkpt lat="43.33147" lon="-1.62752">
        <ele>240</ele>
        <time>2017-10-07T16:50:27Z</time>
      </trkpt>
      <trkpt lat="43.33145" lon="-1.62748">
        <ele>240</ele>
        <time>2017-10-07T16:50:42Z</time>
      </trkpt>
      <trkpt lat="43.33144" lon="-1.62743">
        <ele>240</ele>
        <time>2017-10-07T16:50:42Z</time>
      </trkpt>
      <trkpt lat="43.33145" lon="-1.62739">
        <ele>240</ele>
        <time>2017-10-07T16:50:42Z</time>
      </trkpt>
      <trkpt lat="43.33143" lon="-1.62734">
        <ele>240</ele>
        <time>2017-10-07T16:50:42Z</time>
      </trkpt>
      <trkpt lat="43.33142" lon="-1.62732">
        <ele>240</ele>
        <time>2017-10-07T16:50:58Z</time>
      </trkpt>
      <trkpt lat="43.33141" lon="-1.62727">
        <ele>240</ele>
        <time>2017-10-07T16:50:58Z</time>
      </trkpt>
      <trkpt lat="43.3314" lon="-1.62724">
        <ele>240</ele>
        <time>2017-10-07T16:50:58Z</time>
      </trkpt>
      <trkpt lat="43.33138" lon="-1.62719">
        <ele>240</ele>
        <time>2017-10-07T16:50:59Z</time>
      </trkpt>
      <trkpt lat="43.33135" lon="-1.62715">
        <ele>240</ele>
        <time>2017-10-07T16:51:14Z</time>
      </trkpt>
      <trkpt lat="43.33133" lon="-1.6271">
        <ele>240</ele>
        <time>2017-10-07T16:51:14Z</time>
      </trkpt>
      <trkpt lat="43.33132" lon="-1.62707">
        <ele>224</ele>
        <time>2017-10-07T16:51:14Z</time>
      </trkpt>
      <trkpt lat="43.33133" lon="-1.62701">
        <ele>224</ele>
        <time>2017-10-07T16:51:15Z</time>
      </trkpt>
      <trkpt lat="43.33132" lon="-1.62697">
        <ele>224</ele>
        <time>2017-10-07T16:51:30Z</time>
      </trkpt>
      <trkpt lat="43.3313" lon="-1.62691">
        <ele>224</ele>
        <time>2017-10-07T16:51:30Z</time>
      </trkpt>
      <trkpt lat="43.3313" lon="-1.62689">
        <ele>224</ele>
        <time>2017-10-07T16:51:30Z</time>
      </trkpt>
      <trkpt lat="43.33129" lon="-1.62685">
        <ele>224</ele>
        <time>2017-10-07T16:51:31Z</time>
      </trkpt>
      <trkpt lat="43.33128" lon="-1.62678">
        <ele>224</ele>
        <time>2017-10-07T16:51:50Z</time>
      </trkpt>
      <trkpt lat="43.33127" lon="-1.62675">
        <ele>224</ele>
        <time>2017-10-07T16:51:50Z</time>
      </trkpt>
      <trkpt lat="43.33127" lon="-1.62672">
        <ele>224</ele>
        <time>2017-10-07T16:51:50Z</time>
      </trkpt>
      <trkpt lat="43.33127" lon="-1.62669">
        <ele>224</ele>
        <time>2017-10-07T16:51:50Z</time>
      </trkpt>
      <trkpt lat="43.33125" lon="-1.62664">
        <ele>224</ele>
        <time>2017-10-07T16:51:51Z</time>
      </trkpt>
      <trkpt lat="43.33124" lon="-1.6266">
        <ele>264</ele>
        <time>2017-10-07T16:52:06Z</time>
      </trkpt>
      <trkpt lat="43.33124" lon="-1.62654">
        <ele>264</ele>
        <time>2017-10-07T16:52:06Z</time>
      </trkpt>
      <trkpt lat="43.33124" lon="-1.62649">
        <ele>264</ele>
        <time>2017-10-07T16:52:06Z</time>
      </trkpt>
      <trkpt lat="43.33124" lon="-1.62643">
        <ele>264</ele>
        <time>2017-10-07T16:52:06Z</time>
      </trkpt>
      <trkpt lat="43.33125" lon="-1.62639">
        <ele>224</ele>
        <time>2017-10-07T16:52:26Z</time>
      </trkpt>
      <trkpt lat="43.33125" lon="-1.62635">
        <ele>264</ele>
        <time>2017-10-07T16:52:26Z</time>
      </trkpt>
      <trkpt lat="43.33125" lon="-1.62632">
        <ele>224</ele>
        <time>2017-10-07T16:52:26Z</time>
      </trkpt>
      <trkpt lat="43.33127" lon="-1.62627">
        <ele>224</ele>
        <time>2017-10-07T16:52:26Z</time>
      </trkpt>
      <trkpt lat="43.33127" lon="-1.6262">
        <ele>208</ele>
        <time>2017-10-07T16:52:27Z</time>
      </trkpt>
      <trkpt lat="43.33127" lon="-1.62616">
        <ele>208</ele>
        <time>2017-10-07T16:52:42Z</time>
      </trkpt>
      <trkpt lat="43.33127" lon="-1.62613">
        <ele>208</ele>
        <time>2017-10-07T16:52:42Z</time>
      </trkpt>
      <trkpt lat="43.33125" lon="-1.62609">
        <ele>208</ele>
        <time>2017-10-07T16:52:42Z</time>
      </trkpt>
      <trkpt lat="43.33123" lon="-1.62604">
        <ele>250</ele>
        <time>2017-10-07T16:52:43Z</time>
      </trkpt>
      <trkpt lat="43.33118" lon="-1.626">
        <ele>250</ele>
        <time>2017-10-07T16:53:02Z</time>
      </trkpt>
      <trkpt lat="43.33115" lon="-1.62595">
        <ele>250</ele>
        <time>2017-10-07T16:53:02Z</time>
      </trkpt>
      <trkpt lat="43.33113" lon="-1.62594">
        <ele>250</ele>
        <time>2017-10-07T16:53:02Z</time>
      </trkpt>
      <trkpt lat="43.33111" lon="-1.62592">
        <ele>250</ele>
        <time>2017-10-07T16:53:03Z</time>
      </trkpt>
      <trkpt lat="43.3311" lon="-1.62591">
        <ele>250</ele>
        <time>2017-10-07T16:53:03Z</time>
      </trkpt>
      <trkpt lat="43.33109" lon="-1.62584">
        <ele>250</ele>
        <time>2017-10-07T16:53:18Z</time>
      </trkpt>
      <trkpt lat="43.33109" lon="-1.6258">
        <ele>250</ele>
        <time>2017-10-07T16:53:18Z</time>
      </trkpt>
      <trkpt lat="43.33111" lon="-1.62576">
        <ele>250</ele>
        <time>2017-10-07T16:53:19Z</time>
      </trkpt>
      <trkpt lat="43.33113" lon="-1.62572">
        <ele>250</ele>
        <time>2017-10-07T16:53:19Z</time>
      </trkpt>
      <trkpt lat="43.33115" lon="-1.62568">
        <ele>250</ele>
        <time>2017-10-07T16:53:34Z</time>
      </trkpt>
      <trkpt lat="43.33119" lon="-1.62562">
        <ele>250</ele>
        <time>2017-10-07T16:53:34Z</time>
      </trkpt>
      <trkpt lat="43.33123" lon="-1.62558">
        <ele>250</ele>
        <time>2017-10-07T16:53:34Z</time>
      </trkpt>
      <trkpt lat="43.33123" lon="-1.62556">
        <ele>250</ele>
        <time>2017-10-07T16:53:35Z</time>
      </trkpt>
      <trkpt lat="43.33129" lon="-1.62545">
        <ele>208</ele>
        <time>2017-10-07T16:54:10Z</time>
      </trkpt>
      <trkpt lat="43.3313" lon="-1.62544">
        <ele>208</ele>
        <time>2017-10-07T16:54:10Z</time>
      </trkpt>
      <trkpt lat="43.33132" lon="-1.6254">
        <ele>204</ele>
        <time>2017-10-07T16:54:11Z</time>
      </trkpt>
      <trkpt lat="43.33133" lon="-1.62537">
        <ele>204</ele>
        <time>2017-10-07T16:54:11Z</time>
      </trkpt>
      <trkpt lat="43.33133" lon="-1.62534">
        <ele>204</ele>
        <time>2017-10-07T16:54:11Z</time>
      </trkpt>
      <trkpt lat="43.33133" lon="-1.62529">
        <ele>204</ele>
        <time>2017-10-07T16:54:30Z</time>
      </trkpt>
      <trkpt lat="43.33137" lon="-1.62527">
        <ele>204</ele>
        <time>2017-10-07T16:54:30Z</time>
      </trkpt>
      <trkpt lat="43.33138" lon="-1.62525">
        <ele>204</ele>
        <time>2017-10-07T16:54:30Z</time>
      </trkpt>
      <trkpt lat="43.33137" lon="-1.62523">
        <ele>204</ele>
        <time>2017-10-07T16:54:31Z</time>
      </trkpt>
      <trkpt lat="43.33138" lon="-1.62519">
        <ele>204</ele>
        <time>2017-10-07T16:54:31Z</time>
      </trkpt>
      <trkpt lat="43.33137" lon="-1.62512">
        <ele>204</ele>
        <time>2017-10-07T16:54:54Z</time>
      </trkpt>
      <trkpt lat="43.33137" lon="-1.62509">
        <ele>204</ele>
        <time>2017-10-07T16:54:54Z</time>
      </trkpt>
      <trkpt lat="43.33137" lon="-1.62505">
        <ele>204</ele>
        <time>2017-10-07T16:54:54Z</time>
      </trkpt>
      <trkpt lat="43.33138" lon="-1.62503">
        <ele>204</ele>
        <time>2017-10-07T16:54:55Z</time>
      </trkpt>
      <trkpt lat="43.3314" lon="-1.62501">
        <ele>204</ele>
        <time>2017-10-07T16:54:55Z</time>
      </trkpt>
      <trkpt lat="43.3314" lon="-1.62496">
        <ele>204</ele>
        <time>2017-10-07T16:55:10Z</time>
      </trkpt>
      <trkpt lat="43.33141" lon="-1.62491">
        <ele>204</ele>
        <time>2017-10-07T16:55:10Z</time>
      </trkpt>
      <trkpt lat="43.33141" lon="-1.62485">
        <ele>204</ele>
        <time>2017-10-07T16:55:10Z</time>
      </trkpt>
      <trkpt lat="43.33142" lon="-1.6248">
        <ele>204</ele>
        <time>2017-10-07T16:55:10Z</time>
      </trkpt>
      <trkpt lat="43.33142" lon="-1.62477">
        <ele>204</ele>
        <time>2017-10-07T16:55:26Z</time>
      </trkpt>
      <trkpt lat="43.33144" lon="-1.62472">
        <ele>204</ele>
        <time>2017-10-07T16:55:26Z</time>
      </trkpt>
      <trkpt lat="43.33144" lon="-1.62468">
        <ele>204</ele>
        <time>2017-10-07T16:55:26Z</time>
      </trkpt>
      <trkpt lat="43.33146" lon="-1.62464">
        <ele>204</ele>
        <time>2017-10-07T16:55:27Z</time>
      </trkpt>
      <trkpt lat="43.33148" lon="-1.62458">
        <ele>201</ele>
        <time>2017-10-07T16:55:42Z</time>
      </trkpt>
      <trkpt lat="43.3315" lon="-1.62454">
        <ele>201</ele>
        <time>2017-10-07T16:55:42Z</time>
      </trkpt>
      <trkpt lat="43.33152" lon="-1.6245">
        <ele>201</ele>
        <time>2017-10-07T16:55:42Z</time>
      </trkpt>
      <trkpt lat="43.33152" lon="-1.62445">
        <ele>201</ele>
        <time>2017-10-07T16:55:43Z</time>
      </trkpt>
      <trkpt lat="43.33152" lon="-1.62441">
        <ele>201</ele>
        <time>2017-10-07T16:55:58Z</time>
      </trkpt>
      <trkpt lat="43.33153" lon="-1.62435">
        <ele>201</ele>
        <time>2017-10-07T16:55:58Z</time>
      </trkpt>
      <trkpt lat="43.33157" lon="-1.62431">
        <ele>201</ele>
        <time>2017-10-07T16:55:58Z</time>
      </trkpt>
      <trkpt lat="43.3316" lon="-1.62429">
        <ele>201</ele>
        <time>2017-10-07T16:55:59Z</time>
      </trkpt>
      <trkpt lat="43.33162" lon="-1.62429">
        <ele>201</ele>
        <time>2017-10-07T16:56:14Z</time>
      </trkpt>
      <trkpt lat="43.33165" lon="-1.62432">
        <ele>201</ele>
        <time>2017-10-07T16:56:14Z</time>
      </trkpt>
      <trkpt lat="43.33169" lon="-1.62433">
        <ele>201</ele>
        <time>2017-10-07T16:56:14Z</time>
      </trkpt>
      <trkpt lat="43.33173" lon="-1.62434">
        <ele>201</ele>
        <time>2017-10-07T16:56:15Z</time>
      </trkpt>
      <trkpt lat="43.3318" lon="-1.62443">
        <ele>201</ele>
        <time>2017-10-07T16:57:14Z</time>
      </trkpt>
      <trkpt lat="43.3318" lon="-1.62444">
        <ele>201</ele>
        <time>2017-10-07T16:57:14Z</time>
      </trkpt>
      <trkpt lat="43.33181" lon="-1.62444">
        <ele>201</ele>
        <time>2017-10-07T16:57:14Z</time>
      </trkpt>
      <trkpt lat="43.33182" lon="-1.62444">
        <ele>201</ele>
        <time>2017-10-07T16:57:14Z</time>
      </trkpt>
      <trkpt lat="43.33184" lon="-1.62442">
        <ele>201</ele>
        <time>2017-10-07T16:57:15Z</time>
      </trkpt>
      <trkpt lat="43.33187" lon="-1.62445">
        <ele>201</ele>
        <time>2017-10-07T16:58:58Z</time>
      </trkpt>
      <trkpt lat="43.33188" lon="-1.62446">
        <ele>201</ele>
        <time>2017-10-07T16:58:58Z</time>
      </trkpt>
      <trkpt lat="43.33188" lon="-1.62446">
        <ele>201</ele>
        <time>2017-10-07T16:58:58Z</time>
      </trkpt>
      <trkpt lat="43.33189" lon="-1.62446">
        <ele>201</ele>
        <time>2017-10-07T16:58:58Z</time>
      </trkpt>
      <trkpt lat="43.33192" lon="-1.62449">
        <ele>201</ele>
        <time>2017-10-07T16:58:59Z</time>
      </trkpt>
      <trkpt lat="43.33195" lon="-1.62448">
        <ele>201</ele>
        <time>2017-10-07T16:59:18Z</time>
      </trkpt>
      <trkpt lat="43.33199" lon="-1.62448">
        <ele>201</ele>
        <time>2017-10-07T16:59:18Z</time>
      </trkpt>
      <trkpt lat="43.33203" lon="-1.62449">
        <ele>201</ele>
        <time>2017-10-07T16:59:18Z</time>
      </trkpt>
      <trkpt lat="43.33203" lon="-1.62449">
        <ele>201</ele>
        <time>2017-10-07T16:59:18Z</time>
      </trkpt>
      <trkpt lat="43.33204" lon="-1.62449">
        <ele>201</ele>
        <time>2017-10-07T16:59:18Z</time>
      </trkpt>
      <trkpt lat="43.33209" lon="-1.62447">
        <ele>175</ele>
        <time>2017-10-07T16:59:42Z</time>
      </trkpt>
      <trkpt lat="43.33211" lon="-1.62449">
        <ele>175</ele>
        <time>2017-10-07T16:59:42Z</time>
      </trkpt>
      <trkpt lat="43.33211" lon="-1.62451">
        <ele>175</ele>
        <time>2017-10-07T16:59:42Z</time>
      </trkpt>
      <trkpt lat="43.33213" lon="-1.62451">
        <ele>175</ele>
        <time>2017-10-07T16:59:42Z</time>
      </trkpt>
      <trkpt lat="43.33216" lon="-1.62454">
        <ele>175</ele>
        <time>2017-10-07T16:59:42Z</time>
      </trkpt>
      <trkpt lat="43.3322" lon="-1.6246">
        <ele>176</ele>
        <time>2017-10-07T16:59:58Z</time>
      </trkpt>
      <trkpt lat="43.3322" lon="-1.62469">
        <ele>176</ele>
        <time>2017-10-07T16:59:58Z</time>
      </trkpt>
      <trkpt lat="43.33219" lon="-1.62475">
        <ele>176</ele>
        <time>2017-10-07T16:59:58Z</time>
      </trkpt>
      <trkpt lat="43.33219" lon="-1.62481">
        <ele>176</ele>
        <time>2017-10-07T16:59:59Z</time>
      </trkpt>
      <trkpt lat="43.33218" lon="-1.62488">
        <ele>176</ele>
        <time>2017-10-07T17:00:14Z</time>
      </trkpt>
      <trkpt lat="43.33216" lon="-1.62492">
        <ele>176</ele>
        <time>2017-10-07T17:00:14Z</time>
      </trkpt>
      <trkpt lat="43.33214" lon="-1.62499">
        <ele>176</ele>
        <time>2017-10-07T17:00:14Z</time>
      </trkpt>
      <trkpt lat="43.33214" lon="-1.62504">
        <ele>176</ele>
        <time>2017-10-07T17:00:15Z</time>
      </trkpt>
      <trkpt lat="43.33214" lon="-1.62509">
        <ele>176</ele>
        <time>2017-10-07T17:00:30Z</time>
      </trkpt>
      <trkpt lat="43.33212" lon="-1.62514">
        <ele>176</ele>
        <time>2017-10-07T17:00:30Z</time>
      </trkpt>
      <trkpt lat="43.33211" lon="-1.62518">
        <ele>176</ele>
        <time>2017-10-07T17:00:30Z</time>
      </trkpt>
      <trkpt lat="43.3321" lon="-1.62524">
        <ele>176</ele>
        <time>2017-10-07T17:00:30Z</time>
      </trkpt>
      <trkpt lat="43.33212" lon="-1.62531">
        <ele>176</ele>
        <time>2017-10-07T17:00:46Z</time>
      </trkpt>
      <trkpt lat="43.33217" lon="-1.62531">
        <ele>176</ele>
        <time>2017-10-07T17:00:46Z</time>
      </trkpt>
      <trkpt lat="43.3322" lon="-1.62529">
        <ele>176</ele>
        <time>2017-10-07T17:00:46Z</time>
      </trkpt>
      <trkpt lat="43.33223" lon="-1.62528">
        <ele>176</ele>
        <time>2017-10-07T17:00:46Z</time>
      </trkpt>
      <trkpt lat="43.33223" lon="-1.62523">
        <ele>176</ele>
        <time>2017-10-07T17:01:06Z</time>
      </trkpt>
      <trkpt lat="43.33225" lon="-1.62518">
        <ele>176</ele>
        <time>2017-10-07T17:01:06Z</time>
      </trkpt>
      <trkpt lat="43.33226" lon="-1.62519">
        <ele>176</ele>
        <time>2017-10-07T17:01:06Z</time>
      </trkpt>
      <trkpt lat="43.3323" lon="-1.62518">
        <ele>176</ele>
        <time>2017-10-07T17:01:06Z</time>
      </trkpt>
      <trkpt lat="43.33234" lon="-1.62515">
        <ele>176</ele>
        <time>2017-10-07T17:01:06Z</time>
      </trkpt>
      <trkpt lat="43.33237" lon="-1.62511">
        <ele>176</ele>
        <time>2017-10-07T17:01:22Z</time>
      </trkpt>
      <trkpt lat="43.3324" lon="-1.62507">
        <ele>176</ele>
        <time>2017-10-07T17:01:22Z</time>
      </trkpt>
      <trkpt lat="43.33245" lon="-1.62504">
        <ele>176</ele>
        <time>2017-10-07T17:01:22Z</time>
      </trkpt>
      <trkpt lat="43.33249" lon="-1.625">
        <ele>176</ele>
        <time>2017-10-07T17:01:22Z</time>
      </trkpt>
      <trkpt lat="43.33252" lon="-1.62498">
        <ele>176</ele>
        <time>2017-10-07T17:01:38Z</time>
      </trkpt>
      <trkpt lat="43.33255" lon="-1.62494">
        <ele>176</ele>
        <time>2017-10-07T17:01:38Z</time>
      </trkpt>
      <trkpt lat="43.33259" lon="-1.62491">
        <ele>176</ele>
        <time>2017-10-07T17:01:39Z</time>
      </trkpt>
      <trkpt lat="43.33262" lon="-1.62487">
        <ele>176</ele>
        <time>2017-10-07T17:01:39Z</time>
      </trkpt>
      <trkpt lat="43.33265" lon="-1.62483">
        <ele>176</ele>
        <time>2017-10-07T17:01:58Z</time>
      </trkpt>
      <trkpt lat="43.33266" lon="-1.62486">
        <ele>176</ele>
        <time>2017-10-07T17:01:58Z</time>
      </trkpt>
      <trkpt lat="43.33269" lon="-1.62485">
        <ele>176</ele>
        <time>2017-10-07T17:01:58Z</time>
      </trkpt>
      <trkpt lat="43.33269" lon="-1.62485">
        <ele>176</ele>
        <time>2017-10-07T17:01:58Z</time>
      </trkpt>
      <trkpt lat="43.33275" lon="-1.62481">
        <ele>176</ele>
        <time>2017-10-07T17:01:58Z</time>
      </trkpt>
      <trkpt lat="43.33278" lon="-1.62478">
        <ele>176</ele>
        <time>2017-10-07T17:02:14Z</time>
      </trkpt>
      <trkpt lat="43.33281" lon="-1.62475">
        <ele>176</ele>
        <time>2017-10-07T17:02:14Z</time>
      </trkpt>
      <trkpt lat="43.33282" lon="-1.62472">
        <ele>176</ele>
        <time>2017-10-07T17:02:14Z</time>
      </trkpt>
      <trkpt lat="43.33284" lon="-1.62468">
        <ele>176</ele>
        <time>2017-10-07T17:02:14Z</time>
      </trkpt>
      <trkpt lat="43.33288" lon="-1.62469">
        <ele>176</ele>
        <time>2017-10-07T17:02:30Z</time>
      </trkpt>
      <trkpt lat="43.33293" lon="-1.62469">
        <ele>160</ele>
        <time>2017-10-07T17:02:30Z</time>
      </trkpt>
      <trkpt lat="43.33295" lon="-1.62469">
        <ele>160</ele>
        <time>2017-10-07T17:02:30Z</time>
      </trkpt>
      <trkpt lat="43.33299" lon="-1.62466">
        <ele>160</ele>
        <time>2017-10-07T17:02:30Z</time>
      </trkpt>
      <trkpt lat="43.33301" lon="-1.62466">
        <ele>160</ele>
        <time>2017-10-07T17:02:50Z</time>
      </trkpt>
      <trkpt lat="43.33304" lon="-1.62463">
        <ele>160</ele>
        <time>2017-10-07T17:02:50Z</time>
      </trkpt>
      <trkpt lat="43.33307" lon="-1.62462">
        <ele>160</ele>
        <time>2017-10-07T17:02:50Z</time>
      </trkpt>
      <trkpt lat="43.33308" lon="-1.62463">
        <ele>160</ele>
        <time>2017-10-07T17:02:51Z</time>
      </trkpt>
      <trkpt lat="43.33311" lon="-1.62461">
        <ele>160</ele>
        <time>2017-10-07T17:02:51Z</time>
      </trkpt>
      <trkpt lat="43.33315" lon="-1.62459">
        <ele>160</ele>
        <time>2017-10-07T17:03:06Z</time>
      </trkpt>
      <trkpt lat="43.33323" lon="-1.6246">
        <ele>160</ele>
        <time>2017-10-07T17:03:06Z</time>
      </trkpt>
      <trkpt lat="43.33327" lon="-1.62462">
        <ele>160</ele>
        <time>2017-10-07T17:03:06Z</time>
      </trkpt>
      <trkpt lat="43.33332" lon="-1.62461">
        <ele>160</ele>
        <time>2017-10-07T17:03:06Z</time>
      </trkpt>
      <trkpt lat="43.33335" lon="-1.6246">
        <ele>160</ele>
        <time>2017-10-07T17:03:22Z</time>
      </trkpt>
      <trkpt lat="43.33339" lon="-1.62456">
        <ele>153</ele>
        <time>2017-10-07T17:03:22Z</time>
      </trkpt>
      <trkpt lat="43.33341" lon="-1.62451">
        <ele>153</ele>
        <time>2017-10-07T17:03:22Z</time>
      </trkpt>
      <trkpt lat="43.33342" lon="-1.62444">
        <ele>153</ele>
        <time>2017-10-07T17:03:22Z</time>
      </trkpt>
      <trkpt lat="43.33341" lon="-1.62437">
        <ele>153</ele>
        <time>2017-10-07T17:03:38Z</time>
      </trkpt>
      <trkpt lat="43.33342" lon="-1.62432">
        <ele>153</ele>
        <time>2017-10-07T17:03:38Z</time>
      </trkpt>
      <trkpt lat="43.33343" lon="-1.62427">
        <ele>153</ele>
        <time>2017-10-07T17:03:38Z</time>
      </trkpt>
      <trkpt lat="43.33344" lon="-1.62422">
        <ele>153</ele>
        <time>2017-10-07T17:03:38Z</time>
      </trkpt>
      <trkpt lat="43.33346" lon="-1.62415">
        <ele>153</ele>
        <time>2017-10-07T17:04:02Z</time>
      </trkpt>
      <trkpt lat="43.33347" lon="-1.62412">
        <ele>153</ele>
        <time>2017-10-07T17:04:02Z</time>
      </trkpt>
      <trkpt lat="43.33348" lon="-1.62409">
        <ele>153</ele>
        <time>2017-10-07T17:04:02Z</time>
      </trkpt>
      <trkpt lat="43.33347" lon="-1.62408">
        <ele>153</ele>
        <time>2017-10-07T17:04:02Z</time>
      </trkpt>
      <trkpt lat="43.33345" lon="-1.62405">
        <ele>153</ele>
        <time>2017-10-07T17:04:02Z</time>
      </trkpt>
      <trkpt lat="43.33343" lon="-1.62399">
        <ele>153</ele>
        <time>2017-10-07T17:04:30Z</time>
      </trkpt>
      <trkpt lat="43.33342" lon="-1.62395">
        <ele>153</ele>
        <time>2017-10-07T17:04:30Z</time>
      </trkpt>
      <trkpt lat="43.33343" lon="-1.62392">
        <ele>153</ele>
        <time>2017-10-07T17:04:30Z</time>
      </trkpt>
      <trkpt lat="43.33345" lon="-1.6239">
        <ele>153</ele>
        <time>2017-10-07T17:04:30Z</time>
      </trkpt>
      <trkpt lat="43.33346" lon="-1.62388">
        <ele>153</ele>
        <time>2017-10-07T17:04:30Z</time>
      </trkpt>
      <trkpt lat="43.33352" lon="-1.6239">
        <ele>153</ele>
        <time>2017-10-07T17:04:54Z</time>
      </trkpt>
      <trkpt lat="43.33354" lon="-1.62387">
        <ele>153</ele>
        <time>2017-10-07T17:04:54Z</time>
      </trkpt>
      <trkpt lat="43.33355" lon="-1.62386">
        <ele>153</ele>
        <time>2017-10-07T17:04:54Z</time>
      </trkpt>
      <trkpt lat="43.33356" lon="-1.62381">
        <ele>153</ele>
        <time>2017-10-07T17:04:54Z</time>
      </trkpt>
      <trkpt lat="43.33356" lon="-1.62378">
        <ele>153</ele>
        <time>2017-10-07T17:04:54Z</time>
      </trkpt>
      <trkpt lat="43.33355" lon="-1.62371">
        <ele>140</ele>
        <time>2017-10-07T17:05:14Z</time>
      </trkpt>
      <trkpt lat="43.33355" lon="-1.62367">
        <ele>140</ele>
        <time>2017-10-07T17:05:14Z</time>
      </trkpt>
      <trkpt lat="43.33355" lon="-1.62364">
        <ele>140</ele>
        <time>2017-10-07T17:05:14Z</time>
      </trkpt>
      <trkpt lat="43.33356" lon="-1.62359">
        <ele>140</ele>
        <time>2017-10-07T17:05:14Z</time>
      </trkpt>
      <trkpt lat="43.3336" lon="-1.62355">
        <ele>140</ele>
        <time>2017-10-07T17:05:14Z</time>
      </trkpt>
      <trkpt lat="43.33363" lon="-1.62351">
        <ele>140</ele>
        <time>2017-10-07T17:05:30Z</time>
      </trkpt>
      <trkpt lat="43.33365" lon="-1.62352">
        <ele>140</ele>
        <time>2017-10-07T17:05:30Z</time>
      </trkpt>
      <trkpt lat="43.33369" lon="-1.62355">
        <ele>140</ele>
        <time>2017-10-07T17:05:30Z</time>
      </trkpt>
      <trkpt lat="43.33375" lon="-1.62359">
        <ele>140</ele>
        <time>2017-10-07T17:05:31Z</time>
      </trkpt>
      <trkpt lat="43.33379" lon="-1.62362">
        <ele>123</ele>
        <time>2017-10-07T17:05:46Z</time>
      </trkpt>
      <trkpt lat="43.33383" lon="-1.62364">
        <ele>123</ele>
        <time>2017-10-07T17:05:46Z</time>
      </trkpt>
      <trkpt lat="43.33386" lon="-1.62365">
        <ele>123</ele>
        <time>2017-10-07T17:05:46Z</time>
      </trkpt>
      <trkpt lat="43.33391" lon="-1.62366">
        <ele>123</ele>
        <time>2017-10-07T17:05:46Z</time>
      </trkpt>
      <trkpt lat="43.33396" lon="-1.6236">
        <ele>123</ele>
        <time>2017-10-07T17:07:10Z</time>
      </trkpt>
      <trkpt lat="43.33395" lon="-1.62357">
        <ele>123</ele>
        <time>2017-10-07T17:07:10Z</time>
      </trkpt>
      <trkpt lat="43.33393" lon="-1.62352">
        <ele>123</ele>
        <time>2017-10-07T17:07:10Z</time>
      </trkpt>
      <trkpt lat="43.33396" lon="-1.6235">
        <ele>123</ele>
        <time>2017-10-07T17:07:10Z</time>
      </trkpt>
      <trkpt lat="43.33397" lon="-1.6235">
        <ele>123</ele>
        <time>2017-10-07T17:07:11Z</time>
      </trkpt>
    </trkseg>
  </trk>
</gpx>